<?xml version="1.0" encoding="UTF-8" standalone="no" ?>
<gpx xmlns="http://www.topografix.com/GPX/1/1" xmlns:xsi="http://www.w3.org/2001/XMLSchema-instance" xsi:schemaLocation="http://www.topografix.com/GPX/1/1 http://www.topografix.com/GPX/1/1/gpx.xsd" version="1.1" creator="VisuGPX - https://www.visugpx.com">
  <metadata>
    <name>ski Combe Benite Est</name>
  </metadata>
  <trk>
    <name><![CDATA[ski Combe Benite Est]]></name>
    <trkseg>
      <trkpt lat="45.5804" lon="6.65249">
        <ele>1412.5999755859</ele>
        <time>2015-11-27T09:05:34.000Z</time>
      </trkpt>
      <trkpt lat="45.58039" lon="6.65249">
        <ele>1412.5999755859</ele>
        <time>2015-11-27T09:05:43.000Z</time>
      </trkpt>
      <trkpt lat="45.5804" lon="6.65244">
        <ele>1412.5999755859</ele>
        <time>2015-11-27T09:05:50.000Z</time>
      </trkpt>
      <trkpt lat="45.58039" lon="6.65244">
        <ele>1412.4000244141</ele>
        <time>2015-11-27T09:06:01.000Z</time>
      </trkpt>
      <trkpt lat="45.58039" lon="6.65244">
        <ele>1412.1999511719</ele>
        <time>2015-11-27T09:06:16.000Z</time>
      </trkpt>
      <trkpt lat="45.58039" lon="6.65244">
        <ele>1412</ele>
        <time>2015-11-27T09:06:31.000Z</time>
      </trkpt>
      <trkpt lat="45.58039" lon="6.65244">
        <ele>1412.1999511719</ele>
        <time>2015-11-27T09:06:40.000Z</time>
      </trkpt>
      <trkpt lat="45.5804" lon="6.65246">
        <ele>1412</ele>
        <time>2015-11-27T09:06:54.000Z</time>
      </trkpt>
      <trkpt lat="45.58039" lon="6.65247">
        <ele>1411.5999755859</ele>
        <time>2015-11-27T09:07:01.000Z</time>
      </trkpt>
      <trkpt lat="45.58039" lon="6.65247">
        <ele>1412.1999511719</ele>
        <time>2015-11-27T09:07:15.000Z</time>
      </trkpt>
      <trkpt lat="45.58039" lon="6.65247">
        <ele>1412</ele>
        <time>2015-11-27T09:07:18.000Z</time>
      </trkpt>
      <trkpt lat="45.58039" lon="6.65247">
        <ele>1412</ele>
        <time>2015-11-27T09:07:27.000Z</time>
      </trkpt>
      <trkpt lat="45.58039" lon="6.65247">
        <ele>1412</ele>
        <time>2015-11-27T09:07:49.000Z</time>
      </trkpt>
      <trkpt lat="45.58039" lon="6.65247">
        <ele>1412</ele>
        <time>2015-11-27T09:08:05.000Z</time>
      </trkpt>
      <trkpt lat="45.58039" lon="6.65247">
        <ele>1412</ele>
        <time>2015-11-27T09:08:14.000Z</time>
      </trkpt>
      <trkpt lat="45.5804" lon="6.65246">
        <ele>1412</ele>
        <time>2015-11-27T09:08:23.000Z</time>
      </trkpt>
      <trkpt lat="45.5804" lon="6.65246">
        <ele>1412</ele>
        <time>2015-11-27T09:08:43.000Z</time>
      </trkpt>
      <trkpt lat="45.58038" lon="6.65248">
        <ele>1411.8000488281</ele>
        <time>2015-11-27T09:08:49.000Z</time>
      </trkpt>
      <trkpt lat="45.58038" lon="6.65248">
        <ele>1411.5999755859</ele>
        <time>2015-11-27T09:08:52.000Z</time>
      </trkpt>
      <trkpt lat="45.58039" lon="6.65248">
        <ele>1411.8000488281</ele>
        <time>2015-11-27T09:09:00.000Z</time>
      </trkpt>
      <trkpt lat="45.58044" lon="6.65244">
        <ele>1412.1999511719</ele>
        <time>2015-11-27T09:09:07.000Z</time>
      </trkpt>
      <trkpt lat="45.58046" lon="6.65245">
        <ele>1412.5999755859</ele>
        <time>2015-11-27T09:09:12.000Z</time>
      </trkpt>
      <trkpt lat="45.58046" lon="6.65245">
        <ele>1412.5999755859</ele>
        <time>2015-11-27T09:09:15.000Z</time>
      </trkpt>
      <trkpt lat="45.5805" lon="6.65243">
        <ele>1412.8000488281</ele>
        <time>2015-11-27T09:09:21.000Z</time>
      </trkpt>
      <trkpt lat="45.58052" lon="6.65243">
        <ele>1412.8000488281</ele>
        <time>2015-11-27T09:09:22.000Z</time>
      </trkpt>
      <trkpt lat="45.58058" lon="6.65238">
        <ele>1413.1999511719</ele>
        <time>2015-11-27T09:09:27.000Z</time>
      </trkpt>
      <trkpt lat="45.58061" lon="6.65234">
        <ele>1413.5999755859</ele>
        <time>2015-11-27T09:09:30.000Z</time>
      </trkpt>
      <trkpt lat="45.58062" lon="6.65231">
        <ele>1414</ele>
        <time>2015-11-27T09:09:33.000Z</time>
      </trkpt>
      <trkpt lat="45.58066" lon="6.6523">
        <ele>1414.5999755859</ele>
        <time>2015-11-27T09:09:39.000Z</time>
      </trkpt>
      <trkpt lat="45.58066" lon="6.6523">
        <ele>1414.8000488281</ele>
        <time>2015-11-27T09:09:42.000Z</time>
      </trkpt>
      <trkpt lat="45.58066" lon="6.6523">
        <ele>1415</ele>
        <time>2015-11-27T09:09:47.000Z</time>
      </trkpt>
      <trkpt lat="45.58066" lon="6.6523">
        <ele>1415.1999511719</ele>
        <time>2015-11-27T09:09:58.000Z</time>
      </trkpt>
      <trkpt lat="45.58066" lon="6.6523">
        <ele>1414.8000488281</ele>
        <time>2015-11-27T09:10:14.000Z</time>
      </trkpt>
      <trkpt lat="45.58066" lon="6.6523">
        <ele>1414.8000488281</ele>
        <time>2015-11-27T09:10:26.000Z</time>
      </trkpt>
      <trkpt lat="45.58066" lon="6.6523">
        <ele>1414.5999755859</ele>
        <time>2015-11-27T09:10:40.000Z</time>
      </trkpt>
      <trkpt lat="45.58066" lon="6.6523">
        <ele>1414.8000488281</ele>
        <time>2015-11-27T09:10:54.000Z</time>
      </trkpt>
      <trkpt lat="45.58067" lon="6.65231">
        <ele>1414.8000488281</ele>
        <time>2015-11-27T09:11:04.000Z</time>
      </trkpt>
      <trkpt lat="45.58069" lon="6.65231">
        <ele>1415</ele>
        <time>2015-11-27T09:11:11.000Z</time>
      </trkpt>
      <trkpt lat="45.58075" lon="6.65226">
        <ele>1415.4000244141</ele>
        <time>2015-11-27T09:11:18.000Z</time>
      </trkpt>
      <trkpt lat="45.58076" lon="6.65225">
        <ele>1415.5999755859</ele>
        <time>2015-11-27T09:11:19.000Z</time>
      </trkpt>
      <trkpt lat="45.58082" lon="6.65223">
        <ele>1416.4000244141</ele>
        <time>2015-11-27T09:11:26.000Z</time>
      </trkpt>
      <trkpt lat="45.58082" lon="6.65223">
        <ele>1416.5999755859</ele>
        <time>2015-11-27T09:11:29.000Z</time>
      </trkpt>
      <trkpt lat="45.58082" lon="6.65223">
        <ele>1416.5999755859</ele>
        <time>2015-11-27T09:11:35.000Z</time>
      </trkpt>
      <trkpt lat="45.58083" lon="6.65222">
        <ele>1416.8000488281</ele>
        <time>2015-11-27T09:11:47.000Z</time>
      </trkpt>
      <trkpt lat="45.58089" lon="6.65219">
        <ele>1417.4000244141</ele>
        <time>2015-11-27T09:11:54.000Z</time>
      </trkpt>
      <trkpt lat="45.58089" lon="6.65219">
        <ele>1417.5999755859</ele>
        <time>2015-11-27T09:11:56.000Z</time>
      </trkpt>
      <trkpt lat="45.58094" lon="6.65214">
        <ele>1418</ele>
        <time>2015-11-27T09:12:01.000Z</time>
      </trkpt>
      <trkpt lat="45.58102" lon="6.65212">
        <ele>1418.8000488281</ele>
        <time>2015-11-27T09:12:07.000Z</time>
      </trkpt>
      <trkpt lat="45.58108" lon="6.65206">
        <ele>1420</ele>
        <time>2015-11-27T09:12:14.000Z</time>
      </trkpt>
      <trkpt lat="45.58113" lon="6.65203">
        <ele>1421.1999511719</ele>
        <time>2015-11-27T09:12:20.000Z</time>
      </trkpt>
      <trkpt lat="45.58118" lon="6.65199">
        <ele>1422.1999511719</ele>
        <time>2015-11-27T09:12:26.000Z</time>
      </trkpt>
      <trkpt lat="45.58118" lon="6.65198">
        <ele>1422.4000244141</ele>
        <time>2015-11-27T09:12:27.000Z</time>
      </trkpt>
      <trkpt lat="45.58123" lon="6.65194">
        <ele>1423.4000244141</ele>
        <time>2015-11-27T09:12:34.000Z</time>
      </trkpt>
      <trkpt lat="45.58125" lon="6.65193">
        <ele>1424.4000244141</ele>
        <time>2015-11-27T09:12:41.000Z</time>
      </trkpt>
      <trkpt lat="45.58125" lon="6.65193">
        <ele>1424.4000244141</ele>
        <time>2015-11-27T09:12:42.000Z</time>
      </trkpt>
      <trkpt lat="45.58132" lon="6.65188">
        <ele>1425.1999511719</ele>
        <time>2015-11-27T09:12:50.000Z</time>
      </trkpt>
      <trkpt lat="45.58134" lon="6.65187">
        <ele>1425.5999755859</ele>
        <time>2015-11-27T09:12:52.000Z</time>
      </trkpt>
      <trkpt lat="45.58136" lon="6.65186">
        <ele>1426.4000244141</ele>
        <time>2015-11-27T09:12:58.000Z</time>
      </trkpt>
      <trkpt lat="45.58136" lon="6.65186">
        <ele>1426.5999755859</ele>
        <time>2015-11-27T09:13:00.000Z</time>
      </trkpt>
      <trkpt lat="45.58136" lon="6.65186">
        <ele>1426.5999755859</ele>
        <time>2015-11-27T09:13:11.000Z</time>
      </trkpt>
      <trkpt lat="45.5813" lon="6.65189">
        <ele>1426.4000244141</ele>
        <time>2015-11-27T09:13:23.000Z</time>
      </trkpt>
      <trkpt lat="45.58128" lon="6.6519">
        <ele>1426.4000244141</ele>
        <time>2015-11-27T09:13:24.000Z</time>
      </trkpt>
      <trkpt lat="45.58118" lon="6.65196">
        <ele>1425.4000244141</ele>
        <time>2015-11-27T09:13:29.000Z</time>
      </trkpt>
      <trkpt lat="45.58111" lon="6.65201">
        <ele>1424.4000244141</ele>
        <time>2015-11-27T09:13:32.000Z</time>
      </trkpt>
      <trkpt lat="45.58103" lon="6.65207">
        <ele>1423.1999511719</ele>
        <time>2015-11-27T09:13:35.000Z</time>
      </trkpt>
      <trkpt lat="45.58094" lon="6.65213">
        <ele>1421.8000488281</ele>
        <time>2015-11-27T09:13:38.000Z</time>
      </trkpt>
      <trkpt lat="45.58085" lon="6.65219">
        <ele>1420.5999755859</ele>
        <time>2015-11-27T09:13:41.000Z</time>
      </trkpt>
      <trkpt lat="45.5808" lon="6.65224">
        <ele>1419.4000244141</ele>
        <time>2015-11-27T09:13:43.000Z</time>
      </trkpt>
      <trkpt lat="45.58074" lon="6.65229">
        <ele>1418.1999511719</ele>
        <time>2015-11-27T09:13:46.000Z</time>
      </trkpt>
      <trkpt lat="45.58069" lon="6.65231">
        <ele>1417.5999755859</ele>
        <time>2015-11-27T09:13:48.000Z</time>
      </trkpt>
      <trkpt lat="45.58067" lon="6.65232">
        <ele>1417.1999511719</ele>
        <time>2015-11-27T09:13:49.000Z</time>
      </trkpt>
      <trkpt lat="45.58065" lon="6.65233">
        <ele>1416</ele>
        <time>2015-11-27T09:13:52.000Z</time>
      </trkpt>
      <trkpt lat="45.58065" lon="6.65232">
        <ele>1415.5999755859</ele>
        <time>2015-11-27T09:13:53.000Z</time>
      </trkpt>
      <trkpt lat="45.58064" lon="6.65232">
        <ele>1415</ele>
        <time>2015-11-27T09:13:54.000Z</time>
      </trkpt>
      <trkpt lat="45.58065" lon="6.65232">
        <ele>1413.8000488281</ele>
        <time>2015-11-27T09:13:56.000Z</time>
      </trkpt>
      <trkpt lat="45.58065" lon="6.65232">
        <ele>1415</ele>
        <time>2015-11-27T09:13:59.000Z</time>
      </trkpt>
      <trkpt lat="45.58064" lon="6.65231">
        <ele>1415.1999511719</ele>
        <time>2015-11-27T09:14:05.000Z</time>
      </trkpt>
      <trkpt lat="45.58063" lon="6.6523">
        <ele>1415</ele>
        <time>2015-11-27T09:14:06.000Z</time>
      </trkpt>
      <trkpt lat="45.5806" lon="6.65232">
        <ele>1415</ele>
        <time>2015-11-27T09:14:09.000Z</time>
      </trkpt>
      <trkpt lat="45.58052" lon="6.65241">
        <ele>1414.1999511719</ele>
        <time>2015-11-27T09:14:16.000Z</time>
      </trkpt>
      <trkpt lat="45.58047" lon="6.65245">
        <ele>1413.8000488281</ele>
        <time>2015-11-27T09:14:19.000Z</time>
      </trkpt>
      <trkpt lat="45.58042" lon="6.65247">
        <ele>1413</ele>
        <time>2015-11-27T09:14:22.000Z</time>
      </trkpt>
      <trkpt lat="45.5804" lon="6.65248">
        <ele>1412.8000488281</ele>
        <time>2015-11-27T09:14:25.000Z</time>
      </trkpt>
      <trkpt lat="45.5804" lon="6.65247">
        <ele>1412</ele>
        <time>2015-11-27T09:14:29.000Z</time>
      </trkpt>
      <trkpt lat="45.5804" lon="6.65247">
        <ele>1411.5999755859</ele>
        <time>2015-11-27T09:14:32.000Z</time>
      </trkpt>
      <trkpt lat="45.5804" lon="6.65247">
        <ele>1412</ele>
        <time>2015-11-27T09:14:39.000Z</time>
      </trkpt>
      <trkpt lat="45.58044" lon="6.65244">
        <ele>1412</ele>
        <time>2015-11-27T09:14:45.000Z</time>
      </trkpt>
      <trkpt lat="45.58053" lon="6.65238">
        <ele>1412.8000488281</ele>
        <time>2015-11-27T09:14:52.000Z</time>
      </trkpt>
      <trkpt lat="45.58055" lon="6.65237">
        <ele>1412.8000488281</ele>
        <time>2015-11-27T09:14:53.000Z</time>
      </trkpt>
      <trkpt lat="45.58056" lon="6.65236">
        <ele>1413</ele>
        <time>2015-11-27T09:14:54.000Z</time>
      </trkpt>
      <trkpt lat="45.5806" lon="6.65231">
        <ele>1413.4000244141</ele>
        <time>2015-11-27T09:14:57.000Z</time>
      </trkpt>
      <trkpt lat="45.58061" lon="6.65229">
        <ele>1413.8000488281</ele>
        <time>2015-11-27T09:15:00.000Z</time>
      </trkpt>
      <trkpt lat="45.58063" lon="6.65229">
        <ele>1413.8000488281</ele>
        <time>2015-11-27T09:15:02.000Z</time>
      </trkpt>
      <trkpt lat="45.58064" lon="6.65229">
        <ele>1414.4000244141</ele>
        <time>2015-11-27T09:15:07.000Z</time>
      </trkpt>
      <trkpt lat="45.58067" lon="6.6523">
        <ele>1414.8000488281</ele>
        <time>2015-11-27T09:15:14.000Z</time>
      </trkpt>
      <trkpt lat="45.58067" lon="6.6523">
        <ele>1414.8000488281</ele>
        <time>2015-11-27T09:15:15.000Z</time>
      </trkpt>
      <trkpt lat="45.58068" lon="6.65231">
        <ele>1415.1999511719</ele>
        <time>2015-11-27T09:15:26.000Z</time>
      </trkpt>
      <trkpt lat="45.58068" lon="6.65231">
        <ele>1415.1999511719</ele>
        <time>2015-11-27T09:15:39.000Z</time>
      </trkpt>
      <trkpt lat="45.58067" lon="6.65231">
        <ele>1415.1999511719</ele>
        <time>2015-11-27T09:15:51.000Z</time>
      </trkpt>
      <trkpt lat="45.58067" lon="6.65231">
        <ele>1415.4000244141</ele>
        <time>2015-11-27T09:16:03.000Z</time>
      </trkpt>
      <trkpt lat="45.58071" lon="6.65229">
        <ele>1415.5999755859</ele>
        <time>2015-11-27T09:16:08.000Z</time>
      </trkpt>
      <trkpt lat="45.58076" lon="6.65226">
        <ele>1415.5999755859</ele>
        <time>2015-11-27T09:16:10.000Z</time>
      </trkpt>
      <trkpt lat="45.58082" lon="6.65222">
        <ele>1416</ele>
        <time>2015-11-27T09:16:14.000Z</time>
      </trkpt>
      <trkpt lat="45.58087" lon="6.65219">
        <ele>1416.5999755859</ele>
        <time>2015-11-27T09:16:17.000Z</time>
      </trkpt>
      <trkpt lat="45.58091" lon="6.65216">
        <ele>1417.4000244141</ele>
        <time>2015-11-27T09:16:21.000Z</time>
      </trkpt>
      <trkpt lat="45.58095" lon="6.65214">
        <ele>1418</ele>
        <time>2015-11-27T09:16:24.000Z</time>
      </trkpt>
      <trkpt lat="45.58098" lon="6.65212">
        <ele>1418.5999755859</ele>
        <time>2015-11-27T09:16:27.000Z</time>
      </trkpt>
      <trkpt lat="45.58102" lon="6.65208">
        <ele>1419.5999755859</ele>
        <time>2015-11-27T09:16:32.000Z</time>
      </trkpt>
      <trkpt lat="45.58103" lon="6.65207">
        <ele>1419.5999755859</ele>
        <time>2015-11-27T09:16:33.000Z</time>
      </trkpt>
      <trkpt lat="45.58109" lon="6.65203">
        <ele>1420.8000488281</ele>
        <time>2015-11-27T09:16:38.000Z</time>
      </trkpt>
      <trkpt lat="45.5811" lon="6.65202">
        <ele>1421</ele>
        <time>2015-11-27T09:16:39.000Z</time>
      </trkpt>
      <trkpt lat="45.58116" lon="6.65198">
        <ele>1421.8000488281</ele>
        <time>2015-11-27T09:16:43.000Z</time>
      </trkpt>
      <trkpt lat="45.58118" lon="6.65196">
        <ele>1422.5999755859</ele>
        <time>2015-11-27T09:16:45.000Z</time>
      </trkpt>
      <trkpt lat="45.58121" lon="6.65194">
        <ele>1423</ele>
        <time>2015-11-27T09:16:47.000Z</time>
      </trkpt>
      <trkpt lat="45.58125" lon="6.65189">
        <ele>1423.8000488281</ele>
        <time>2015-11-27T09:16:51.000Z</time>
      </trkpt>
      <trkpt lat="45.58126" lon="6.65189">
        <ele>1424</ele>
        <time>2015-11-27T09:16:52.000Z</time>
      </trkpt>
      <trkpt lat="45.5813" lon="6.65186">
        <ele>1425.1999511719</ele>
        <time>2015-11-27T09:16:57.000Z</time>
      </trkpt>
      <trkpt lat="45.58133" lon="6.65184">
        <ele>1426</ele>
        <time>2015-11-27T09:17:00.000Z</time>
      </trkpt>
      <trkpt lat="45.58134" lon="6.65184">
        <ele>1426.1999511719</ele>
        <time>2015-11-27T09:17:01.000Z</time>
      </trkpt>
      <trkpt lat="45.5814" lon="6.6518">
        <ele>1427.1999511719</ele>
        <time>2015-11-27T09:17:07.000Z</time>
      </trkpt>
      <trkpt lat="45.58142" lon="6.65179">
        <ele>1427.4000244141</ele>
        <time>2015-11-27T09:17:08.000Z</time>
      </trkpt>
      <trkpt lat="45.58147" lon="6.65176">
        <ele>1428.4000244141</ele>
        <time>2015-11-27T09:17:12.000Z</time>
      </trkpt>
      <trkpt lat="45.58151" lon="6.65173">
        <ele>1429.5999755859</ele>
        <time>2015-11-27T09:17:17.000Z</time>
      </trkpt>
      <trkpt lat="45.58156" lon="6.65171">
        <ele>1430.5999755859</ele>
        <time>2015-11-27T09:17:22.000Z</time>
      </trkpt>
      <trkpt lat="45.58158" lon="6.65171">
        <ele>1431.1999511719</ele>
        <time>2015-11-27T09:17:24.000Z</time>
      </trkpt>
      <trkpt lat="45.58161" lon="6.6517">
        <ele>1432</ele>
        <time>2015-11-27T09:17:27.000Z</time>
      </trkpt>
      <trkpt lat="45.58168" lon="6.65167">
        <ele>1433</ele>
        <time>2015-11-27T09:17:32.000Z</time>
      </trkpt>
      <trkpt lat="45.58169" lon="6.65167">
        <ele>1433.4000244141</ele>
        <time>2015-11-27T09:17:33.000Z</time>
      </trkpt>
      <trkpt lat="45.58173" lon="6.65166">
        <ele>1434.4000244141</ele>
        <time>2015-11-27T09:17:37.000Z</time>
      </trkpt>
      <trkpt lat="45.58176" lon="6.65165">
        <ele>1434.8000488281</ele>
        <time>2015-11-27T09:17:39.000Z</time>
      </trkpt>
      <trkpt lat="45.58178" lon="6.65164">
        <ele>1435.5999755859</ele>
        <time>2015-11-27T09:17:42.000Z</time>
      </trkpt>
      <trkpt lat="45.5818" lon="6.65164">
        <ele>1436.5999755859</ele>
        <time>2015-11-27T09:17:46.000Z</time>
      </trkpt>
      <trkpt lat="45.58181" lon="6.65164">
        <ele>1436.8000488281</ele>
        <time>2015-11-27T09:17:47.000Z</time>
      </trkpt>
      <trkpt lat="45.58185" lon="6.65162">
        <ele>1437.8000488281</ele>
        <time>2015-11-27T09:17:51.000Z</time>
      </trkpt>
      <trkpt lat="45.58191" lon="6.6516">
        <ele>1438.8000488281</ele>
        <time>2015-11-27T09:17:56.000Z</time>
      </trkpt>
      <trkpt lat="45.58195" lon="6.65157">
        <ele>1440</ele>
        <time>2015-11-27T09:18:00.000Z</time>
      </trkpt>
      <trkpt lat="45.58202" lon="6.65153">
        <ele>1441.1999511719</ele>
        <time>2015-11-27T09:18:06.000Z</time>
      </trkpt>
      <trkpt lat="45.58204" lon="6.65151">
        <ele>1441.4000244141</ele>
        <time>2015-11-27T09:18:08.000Z</time>
      </trkpt>
      <trkpt lat="45.58207" lon="6.65148">
        <ele>1442.1999511719</ele>
        <time>2015-11-27T09:18:12.000Z</time>
      </trkpt>
      <trkpt lat="45.58214" lon="6.65148">
        <ele>1443.1999511719</ele>
        <time>2015-11-27T09:18:17.000Z</time>
      </trkpt>
      <trkpt lat="45.58222" lon="6.65149">
        <ele>1444.1999511719</ele>
        <time>2015-11-27T09:18:23.000Z</time>
      </trkpt>
      <trkpt lat="45.58224" lon="6.6515">
        <ele>1444.4000244141</ele>
        <time>2015-11-27T09:18:24.000Z</time>
      </trkpt>
      <trkpt lat="45.58231" lon="6.6515">
        <ele>1445.4000244141</ele>
        <time>2015-11-27T09:18:30.000Z</time>
      </trkpt>
      <trkpt lat="45.58234" lon="6.6515">
        <ele>1445.8000488281</ele>
        <time>2015-11-27T09:18:32.000Z</time>
      </trkpt>
      <trkpt lat="45.58237" lon="6.65151">
        <ele>1446.5999755859</ele>
        <time>2015-11-27T09:18:35.000Z</time>
      </trkpt>
      <trkpt lat="45.58245" lon="6.65153">
        <ele>1447.5999755859</ele>
        <time>2015-11-27T09:18:42.000Z</time>
      </trkpt>
      <trkpt lat="45.5825" lon="6.65155">
        <ele>1448.8000488281</ele>
        <time>2015-11-27T09:18:47.000Z</time>
      </trkpt>
      <trkpt lat="45.58253" lon="6.65156">
        <ele>1449.1999511719</ele>
        <time>2015-11-27T09:18:50.000Z</time>
      </trkpt>
      <trkpt lat="45.58256" lon="6.65156">
        <ele>1450</ele>
        <time>2015-11-27T09:18:53.000Z</time>
      </trkpt>
      <trkpt lat="45.58262" lon="6.65156">
        <ele>1450.8000488281</ele>
        <time>2015-11-27T09:18:58.000Z</time>
      </trkpt>
      <trkpt lat="45.58264" lon="6.65156">
        <ele>1451</ele>
        <time>2015-11-27T09:18:59.000Z</time>
      </trkpt>
      <trkpt lat="45.58267" lon="6.6515">
        <ele>1451.8000488281</ele>
        <time>2015-11-27T09:19:05.000Z</time>
      </trkpt>
      <trkpt lat="45.58267" lon="6.65148">
        <ele>1452</ele>
        <time>2015-11-27T09:19:06.000Z</time>
      </trkpt>
      <trkpt lat="45.58264" lon="6.65145">
        <ele>1452.8000488281</ele>
        <time>2015-11-27T09:19:09.000Z</time>
      </trkpt>
      <trkpt lat="45.58263" lon="6.65145">
        <ele>1453</ele>
        <time>2015-11-27T09:19:10.000Z</time>
      </trkpt>
      <trkpt lat="45.58262" lon="6.65145">
        <ele>1453.1999511719</ele>
        <time>2015-11-27T09:19:11.000Z</time>
      </trkpt>
      <trkpt lat="45.58259" lon="6.65142">
        <ele>1453.8000488281</ele>
        <time>2015-11-27T09:19:15.000Z</time>
      </trkpt>
      <trkpt lat="45.58256" lon="6.6514">
        <ele>1454.1999511719</ele>
        <time>2015-11-27T09:19:17.000Z</time>
      </trkpt>
      <trkpt lat="45.58252" lon="6.65137">
        <ele>1455</ele>
        <time>2015-11-27T09:19:21.000Z</time>
      </trkpt>
      <trkpt lat="45.58251" lon="6.65136">
        <ele>1455.4000244141</ele>
        <time>2015-11-27T09:19:23.000Z</time>
      </trkpt>
      <trkpt lat="45.58245" lon="6.65132">
        <ele>1456</ele>
        <time>2015-11-27T09:19:27.000Z</time>
      </trkpt>
      <trkpt lat="45.58242" lon="6.65127">
        <ele>1456.5999755859</ele>
        <time>2015-11-27T09:19:30.000Z</time>
      </trkpt>
      <trkpt lat="45.5824" lon="6.65122">
        <ele>1457.1999511719</ele>
        <time>2015-11-27T09:19:33.000Z</time>
      </trkpt>
      <trkpt lat="45.58239" lon="6.65119">
        <ele>1457.5999755859</ele>
        <time>2015-11-27T09:19:36.000Z</time>
      </trkpt>
      <trkpt lat="45.58236" lon="6.65114">
        <ele>1458.1999511719</ele>
        <time>2015-11-27T09:19:39.000Z</time>
      </trkpt>
      <trkpt lat="45.58233" lon="6.65109">
        <ele>1458.8000488281</ele>
        <time>2015-11-27T09:19:42.000Z</time>
      </trkpt>
      <trkpt lat="45.58231" lon="6.65105">
        <ele>1459.1999511719</ele>
        <time>2015-11-27T09:19:45.000Z</time>
      </trkpt>
      <trkpt lat="45.58229" lon="6.65101">
        <ele>1459.8000488281</ele>
        <time>2015-11-27T09:19:48.000Z</time>
      </trkpt>
      <trkpt lat="45.58226" lon="6.65098">
        <ele>1460.4000244141</ele>
        <time>2015-11-27T09:19:51.000Z</time>
      </trkpt>
      <trkpt lat="45.58224" lon="6.65095">
        <ele>1460.8000488281</ele>
        <time>2015-11-27T09:19:53.000Z</time>
      </trkpt>
      <trkpt lat="45.5822" lon="6.65092">
        <ele>1461.4000244141</ele>
        <time>2015-11-27T09:19:56.000Z</time>
      </trkpt>
      <trkpt lat="45.58219" lon="6.65092">
        <ele>1461.8000488281</ele>
        <time>2015-11-27T09:19:57.000Z</time>
      </trkpt>
      <trkpt lat="45.58216" lon="6.6509">
        <ele>1462.4000244141</ele>
        <time>2015-11-27T09:20:01.000Z</time>
      </trkpt>
      <trkpt lat="45.58214" lon="6.65089">
        <ele>1462.8000488281</ele>
        <time>2015-11-27T09:20:03.000Z</time>
      </trkpt>
      <trkpt lat="45.5821" lon="6.65087">
        <ele>1463.8000488281</ele>
        <time>2015-11-27T09:20:08.000Z</time>
      </trkpt>
      <trkpt lat="45.58209" lon="6.65086">
        <ele>1464</ele>
        <time>2015-11-27T09:20:09.000Z</time>
      </trkpt>
      <trkpt lat="45.58205" lon="6.65079">
        <ele>1465</ele>
        <time>2015-11-27T09:20:14.000Z</time>
      </trkpt>
      <trkpt lat="45.58205" lon="6.65079">
        <ele>1465.4000244141</ele>
        <time>2015-11-27T09:20:15.000Z</time>
      </trkpt>
      <trkpt lat="45.58201" lon="6.65075">
        <ele>1466.1999511719</ele>
        <time>2015-11-27T09:20:19.000Z</time>
      </trkpt>
      <trkpt lat="45.582" lon="6.65074">
        <ele>1466.4000244141</ele>
        <time>2015-11-27T09:20:20.000Z</time>
      </trkpt>
      <trkpt lat="45.58197" lon="6.65072">
        <ele>1467</ele>
        <time>2015-11-27T09:20:22.000Z</time>
      </trkpt>
      <trkpt lat="45.58195" lon="6.6507">
        <ele>1467.1999511719</ele>
        <time>2015-11-27T09:20:24.000Z</time>
      </trkpt>
      <trkpt lat="45.58192" lon="6.6507">
        <ele>1468</ele>
        <time>2015-11-27T09:20:27.000Z</time>
      </trkpt>
      <trkpt lat="45.58189" lon="6.65068">
        <ele>1468.4000244141</ele>
        <time>2015-11-27T09:20:29.000Z</time>
      </trkpt>
      <trkpt lat="45.58187" lon="6.65068">
        <ele>1468.5999755859</ele>
        <time>2015-11-27T09:20:30.000Z</time>
      </trkpt>
      <trkpt lat="45.58184" lon="6.65067">
        <ele>1468.8000488281</ele>
        <time>2015-11-27T09:20:33.000Z</time>
      </trkpt>
      <trkpt lat="45.58178" lon="6.65066">
        <ele>1469.5999755859</ele>
        <time>2015-11-27T09:20:37.000Z</time>
      </trkpt>
      <trkpt lat="45.58176" lon="6.65065">
        <ele>1470</ele>
        <time>2015-11-27T09:20:39.000Z</time>
      </trkpt>
      <trkpt lat="45.58172" lon="6.65062">
        <ele>1470.8000488281</ele>
        <time>2015-11-27T09:20:43.000Z</time>
      </trkpt>
      <trkpt lat="45.5817" lon="6.65061">
        <ele>1470.8000488281</ele>
        <time>2015-11-27T09:20:44.000Z</time>
      </trkpt>
      <trkpt lat="45.58166" lon="6.65059">
        <ele>1471.8000488281</ele>
        <time>2015-11-27T09:20:47.000Z</time>
      </trkpt>
      <trkpt lat="45.58163" lon="6.65057">
        <ele>1472.4000244141</ele>
        <time>2015-11-27T09:20:50.000Z</time>
      </trkpt>
      <trkpt lat="45.58159" lon="6.65055">
        <ele>1473</ele>
        <time>2015-11-27T09:20:54.000Z</time>
      </trkpt>
      <trkpt lat="45.58158" lon="6.65053">
        <ele>1473.1999511719</ele>
        <time>2015-11-27T09:20:56.000Z</time>
      </trkpt>
      <trkpt lat="45.58153" lon="6.65051">
        <ele>1474.1999511719</ele>
        <time>2015-11-27T09:21:00.000Z</time>
      </trkpt>
      <trkpt lat="45.58152" lon="6.6505">
        <ele>1474.1999511719</ele>
        <time>2015-11-27T09:21:01.000Z</time>
      </trkpt>
      <trkpt lat="45.58145" lon="6.65048">
        <ele>1475</ele>
        <time>2015-11-27T09:21:07.000Z</time>
      </trkpt>
      <trkpt lat="45.58143" lon="6.65048">
        <ele>1475.1999511719</ele>
        <time>2015-11-27T09:21:08.000Z</time>
      </trkpt>
      <trkpt lat="45.58137" lon="6.65043">
        <ele>1475.8000488281</ele>
        <time>2015-11-27T09:21:13.000Z</time>
      </trkpt>
      <trkpt lat="45.58134" lon="6.65038">
        <ele>1476.4000244141</ele>
        <time>2015-11-27T09:21:17.000Z</time>
      </trkpt>
      <trkpt lat="45.58131" lon="6.65034">
        <ele>1477</ele>
        <time>2015-11-27T09:21:21.000Z</time>
      </trkpt>
      <trkpt lat="45.58128" lon="6.65033">
        <ele>1477.4000244141</ele>
        <time>2015-11-27T09:21:24.000Z</time>
      </trkpt>
      <trkpt lat="45.58123" lon="6.65032">
        <ele>1477.8000488281</ele>
        <time>2015-11-27T09:21:29.000Z</time>
      </trkpt>
      <trkpt lat="45.58118" lon="6.65032">
        <ele>1478.4000244141</ele>
        <time>2015-11-27T09:21:34.000Z</time>
      </trkpt>
      <trkpt lat="45.58113" lon="6.65033">
        <ele>1478.5999755859</ele>
        <time>2015-11-27T09:21:37.000Z</time>
      </trkpt>
      <trkpt lat="45.58105" lon="6.65032">
        <ele>1478.5999755859</ele>
        <time>2015-11-27T09:21:43.000Z</time>
      </trkpt>
      <trkpt lat="45.58104" lon="6.65032">
        <ele>1478.8000488281</ele>
        <time>2015-11-27T09:21:44.000Z</time>
      </trkpt>
      <trkpt lat="45.58098" lon="6.6503">
        <ele>1479.5999755859</ele>
        <time>2015-11-27T09:21:48.000Z</time>
      </trkpt>
      <trkpt lat="45.58092" lon="6.65027">
        <ele>1480.4000244141</ele>
        <time>2015-11-27T09:21:53.000Z</time>
      </trkpt>
      <trkpt lat="45.5809" lon="6.65026">
        <ele>1480.5999755859</ele>
        <time>2015-11-27T09:21:54.000Z</time>
      </trkpt>
      <trkpt lat="45.58086" lon="6.65024">
        <ele>1481.5999755859</ele>
        <time>2015-11-27T09:21:58.000Z</time>
      </trkpt>
      <trkpt lat="45.5808" lon="6.65018">
        <ele>1482.8000488281</ele>
        <time>2015-11-27T09:22:04.000Z</time>
      </trkpt>
      <trkpt lat="45.5808" lon="6.65016">
        <ele>1483.1999511719</ele>
        <time>2015-11-27T09:22:06.000Z</time>
      </trkpt>
      <trkpt lat="45.58079" lon="6.6501">
        <ele>1484</ele>
        <time>2015-11-27T09:22:10.000Z</time>
      </trkpt>
      <trkpt lat="45.5808" lon="6.65009">
        <ele>1484.1999511719</ele>
        <time>2015-11-27T09:22:11.000Z</time>
      </trkpt>
      <trkpt lat="45.58083" lon="6.65009">
        <ele>1485.1999511719</ele>
        <time>2015-11-27T09:22:15.000Z</time>
      </trkpt>
      <trkpt lat="45.58086" lon="6.65008">
        <ele>1486</ele>
        <time>2015-11-27T09:22:18.000Z</time>
      </trkpt>
      <trkpt lat="45.58087" lon="6.65008">
        <ele>1486.1999511719</ele>
        <time>2015-11-27T09:22:19.000Z</time>
      </trkpt>
      <trkpt lat="45.58091" lon="6.65007">
        <ele>1487.4000244141</ele>
        <time>2015-11-27T09:22:23.000Z</time>
      </trkpt>
      <trkpt lat="45.58093" lon="6.65006">
        <ele>1487.8000488281</ele>
        <time>2015-11-27T09:22:25.000Z</time>
      </trkpt>
      <trkpt lat="45.58092" lon="6.65003">
        <ele>1488.4000244141</ele>
        <time>2015-11-27T09:22:28.000Z</time>
      </trkpt>
      <trkpt lat="45.5809" lon="6.64999">
        <ele>1489.1999511719</ele>
        <time>2015-11-27T09:22:31.000Z</time>
      </trkpt>
      <trkpt lat="45.58088" lon="6.64997">
        <ele>1489.4000244141</ele>
        <time>2015-11-27T09:22:33.000Z</time>
      </trkpt>
      <trkpt lat="45.58083" lon="6.64992">
        <ele>1490</ele>
        <time>2015-11-27T09:22:38.000Z</time>
      </trkpt>
      <trkpt lat="45.58078" lon="6.64986">
        <ele>1490.5999755859</ele>
        <time>2015-11-27T09:22:42.000Z</time>
      </trkpt>
      <trkpt lat="45.58077" lon="6.64985">
        <ele>1490.8000488281</ele>
        <time>2015-11-27T09:22:44.000Z</time>
      </trkpt>
      <trkpt lat="45.58073" lon="6.64979">
        <ele>1491.8000488281</ele>
        <time>2015-11-27T09:22:49.000Z</time>
      </trkpt>
      <trkpt lat="45.58072" lon="6.64978">
        <ele>1491.8000488281</ele>
        <time>2015-11-27T09:22:50.000Z</time>
      </trkpt>
      <trkpt lat="45.58066" lon="6.64973">
        <ele>1492.8000488281</ele>
        <time>2015-11-27T09:22:57.000Z</time>
      </trkpt>
      <trkpt lat="45.58065" lon="6.64972">
        <ele>1492.8000488281</ele>
        <time>2015-11-27T09:22:58.000Z</time>
      </trkpt>
      <trkpt lat="45.58063" lon="6.64969">
        <ele>1493.4000244141</ele>
        <time>2015-11-27T09:23:03.000Z</time>
      </trkpt>
      <trkpt lat="45.5806" lon="6.64968">
        <ele>1494</ele>
        <time>2015-11-27T09:23:07.000Z</time>
      </trkpt>
      <trkpt lat="45.5806" lon="6.64968">
        <ele>1494.1999511719</ele>
        <time>2015-11-27T09:23:08.000Z</time>
      </trkpt>
      <trkpt lat="45.58058" lon="6.64966">
        <ele>1495.1999511719</ele>
        <time>2015-11-27T09:23:13.000Z</time>
      </trkpt>
      <trkpt lat="45.58058" lon="6.64965">
        <ele>1495.4000244141</ele>
        <time>2015-11-27T09:23:14.000Z</time>
      </trkpt>
      <trkpt lat="45.58053" lon="6.64962">
        <ele>1496.1999511719</ele>
        <time>2015-11-27T09:23:19.000Z</time>
      </trkpt>
      <trkpt lat="45.58049" lon="6.64959">
        <ele>1497.1999511719</ele>
        <time>2015-11-27T09:23:24.000Z</time>
      </trkpt>
      <trkpt lat="45.58048" lon="6.64958">
        <ele>1497.4000244141</ele>
        <time>2015-11-27T09:23:25.000Z</time>
      </trkpt>
      <trkpt lat="45.58045" lon="6.64955">
        <ele>1498.1999511719</ele>
        <time>2015-11-27T09:23:32.000Z</time>
      </trkpt>
      <trkpt lat="45.58045" lon="6.64955">
        <ele>1498.5999755859</ele>
        <time>2015-11-27T09:23:33.000Z</time>
      </trkpt>
      <trkpt lat="45.58049" lon="6.6495">
        <ele>1499.4000244141</ele>
        <time>2015-11-27T09:23:37.000Z</time>
      </trkpt>
      <trkpt lat="45.5805" lon="6.6495">
        <ele>1499.4000244141</ele>
        <time>2015-11-27T09:23:38.000Z</time>
      </trkpt>
      <trkpt lat="45.58054" lon="6.64948">
        <ele>1500.4000244141</ele>
        <time>2015-11-27T09:23:43.000Z</time>
      </trkpt>
      <trkpt lat="45.58056" lon="6.64947">
        <ele>1501.1999511719</ele>
        <time>2015-11-27T09:23:46.000Z</time>
      </trkpt>
      <trkpt lat="45.58057" lon="6.64947">
        <ele>1501.5999755859</ele>
        <time>2015-11-27T09:23:47.000Z</time>
      </trkpt>
      <trkpt lat="45.58061" lon="6.64943">
        <ele>1502.5999755859</ele>
        <time>2015-11-27T09:23:52.000Z</time>
      </trkpt>
      <trkpt lat="45.58062" lon="6.64941">
        <ele>1503.1999511719</ele>
        <time>2015-11-27T09:23:55.000Z</time>
      </trkpt>
      <trkpt lat="45.58062" lon="6.64939">
        <ele>1503.8000488281</ele>
        <time>2015-11-27T09:23:57.000Z</time>
      </trkpt>
      <trkpt lat="45.5806" lon="6.64936">
        <ele>1504.8000488281</ele>
        <time>2015-11-27T09:24:01.000Z</time>
      </trkpt>
      <trkpt lat="45.58059" lon="6.64936">
        <ele>1505</ele>
        <time>2015-11-27T09:24:02.000Z</time>
      </trkpt>
      <trkpt lat="45.58054" lon="6.64933">
        <ele>1505.5999755859</ele>
        <time>2015-11-27T09:24:06.000Z</time>
      </trkpt>
      <trkpt lat="45.58053" lon="6.64933">
        <ele>1506</ele>
        <time>2015-11-27T09:24:08.000Z</time>
      </trkpt>
      <trkpt lat="45.58052" lon="6.6493">
        <ele>1506.5999755859</ele>
        <time>2015-11-27T09:24:11.000Z</time>
      </trkpt>
      <trkpt lat="45.58051" lon="6.64929">
        <ele>1507</ele>
        <time>2015-11-27T09:24:14.000Z</time>
      </trkpt>
      <trkpt lat="45.58051" lon="6.64929">
        <ele>1507.1999511719</ele>
        <time>2015-11-27T09:24:16.000Z</time>
      </trkpt>
      <trkpt lat="45.58053" lon="6.64928">
        <ele>1508.1999511719</ele>
        <time>2015-11-27T09:24:20.000Z</time>
      </trkpt>
      <trkpt lat="45.58057" lon="6.64925">
        <ele>1508.5999755859</ele>
        <time>2015-11-27T09:24:25.000Z</time>
      </trkpt>
      <trkpt lat="45.5806" lon="6.64924">
        <ele>1509.4000244141</ele>
        <time>2015-11-27T09:24:28.000Z</time>
      </trkpt>
      <trkpt lat="45.58065" lon="6.64922">
        <ele>1510.4000244141</ele>
        <time>2015-11-27T09:24:34.000Z</time>
      </trkpt>
      <trkpt lat="45.58063" lon="6.64918">
        <ele>1511.5999755859</ele>
        <time>2015-11-27T09:24:40.000Z</time>
      </trkpt>
      <trkpt lat="45.58063" lon="6.64918">
        <ele>1511.5999755859</ele>
        <time>2015-11-27T09:24:41.000Z</time>
      </trkpt>
      <trkpt lat="45.58058" lon="6.64915">
        <ele>1512.4000244141</ele>
        <time>2015-11-27T09:24:46.000Z</time>
      </trkpt>
      <trkpt lat="45.58054" lon="6.64914">
        <ele>1512.5999755859</ele>
        <time>2015-11-27T09:24:48.000Z</time>
      </trkpt>
      <trkpt lat="45.58052" lon="6.64913">
        <ele>1513.1999511719</ele>
        <time>2015-11-27T09:24:51.000Z</time>
      </trkpt>
      <trkpt lat="45.58048" lon="6.64911">
        <ele>1513.5999755859</ele>
        <time>2015-11-27T09:24:55.000Z</time>
      </trkpt>
      <trkpt lat="45.58046" lon="6.64909">
        <ele>1514</ele>
        <time>2015-11-27T09:24:57.000Z</time>
      </trkpt>
      <trkpt lat="45.58044" lon="6.64906">
        <ele>1514.8000488281</ele>
        <time>2015-11-27T09:25:03.000Z</time>
      </trkpt>
      <trkpt lat="45.58044" lon="6.64906">
        <ele>1515</ele>
        <time>2015-11-27T09:25:04.000Z</time>
      </trkpt>
      <trkpt lat="45.58043" lon="6.64905">
        <ele>1515.8000488281</ele>
        <time>2015-11-27T09:25:09.000Z</time>
      </trkpt>
      <trkpt lat="45.58044" lon="6.64904">
        <ele>1516</ele>
        <time>2015-11-27T09:25:11.000Z</time>
      </trkpt>
      <trkpt lat="45.58047" lon="6.649">
        <ele>1516.8000488281</ele>
        <time>2015-11-27T09:25:17.000Z</time>
      </trkpt>
      <trkpt lat="45.58047" lon="6.64899">
        <ele>1517</ele>
        <time>2015-11-27T09:25:18.000Z</time>
      </trkpt>
      <trkpt lat="45.58047" lon="6.64897">
        <ele>1518</ele>
        <time>2015-11-27T09:25:25.000Z</time>
      </trkpt>
      <trkpt lat="45.58046" lon="6.64897">
        <ele>1518</ele>
        <time>2015-11-27T09:25:26.000Z</time>
      </trkpt>
      <trkpt lat="45.58042" lon="6.64892">
        <ele>1518.8000488281</ele>
        <time>2015-11-27T09:25:31.000Z</time>
      </trkpt>
      <trkpt lat="45.5804" lon="6.64889">
        <ele>1519.4000244141</ele>
        <time>2015-11-27T09:25:33.000Z</time>
      </trkpt>
      <trkpt lat="45.58039" lon="6.64888">
        <ele>1520.4000244141</ele>
        <time>2015-11-27T09:25:37.000Z</time>
      </trkpt>
      <trkpt lat="45.58037" lon="6.64886">
        <ele>1521.5999755859</ele>
        <time>2015-11-27T09:25:42.000Z</time>
      </trkpt>
      <trkpt lat="45.58035" lon="6.64884">
        <ele>1522</ele>
        <time>2015-11-27T09:25:44.000Z</time>
      </trkpt>
      <trkpt lat="45.58032" lon="6.64881">
        <ele>1522.5999755859</ele>
        <time>2015-11-27T09:25:48.000Z</time>
      </trkpt>
      <trkpt lat="45.58032" lon="6.64881">
        <ele>1522.8000488281</ele>
        <time>2015-11-27T09:25:49.000Z</time>
      </trkpt>
      <trkpt lat="45.58029" lon="6.6488">
        <ele>1523.8000488281</ele>
        <time>2015-11-27T09:25:52.000Z</time>
      </trkpt>
      <trkpt lat="45.58026" lon="6.64878">
        <ele>1524.4000244141</ele>
        <time>2015-11-27T09:25:55.000Z</time>
      </trkpt>
      <trkpt lat="45.58025" lon="6.64876">
        <ele>1525</ele>
        <time>2015-11-27T09:25:57.000Z</time>
      </trkpt>
      <trkpt lat="45.58023" lon="6.64873">
        <ele>1526.1999511719</ele>
        <time>2015-11-27T09:26:02.000Z</time>
      </trkpt>
      <trkpt lat="45.58019" lon="6.64867">
        <ele>1527.1999511719</ele>
        <time>2015-11-27T09:26:07.000Z</time>
      </trkpt>
      <trkpt lat="45.58017" lon="6.64864">
        <ele>1527.5999755859</ele>
        <time>2015-11-27T09:26:09.000Z</time>
      </trkpt>
      <trkpt lat="45.58016" lon="6.64861">
        <ele>1528.1999511719</ele>
        <time>2015-11-27T09:26:13.000Z</time>
      </trkpt>
      <trkpt lat="45.58015" lon="6.64859">
        <ele>1528.4000244141</ele>
        <time>2015-11-27T09:26:15.000Z</time>
      </trkpt>
      <trkpt lat="45.58013" lon="6.64854">
        <ele>1529.4000244141</ele>
        <time>2015-11-27T09:26:19.000Z</time>
      </trkpt>
      <trkpt lat="45.58012" lon="6.64852">
        <ele>1529.8000488281</ele>
        <time>2015-11-27T09:26:21.000Z</time>
      </trkpt>
      <trkpt lat="45.58011" lon="6.64851">
        <ele>1530.5999755859</ele>
        <time>2015-11-27T09:26:24.000Z</time>
      </trkpt>
      <trkpt lat="45.58011" lon="6.6485">
        <ele>1531</ele>
        <time>2015-11-27T09:26:27.000Z</time>
      </trkpt>
      <trkpt lat="45.58011" lon="6.64849">
        <ele>1531.5999755859</ele>
        <time>2015-11-27T09:26:31.000Z</time>
      </trkpt>
      <trkpt lat="45.58011" lon="6.64849">
        <ele>1531.8000488281</ele>
        <time>2015-11-27T09:26:33.000Z</time>
      </trkpt>
      <trkpt lat="45.58017" lon="6.64848">
        <ele>1532.5999755859</ele>
        <time>2015-11-27T09:26:40.000Z</time>
      </trkpt>
      <trkpt lat="45.58018" lon="6.64847">
        <ele>1533</ele>
        <time>2015-11-27T09:26:42.000Z</time>
      </trkpt>
      <trkpt lat="45.5802" lon="6.64847">
        <ele>1533.8000488281</ele>
        <time>2015-11-27T09:26:45.000Z</time>
      </trkpt>
      <trkpt lat="45.58023" lon="6.64848">
        <ele>1534.8000488281</ele>
        <time>2015-11-27T09:26:49.000Z</time>
      </trkpt>
      <trkpt lat="45.58023" lon="6.64849">
        <ele>1535</ele>
        <time>2015-11-27T09:26:50.000Z</time>
      </trkpt>
      <trkpt lat="45.58027" lon="6.64848">
        <ele>1535.8000488281</ele>
        <time>2015-11-27T09:26:55.000Z</time>
      </trkpt>
      <trkpt lat="45.58028" lon="6.64845">
        <ele>1536.4000244141</ele>
        <time>2015-11-27T09:26:58.000Z</time>
      </trkpt>
      <trkpt lat="45.58027" lon="6.64842">
        <ele>1536.8000488281</ele>
        <time>2015-11-27T09:27:00.000Z</time>
      </trkpt>
      <trkpt lat="45.58026" lon="6.64839">
        <ele>1537.4000244141</ele>
        <time>2015-11-27T09:27:03.000Z</time>
      </trkpt>
      <trkpt lat="45.58025" lon="6.64837">
        <ele>1538</ele>
        <time>2015-11-27T09:27:06.000Z</time>
      </trkpt>
      <trkpt lat="45.58024" lon="6.64835">
        <ele>1538.8000488281</ele>
        <time>2015-11-27T09:27:09.000Z</time>
      </trkpt>
      <trkpt lat="45.58023" lon="6.64833">
        <ele>1539</ele>
        <time>2015-11-27T09:27:11.000Z</time>
      </trkpt>
      <trkpt lat="45.58022" lon="6.64832">
        <ele>1539.5999755859</ele>
        <time>2015-11-27T09:27:15.000Z</time>
      </trkpt>
      <trkpt lat="45.58021" lon="6.64829">
        <ele>1540.4000244141</ele>
        <time>2015-11-27T09:27:18.000Z</time>
      </trkpt>
      <trkpt lat="45.5802" lon="6.64827">
        <ele>1540.8000488281</ele>
        <time>2015-11-27T09:27:20.000Z</time>
      </trkpt>
      <trkpt lat="45.58019" lon="6.64822">
        <ele>1541.4000244141</ele>
        <time>2015-11-27T09:27:24.000Z</time>
      </trkpt>
      <trkpt lat="45.58019" lon="6.6482">
        <ele>1541.8000488281</ele>
        <time>2015-11-27T09:27:26.000Z</time>
      </trkpt>
      <trkpt lat="45.58018" lon="6.64815">
        <ele>1542.5999755859</ele>
        <time>2015-11-27T09:27:31.000Z</time>
      </trkpt>
      <trkpt lat="45.58017" lon="6.64813">
        <ele>1542.5999755859</ele>
        <time>2015-11-27T09:27:32.000Z</time>
      </trkpt>
      <trkpt lat="45.58017" lon="6.64811">
        <ele>1543.5999755859</ele>
        <time>2015-11-27T09:27:37.000Z</time>
      </trkpt>
      <trkpt lat="45.58017" lon="6.64811">
        <ele>1544</ele>
        <time>2015-11-27T09:27:39.000Z</time>
      </trkpt>
      <trkpt lat="45.58018" lon="6.6481">
        <ele>1544.1999511719</ele>
        <time>2015-11-27T09:27:47.000Z</time>
      </trkpt>
      <trkpt lat="45.58021" lon="6.64811">
        <ele>1544.8000488281</ele>
        <time>2015-11-27T09:27:51.000Z</time>
      </trkpt>
      <trkpt lat="45.58024" lon="6.64812">
        <ele>1546</ele>
        <time>2015-11-27T09:27:57.000Z</time>
      </trkpt>
      <trkpt lat="45.58028" lon="6.6481">
        <ele>1547</ele>
        <time>2015-11-27T09:28:05.000Z</time>
      </trkpt>
      <trkpt lat="45.58028" lon="6.64809">
        <ele>1547.1999511719</ele>
        <time>2015-11-27T09:28:06.000Z</time>
      </trkpt>
      <trkpt lat="45.58025" lon="6.64805">
        <ele>1548.1999511719</ele>
        <time>2015-11-27T09:28:11.000Z</time>
      </trkpt>
      <trkpt lat="45.58024" lon="6.648">
        <ele>1549.4000244141</ele>
        <time>2015-11-27T09:28:16.000Z</time>
      </trkpt>
      <trkpt lat="45.58025" lon="6.64799">
        <ele>1549.5999755859</ele>
        <time>2015-11-27T09:28:17.000Z</time>
      </trkpt>
      <trkpt lat="45.58025" lon="6.64795">
        <ele>1550.4000244141</ele>
        <time>2015-11-27T09:28:20.000Z</time>
      </trkpt>
      <trkpt lat="45.58025" lon="6.6479">
        <ele>1551</ele>
        <time>2015-11-27T09:28:23.000Z</time>
      </trkpt>
      <trkpt lat="45.58025" lon="6.64786">
        <ele>1551.4000244141</ele>
        <time>2015-11-27T09:28:26.000Z</time>
      </trkpt>
      <trkpt lat="45.58024" lon="6.64783">
        <ele>1552.1999511719</ele>
        <time>2015-11-27T09:28:30.000Z</time>
      </trkpt>
      <trkpt lat="45.58023" lon="6.64781">
        <ele>1552.4000244141</ele>
        <time>2015-11-27T09:28:33.000Z</time>
      </trkpt>
      <trkpt lat="45.58022" lon="6.64778">
        <ele>1553</ele>
        <time>2015-11-27T09:28:37.000Z</time>
      </trkpt>
      <trkpt lat="45.58022" lon="6.64777">
        <ele>1553.4000244141</ele>
        <time>2015-11-27T09:28:39.000Z</time>
      </trkpt>
      <trkpt lat="45.58022" lon="6.64777">
        <ele>1554.4000244141</ele>
        <time>2015-11-27T09:28:47.000Z</time>
      </trkpt>
      <trkpt lat="45.58022" lon="6.64777">
        <ele>1554.4000244141</ele>
        <time>2015-11-27T09:28:50.000Z</time>
      </trkpt>
      <trkpt lat="45.58022" lon="6.64777">
        <ele>1554.4000244141</ele>
        <time>2015-11-27T09:29:02.000Z</time>
      </trkpt>
      <trkpt lat="45.58022" lon="6.64776">
        <ele>1554.8000488281</ele>
        <time>2015-11-27T09:29:15.000Z</time>
      </trkpt>
      <trkpt lat="45.58022" lon="6.64772">
        <ele>1555.1999511719</ele>
        <time>2015-11-27T09:29:20.000Z</time>
      </trkpt>
      <trkpt lat="45.58022" lon="6.64772">
        <ele>1555.1999511719</ele>
        <time>2015-11-27T09:29:21.000Z</time>
      </trkpt>
      <trkpt lat="45.58023" lon="6.6477">
        <ele>1555.4000244141</ele>
        <time>2015-11-27T09:29:23.000Z</time>
      </trkpt>
      <trkpt lat="45.58028" lon="6.64771">
        <ele>1556.1999511719</ele>
        <time>2015-11-27T09:29:28.000Z</time>
      </trkpt>
      <trkpt lat="45.58031" lon="6.64772">
        <ele>1556.4000244141</ele>
        <time>2015-11-27T09:29:31.000Z</time>
      </trkpt>
      <trkpt lat="45.58033" lon="6.64771">
        <ele>1557</ele>
        <time>2015-11-27T09:29:34.000Z</time>
      </trkpt>
      <trkpt lat="45.58033" lon="6.64769">
        <ele>1557.5999755859</ele>
        <time>2015-11-27T09:29:37.000Z</time>
      </trkpt>
      <trkpt lat="45.58032" lon="6.64765">
        <ele>1558.4000244141</ele>
        <time>2015-11-27T09:29:40.000Z</time>
      </trkpt>
      <trkpt lat="45.58031" lon="6.64764">
        <ele>1558.8000488281</ele>
        <time>2015-11-27T09:29:41.000Z</time>
      </trkpt>
      <trkpt lat="45.5803" lon="6.6476">
        <ele>1559.8000488281</ele>
        <time>2015-11-27T09:29:45.000Z</time>
      </trkpt>
      <trkpt lat="45.5803" lon="6.64759">
        <ele>1560</ele>
        <time>2015-11-27T09:29:46.000Z</time>
      </trkpt>
      <trkpt lat="45.5803" lon="6.64752">
        <ele>1560.8000488281</ele>
        <time>2015-11-27T09:29:51.000Z</time>
      </trkpt>
      <trkpt lat="45.58031" lon="6.64752">
        <ele>1561</ele>
        <time>2015-11-27T09:29:52.000Z</time>
      </trkpt>
      <trkpt lat="45.58031" lon="6.64745">
        <ele>1561.8000488281</ele>
        <time>2015-11-27T09:29:58.000Z</time>
      </trkpt>
      <trkpt lat="45.58031" lon="6.64745">
        <ele>1562</ele>
        <time>2015-11-27T09:29:59.000Z</time>
      </trkpt>
      <trkpt lat="45.58033" lon="6.64737">
        <ele>1562.8000488281</ele>
        <time>2015-11-27T09:30:05.000Z</time>
      </trkpt>
      <trkpt lat="45.58033" lon="6.64737">
        <ele>1563</ele>
        <time>2015-11-27T09:30:06.000Z</time>
      </trkpt>
      <trkpt lat="45.58037" lon="6.64738">
        <ele>1564</ele>
        <time>2015-11-27T09:30:11.000Z</time>
      </trkpt>
      <trkpt lat="45.58038" lon="6.64739">
        <ele>1564.1999511719</ele>
        <time>2015-11-27T09:30:12.000Z</time>
      </trkpt>
      <trkpt lat="45.58043" lon="6.64741">
        <ele>1565.1999511719</ele>
        <time>2015-11-27T09:30:18.000Z</time>
      </trkpt>
      <trkpt lat="45.58044" lon="6.64741">
        <ele>1565.4000244141</ele>
        <time>2015-11-27T09:30:19.000Z</time>
      </trkpt>
      <trkpt lat="45.58046" lon="6.64743">
        <ele>1566.1999511719</ele>
        <time>2015-11-27T09:30:23.000Z</time>
      </trkpt>
      <trkpt lat="45.58047" lon="6.64743">
        <ele>1567</ele>
        <time>2015-11-27T09:30:27.000Z</time>
      </trkpt>
      <trkpt lat="45.58048" lon="6.64743">
        <ele>1567.4000244141</ele>
        <time>2015-11-27T09:30:30.000Z</time>
      </trkpt>
      <trkpt lat="45.58051" lon="6.64744">
        <ele>1568</ele>
        <time>2015-11-27T09:30:36.000Z</time>
      </trkpt>
      <trkpt lat="45.58052" lon="6.64744">
        <ele>1568.4000244141</ele>
        <time>2015-11-27T09:30:43.000Z</time>
      </trkpt>
      <trkpt lat="45.58053" lon="6.64744">
        <ele>1568.4000244141</ele>
        <time>2015-11-27T09:30:44.000Z</time>
      </trkpt>
      <trkpt lat="45.58059" lon="6.64746">
        <ele>1569.5999755859</ele>
        <time>2015-11-27T09:30:51.000Z</time>
      </trkpt>
      <trkpt lat="45.58062" lon="6.64747">
        <ele>1569.8000488281</ele>
        <time>2015-11-27T09:30:53.000Z</time>
      </trkpt>
      <trkpt lat="45.58064" lon="6.64747">
        <ele>1570.8000488281</ele>
        <time>2015-11-27T09:30:57.000Z</time>
      </trkpt>
      <trkpt lat="45.58066" lon="6.64745">
        <ele>1571.8000488281</ele>
        <time>2015-11-27T09:31:02.000Z</time>
      </trkpt>
      <trkpt lat="45.58066" lon="6.6474">
        <ele>1572.5999755859</ele>
        <time>2015-11-27T09:31:11.000Z</time>
      </trkpt>
      <trkpt lat="45.58065" lon="6.64737">
        <ele>1573</ele>
        <time>2015-11-27T09:31:14.000Z</time>
      </trkpt>
      <trkpt lat="45.58065" lon="6.64731">
        <ele>1573.4000244141</ele>
        <time>2015-11-27T09:31:18.000Z</time>
      </trkpt>
      <trkpt lat="45.58066" lon="6.64726">
        <ele>1574</ele>
        <time>2015-11-27T09:31:23.000Z</time>
      </trkpt>
      <trkpt lat="45.58066" lon="6.64724">
        <ele>1574.1999511719</ele>
        <time>2015-11-27T09:31:24.000Z</time>
      </trkpt>
      <trkpt lat="45.58068" lon="6.64719">
        <ele>1575.1999511719</ele>
        <time>2015-11-27T09:31:28.000Z</time>
      </trkpt>
      <trkpt lat="45.58069" lon="6.64717">
        <ele>1575.5999755859</ele>
        <time>2015-11-27T09:31:30.000Z</time>
      </trkpt>
      <trkpt lat="45.58068" lon="6.64715">
        <ele>1576.1999511719</ele>
        <time>2015-11-27T09:31:33.000Z</time>
      </trkpt>
      <trkpt lat="45.58068" lon="6.64712">
        <ele>1577</ele>
        <time>2015-11-27T09:31:36.000Z</time>
      </trkpt>
      <trkpt lat="45.58068" lon="6.64711">
        <ele>1577.1999511719</ele>
        <time>2015-11-27T09:31:37.000Z</time>
      </trkpt>
      <trkpt lat="45.58067" lon="6.64705">
        <ele>1578.4000244141</ele>
        <time>2015-11-27T09:31:43.000Z</time>
      </trkpt>
      <trkpt lat="45.58066" lon="6.647">
        <ele>1579.4000244141</ele>
        <time>2015-11-27T09:31:48.000Z</time>
      </trkpt>
      <trkpt lat="45.58065" lon="6.64698">
        <ele>1579.5999755859</ele>
        <time>2015-11-27T09:31:49.000Z</time>
      </trkpt>
      <trkpt lat="45.58063" lon="6.64692">
        <ele>1580.5999755859</ele>
        <time>2015-11-27T09:31:55.000Z</time>
      </trkpt>
      <trkpt lat="45.58062" lon="6.64686">
        <ele>1581.5999755859</ele>
        <time>2015-11-27T09:32:00.000Z</time>
      </trkpt>
      <trkpt lat="45.5806" lon="6.64682">
        <ele>1582.4000244141</ele>
        <time>2015-11-27T09:32:04.000Z</time>
      </trkpt>
      <trkpt lat="45.5806" lon="6.6468">
        <ele>1582.8000488281</ele>
        <time>2015-11-27T09:32:06.000Z</time>
      </trkpt>
      <trkpt lat="45.58058" lon="6.64675">
        <ele>1583.5999755859</ele>
        <time>2015-11-27T09:32:12.000Z</time>
      </trkpt>
      <trkpt lat="45.58058" lon="6.64675">
        <ele>1583.8000488281</ele>
        <time>2015-11-27T09:32:13.000Z</time>
      </trkpt>
      <trkpt lat="45.58058" lon="6.64674">
        <ele>1585</ele>
        <time>2015-11-27T09:32:19.000Z</time>
      </trkpt>
      <trkpt lat="45.58058" lon="6.64673">
        <ele>1585.1999511719</ele>
        <time>2015-11-27T09:32:21.000Z</time>
      </trkpt>
      <trkpt lat="45.58058" lon="6.64669">
        <ele>1586</ele>
        <time>2015-11-27T09:32:24.000Z</time>
      </trkpt>
      <trkpt lat="45.58057" lon="6.64664">
        <ele>1587</ele>
        <time>2015-11-27T09:32:29.000Z</time>
      </trkpt>
      <trkpt lat="45.58056" lon="6.64664">
        <ele>1587.1999511719</ele>
        <time>2015-11-27T09:32:30.000Z</time>
      </trkpt>
      <trkpt lat="45.58054" lon="6.64658">
        <ele>1587.8000488281</ele>
        <time>2015-11-27T09:32:35.000Z</time>
      </trkpt>
      <trkpt lat="45.58052" lon="6.64653">
        <ele>1588.1999511719</ele>
        <time>2015-11-27T09:32:40.000Z</time>
      </trkpt>
      <trkpt lat="45.5805" lon="6.64647">
        <ele>1589.4000244141</ele>
        <time>2015-11-27T09:32:46.000Z</time>
      </trkpt>
      <trkpt lat="45.5805" lon="6.64641">
        <ele>1590.5999755859</ele>
        <time>2015-11-27T09:32:52.000Z</time>
      </trkpt>
      <trkpt lat="45.58049" lon="6.64639">
        <ele>1591</ele>
        <time>2015-11-27T09:32:54.000Z</time>
      </trkpt>
      <trkpt lat="45.58048" lon="6.64636">
        <ele>1591.5999755859</ele>
        <time>2015-11-27T09:32:58.000Z</time>
      </trkpt>
      <trkpt lat="45.58048" lon="6.64634">
        <ele>1592</ele>
        <time>2015-11-27T09:33:01.000Z</time>
      </trkpt>
      <trkpt lat="45.58047" lon="6.64628">
        <ele>1592.8000488281</ele>
        <time>2015-11-27T09:33:06.000Z</time>
      </trkpt>
      <trkpt lat="45.58047" lon="6.64627">
        <ele>1593</ele>
        <time>2015-11-27T09:33:07.000Z</time>
      </trkpt>
      <trkpt lat="45.58046" lon="6.64625">
        <ele>1593.8000488281</ele>
        <time>2015-11-27T09:33:10.000Z</time>
      </trkpt>
      <trkpt lat="45.58045" lon="6.64618">
        <ele>1594.8000488281</ele>
        <time>2015-11-27T09:33:16.000Z</time>
      </trkpt>
      <trkpt lat="45.58043" lon="6.64615">
        <ele>1595.8000488281</ele>
        <time>2015-11-27T09:33:22.000Z</time>
      </trkpt>
      <trkpt lat="45.58044" lon="6.64611">
        <ele>1596.5999755859</ele>
        <time>2015-11-27T09:33:26.000Z</time>
      </trkpt>
      <trkpt lat="45.58043" lon="6.64609">
        <ele>1597</ele>
        <time>2015-11-27T09:33:28.000Z</time>
      </trkpt>
      <trkpt lat="45.58042" lon="6.64607">
        <ele>1598.1999511719</ele>
        <time>2015-11-27T09:33:33.000Z</time>
      </trkpt>
      <trkpt lat="45.58041" lon="6.64606">
        <ele>1598.5999755859</ele>
        <time>2015-11-27T09:33:34.000Z</time>
      </trkpt>
      <trkpt lat="45.58039" lon="6.64603">
        <ele>1599.1999511719</ele>
        <time>2015-11-27T09:33:38.000Z</time>
      </trkpt>
      <trkpt lat="45.58038" lon="6.646">
        <ele>1599.5999755859</ele>
        <time>2015-11-27T09:33:41.000Z</time>
      </trkpt>
      <trkpt lat="45.58037" lon="6.64597">
        <ele>1600.1999511719</ele>
        <time>2015-11-27T09:33:44.000Z</time>
      </trkpt>
      <trkpt lat="45.58035" lon="6.64595">
        <ele>1600.8000488281</ele>
        <time>2015-11-27T09:33:47.000Z</time>
      </trkpt>
      <trkpt lat="45.58034" lon="6.64592">
        <ele>1601.4000244141</ele>
        <time>2015-11-27T09:33:50.000Z</time>
      </trkpt>
      <trkpt lat="45.58032" lon="6.64589">
        <ele>1602</ele>
        <time>2015-11-27T09:33:54.000Z</time>
      </trkpt>
      <trkpt lat="45.5803" lon="6.64585">
        <ele>1602.5999755859</ele>
        <time>2015-11-27T09:33:58.000Z</time>
      </trkpt>
      <trkpt lat="45.58029" lon="6.64581">
        <ele>1603.1999511719</ele>
        <time>2015-11-27T09:34:01.000Z</time>
      </trkpt>
      <trkpt lat="45.58027" lon="6.64579">
        <ele>1603.8000488281</ele>
        <time>2015-11-27T09:34:05.000Z</time>
      </trkpt>
      <trkpt lat="45.58024" lon="6.64576">
        <ele>1604.1999511719</ele>
        <time>2015-11-27T09:34:08.000Z</time>
      </trkpt>
      <trkpt lat="45.58023" lon="6.64573">
        <ele>1604.8000488281</ele>
        <time>2015-11-27T09:34:11.000Z</time>
      </trkpt>
      <trkpt lat="45.58022" lon="6.6457">
        <ele>1605.4000244141</ele>
        <time>2015-11-27T09:34:15.000Z</time>
      </trkpt>
      <trkpt lat="45.58021" lon="6.6457">
        <ele>1605.8000488281</ele>
        <time>2015-11-27T09:34:20.000Z</time>
      </trkpt>
      <trkpt lat="45.5802" lon="6.64568">
        <ele>1606</ele>
        <time>2015-11-27T09:34:21.000Z</time>
      </trkpt>
      <trkpt lat="45.58015" lon="6.64564">
        <ele>1607</ele>
        <time>2015-11-27T09:34:26.000Z</time>
      </trkpt>
      <trkpt lat="45.58012" lon="6.6456">
        <ele>1607.4000244141</ele>
        <time>2015-11-27T09:34:31.000Z</time>
      </trkpt>
      <trkpt lat="45.58011" lon="6.64557">
        <ele>1607.8000488281</ele>
        <time>2015-11-27T09:34:36.000Z</time>
      </trkpt>
      <trkpt lat="45.58011" lon="6.64555">
        <ele>1608</ele>
        <time>2015-11-27T09:34:39.000Z</time>
      </trkpt>
      <trkpt lat="45.58011" lon="6.64555">
        <ele>1609</ele>
        <time>2015-11-27T09:34:44.000Z</time>
      </trkpt>
      <trkpt lat="45.58012" lon="6.64555">
        <ele>1609</ele>
        <time>2015-11-27T09:34:45.000Z</time>
      </trkpt>
      <trkpt lat="45.58018" lon="6.64558">
        <ele>1610.1999511719</ele>
        <time>2015-11-27T09:34:53.000Z</time>
      </trkpt>
      <trkpt lat="45.58027" lon="6.64561">
        <ele>1611.1999511719</ele>
        <time>2015-11-27T09:35:02.000Z</time>
      </trkpt>
      <trkpt lat="45.58027" lon="6.64561">
        <ele>1611.1999511719</ele>
        <time>2015-11-27T09:35:03.000Z</time>
      </trkpt>
      <trkpt lat="45.58034" lon="6.64564">
        <ele>1612.1999511719</ele>
        <time>2015-11-27T09:35:11.000Z</time>
      </trkpt>
      <trkpt lat="45.58037" lon="6.64565">
        <ele>1613</ele>
        <time>2015-11-27T09:35:20.000Z</time>
      </trkpt>
      <trkpt lat="45.58043" lon="6.6457">
        <ele>1613.4000244141</ele>
        <time>2015-11-27T09:35:26.000Z</time>
      </trkpt>
      <trkpt lat="45.58044" lon="6.6457">
        <ele>1613.5999755859</ele>
        <time>2015-11-27T09:35:27.000Z</time>
      </trkpt>
      <trkpt lat="45.5805" lon="6.64574">
        <ele>1614.4000244141</ele>
        <time>2015-11-27T09:35:32.000Z</time>
      </trkpt>
      <trkpt lat="45.58051" lon="6.64575">
        <ele>1615</ele>
        <time>2015-11-27T09:35:34.000Z</time>
      </trkpt>
      <trkpt lat="45.58053" lon="6.64577">
        <ele>1615.4000244141</ele>
        <time>2015-11-27T09:35:36.000Z</time>
      </trkpt>
      <trkpt lat="45.58058" lon="6.64577">
        <ele>1616.5999755859</ele>
        <time>2015-11-27T09:35:42.000Z</time>
      </trkpt>
      <trkpt lat="45.58064" lon="6.64582">
        <ele>1617.5999755859</ele>
        <time>2015-11-27T09:35:49.000Z</time>
      </trkpt>
      <trkpt lat="45.58065" lon="6.64582">
        <ele>1617.8000488281</ele>
        <time>2015-11-27T09:35:50.000Z</time>
      </trkpt>
      <trkpt lat="45.58067" lon="6.64584">
        <ele>1618.5999755859</ele>
        <time>2015-11-27T09:35:57.000Z</time>
      </trkpt>
      <trkpt lat="45.58069" lon="6.64584">
        <ele>1618.8000488281</ele>
        <time>2015-11-27T09:35:58.000Z</time>
      </trkpt>
      <trkpt lat="45.58075" lon="6.6459">
        <ele>1619.5999755859</ele>
        <time>2015-11-27T09:36:08.000Z</time>
      </trkpt>
      <trkpt lat="45.58081" lon="6.64594">
        <ele>1620.8000488281</ele>
        <time>2015-11-27T09:36:15.000Z</time>
      </trkpt>
      <trkpt lat="45.58082" lon="6.64595">
        <ele>1621</ele>
        <time>2015-11-27T09:36:17.000Z</time>
      </trkpt>
      <trkpt lat="45.58088" lon="6.64594">
        <ele>1622</ele>
        <time>2015-11-27T09:36:22.000Z</time>
      </trkpt>
      <trkpt lat="45.58091" lon="6.64595">
        <ele>1622.4000244141</ele>
        <time>2015-11-27T09:36:25.000Z</time>
      </trkpt>
      <trkpt lat="45.58095" lon="6.64596">
        <ele>1623</ele>
        <time>2015-11-27T09:36:29.000Z</time>
      </trkpt>
      <trkpt lat="45.581" lon="6.64597">
        <ele>1623.5999755859</ele>
        <time>2015-11-27T09:36:34.000Z</time>
      </trkpt>
      <trkpt lat="45.58103" lon="6.64597">
        <ele>1624</ele>
        <time>2015-11-27T09:36:37.000Z</time>
      </trkpt>
      <trkpt lat="45.58108" lon="6.64598">
        <ele>1625</ele>
        <time>2015-11-27T09:36:43.000Z</time>
      </trkpt>
      <trkpt lat="45.58109" lon="6.64598">
        <ele>1625.1999511719</ele>
        <time>2015-11-27T09:36:44.000Z</time>
      </trkpt>
      <trkpt lat="45.58114" lon="6.64601">
        <ele>1626.1999511719</ele>
        <time>2015-11-27T09:36:49.000Z</time>
      </trkpt>
      <trkpt lat="45.58116" lon="6.64603">
        <ele>1626.5999755859</ele>
        <time>2015-11-27T09:36:52.000Z</time>
      </trkpt>
      <trkpt lat="45.5812" lon="6.64604">
        <ele>1627.1999511719</ele>
        <time>2015-11-27T09:36:56.000Z</time>
      </trkpt>
      <trkpt lat="45.58123" lon="6.64604">
        <ele>1627.8000488281</ele>
        <time>2015-11-27T09:36:59.000Z</time>
      </trkpt>
      <trkpt lat="45.58126" lon="6.64604">
        <ele>1628.1999511719</ele>
        <time>2015-11-27T09:37:02.000Z</time>
      </trkpt>
      <trkpt lat="45.58132" lon="6.64608">
        <ele>1629</ele>
        <time>2015-11-27T09:37:08.000Z</time>
      </trkpt>
      <trkpt lat="45.58132" lon="6.64609">
        <ele>1629.4000244141</ele>
        <time>2015-11-27T09:37:10.000Z</time>
      </trkpt>
      <trkpt lat="45.58137" lon="6.64611">
        <ele>1630.1999511719</ele>
        <time>2015-11-27T09:37:15.000Z</time>
      </trkpt>
      <trkpt lat="45.58139" lon="6.64612">
        <ele>1630.5999755859</ele>
        <time>2015-11-27T09:37:17.000Z</time>
      </trkpt>
      <trkpt lat="45.58142" lon="6.64613">
        <ele>1631.4000244141</ele>
        <time>2015-11-27T09:37:22.000Z</time>
      </trkpt>
      <trkpt lat="45.58144" lon="6.64614">
        <ele>1631.5999755859</ele>
        <time>2015-11-27T09:37:25.000Z</time>
      </trkpt>
      <trkpt lat="45.58147" lon="6.64615">
        <ele>1632.4000244141</ele>
        <time>2015-11-27T09:37:30.000Z</time>
      </trkpt>
      <trkpt lat="45.5815" lon="6.64615">
        <ele>1632.8000488281</ele>
        <time>2015-11-27T09:37:32.000Z</time>
      </trkpt>
      <trkpt lat="45.58155" lon="6.64617">
        <ele>1634</ele>
        <time>2015-11-27T09:37:39.000Z</time>
      </trkpt>
      <trkpt lat="45.58162" lon="6.64621">
        <ele>1635</ele>
        <time>2015-11-27T09:37:47.000Z</time>
      </trkpt>
      <trkpt lat="45.58168" lon="6.64625">
        <ele>1636.1999511719</ele>
        <time>2015-11-27T09:37:54.000Z</time>
      </trkpt>
      <trkpt lat="45.58168" lon="6.64625">
        <ele>1636.4000244141</ele>
        <time>2015-11-27T09:37:55.000Z</time>
      </trkpt>
      <trkpt lat="45.58175" lon="6.64627">
        <ele>1637.1999511719</ele>
        <time>2015-11-27T09:38:02.000Z</time>
      </trkpt>
      <trkpt lat="45.58176" lon="6.64629">
        <ele>1637.5999755859</ele>
        <time>2015-11-27T09:38:04.000Z</time>
      </trkpt>
      <trkpt lat="45.5818" lon="6.64632">
        <ele>1638.4000244141</ele>
        <time>2015-11-27T09:38:10.000Z</time>
      </trkpt>
      <trkpt lat="45.58182" lon="6.64633">
        <ele>1638.5999755859</ele>
        <time>2015-11-27T09:38:12.000Z</time>
      </trkpt>
      <trkpt lat="45.58189" lon="6.64636">
        <ele>1639.5999755859</ele>
        <time>2015-11-27T09:38:19.000Z</time>
      </trkpt>
      <trkpt lat="45.58189" lon="6.64635">
        <ele>1639.8000488281</ele>
        <time>2015-11-27T09:38:21.000Z</time>
      </trkpt>
      <trkpt lat="45.58192" lon="6.64637">
        <ele>1640.5999755859</ele>
        <time>2015-11-27T09:38:26.000Z</time>
      </trkpt>
      <trkpt lat="45.58195" lon="6.64638">
        <ele>1641</ele>
        <time>2015-11-27T09:38:28.000Z</time>
      </trkpt>
      <trkpt lat="45.58197" lon="6.64639">
        <ele>1641.5999755859</ele>
        <time>2015-11-27T09:38:32.000Z</time>
      </trkpt>
      <trkpt lat="45.582" lon="6.64641">
        <ele>1642.1999511719</ele>
        <time>2015-11-27T09:38:35.000Z</time>
      </trkpt>
      <trkpt lat="45.58202" lon="6.64642">
        <ele>1642.8000488281</ele>
        <time>2015-11-27T09:38:39.000Z</time>
      </trkpt>
      <trkpt lat="45.58204" lon="6.64643">
        <ele>1643</ele>
        <time>2015-11-27T09:38:41.000Z</time>
      </trkpt>
      <trkpt lat="45.5821" lon="6.64646">
        <ele>1644</ele>
        <time>2015-11-27T09:38:47.000Z</time>
      </trkpt>
      <trkpt lat="45.58211" lon="6.64646">
        <ele>1644.1999511719</ele>
        <time>2015-11-27T09:38:48.000Z</time>
      </trkpt>
      <trkpt lat="45.58215" lon="6.64648">
        <ele>1645</ele>
        <time>2015-11-27T09:38:54.000Z</time>
      </trkpt>
      <trkpt lat="45.58217" lon="6.64648">
        <ele>1645.5999755859</ele>
        <time>2015-11-27T09:38:57.000Z</time>
      </trkpt>
      <trkpt lat="45.58221" lon="6.64649">
        <ele>1646</ele>
        <time>2015-11-27T09:39:00.000Z</time>
      </trkpt>
      <trkpt lat="45.58225" lon="6.64651">
        <ele>1646.8000488281</ele>
        <time>2015-11-27T09:39:05.000Z</time>
      </trkpt>
      <trkpt lat="45.58227" lon="6.64653">
        <ele>1647.1999511719</ele>
        <time>2015-11-27T09:39:08.000Z</time>
      </trkpt>
      <trkpt lat="45.5823" lon="6.64655">
        <ele>1647.8000488281</ele>
        <time>2015-11-27T09:39:11.000Z</time>
      </trkpt>
      <trkpt lat="45.58232" lon="6.64657">
        <ele>1648.1999511719</ele>
        <time>2015-11-27T09:39:14.000Z</time>
      </trkpt>
      <trkpt lat="45.58234" lon="6.6466">
        <ele>1648.8000488281</ele>
        <time>2015-11-27T09:39:18.000Z</time>
      </trkpt>
      <trkpt lat="45.58236" lon="6.64661">
        <ele>1649.1999511719</ele>
        <time>2015-11-27T09:39:20.000Z</time>
      </trkpt>
      <trkpt lat="45.58239" lon="6.64666">
        <ele>1650.4000244141</ele>
        <time>2015-11-27T09:39:27.000Z</time>
      </trkpt>
      <trkpt lat="45.58246" lon="6.64669">
        <ele>1651.5999755859</ele>
        <time>2015-11-27T09:39:34.000Z</time>
      </trkpt>
      <trkpt lat="45.58248" lon="6.64671">
        <ele>1652.5999755859</ele>
        <time>2015-11-27T09:39:39.000Z</time>
      </trkpt>
      <trkpt lat="45.58251" lon="6.64674">
        <ele>1653.1999511719</ele>
        <time>2015-11-27T09:39:44.000Z</time>
      </trkpt>
      <trkpt lat="45.58254" lon="6.64677">
        <ele>1653.5999755859</ele>
        <time>2015-11-27T09:39:47.000Z</time>
      </trkpt>
      <trkpt lat="45.58257" lon="6.64682">
        <ele>1654.8000488281</ele>
        <time>2015-11-27T09:39:53.000Z</time>
      </trkpt>
      <trkpt lat="45.5826" lon="6.64684">
        <ele>1655</ele>
        <time>2015-11-27T09:39:56.000Z</time>
      </trkpt>
      <trkpt lat="45.58262" lon="6.64685">
        <ele>1655.8000488281</ele>
        <time>2015-11-27T09:39:59.000Z</time>
      </trkpt>
      <trkpt lat="45.58266" lon="6.64686">
        <ele>1656.5999755859</ele>
        <time>2015-11-27T09:40:04.000Z</time>
      </trkpt>
      <trkpt lat="45.58266" lon="6.64687">
        <ele>1656.8000488281</ele>
        <time>2015-11-27T09:40:05.000Z</time>
      </trkpt>
      <trkpt lat="45.58272" lon="6.64691">
        <ele>1657.8000488281</ele>
        <time>2015-11-27T09:40:11.000Z</time>
      </trkpt>
      <trkpt lat="45.58275" lon="6.64691">
        <ele>1658.4000244141</ele>
        <time>2015-11-27T09:40:15.000Z</time>
      </trkpt>
      <trkpt lat="45.58277" lon="6.64691">
        <ele>1658.8000488281</ele>
        <time>2015-11-27T09:40:18.000Z</time>
      </trkpt>
      <trkpt lat="45.5828" lon="6.64694">
        <ele>1660</ele>
        <time>2015-11-27T09:40:23.000Z</time>
      </trkpt>
      <trkpt lat="45.58282" lon="6.64695">
        <ele>1660.1999511719</ele>
        <time>2015-11-27T09:40:25.000Z</time>
      </trkpt>
      <trkpt lat="45.58285" lon="6.64696">
        <ele>1661</ele>
        <time>2015-11-27T09:40:29.000Z</time>
      </trkpt>
      <trkpt lat="45.58288" lon="6.64697">
        <ele>1661.8000488281</ele>
        <time>2015-11-27T09:40:34.000Z</time>
      </trkpt>
      <trkpt lat="45.58289" lon="6.64697">
        <ele>1662</ele>
        <time>2015-11-27T09:40:35.000Z</time>
      </trkpt>
      <trkpt lat="45.58295" lon="6.64696">
        <ele>1663.1999511719</ele>
        <time>2015-11-27T09:40:42.000Z</time>
      </trkpt>
      <trkpt lat="45.58295" lon="6.64696">
        <ele>1663.4000244141</ele>
        <time>2015-11-27T09:40:43.000Z</time>
      </trkpt>
      <trkpt lat="45.583" lon="6.64695">
        <ele>1664.4000244141</ele>
        <time>2015-11-27T09:40:48.000Z</time>
      </trkpt>
      <trkpt lat="45.58303" lon="6.64694">
        <ele>1665</ele>
        <time>2015-11-27T09:40:52.000Z</time>
      </trkpt>
      <trkpt lat="45.58306" lon="6.64694">
        <ele>1665.4000244141</ele>
        <time>2015-11-27T09:40:56.000Z</time>
      </trkpt>
      <trkpt lat="45.5831" lon="6.64694">
        <ele>1666.1999511719</ele>
        <time>2015-11-27T09:41:01.000Z</time>
      </trkpt>
      <trkpt lat="45.58314" lon="6.64695">
        <ele>1666.5999755859</ele>
        <time>2015-11-27T09:41:04.000Z</time>
      </trkpt>
      <trkpt lat="45.58318" lon="6.64696">
        <ele>1667.1999511719</ele>
        <time>2015-11-27T09:41:08.000Z</time>
      </trkpt>
      <trkpt lat="45.5832" lon="6.64696">
        <ele>1667.8000488281</ele>
        <time>2015-11-27T09:41:10.000Z</time>
      </trkpt>
      <trkpt lat="45.58324" lon="6.64695">
        <ele>1668.8000488281</ele>
        <time>2015-11-27T09:41:16.000Z</time>
      </trkpt>
      <trkpt lat="45.58325" lon="6.64695">
        <ele>1668.8000488281</ele>
        <time>2015-11-27T09:41:17.000Z</time>
      </trkpt>
      <trkpt lat="45.58329" lon="6.64696">
        <ele>1669.8000488281</ele>
        <time>2015-11-27T09:41:22.000Z</time>
      </trkpt>
      <trkpt lat="45.58331" lon="6.64696">
        <ele>1670.5999755859</ele>
        <time>2015-11-27T09:41:26.000Z</time>
      </trkpt>
      <trkpt lat="45.58331" lon="6.64696">
        <ele>1671</ele>
        <time>2015-11-27T09:41:28.000Z</time>
      </trkpt>
      <trkpt lat="45.58339" lon="6.64694">
        <ele>1672</ele>
        <time>2015-11-27T09:41:36.000Z</time>
      </trkpt>
      <trkpt lat="45.5834" lon="6.64693">
        <ele>1672.1999511719</ele>
        <time>2015-11-27T09:41:37.000Z</time>
      </trkpt>
      <trkpt lat="45.58345" lon="6.64693">
        <ele>1673.1999511719</ele>
        <time>2015-11-27T09:41:44.000Z</time>
      </trkpt>
      <trkpt lat="45.58348" lon="6.64693">
        <ele>1673.5999755859</ele>
        <time>2015-11-27T09:41:48.000Z</time>
      </trkpt>
      <trkpt lat="45.58354" lon="6.64692">
        <ele>1674.1999511719</ele>
        <time>2015-11-27T09:41:52.000Z</time>
      </trkpt>
      <trkpt lat="45.58356" lon="6.6469">
        <ele>1675</ele>
        <time>2015-11-27T09:41:57.000Z</time>
      </trkpt>
      <trkpt lat="45.58358" lon="6.64689">
        <ele>1675.4000244141</ele>
        <time>2015-11-27T09:41:59.000Z</time>
      </trkpt>
      <trkpt lat="45.58364" lon="6.64686">
        <ele>1676.5999755859</ele>
        <time>2015-11-27T09:42:06.000Z</time>
      </trkpt>
      <trkpt lat="45.58365" lon="6.64685">
        <ele>1677</ele>
        <time>2015-11-27T09:42:09.000Z</time>
      </trkpt>
      <trkpt lat="45.58369" lon="6.64683">
        <ele>1677.5999755859</ele>
        <time>2015-11-27T09:42:14.000Z</time>
      </trkpt>
      <trkpt lat="45.58372" lon="6.64682">
        <ele>1678</ele>
        <time>2015-11-27T09:42:17.000Z</time>
      </trkpt>
      <trkpt lat="45.58376" lon="6.6468">
        <ele>1678.8000488281</ele>
        <time>2015-11-27T09:42:22.000Z</time>
      </trkpt>
      <trkpt lat="45.58376" lon="6.64679">
        <ele>1679</ele>
        <time>2015-11-27T09:42:23.000Z</time>
      </trkpt>
      <trkpt lat="45.5838" lon="6.64677">
        <ele>1679.5999755859</ele>
        <time>2015-11-27T09:42:30.000Z</time>
      </trkpt>
      <trkpt lat="45.5838" lon="6.64676">
        <ele>1679.8000488281</ele>
        <time>2015-11-27T09:42:32.000Z</time>
      </trkpt>
      <trkpt lat="45.58381" lon="6.64674">
        <ele>1679.8000488281</ele>
        <time>2015-11-27T09:42:36.000Z</time>
      </trkpt>
      <trkpt lat="45.58382" lon="6.64674">
        <ele>1680.1999511719</ele>
        <time>2015-11-27T09:42:44.000Z</time>
      </trkpt>
      <trkpt lat="45.58386" lon="6.6467">
        <ele>1680.5999755859</ele>
        <time>2015-11-27T09:42:52.000Z</time>
      </trkpt>
      <trkpt lat="45.58387" lon="6.64669">
        <ele>1680.8000488281</ele>
        <time>2015-11-27T09:42:53.000Z</time>
      </trkpt>
      <trkpt lat="45.58393" lon="6.64664">
        <ele>1681.5999755859</ele>
        <time>2015-11-27T09:43:00.000Z</time>
      </trkpt>
      <trkpt lat="45.58394" lon="6.64663">
        <ele>1681.8000488281</ele>
        <time>2015-11-27T09:43:01.000Z</time>
      </trkpt>
      <trkpt lat="45.58399" lon="6.6466">
        <ele>1682.5999755859</ele>
        <time>2015-11-27T09:43:06.000Z</time>
      </trkpt>
      <trkpt lat="45.58402" lon="6.64658">
        <ele>1683</ele>
        <time>2015-11-27T09:43:09.000Z</time>
      </trkpt>
      <trkpt lat="45.58404" lon="6.64657">
        <ele>1683.4000244141</ele>
        <time>2015-11-27T09:43:12.000Z</time>
      </trkpt>
      <trkpt lat="45.58407" lon="6.64655">
        <ele>1684</ele>
        <time>2015-11-27T09:43:15.000Z</time>
      </trkpt>
      <trkpt lat="45.58409" lon="6.64653">
        <ele>1684.4000244141</ele>
        <time>2015-11-27T09:43:19.000Z</time>
      </trkpt>
      <trkpt lat="45.58414" lon="6.6465">
        <ele>1685</ele>
        <time>2015-11-27T09:43:24.000Z</time>
      </trkpt>
      <trkpt lat="45.58415" lon="6.6465">
        <ele>1685.1999511719</ele>
        <time>2015-11-27T09:43:26.000Z</time>
      </trkpt>
      <trkpt lat="45.5842" lon="6.64649">
        <ele>1686</ele>
        <time>2015-11-27T09:43:31.000Z</time>
      </trkpt>
      <trkpt lat="45.58422" lon="6.64648">
        <ele>1686.4000244141</ele>
        <time>2015-11-27T09:43:33.000Z</time>
      </trkpt>
      <trkpt lat="45.58424" lon="6.64648">
        <ele>1687</ele>
        <time>2015-11-27T09:43:37.000Z</time>
      </trkpt>
      <trkpt lat="45.58426" lon="6.64647">
        <ele>1687.8000488281</ele>
        <time>2015-11-27T09:43:41.000Z</time>
      </trkpt>
      <trkpt lat="45.58426" lon="6.64647">
        <ele>1688</ele>
        <time>2015-11-27T09:43:45.000Z</time>
      </trkpt>
      <trkpt lat="45.58426" lon="6.64647">
        <ele>1688.1999511719</ele>
        <time>2015-11-27T09:43:51.000Z</time>
      </trkpt>
      <trkpt lat="45.58428" lon="6.64646">
        <ele>1688.4000244141</ele>
        <time>2015-11-27T09:44:01.000Z</time>
      </trkpt>
      <trkpt lat="45.58433" lon="6.64644">
        <ele>1689.1999511719</ele>
        <time>2015-11-27T09:44:07.000Z</time>
      </trkpt>
      <trkpt lat="45.58433" lon="6.64641">
        <ele>1689.5999755859</ele>
        <time>2015-11-27T09:44:10.000Z</time>
      </trkpt>
      <trkpt lat="45.5843" lon="6.64638">
        <ele>1690.4000244141</ele>
        <time>2015-11-27T09:44:14.000Z</time>
      </trkpt>
      <trkpt lat="45.58429" lon="6.64636">
        <ele>1690.5999755859</ele>
        <time>2015-11-27T09:44:16.000Z</time>
      </trkpt>
      <trkpt lat="45.58424" lon="6.64633">
        <ele>1691.4000244141</ele>
        <time>2015-11-27T09:44:22.000Z</time>
      </trkpt>
      <trkpt lat="45.58418" lon="6.64633">
        <ele>1691.8000488281</ele>
        <time>2015-11-27T09:44:27.000Z</time>
      </trkpt>
      <trkpt lat="45.58417" lon="6.64632">
        <ele>1691.8000488281</ele>
        <time>2015-11-27T09:44:28.000Z</time>
      </trkpt>
      <trkpt lat="45.58413" lon="6.6463">
        <ele>1692.4000244141</ele>
        <time>2015-11-27T09:44:32.000Z</time>
      </trkpt>
      <trkpt lat="45.58412" lon="6.64629">
        <ele>1692.4000244141</ele>
        <time>2015-11-27T09:44:33.000Z</time>
      </trkpt>
      <trkpt lat="45.58406" lon="6.64627">
        <ele>1693.4000244141</ele>
        <time>2015-11-27T09:44:40.000Z</time>
      </trkpt>
      <trkpt lat="45.58405" lon="6.64627">
        <ele>1693.4000244141</ele>
        <time>2015-11-27T09:44:41.000Z</time>
      </trkpt>
      <trkpt lat="45.58402" lon="6.64625">
        <ele>1693.8000488281</ele>
        <time>2015-11-27T09:44:45.000Z</time>
      </trkpt>
      <trkpt lat="45.584" lon="6.64624">
        <ele>1694.5999755859</ele>
        <time>2015-11-27T09:44:48.000Z</time>
      </trkpt>
      <trkpt lat="45.58398" lon="6.64623">
        <ele>1695.1999511719</ele>
        <time>2015-11-27T09:44:51.000Z</time>
      </trkpt>
      <trkpt lat="45.58395" lon="6.64621">
        <ele>1695.8000488281</ele>
        <time>2015-11-27T09:44:55.000Z</time>
      </trkpt>
      <trkpt lat="45.58393" lon="6.64621">
        <ele>1696</ele>
        <time>2015-11-27T09:44:57.000Z</time>
      </trkpt>
      <trkpt lat="45.5839" lon="6.64617">
        <ele>1696.8000488281</ele>
        <time>2015-11-27T09:45:02.000Z</time>
      </trkpt>
      <trkpt lat="45.58392" lon="6.64611">
        <ele>1697.8000488281</ele>
        <time>2015-11-27T09:45:08.000Z</time>
      </trkpt>
      <trkpt lat="45.58395" lon="6.6461">
        <ele>1698.8000488281</ele>
        <time>2015-11-27T09:45:12.000Z</time>
      </trkpt>
      <trkpt lat="45.58397" lon="6.6461">
        <ele>1699.4000244141</ele>
        <time>2015-11-27T09:45:15.000Z</time>
      </trkpt>
      <trkpt lat="45.58399" lon="6.64609">
        <ele>1699.8000488281</ele>
        <time>2015-11-27T09:45:18.000Z</time>
      </trkpt>
      <trkpt lat="45.584" lon="6.64607">
        <ele>1700.5999755859</ele>
        <time>2015-11-27T09:45:22.000Z</time>
      </trkpt>
      <trkpt lat="45.58401" lon="6.64606">
        <ele>1701</ele>
        <time>2015-11-27T09:45:24.000Z</time>
      </trkpt>
      <trkpt lat="45.584" lon="6.64602">
        <ele>1702</ele>
        <time>2015-11-27T09:45:28.000Z</time>
      </trkpt>
      <trkpt lat="45.58399" lon="6.64601">
        <ele>1702.1999511719</ele>
        <time>2015-11-27T09:45:29.000Z</time>
      </trkpt>
      <trkpt lat="45.58398" lon="6.646">
        <ele>1702.8000488281</ele>
        <time>2015-11-27T09:45:32.000Z</time>
      </trkpt>
      <trkpt lat="45.58398" lon="6.646">
        <ele>1703.4000244141</ele>
        <time>2015-11-27T09:45:34.000Z</time>
      </trkpt>
      <trkpt lat="45.58396" lon="6.64596">
        <ele>1703.5999755859</ele>
        <time>2015-11-27T09:45:40.000Z</time>
      </trkpt>
      <trkpt lat="45.58394" lon="6.6459">
        <ele>1704.4000244141</ele>
        <time>2015-11-27T09:45:44.000Z</time>
      </trkpt>
      <trkpt lat="45.58394" lon="6.64588">
        <ele>1705</ele>
        <time>2015-11-27T09:45:46.000Z</time>
      </trkpt>
      <trkpt lat="45.58393" lon="6.64586">
        <ele>1705.5999755859</ele>
        <time>2015-11-27T09:45:48.000Z</time>
      </trkpt>
      <trkpt lat="45.58392" lon="6.64581">
        <ele>1706.4000244141</ele>
        <time>2015-11-27T09:45:52.000Z</time>
      </trkpt>
      <trkpt lat="45.58392" lon="6.64581">
        <ele>1706.8000488281</ele>
        <time>2015-11-27T09:45:53.000Z</time>
      </trkpt>
      <trkpt lat="45.58392" lon="6.64573">
        <ele>1707.8000488281</ele>
        <time>2015-11-27T09:45:58.000Z</time>
      </trkpt>
      <trkpt lat="45.58392" lon="6.64569">
        <ele>1709</ele>
        <time>2015-11-27T09:46:02.000Z</time>
      </trkpt>
      <trkpt lat="45.58392" lon="6.64569">
        <ele>1709.5999755859</ele>
        <time>2015-11-27T09:46:04.000Z</time>
      </trkpt>
      <trkpt lat="45.58392" lon="6.64569">
        <ele>1710</ele>
        <time>2015-11-27T09:46:06.000Z</time>
      </trkpt>
      <trkpt lat="45.58392" lon="6.64569">
        <ele>1710</ele>
        <time>2015-11-27T09:46:14.000Z</time>
      </trkpt>
      <trkpt lat="45.58394" lon="6.64568">
        <ele>1710.1999511719</ele>
        <time>2015-11-27T09:46:21.000Z</time>
      </trkpt>
      <trkpt lat="45.58399" lon="6.64567">
        <ele>1711</ele>
        <time>2015-11-27T09:46:26.000Z</time>
      </trkpt>
      <trkpt lat="45.584" lon="6.64567">
        <ele>1711.1999511719</ele>
        <time>2015-11-27T09:46:27.000Z</time>
      </trkpt>
      <trkpt lat="45.58405" lon="6.64565">
        <ele>1712</ele>
        <time>2015-11-27T09:46:33.000Z</time>
      </trkpt>
      <trkpt lat="45.58406" lon="6.64565">
        <ele>1712.4000244141</ele>
        <time>2015-11-27T09:46:34.000Z</time>
      </trkpt>
      <trkpt lat="45.58409" lon="6.64565">
        <ele>1713.1999511719</ele>
        <time>2015-11-27T09:46:38.000Z</time>
      </trkpt>
      <trkpt lat="45.5841" lon="6.64565">
        <ele>1713.8000488281</ele>
        <time>2015-11-27T09:46:41.000Z</time>
      </trkpt>
      <trkpt lat="45.58412" lon="6.64565">
        <ele>1714.1999511719</ele>
        <time>2015-11-27T09:46:44.000Z</time>
      </trkpt>
      <trkpt lat="45.58414" lon="6.64564">
        <ele>1715</ele>
        <time>2015-11-27T09:46:48.000Z</time>
      </trkpt>
      <trkpt lat="45.58417" lon="6.64563">
        <ele>1715.4000244141</ele>
        <time>2015-11-27T09:46:53.000Z</time>
      </trkpt>
      <trkpt lat="45.58418" lon="6.64562">
        <ele>1715.8000488281</ele>
        <time>2015-11-27T09:46:55.000Z</time>
      </trkpt>
      <trkpt lat="45.5842" lon="6.64561">
        <ele>1716.5999755859</ele>
        <time>2015-11-27T09:46:59.000Z</time>
      </trkpt>
      <trkpt lat="45.58421" lon="6.6456">
        <ele>1716.8000488281</ele>
        <time>2015-11-27T09:47:01.000Z</time>
      </trkpt>
      <trkpt lat="45.58425" lon="6.64559">
        <ele>1717.5999755859</ele>
        <time>2015-11-27T09:47:06.000Z</time>
      </trkpt>
      <trkpt lat="45.58427" lon="6.64558">
        <ele>1718</ele>
        <time>2015-11-27T09:47:08.000Z</time>
      </trkpt>
      <trkpt lat="45.5843" lon="6.64556">
        <ele>1718.8000488281</ele>
        <time>2015-11-27T09:47:12.000Z</time>
      </trkpt>
      <trkpt lat="45.58431" lon="6.64555">
        <ele>1719.4000244141</ele>
        <time>2015-11-27T09:47:14.000Z</time>
      </trkpt>
      <trkpt lat="45.58432" lon="6.64554">
        <ele>1719.8000488281</ele>
        <time>2015-11-27T09:47:16.000Z</time>
      </trkpt>
      <trkpt lat="45.58434" lon="6.64554">
        <ele>1720.4000244141</ele>
        <time>2015-11-27T09:47:19.000Z</time>
      </trkpt>
      <trkpt lat="45.58436" lon="6.64554">
        <ele>1721</ele>
        <time>2015-11-27T09:47:22.000Z</time>
      </trkpt>
      <trkpt lat="45.5844" lon="6.64555">
        <ele>1721.8000488281</ele>
        <time>2015-11-27T09:47:27.000Z</time>
      </trkpt>
      <trkpt lat="45.58441" lon="6.64555">
        <ele>1722</ele>
        <time>2015-11-27T09:47:28.000Z</time>
      </trkpt>
      <trkpt lat="45.58444" lon="6.64553">
        <ele>1723</ele>
        <time>2015-11-27T09:47:33.000Z</time>
      </trkpt>
      <trkpt lat="45.58448" lon="6.64551">
        <ele>1724.1999511719</ele>
        <time>2015-11-27T09:47:38.000Z</time>
      </trkpt>
      <trkpt lat="45.58449" lon="6.64551">
        <ele>1724.4000244141</ele>
        <time>2015-11-27T09:47:39.000Z</time>
      </trkpt>
      <trkpt lat="45.5845" lon="6.64549">
        <ele>1725.4000244141</ele>
        <time>2015-11-27T09:47:43.000Z</time>
      </trkpt>
      <trkpt lat="45.5845" lon="6.64549">
        <ele>1725.5999755859</ele>
        <time>2015-11-27T09:47:44.000Z</time>
      </trkpt>
      <trkpt lat="45.58453" lon="6.64549">
        <ele>1726.4000244141</ele>
        <time>2015-11-27T09:47:48.000Z</time>
      </trkpt>
      <trkpt lat="45.58454" lon="6.64548">
        <ele>1726.5999755859</ele>
        <time>2015-11-27T09:47:49.000Z</time>
      </trkpt>
      <trkpt lat="45.58457" lon="6.64547">
        <ele>1727.4000244141</ele>
        <time>2015-11-27T09:47:53.000Z</time>
      </trkpt>
      <trkpt lat="45.58459" lon="6.64546">
        <ele>1728</ele>
        <time>2015-11-27T09:47:55.000Z</time>
      </trkpt>
      <trkpt lat="45.5846" lon="6.64545">
        <ele>1728.5999755859</ele>
        <time>2015-11-27T09:47:58.000Z</time>
      </trkpt>
      <trkpt lat="45.58461" lon="6.64544">
        <ele>1728.8000488281</ele>
        <time>2015-11-27T09:48:00.000Z</time>
      </trkpt>
      <trkpt lat="45.5846" lon="6.64543">
        <ele>1729.5999755859</ele>
        <time>2015-11-27T09:48:05.000Z</time>
      </trkpt>
      <trkpt lat="45.58459" lon="6.64542">
        <ele>1729.8000488281</ele>
        <time>2015-11-27T09:48:06.000Z</time>
      </trkpt>
      <trkpt lat="45.5846" lon="6.64538">
        <ele>1730.5999755859</ele>
        <time>2015-11-27T09:48:11.000Z</time>
      </trkpt>
      <trkpt lat="45.58463" lon="6.64535">
        <ele>1731.5999755859</ele>
        <time>2015-11-27T09:48:17.000Z</time>
      </trkpt>
      <trkpt lat="45.58464" lon="6.64534">
        <ele>1731.8000488281</ele>
        <time>2015-11-27T09:48:19.000Z</time>
      </trkpt>
      <trkpt lat="45.58464" lon="6.64534">
        <ele>1732.4000244141</ele>
        <time>2015-11-27T09:48:22.000Z</time>
      </trkpt>
      <trkpt lat="45.58464" lon="6.64534">
        <ele>1732.5999755859</ele>
        <time>2015-11-27T09:48:38.000Z</time>
      </trkpt>
      <trkpt lat="45.58464" lon="6.64534">
        <ele>1732.8000488281</ele>
        <time>2015-11-27T09:48:52.000Z</time>
      </trkpt>
      <trkpt lat="45.58465" lon="6.64534">
        <ele>1732.8000488281</ele>
        <time>2015-11-27T09:49:00.000Z</time>
      </trkpt>
      <trkpt lat="45.58465" lon="6.64534">
        <ele>1732.8000488281</ele>
        <time>2015-11-27T09:49:02.000Z</time>
      </trkpt>
      <trkpt lat="45.58466" lon="6.64534">
        <ele>1733.4000244141</ele>
        <time>2015-11-27T09:49:08.000Z</time>
      </trkpt>
      <trkpt lat="45.58468" lon="6.64532">
        <ele>1734</ele>
        <time>2015-11-27T09:49:13.000Z</time>
      </trkpt>
      <trkpt lat="45.58469" lon="6.64532">
        <ele>1734</ele>
        <time>2015-11-27T09:49:14.000Z</time>
      </trkpt>
      <trkpt lat="45.58471" lon="6.64529">
        <ele>1735</ele>
        <time>2015-11-27T09:49:18.000Z</time>
      </trkpt>
      <trkpt lat="45.58471" lon="6.64528">
        <ele>1735</ele>
        <time>2015-11-27T09:49:19.000Z</time>
      </trkpt>
      <trkpt lat="45.58473" lon="6.64525">
        <ele>1735.8000488281</ele>
        <time>2015-11-27T09:49:23.000Z</time>
      </trkpt>
      <trkpt lat="45.58474" lon="6.64524">
        <ele>1736</ele>
        <time>2015-11-27T09:49:24.000Z</time>
      </trkpt>
      <trkpt lat="45.58477" lon="6.6452">
        <ele>1736.8000488281</ele>
        <time>2015-11-27T09:49:29.000Z</time>
      </trkpt>
      <trkpt lat="45.58475" lon="6.64518">
        <ele>1737.1999511719</ele>
        <time>2015-11-27T09:49:32.000Z</time>
      </trkpt>
      <trkpt lat="45.58474" lon="6.64517">
        <ele>1737.4000244141</ele>
        <time>2015-11-27T09:49:33.000Z</time>
      </trkpt>
      <trkpt lat="45.58473" lon="6.64517">
        <ele>1737.8000488281</ele>
        <time>2015-11-27T09:49:34.000Z</time>
      </trkpt>
      <trkpt lat="45.58472" lon="6.64515">
        <ele>1738.4000244141</ele>
        <time>2015-11-27T09:49:36.000Z</time>
      </trkpt>
      <trkpt lat="45.58469" lon="6.64513">
        <ele>1739.1999511719</ele>
        <time>2015-11-27T09:49:40.000Z</time>
      </trkpt>
      <trkpt lat="45.58468" lon="6.64512">
        <ele>1739.4000244141</ele>
        <time>2015-11-27T09:49:42.000Z</time>
      </trkpt>
      <trkpt lat="45.58467" lon="6.6451">
        <ele>1740.1999511719</ele>
        <time>2015-11-27T09:49:45.000Z</time>
      </trkpt>
      <trkpt lat="45.58466" lon="6.64508">
        <ele>1740.5999755859</ele>
        <time>2015-11-27T09:49:46.000Z</time>
      </trkpt>
      <trkpt lat="45.58465" lon="6.64506">
        <ele>1741.1999511719</ele>
        <time>2015-11-27T09:49:50.000Z</time>
      </trkpt>
      <trkpt lat="45.58465" lon="6.64505">
        <ele>1741.5999755859</ele>
        <time>2015-11-27T09:49:51.000Z</time>
      </trkpt>
      <trkpt lat="45.58462" lon="6.64501">
        <ele>1742.5999755859</ele>
        <time>2015-11-27T09:49:56.000Z</time>
      </trkpt>
      <trkpt lat="45.58462" lon="6.64499">
        <ele>1743.5999755859</ele>
        <time>2015-11-27T09:50:01.000Z</time>
      </trkpt>
      <trkpt lat="45.58461" lon="6.64499">
        <ele>1743.8000488281</ele>
        <time>2015-11-27T09:50:02.000Z</time>
      </trkpt>
      <trkpt lat="45.58459" lon="6.64495">
        <ele>1744.8000488281</ele>
        <time>2015-11-27T09:50:07.000Z</time>
      </trkpt>
      <trkpt lat="45.58459" lon="6.64494">
        <ele>1745</ele>
        <time>2015-11-27T09:50:08.000Z</time>
      </trkpt>
      <trkpt lat="45.58458" lon="6.64494">
        <ele>1746</ele>
        <time>2015-11-27T09:50:13.000Z</time>
      </trkpt>
      <trkpt lat="45.58458" lon="6.64494">
        <ele>1746</ele>
        <time>2015-11-27T09:50:14.000Z</time>
      </trkpt>
      <trkpt lat="45.58457" lon="6.64493">
        <ele>1746.8000488281</ele>
        <time>2015-11-27T09:50:23.000Z</time>
      </trkpt>
      <trkpt lat="45.58456" lon="6.64492">
        <ele>1747</ele>
        <time>2015-11-27T09:50:25.000Z</time>
      </trkpt>
      <trkpt lat="45.58453" lon="6.64488">
        <ele>1747</ele>
        <time>2015-11-27T09:50:29.000Z</time>
      </trkpt>
      <trkpt lat="45.58449" lon="6.64485">
        <ele>1748</ele>
        <time>2015-11-27T09:50:34.000Z</time>
      </trkpt>
      <trkpt lat="45.58449" lon="6.64484">
        <ele>1748.1999511719</ele>
        <time>2015-11-27T09:50:35.000Z</time>
      </trkpt>
      <trkpt lat="45.58446" lon="6.64478">
        <ele>1749.1999511719</ele>
        <time>2015-11-27T09:50:40.000Z</time>
      </trkpt>
      <trkpt lat="45.58445" lon="6.64473">
        <ele>1750.1999511719</ele>
        <time>2015-11-27T09:50:45.000Z</time>
      </trkpt>
      <trkpt lat="45.58445" lon="6.64473">
        <ele>1750.1999511719</ele>
        <time>2015-11-27T09:50:46.000Z</time>
      </trkpt>
      <trkpt lat="45.58443" lon="6.64469">
        <ele>1751.1999511719</ele>
        <time>2015-11-27T09:50:50.000Z</time>
      </trkpt>
      <trkpt lat="45.58442" lon="6.64468">
        <ele>1751.4000244141</ele>
        <time>2015-11-27T09:50:51.000Z</time>
      </trkpt>
      <trkpt lat="45.58441" lon="6.64464">
        <ele>1752</ele>
        <time>2015-11-27T09:50:56.000Z</time>
      </trkpt>
      <trkpt lat="45.5844" lon="6.64462">
        <ele>1752.4000244141</ele>
        <time>2015-11-27T09:50:59.000Z</time>
      </trkpt>
      <trkpt lat="45.5844" lon="6.64459">
        <ele>1752.8000488281</ele>
        <time>2015-11-27T09:51:02.000Z</time>
      </trkpt>
      <trkpt lat="45.58442" lon="6.64458">
        <ele>1753.5999755859</ele>
        <time>2015-11-27T09:51:07.000Z</time>
      </trkpt>
      <trkpt lat="45.58443" lon="6.64458">
        <ele>1754</ele>
        <time>2015-11-27T09:51:09.000Z</time>
      </trkpt>
      <trkpt lat="45.58446" lon="6.64457">
        <ele>1754.8000488281</ele>
        <time>2015-11-27T09:51:12.000Z</time>
      </trkpt>
      <trkpt lat="45.58448" lon="6.64457">
        <ele>1755.1999511719</ele>
        <time>2015-11-27T09:51:14.000Z</time>
      </trkpt>
      <trkpt lat="45.5845" lon="6.64457">
        <ele>1755.8000488281</ele>
        <time>2015-11-27T09:51:17.000Z</time>
      </trkpt>
      <trkpt lat="45.58451" lon="6.64457">
        <ele>1756.1999511719</ele>
        <time>2015-11-27T09:51:19.000Z</time>
      </trkpt>
      <trkpt lat="45.58455" lon="6.64456">
        <ele>1757</ele>
        <time>2015-11-27T09:51:23.000Z</time>
      </trkpt>
      <trkpt lat="45.58457" lon="6.64456">
        <ele>1757.4000244141</ele>
        <time>2015-11-27T09:51:25.000Z</time>
      </trkpt>
      <trkpt lat="45.58459" lon="6.64455">
        <ele>1758</ele>
        <time>2015-11-27T09:51:28.000Z</time>
      </trkpt>
      <trkpt lat="45.5846" lon="6.64455">
        <ele>1758.5999755859</ele>
        <time>2015-11-27T09:51:31.000Z</time>
      </trkpt>
      <trkpt lat="45.5846" lon="6.64452">
        <ele>1759</ele>
        <time>2015-11-27T09:51:34.000Z</time>
      </trkpt>
      <trkpt lat="45.58459" lon="6.64451">
        <ele>1759.1999511719</ele>
        <time>2015-11-27T09:51:35.000Z</time>
      </trkpt>
      <trkpt lat="45.58457" lon="6.64448">
        <ele>1760.1999511719</ele>
        <time>2015-11-27T09:51:38.000Z</time>
      </trkpt>
      <trkpt lat="45.58455" lon="6.64445">
        <ele>1760.4000244141</ele>
        <time>2015-11-27T09:51:41.000Z</time>
      </trkpt>
      <trkpt lat="45.58454" lon="6.64441">
        <ele>1760.8000488281</ele>
        <time>2015-11-27T09:51:46.000Z</time>
      </trkpt>
      <trkpt lat="45.58454" lon="6.64439">
        <ele>1761.4000244141</ele>
        <time>2015-11-27T09:51:48.000Z</time>
      </trkpt>
      <trkpt lat="45.58453" lon="6.64435">
        <ele>1762.1999511719</ele>
        <time>2015-11-27T09:51:52.000Z</time>
      </trkpt>
      <trkpt lat="45.58452" lon="6.64433">
        <ele>1762.5999755859</ele>
        <time>2015-11-27T09:51:54.000Z</time>
      </trkpt>
      <trkpt lat="45.5845" lon="6.64431">
        <ele>1763.1999511719</ele>
        <time>2015-11-27T09:51:57.000Z</time>
      </trkpt>
      <trkpt lat="45.58449" lon="6.64429">
        <ele>1763.8000488281</ele>
        <time>2015-11-27T09:52:00.000Z</time>
      </trkpt>
      <trkpt lat="45.5845" lon="6.64428">
        <ele>1764.1999511719</ele>
        <time>2015-11-27T09:52:02.000Z</time>
      </trkpt>
      <trkpt lat="45.5845" lon="6.64423">
        <ele>1765</ele>
        <time>2015-11-27T09:52:06.000Z</time>
      </trkpt>
      <trkpt lat="45.58449" lon="6.64421">
        <ele>1765.1999511719</ele>
        <time>2015-11-27T09:52:07.000Z</time>
      </trkpt>
      <trkpt lat="45.58447" lon="6.6442">
        <ele>1766</ele>
        <time>2015-11-27T09:52:12.000Z</time>
      </trkpt>
      <trkpt lat="45.58445" lon="6.64414">
        <ele>1767.1999511719</ele>
        <time>2015-11-27T09:52:18.000Z</time>
      </trkpt>
      <trkpt lat="45.58442" lon="6.64411">
        <ele>1768.1999511719</ele>
        <time>2015-11-27T09:52:23.000Z</time>
      </trkpt>
      <trkpt lat="45.58442" lon="6.6441">
        <ele>1768.4000244141</ele>
        <time>2015-11-27T09:52:24.000Z</time>
      </trkpt>
      <trkpt lat="45.58439" lon="6.64405">
        <ele>1769.1999511719</ele>
        <time>2015-11-27T09:52:29.000Z</time>
      </trkpt>
      <trkpt lat="45.58438" lon="6.64403">
        <ele>1769.5999755859</ele>
        <time>2015-11-27T09:52:31.000Z</time>
      </trkpt>
      <trkpt lat="45.58436" lon="6.64401">
        <ele>1770</ele>
        <time>2015-11-27T09:52:34.000Z</time>
      </trkpt>
      <trkpt lat="45.58435" lon="6.64398">
        <ele>1770.5999755859</ele>
        <time>2015-11-27T09:52:37.000Z</time>
      </trkpt>
      <trkpt lat="45.58433" lon="6.64395">
        <ele>1771.1999511719</ele>
        <time>2015-11-27T09:52:40.000Z</time>
      </trkpt>
      <trkpt lat="45.58433" lon="6.64394">
        <ele>1771.5999755859</ele>
        <time>2015-11-27T09:52:42.000Z</time>
      </trkpt>
      <trkpt lat="45.58433" lon="6.6439">
        <ele>1772.1999511719</ele>
        <time>2015-11-27T09:52:46.000Z</time>
      </trkpt>
      <trkpt lat="45.58432" lon="6.64388">
        <ele>1772.5999755859</ele>
        <time>2015-11-27T09:52:48.000Z</time>
      </trkpt>
      <trkpt lat="45.5843" lon="6.64385">
        <ele>1773.4000244141</ele>
        <time>2015-11-27T09:52:52.000Z</time>
      </trkpt>
      <trkpt lat="45.58429" lon="6.64384">
        <ele>1773.5999755859</ele>
        <time>2015-11-27T09:52:53.000Z</time>
      </trkpt>
      <trkpt lat="45.58426" lon="6.64382">
        <ele>1774.8000488281</ele>
        <time>2015-11-27T09:52:57.000Z</time>
      </trkpt>
      <trkpt lat="45.58426" lon="6.6438">
        <ele>1775.1999511719</ele>
        <time>2015-11-27T09:52:59.000Z</time>
      </trkpt>
      <trkpt lat="45.58427" lon="6.64377">
        <ele>1775.8000488281</ele>
        <time>2015-11-27T09:53:02.000Z</time>
      </trkpt>
      <trkpt lat="45.58428" lon="6.64374">
        <ele>1776.4000244141</ele>
        <time>2015-11-27T09:53:05.000Z</time>
      </trkpt>
      <trkpt lat="45.58428" lon="6.64373">
        <ele>1776.8000488281</ele>
        <time>2015-11-27T09:53:07.000Z</time>
      </trkpt>
      <trkpt lat="45.58428" lon="6.64372">
        <ele>1777.4000244141</ele>
        <time>2015-11-27T09:53:10.000Z</time>
      </trkpt>
      <trkpt lat="45.58427" lon="6.64371">
        <ele>1778</ele>
        <time>2015-11-27T09:53:12.000Z</time>
      </trkpt>
      <trkpt lat="45.58423" lon="6.64369">
        <ele>1779</ele>
        <time>2015-11-27T09:53:16.000Z</time>
      </trkpt>
      <trkpt lat="45.5842" lon="6.64363">
        <ele>1780</ele>
        <time>2015-11-27T09:53:22.000Z</time>
      </trkpt>
      <trkpt lat="45.58419" lon="6.64363">
        <ele>1780.1999511719</ele>
        <time>2015-11-27T09:53:23.000Z</time>
      </trkpt>
      <trkpt lat="45.58415" lon="6.64359">
        <ele>1780.8000488281</ele>
        <time>2015-11-27T09:53:29.000Z</time>
      </trkpt>
      <trkpt lat="45.58414" lon="6.64357">
        <ele>1781.4000244141</ele>
        <time>2015-11-27T09:53:32.000Z</time>
      </trkpt>
      <trkpt lat="45.58412" lon="6.64353">
        <ele>1782.5999755859</ele>
        <time>2015-11-27T09:53:36.000Z</time>
      </trkpt>
      <trkpt lat="45.5841" lon="6.64349">
        <ele>1783.5999755859</ele>
        <time>2015-11-27T09:53:41.000Z</time>
      </trkpt>
      <trkpt lat="45.5841" lon="6.64347">
        <ele>1783.8000488281</ele>
        <time>2015-11-27T09:53:42.000Z</time>
      </trkpt>
      <trkpt lat="45.58409" lon="6.64344">
        <ele>1784.8000488281</ele>
        <time>2015-11-27T09:53:47.000Z</time>
      </trkpt>
      <trkpt lat="45.58409" lon="6.64344">
        <ele>1785.1999511719</ele>
        <time>2015-11-27T09:53:48.000Z</time>
      </trkpt>
      <trkpt lat="45.58409" lon="6.64337">
        <ele>1786</ele>
        <time>2015-11-27T09:53:53.000Z</time>
      </trkpt>
      <trkpt lat="45.58409" lon="6.64337">
        <ele>1786.1999511719</ele>
        <time>2015-11-27T09:53:54.000Z</time>
      </trkpt>
      <trkpt lat="45.58406" lon="6.64336">
        <ele>1787.1999511719</ele>
        <time>2015-11-27T09:53:58.000Z</time>
      </trkpt>
      <trkpt lat="45.58406" lon="6.64337">
        <ele>1787.5999755859</ele>
        <time>2015-11-27T09:53:59.000Z</time>
      </trkpt>
      <trkpt lat="45.58404" lon="6.64338">
        <ele>1788.4000244141</ele>
        <time>2015-11-27T09:54:02.000Z</time>
      </trkpt>
      <trkpt lat="45.58402" lon="6.64338">
        <ele>1788.5999755859</ele>
        <time>2015-11-27T09:54:04.000Z</time>
      </trkpt>
      <trkpt lat="45.58402" lon="6.64334">
        <ele>1789.4000244141</ele>
        <time>2015-11-27T09:54:10.000Z</time>
      </trkpt>
      <trkpt lat="45.58404" lon="6.64327">
        <ele>1790.5999755859</ele>
        <time>2015-11-27T09:54:16.000Z</time>
      </trkpt>
      <trkpt lat="45.58404" lon="6.64324">
        <ele>1791.8000488281</ele>
        <time>2015-11-27T09:54:22.000Z</time>
      </trkpt>
      <trkpt lat="45.58404" lon="6.64324">
        <ele>1792</ele>
        <time>2015-11-27T09:54:23.000Z</time>
      </trkpt>
      <trkpt lat="45.58404" lon="6.64323">
        <ele>1792.8000488281</ele>
        <time>2015-11-27T09:54:25.000Z</time>
      </trkpt>
      <trkpt lat="45.58399" lon="6.6432">
        <ele>1793.5999755859</ele>
        <time>2015-11-27T09:54:30.000Z</time>
      </trkpt>
      <trkpt lat="45.58398" lon="6.64319">
        <ele>1793.8000488281</ele>
        <time>2015-11-27T09:54:31.000Z</time>
      </trkpt>
      <trkpt lat="45.58397" lon="6.64314">
        <ele>1794.8000488281</ele>
        <time>2015-11-27T09:54:36.000Z</time>
      </trkpt>
      <trkpt lat="45.58396" lon="6.64312">
        <ele>1796</ele>
        <time>2015-11-27T09:54:42.000Z</time>
      </trkpt>
      <trkpt lat="45.58394" lon="6.64308">
        <ele>1797.4000244141</ele>
        <time>2015-11-27T09:54:48.000Z</time>
      </trkpt>
      <trkpt lat="45.58393" lon="6.64304">
        <ele>1798.4000244141</ele>
        <time>2015-11-27T09:54:53.000Z</time>
      </trkpt>
      <trkpt lat="45.58393" lon="6.64303">
        <ele>1798.5999755859</ele>
        <time>2015-11-27T09:54:54.000Z</time>
      </trkpt>
      <trkpt lat="45.58392" lon="6.64298">
        <ele>1799.5999755859</ele>
        <time>2015-11-27T09:54:59.000Z</time>
      </trkpt>
      <trkpt lat="45.5839" lon="6.64297">
        <ele>1800</ele>
        <time>2015-11-27T09:55:01.000Z</time>
      </trkpt>
      <trkpt lat="45.58387" lon="6.64297">
        <ele>1800.5999755859</ele>
        <time>2015-11-27T09:55:04.000Z</time>
      </trkpt>
      <trkpt lat="45.58385" lon="6.64296">
        <ele>1801</ele>
        <time>2015-11-27T09:55:07.000Z</time>
      </trkpt>
      <trkpt lat="45.58384" lon="6.64294">
        <ele>1802</ele>
        <time>2015-11-27T09:55:12.000Z</time>
      </trkpt>
      <trkpt lat="45.58384" lon="6.64292">
        <ele>1802.5999755859</ele>
        <time>2015-11-27T09:55:15.000Z</time>
      </trkpt>
      <trkpt lat="45.58384" lon="6.64289">
        <ele>1803</ele>
        <time>2015-11-27T09:55:17.000Z</time>
      </trkpt>
      <trkpt lat="45.58383" lon="6.64284">
        <ele>1804.1999511719</ele>
        <time>2015-11-27T09:55:22.000Z</time>
      </trkpt>
      <trkpt lat="45.58378" lon="6.64281">
        <ele>1805.4000244141</ele>
        <time>2015-11-27T09:55:29.000Z</time>
      </trkpt>
      <trkpt lat="45.58375" lon="6.64279">
        <ele>1806.4000244141</ele>
        <time>2015-11-27T09:55:35.000Z</time>
      </trkpt>
      <trkpt lat="45.58375" lon="6.64279">
        <ele>1807</ele>
        <time>2015-11-27T09:55:36.000Z</time>
      </trkpt>
      <trkpt lat="45.58374" lon="6.64276">
        <ele>1807.5999755859</ele>
        <time>2015-11-27T09:55:40.000Z</time>
      </trkpt>
      <trkpt lat="45.58372" lon="6.64274">
        <ele>1808.8000488281</ele>
        <time>2015-11-27T09:55:45.000Z</time>
      </trkpt>
      <trkpt lat="45.58368" lon="6.64272">
        <ele>1810</ele>
        <time>2015-11-27T09:55:51.000Z</time>
      </trkpt>
      <trkpt lat="45.58367" lon="6.64271">
        <ele>1810</ele>
        <time>2015-11-27T09:55:52.000Z</time>
      </trkpt>
      <trkpt lat="45.58365" lon="6.64265">
        <ele>1811</ele>
        <time>2015-11-27T09:55:59.000Z</time>
      </trkpt>
      <trkpt lat="45.58365" lon="6.64264">
        <ele>1811.5999755859</ele>
        <time>2015-11-27T09:56:01.000Z</time>
      </trkpt>
      <trkpt lat="45.58364" lon="6.64262">
        <ele>1812.1999511719</ele>
        <time>2015-11-27T09:56:04.000Z</time>
      </trkpt>
      <trkpt lat="45.58363" lon="6.64261">
        <ele>1812.5999755859</ele>
        <time>2015-11-27T09:56:06.000Z</time>
      </trkpt>
      <trkpt lat="45.5836" lon="6.6426">
        <ele>1813.4000244141</ele>
        <time>2015-11-27T09:56:09.000Z</time>
      </trkpt>
      <trkpt lat="45.58358" lon="6.6426">
        <ele>1814.1999511719</ele>
        <time>2015-11-27T09:56:12.000Z</time>
      </trkpt>
      <trkpt lat="45.58356" lon="6.6426">
        <ele>1814.5999755859</ele>
        <time>2015-11-27T09:56:15.000Z</time>
      </trkpt>
      <trkpt lat="45.58353" lon="6.6426">
        <ele>1815.1999511719</ele>
        <time>2015-11-27T09:56:20.000Z</time>
      </trkpt>
      <trkpt lat="45.58352" lon="6.64259">
        <ele>1815.5999755859</ele>
        <time>2015-11-27T09:56:22.000Z</time>
      </trkpt>
      <trkpt lat="45.58348" lon="6.6426">
        <ele>1816.4000244141</ele>
        <time>2015-11-27T09:56:27.000Z</time>
      </trkpt>
      <trkpt lat="45.58348" lon="6.64259">
        <ele>1816.8000488281</ele>
        <time>2015-11-27T09:56:29.000Z</time>
      </trkpt>
      <trkpt lat="45.58343" lon="6.64253">
        <ele>1817.8000488281</ele>
        <time>2015-11-27T09:56:35.000Z</time>
      </trkpt>
      <trkpt lat="45.58343" lon="6.64253">
        <ele>1818</ele>
        <time>2015-11-27T09:56:36.000Z</time>
      </trkpt>
      <trkpt lat="45.58341" lon="6.64249">
        <ele>1819</ele>
        <time>2015-11-27T09:56:40.000Z</time>
      </trkpt>
      <trkpt lat="45.58341" lon="6.64246">
        <ele>1819.5999755859</ele>
        <time>2015-11-27T09:56:44.000Z</time>
      </trkpt>
      <trkpt lat="45.5834" lon="6.64244">
        <ele>1820</ele>
        <time>2015-11-27T09:56:46.000Z</time>
      </trkpt>
      <trkpt lat="45.58339" lon="6.64242">
        <ele>1821.1999511719</ele>
        <time>2015-11-27T09:56:50.000Z</time>
      </trkpt>
      <trkpt lat="45.58338" lon="6.64241">
        <ele>1822.1999511719</ele>
        <time>2015-11-27T09:56:55.000Z</time>
      </trkpt>
      <trkpt lat="45.58337" lon="6.6424">
        <ele>1822.4000244141</ele>
        <time>2015-11-27T09:56:56.000Z</time>
      </trkpt>
      <trkpt lat="45.58333" lon="6.64239">
        <ele>1823.4000244141</ele>
        <time>2015-11-27T09:57:01.000Z</time>
      </trkpt>
      <trkpt lat="45.58327" lon="6.64236">
        <ele>1824.5999755859</ele>
        <time>2015-11-27T09:57:08.000Z</time>
      </trkpt>
      <trkpt lat="45.58323" lon="6.64229">
        <ele>1825.5999755859</ele>
        <time>2015-11-27T09:57:14.000Z</time>
      </trkpt>
      <trkpt lat="45.58326" lon="6.64228">
        <ele>1826.4000244141</ele>
        <time>2015-11-27T09:57:21.000Z</time>
      </trkpt>
      <trkpt lat="45.58327" lon="6.64228">
        <ele>1826.5999755859</ele>
        <time>2015-11-27T09:57:23.000Z</time>
      </trkpt>
      <trkpt lat="45.58331" lon="6.64228">
        <ele>1827.4000244141</ele>
        <time>2015-11-27T09:57:29.000Z</time>
      </trkpt>
      <trkpt lat="45.58332" lon="6.64228">
        <ele>1827.8000488281</ele>
        <time>2015-11-27T09:57:31.000Z</time>
      </trkpt>
      <trkpt lat="45.58333" lon="6.64226">
        <ele>1828.4000244141</ele>
        <time>2015-11-27T09:57:35.000Z</time>
      </trkpt>
      <trkpt lat="45.58333" lon="6.64224">
        <ele>1828.8000488281</ele>
        <time>2015-11-27T09:57:38.000Z</time>
      </trkpt>
      <trkpt lat="45.58332" lon="6.64224">
        <ele>1829</ele>
        <time>2015-11-27T09:57:39.000Z</time>
      </trkpt>
      <trkpt lat="45.58329" lon="6.64221">
        <ele>1829.8000488281</ele>
        <time>2015-11-27T09:57:44.000Z</time>
      </trkpt>
      <trkpt lat="45.58328" lon="6.6422">
        <ele>1830.1999511719</ele>
        <time>2015-11-27T09:57:45.000Z</time>
      </trkpt>
      <trkpt lat="45.58326" lon="6.64218">
        <ele>1831</ele>
        <time>2015-11-27T09:57:50.000Z</time>
      </trkpt>
      <trkpt lat="45.58325" lon="6.64218">
        <ele>1831.1999511719</ele>
        <time>2015-11-27T09:57:51.000Z</time>
      </trkpt>
      <trkpt lat="45.58321" lon="6.64216">
        <ele>1832.1999511719</ele>
        <time>2015-11-27T09:57:59.000Z</time>
      </trkpt>
      <trkpt lat="45.58321" lon="6.64216">
        <ele>1832.4000244141</ele>
        <time>2015-11-27T09:58:00.000Z</time>
      </trkpt>
      <trkpt lat="45.58321" lon="6.64214">
        <ele>1833.1999511719</ele>
        <time>2015-11-27T09:58:05.000Z</time>
      </trkpt>
      <trkpt lat="45.58321" lon="6.64213">
        <ele>1833.5999755859</ele>
        <time>2015-11-27T09:58:07.000Z</time>
      </trkpt>
      <trkpt lat="45.58325" lon="6.64209">
        <ele>1833.8000488281</ele>
        <time>2015-11-27T09:58:13.000Z</time>
      </trkpt>
      <trkpt lat="45.58324" lon="6.64205">
        <ele>1834</ele>
        <time>2015-11-27T09:58:18.000Z</time>
      </trkpt>
      <trkpt lat="45.58324" lon="6.64205">
        <ele>1834.1999511719</ele>
        <time>2015-11-27T09:58:19.000Z</time>
      </trkpt>
      <trkpt lat="45.5832" lon="6.64202">
        <ele>1835.4000244141</ele>
        <time>2015-11-27T09:58:23.000Z</time>
      </trkpt>
      <trkpt lat="45.58319" lon="6.64203">
        <ele>1836.4000244141</ele>
        <time>2015-11-27T09:58:27.000Z</time>
      </trkpt>
      <trkpt lat="45.58318" lon="6.64203">
        <ele>1836.4000244141</ele>
        <time>2015-11-27T09:58:28.000Z</time>
      </trkpt>
      <trkpt lat="45.58315" lon="6.64203">
        <ele>1837.1999511719</ele>
        <time>2015-11-27T09:58:33.000Z</time>
      </trkpt>
      <trkpt lat="45.58314" lon="6.64202">
        <ele>1837.4000244141</ele>
        <time>2015-11-27T09:58:35.000Z</time>
      </trkpt>
      <trkpt lat="45.58311" lon="6.64201">
        <ele>1838.4000244141</ele>
        <time>2015-11-27T09:58:41.000Z</time>
      </trkpt>
      <trkpt lat="45.5831" lon="6.64201">
        <ele>1838.4000244141</ele>
        <time>2015-11-27T09:58:42.000Z</time>
      </trkpt>
      <trkpt lat="45.58304" lon="6.64202">
        <ele>1839.5999755859</ele>
        <time>2015-11-27T09:58:49.000Z</time>
      </trkpt>
      <trkpt lat="45.58299" lon="6.642">
        <ele>1840.1999511719</ele>
        <time>2015-11-27T09:58:56.000Z</time>
      </trkpt>
      <trkpt lat="45.58297" lon="6.64199">
        <ele>1840.5999755859</ele>
        <time>2015-11-27T09:58:59.000Z</time>
      </trkpt>
      <trkpt lat="45.58294" lon="6.64196">
        <ele>1841.4000244141</ele>
        <time>2015-11-27T09:59:03.000Z</time>
      </trkpt>
      <trkpt lat="45.58293" lon="6.64195">
        <ele>1841.8000488281</ele>
        <time>2015-11-27T09:59:05.000Z</time>
      </trkpt>
      <trkpt lat="45.5829" lon="6.64195">
        <ele>1842.4000244141</ele>
        <time>2015-11-27T09:59:08.000Z</time>
      </trkpt>
      <trkpt lat="45.58287" lon="6.64195">
        <ele>1843</ele>
        <time>2015-11-27T09:59:11.000Z</time>
      </trkpt>
      <trkpt lat="45.58285" lon="6.64193">
        <ele>1843.5999755859</ele>
        <time>2015-11-27T09:59:14.000Z</time>
      </trkpt>
      <trkpt lat="45.58282" lon="6.64192">
        <ele>1844</ele>
        <time>2015-11-27T09:59:17.000Z</time>
      </trkpt>
      <trkpt lat="45.58279" lon="6.64189">
        <ele>1844.5999755859</ele>
        <time>2015-11-27T09:59:21.000Z</time>
      </trkpt>
      <trkpt lat="45.58278" lon="6.64187">
        <ele>1845.1999511719</ele>
        <time>2015-11-27T09:59:26.000Z</time>
      </trkpt>
      <trkpt lat="45.58278" lon="6.64187">
        <ele>1845.4000244141</ele>
        <time>2015-11-27T09:59:27.000Z</time>
      </trkpt>
      <trkpt lat="45.5828" lon="6.64185">
        <ele>1846.4000244141</ele>
        <time>2015-11-27T09:59:32.000Z</time>
      </trkpt>
      <trkpt lat="45.58282" lon="6.64185">
        <ele>1846.5999755859</ele>
        <time>2015-11-27T09:59:34.000Z</time>
      </trkpt>
      <trkpt lat="45.58286" lon="6.64183">
        <ele>1847.4000244141</ele>
        <time>2015-11-27T09:59:37.000Z</time>
      </trkpt>
      <trkpt lat="45.58287" lon="6.64182">
        <ele>1847.5999755859</ele>
        <time>2015-11-27T09:59:39.000Z</time>
      </trkpt>
      <trkpt lat="45.58292" lon="6.64177">
        <ele>1848.1999511719</ele>
        <time>2015-11-27T09:59:44.000Z</time>
      </trkpt>
      <trkpt lat="45.58293" lon="6.64176">
        <ele>1848.4000244141</ele>
        <time>2015-11-27T09:59:45.000Z</time>
      </trkpt>
      <trkpt lat="45.58293" lon="6.64173">
        <ele>1849.1999511719</ele>
        <time>2015-11-27T09:59:49.000Z</time>
      </trkpt>
      <trkpt lat="45.58294" lon="6.64171">
        <ele>1849.5999755859</ele>
        <time>2015-11-27T09:59:51.000Z</time>
      </trkpt>
      <trkpt lat="45.58293" lon="6.64166">
        <ele>1850.4000244141</ele>
        <time>2015-11-27T09:59:56.000Z</time>
      </trkpt>
      <trkpt lat="45.58293" lon="6.64165">
        <ele>1850.5999755859</ele>
        <time>2015-11-27T09:59:57.000Z</time>
      </trkpt>
      <trkpt lat="45.58291" lon="6.64163">
        <ele>1851.5999755859</ele>
        <time>2015-11-27T10:00:02.000Z</time>
      </trkpt>
      <trkpt lat="45.58292" lon="6.64162">
        <ele>1852.5999755859</ele>
        <time>2015-11-27T10:00:07.000Z</time>
      </trkpt>
      <trkpt lat="45.58292" lon="6.64162">
        <ele>1852.8000488281</ele>
        <time>2015-11-27T10:00:08.000Z</time>
      </trkpt>
      <trkpt lat="45.58299" lon="6.6416">
        <ele>1853.8000488281</ele>
        <time>2015-11-27T10:00:15.000Z</time>
      </trkpt>
      <trkpt lat="45.58302" lon="6.64159">
        <ele>1854.5999755859</ele>
        <time>2015-11-27T10:00:20.000Z</time>
      </trkpt>
      <trkpt lat="45.58303" lon="6.64159">
        <ele>1854.8000488281</ele>
        <time>2015-11-27T10:00:22.000Z</time>
      </trkpt>
      <trkpt lat="45.58304" lon="6.64158">
        <ele>1855.8000488281</ele>
        <time>2015-11-27T10:00:25.000Z</time>
      </trkpt>
      <trkpt lat="45.58305" lon="6.64157">
        <ele>1856</ele>
        <time>2015-11-27T10:00:26.000Z</time>
      </trkpt>
      <trkpt lat="45.58307" lon="6.64154">
        <ele>1856.8000488281</ele>
        <time>2015-11-27T10:00:31.000Z</time>
      </trkpt>
      <trkpt lat="45.58308" lon="6.64153">
        <ele>1857</ele>
        <time>2015-11-27T10:00:32.000Z</time>
      </trkpt>
      <trkpt lat="45.5831" lon="6.64151">
        <ele>1857.5999755859</ele>
        <time>2015-11-27T10:00:36.000Z</time>
      </trkpt>
      <trkpt lat="45.5831" lon="6.64151">
        <ele>1858</ele>
        <time>2015-11-27T10:00:39.000Z</time>
      </trkpt>
      <trkpt lat="45.5831" lon="6.64151">
        <ele>1858.4000244141</ele>
        <time>2015-11-27T10:00:41.000Z</time>
      </trkpt>
      <trkpt lat="45.58309" lon="6.64147">
        <ele>1859.1999511719</ele>
        <time>2015-11-27T10:00:46.000Z</time>
      </trkpt>
      <trkpt lat="45.58309" lon="6.64146">
        <ele>1859.5999755859</ele>
        <time>2015-11-27T10:00:47.000Z</time>
      </trkpt>
      <trkpt lat="45.58307" lon="6.64144">
        <ele>1860.4000244141</ele>
        <time>2015-11-27T10:00:51.000Z</time>
      </trkpt>
      <trkpt lat="45.58307" lon="6.64144">
        <ele>1860.5999755859</ele>
        <time>2015-11-27T10:00:53.000Z</time>
      </trkpt>
      <trkpt lat="45.58309" lon="6.64142">
        <ele>1861.4000244141</ele>
        <time>2015-11-27T10:00:58.000Z</time>
      </trkpt>
      <trkpt lat="45.58311" lon="6.6414">
        <ele>1862.4000244141</ele>
        <time>2015-11-27T10:01:03.000Z</time>
      </trkpt>
      <trkpt lat="45.58312" lon="6.6414">
        <ele>1862.5999755859</ele>
        <time>2015-11-27T10:01:04.000Z</time>
      </trkpt>
      <trkpt lat="45.58315" lon="6.64138">
        <ele>1863.1999511719</ele>
        <time>2015-11-27T10:01:08.000Z</time>
      </trkpt>
      <trkpt lat="45.58316" lon="6.64136">
        <ele>1863.5999755859</ele>
        <time>2015-11-27T10:01:11.000Z</time>
      </trkpt>
      <trkpt lat="45.58316" lon="6.64136">
        <ele>1864</ele>
        <time>2015-11-27T10:01:13.000Z</time>
      </trkpt>
      <trkpt lat="45.58317" lon="6.64135">
        <ele>1864.5999755859</ele>
        <time>2015-11-27T10:01:16.000Z</time>
      </trkpt>
      <trkpt lat="45.58318" lon="6.64134">
        <ele>1865.1999511719</ele>
        <time>2015-11-27T10:01:19.000Z</time>
      </trkpt>
      <trkpt lat="45.58318" lon="6.64132">
        <ele>1865.8000488281</ele>
        <time>2015-11-27T10:01:21.000Z</time>
      </trkpt>
      <trkpt lat="45.58318" lon="6.64131">
        <ele>1866.1999511719</ele>
        <time>2015-11-27T10:01:23.000Z</time>
      </trkpt>
      <trkpt lat="45.58319" lon="6.64128">
        <ele>1866.8000488281</ele>
        <time>2015-11-27T10:01:27.000Z</time>
      </trkpt>
      <trkpt lat="45.5832" lon="6.64127">
        <ele>1867</ele>
        <time>2015-11-27T10:01:28.000Z</time>
      </trkpt>
      <trkpt lat="45.58322" lon="6.64124">
        <ele>1867.8000488281</ele>
        <time>2015-11-27T10:01:33.000Z</time>
      </trkpt>
      <trkpt lat="45.58325" lon="6.64121">
        <ele>1869</ele>
        <time>2015-11-27T10:01:38.000Z</time>
      </trkpt>
      <trkpt lat="45.58326" lon="6.64118">
        <ele>1870</ele>
        <time>2015-11-27T10:01:43.000Z</time>
      </trkpt>
      <trkpt lat="45.58326" lon="6.64118">
        <ele>1870.1999511719</ele>
        <time>2015-11-27T10:01:44.000Z</time>
      </trkpt>
      <trkpt lat="45.58328" lon="6.64114">
        <ele>1871</ele>
        <time>2015-11-27T10:01:48.000Z</time>
      </trkpt>
      <trkpt lat="45.58328" lon="6.64114">
        <ele>1871.1999511719</ele>
        <time>2015-11-27T10:01:49.000Z</time>
      </trkpt>
      <trkpt lat="45.58326" lon="6.6411">
        <ele>1872</ele>
        <time>2015-11-27T10:01:53.000Z</time>
      </trkpt>
      <trkpt lat="45.58326" lon="6.6411">
        <ele>1872.1999511719</ele>
        <time>2015-11-27T10:01:54.000Z</time>
      </trkpt>
      <trkpt lat="45.58323" lon="6.64107">
        <ele>1873.1999511719</ele>
        <time>2015-11-27T10:01:59.000Z</time>
      </trkpt>
      <trkpt lat="45.58322" lon="6.64106">
        <ele>1873.4000244141</ele>
        <time>2015-11-27T10:02:00.000Z</time>
      </trkpt>
      <trkpt lat="45.58319" lon="6.64103">
        <ele>1874.1999511719</ele>
        <time>2015-11-27T10:02:05.000Z</time>
      </trkpt>
      <trkpt lat="45.58318" lon="6.64102">
        <ele>1874.4000244141</ele>
        <time>2015-11-27T10:02:06.000Z</time>
      </trkpt>
      <trkpt lat="45.58316" lon="6.64099">
        <ele>1875.1999511719</ele>
        <time>2015-11-27T10:02:11.000Z</time>
      </trkpt>
      <trkpt lat="45.58316" lon="6.64098">
        <ele>1875.4000244141</ele>
        <time>2015-11-27T10:02:12.000Z</time>
      </trkpt>
      <trkpt lat="45.58313" lon="6.64096">
        <ele>1876.1999511719</ele>
        <time>2015-11-27T10:02:17.000Z</time>
      </trkpt>
      <trkpt lat="45.58312" lon="6.64094">
        <ele>1876.5999755859</ele>
        <time>2015-11-27T10:02:19.000Z</time>
      </trkpt>
      <trkpt lat="45.5831" lon="6.64092">
        <ele>1877.1999511719</ele>
        <time>2015-11-27T10:02:23.000Z</time>
      </trkpt>
      <trkpt lat="45.58309" lon="6.64091">
        <ele>1877.8000488281</ele>
        <time>2015-11-27T10:02:25.000Z</time>
      </trkpt>
      <trkpt lat="45.58306" lon="6.64089">
        <ele>1878.5999755859</ele>
        <time>2015-11-27T10:02:30.000Z</time>
      </trkpt>
      <trkpt lat="45.58306" lon="6.64088">
        <ele>1879</ele>
        <time>2015-11-27T10:02:31.000Z</time>
      </trkpt>
      <trkpt lat="45.58304" lon="6.64086">
        <ele>1879.8000488281</ele>
        <time>2015-11-27T10:02:35.000Z</time>
      </trkpt>
      <trkpt lat="45.58303" lon="6.64086">
        <ele>1880</ele>
        <time>2015-11-27T10:02:37.000Z</time>
      </trkpt>
      <trkpt lat="45.58301" lon="6.64083">
        <ele>1881</ele>
        <time>2015-11-27T10:02:41.000Z</time>
      </trkpt>
      <trkpt lat="45.583" lon="6.64082">
        <ele>1881.1999511719</ele>
        <time>2015-11-27T10:02:42.000Z</time>
      </trkpt>
      <trkpt lat="45.58298" lon="6.64078">
        <ele>1882.1999511719</ele>
        <time>2015-11-27T10:02:47.000Z</time>
      </trkpt>
      <trkpt lat="45.58296" lon="6.64075">
        <ele>1883.1999511719</ele>
        <time>2015-11-27T10:02:51.000Z</time>
      </trkpt>
      <trkpt lat="45.58295" lon="6.64073">
        <ele>1883.5999755859</ele>
        <time>2015-11-27T10:02:53.000Z</time>
      </trkpt>
      <trkpt lat="45.58294" lon="6.64071">
        <ele>1884.4000244141</ele>
        <time>2015-11-27T10:02:56.000Z</time>
      </trkpt>
      <trkpt lat="45.58295" lon="6.64069">
        <ele>1885</ele>
        <time>2015-11-27T10:02:58.000Z</time>
      </trkpt>
      <trkpt lat="45.58295" lon="6.64068">
        <ele>1885</ele>
        <time>2015-11-27T10:02:59.000Z</time>
      </trkpt>
      <trkpt lat="45.58296" lon="6.64066">
        <ele>1885.5999755859</ele>
        <time>2015-11-27T10:03:01.000Z</time>
      </trkpt>
      <trkpt lat="45.58297" lon="6.64065">
        <ele>1885.8000488281</ele>
        <time>2015-11-27T10:03:03.000Z</time>
      </trkpt>
      <trkpt lat="45.58299" lon="6.64059">
        <ele>1886.5999755859</ele>
        <time>2015-11-27T10:03:08.000Z</time>
      </trkpt>
      <trkpt lat="45.58299" lon="6.64059">
        <ele>1886.8000488281</ele>
        <time>2015-11-27T10:03:09.000Z</time>
      </trkpt>
      <trkpt lat="45.58301" lon="6.64055">
        <ele>1887.8000488281</ele>
        <time>2015-11-27T10:03:13.000Z</time>
      </trkpt>
      <trkpt lat="45.58302" lon="6.64054">
        <ele>1888.1999511719</ele>
        <time>2015-11-27T10:03:15.000Z</time>
      </trkpt>
      <trkpt lat="45.58302" lon="6.6405">
        <ele>1889</ele>
        <time>2015-11-27T10:03:19.000Z</time>
      </trkpt>
      <trkpt lat="45.58303" lon="6.64049">
        <ele>1889.1999511719</ele>
        <time>2015-11-27T10:03:20.000Z</time>
      </trkpt>
      <trkpt lat="45.58304" lon="6.64046">
        <ele>1890.1999511719</ele>
        <time>2015-11-27T10:03:24.000Z</time>
      </trkpt>
      <trkpt lat="45.58304" lon="6.64044">
        <ele>1890.8000488281</ele>
        <time>2015-11-27T10:03:27.000Z</time>
      </trkpt>
      <trkpt lat="45.58304" lon="6.6404">
        <ele>1891.4000244141</ele>
        <time>2015-11-27T10:03:30.000Z</time>
      </trkpt>
      <trkpt lat="45.58304" lon="6.64037">
        <ele>1892.1999511719</ele>
        <time>2015-11-27T10:03:34.000Z</time>
      </trkpt>
      <trkpt lat="45.58304" lon="6.64037">
        <ele>1892.4000244141</ele>
        <time>2015-11-27T10:03:35.000Z</time>
      </trkpt>
      <trkpt lat="45.58304" lon="6.64035">
        <ele>1893.5999755859</ele>
        <time>2015-11-27T10:03:39.000Z</time>
      </trkpt>
      <trkpt lat="45.58304" lon="6.64033">
        <ele>1894</ele>
        <time>2015-11-27T10:03:41.000Z</time>
      </trkpt>
      <trkpt lat="45.58304" lon="6.64032">
        <ele>1894.5999755859</ele>
        <time>2015-11-27T10:03:45.000Z</time>
      </trkpt>
      <trkpt lat="45.58304" lon="6.64029">
        <ele>1895.1999511719</ele>
        <time>2015-11-27T10:03:48.000Z</time>
      </trkpt>
      <trkpt lat="45.58304" lon="6.64028">
        <ele>1895.8000488281</ele>
        <time>2015-11-27T10:03:50.000Z</time>
      </trkpt>
      <trkpt lat="45.58304" lon="6.64025">
        <ele>1896.5999755859</ele>
        <time>2015-11-27T10:03:54.000Z</time>
      </trkpt>
      <trkpt lat="45.58304" lon="6.64023">
        <ele>1897</ele>
        <time>2015-11-27T10:03:55.000Z</time>
      </trkpt>
      <trkpt lat="45.58305" lon="6.64018">
        <ele>1898</ele>
        <time>2015-11-27T10:04:00.000Z</time>
      </trkpt>
      <trkpt lat="45.58304" lon="6.64015">
        <ele>1898.8000488281</ele>
        <time>2015-11-27T10:04:06.000Z</time>
      </trkpt>
      <trkpt lat="45.58303" lon="6.64014">
        <ele>1899</ele>
        <time>2015-11-27T10:04:08.000Z</time>
      </trkpt>
      <trkpt lat="45.583" lon="6.64012">
        <ele>1899.1999511719</ele>
        <time>2015-11-27T10:04:10.000Z</time>
      </trkpt>
      <trkpt lat="45.58299" lon="6.64011">
        <ele>1899.5999755859</ele>
        <time>2015-11-27T10:04:12.000Z</time>
      </trkpt>
      <trkpt lat="45.58298" lon="6.6401">
        <ele>1900</ele>
        <time>2015-11-27T10:04:15.000Z</time>
      </trkpt>
      <trkpt lat="45.58296" lon="6.64007">
        <ele>1900.8000488281</ele>
        <time>2015-11-27T10:04:19.000Z</time>
      </trkpt>
      <trkpt lat="45.58295" lon="6.64006">
        <ele>1901.1999511719</ele>
        <time>2015-11-27T10:04:21.000Z</time>
      </trkpt>
      <trkpt lat="45.58296" lon="6.64004">
        <ele>1901.8000488281</ele>
        <time>2015-11-27T10:04:25.000Z</time>
      </trkpt>
      <trkpt lat="45.58296" lon="6.64002">
        <ele>1902.1999511719</ele>
        <time>2015-11-27T10:04:27.000Z</time>
      </trkpt>
      <trkpt lat="45.58294" lon="6.63999">
        <ele>1902.8000488281</ele>
        <time>2015-11-27T10:04:30.000Z</time>
      </trkpt>
      <trkpt lat="45.58293" lon="6.63997">
        <ele>1903.1999511719</ele>
        <time>2015-11-27T10:04:33.000Z</time>
      </trkpt>
      <trkpt lat="45.58292" lon="6.63995">
        <ele>1903.8000488281</ele>
        <time>2015-11-27T10:04:37.000Z</time>
      </trkpt>
      <trkpt lat="45.58292" lon="6.63993">
        <ele>1904.1999511719</ele>
        <time>2015-11-27T10:04:39.000Z</time>
      </trkpt>
      <trkpt lat="45.58292" lon="6.63991">
        <ele>1904.8000488281</ele>
        <time>2015-11-27T10:04:42.000Z</time>
      </trkpt>
      <trkpt lat="45.58292" lon="6.63989">
        <ele>1905.4000244141</ele>
        <time>2015-11-27T10:04:45.000Z</time>
      </trkpt>
      <trkpt lat="45.58294" lon="6.63988">
        <ele>1905.8000488281</ele>
        <time>2015-11-27T10:04:47.000Z</time>
      </trkpt>
      <trkpt lat="45.58295" lon="6.63987">
        <ele>1906.4000244141</ele>
        <time>2015-11-27T10:04:50.000Z</time>
      </trkpt>
      <trkpt lat="45.58296" lon="6.63985">
        <ele>1906.5999755859</ele>
        <time>2015-11-27T10:04:53.000Z</time>
      </trkpt>
      <trkpt lat="45.58299" lon="6.63982">
        <ele>1907.1999511719</ele>
        <time>2015-11-27T10:04:57.000Z</time>
      </trkpt>
      <trkpt lat="45.58299" lon="6.63982">
        <ele>1907.1999511719</ele>
        <time>2015-11-27T10:04:58.000Z</time>
      </trkpt>
      <trkpt lat="45.583" lon="6.63981">
        <ele>1907.5999755859</ele>
        <time>2015-11-27T10:05:00.000Z</time>
      </trkpt>
      <trkpt lat="45.58302" lon="6.63979">
        <ele>1908.1999511719</ele>
        <time>2015-11-27T10:05:03.000Z</time>
      </trkpt>
      <trkpt lat="45.58304" lon="6.63977">
        <ele>1908.8000488281</ele>
        <time>2015-11-27T10:05:06.000Z</time>
      </trkpt>
      <trkpt lat="45.58305" lon="6.63976">
        <ele>1909</ele>
        <time>2015-11-27T10:05:08.000Z</time>
      </trkpt>
      <trkpt lat="45.58308" lon="6.63973">
        <ele>1909.1999511719</ele>
        <time>2015-11-27T10:05:12.000Z</time>
      </trkpt>
      <trkpt lat="45.5831" lon="6.6397">
        <ele>1909.8000488281</ele>
        <time>2015-11-27T10:05:15.000Z</time>
      </trkpt>
      <trkpt lat="45.5831" lon="6.63967">
        <ele>1910.1999511719</ele>
        <time>2015-11-27T10:05:18.000Z</time>
      </trkpt>
      <trkpt lat="45.58309" lon="6.63964">
        <ele>1910.8000488281</ele>
        <time>2015-11-27T10:05:21.000Z</time>
      </trkpt>
      <trkpt lat="45.58309" lon="6.63964">
        <ele>1911</ele>
        <time>2015-11-27T10:05:22.000Z</time>
      </trkpt>
      <trkpt lat="45.58308" lon="6.63963">
        <ele>1911.4000244141</ele>
        <time>2015-11-27T10:05:24.000Z</time>
      </trkpt>
      <trkpt lat="45.58306" lon="6.63958">
        <ele>1912.1999511719</ele>
        <time>2015-11-27T10:05:28.000Z</time>
      </trkpt>
      <trkpt lat="45.58305" lon="6.63956">
        <ele>1912.4000244141</ele>
        <time>2015-11-27T10:05:30.000Z</time>
      </trkpt>
      <trkpt lat="45.58304" lon="6.63953">
        <ele>1913.1999511719</ele>
        <time>2015-11-27T10:05:34.000Z</time>
      </trkpt>
      <trkpt lat="45.58303" lon="6.63952">
        <ele>1913.5999755859</ele>
        <time>2015-11-27T10:05:36.000Z</time>
      </trkpt>
      <trkpt lat="45.58302" lon="6.6395">
        <ele>1914.1999511719</ele>
        <time>2015-11-27T10:05:38.000Z</time>
      </trkpt>
      <trkpt lat="45.58299" lon="6.63946">
        <ele>1915</ele>
        <time>2015-11-27T10:05:43.000Z</time>
      </trkpt>
      <trkpt lat="45.58299" lon="6.63945">
        <ele>1915.1999511719</ele>
        <time>2015-11-27T10:05:45.000Z</time>
      </trkpt>
      <trkpt lat="45.58298" lon="6.63943">
        <ele>1915.8000488281</ele>
        <time>2015-11-27T10:05:48.000Z</time>
      </trkpt>
      <trkpt lat="45.58298" lon="6.6394">
        <ele>1916.4000244141</ele>
        <time>2015-11-27T10:05:51.000Z</time>
      </trkpt>
      <trkpt lat="45.58297" lon="6.63938">
        <ele>1917</ele>
        <time>2015-11-27T10:05:54.000Z</time>
      </trkpt>
      <trkpt lat="45.58295" lon="6.63935">
        <ele>1917.4000244141</ele>
        <time>2015-11-27T10:05:57.000Z</time>
      </trkpt>
      <trkpt lat="45.58294" lon="6.63932">
        <ele>1918.4000244141</ele>
        <time>2015-11-27T10:06:02.000Z</time>
      </trkpt>
      <trkpt lat="45.58291" lon="6.63927">
        <ele>1919.5999755859</ele>
        <time>2015-11-27T10:06:08.000Z</time>
      </trkpt>
      <trkpt lat="45.58289" lon="6.63923">
        <ele>1920.5999755859</ele>
        <time>2015-11-27T10:06:13.000Z</time>
      </trkpt>
      <trkpt lat="45.58289" lon="6.63922">
        <ele>1920.5999755859</ele>
        <time>2015-11-27T10:06:14.000Z</time>
      </trkpt>
      <trkpt lat="45.58285" lon="6.63917">
        <ele>1921.5999755859</ele>
        <time>2015-11-27T10:06:21.000Z</time>
      </trkpt>
      <trkpt lat="45.58284" lon="6.63911">
        <ele>1922.8000488281</ele>
        <time>2015-11-27T10:06:27.000Z</time>
      </trkpt>
      <trkpt lat="45.58282" lon="6.63906">
        <ele>1923.5999755859</ele>
        <time>2015-11-27T10:06:32.000Z</time>
      </trkpt>
      <trkpt lat="45.58282" lon="6.63905">
        <ele>1923.8000488281</ele>
        <time>2015-11-27T10:06:33.000Z</time>
      </trkpt>
      <trkpt lat="45.58282" lon="6.63902">
        <ele>1924.4000244141</ele>
        <time>2015-11-27T10:06:37.000Z</time>
      </trkpt>
      <trkpt lat="45.58282" lon="6.639">
        <ele>1925</ele>
        <time>2015-11-27T10:06:40.000Z</time>
      </trkpt>
      <trkpt lat="45.58281" lon="6.63897">
        <ele>1925.4000244141</ele>
        <time>2015-11-27T10:06:43.000Z</time>
      </trkpt>
      <trkpt lat="45.5828" lon="6.63892">
        <ele>1926</ele>
        <time>2015-11-27T10:06:47.000Z</time>
      </trkpt>
      <trkpt lat="45.5828" lon="6.6389">
        <ele>1926.1999511719</ele>
        <time>2015-11-27T10:06:49.000Z</time>
      </trkpt>
      <trkpt lat="45.5828" lon="6.63886">
        <ele>1927</ele>
        <time>2015-11-27T10:06:54.000Z</time>
      </trkpt>
      <trkpt lat="45.5828" lon="6.63885">
        <ele>1927</ele>
        <time>2015-11-27T10:06:55.000Z</time>
      </trkpt>
      <trkpt lat="45.5828" lon="6.63878">
        <ele>1928.1999511719</ele>
        <time>2015-11-27T10:07:01.000Z</time>
      </trkpt>
      <trkpt lat="45.58281" lon="6.63878">
        <ele>1928.4000244141</ele>
        <time>2015-11-27T10:07:02.000Z</time>
      </trkpt>
      <trkpt lat="45.5828" lon="6.63873">
        <ele>1929</ele>
        <time>2015-11-27T10:07:07.000Z</time>
      </trkpt>
      <trkpt lat="45.5828" lon="6.63871">
        <ele>1929.1999511719</ele>
        <time>2015-11-27T10:07:09.000Z</time>
      </trkpt>
      <trkpt lat="45.58279" lon="6.63869">
        <ele>1929.5999755859</ele>
        <time>2015-11-27T10:07:12.000Z</time>
      </trkpt>
      <trkpt lat="45.58278" lon="6.63865">
        <ele>1930.1999511719</ele>
        <time>2015-11-27T10:07:15.000Z</time>
      </trkpt>
      <trkpt lat="45.58277" lon="6.63863">
        <ele>1930.5999755859</ele>
        <time>2015-11-27T10:07:17.000Z</time>
      </trkpt>
      <trkpt lat="45.58277" lon="6.63859">
        <ele>1931.4000244141</ele>
        <time>2015-11-27T10:07:22.000Z</time>
      </trkpt>
      <trkpt lat="45.58277" lon="6.63856">
        <ele>1931.8000488281</ele>
        <time>2015-11-27T10:07:29.000Z</time>
      </trkpt>
      <trkpt lat="45.58277" lon="6.63855">
        <ele>1932.4000244141</ele>
        <time>2015-11-27T10:07:34.000Z</time>
      </trkpt>
      <trkpt lat="45.58277" lon="6.63855">
        <ele>1932.5999755859</ele>
        <time>2015-11-27T10:07:37.000Z</time>
      </trkpt>
      <trkpt lat="45.58276" lon="6.6385">
        <ele>1932.8000488281</ele>
        <time>2015-11-27T10:07:42.000Z</time>
      </trkpt>
      <trkpt lat="45.58274" lon="6.63843">
        <ele>1933.4000244141</ele>
        <time>2015-11-27T10:07:46.000Z</time>
      </trkpt>
      <trkpt lat="45.58274" lon="6.63843">
        <ele>1933.4000244141</ele>
        <time>2015-11-27T10:07:47.000Z</time>
      </trkpt>
      <trkpt lat="45.58274" lon="6.63838">
        <ele>1934.4000244141</ele>
        <time>2015-11-27T10:07:51.000Z</time>
      </trkpt>
      <trkpt lat="45.58274" lon="6.63838">
        <ele>1934.5999755859</ele>
        <time>2015-11-27T10:07:52.000Z</time>
      </trkpt>
      <trkpt lat="45.58274" lon="6.63833">
        <ele>1935.5999755859</ele>
        <time>2015-11-27T10:07:56.000Z</time>
      </trkpt>
      <trkpt lat="45.58274" lon="6.63833">
        <ele>1935.8000488281</ele>
        <time>2015-11-27T10:07:57.000Z</time>
      </trkpt>
      <trkpt lat="45.58273" lon="6.63827">
        <ele>1937</ele>
        <time>2015-11-27T10:08:02.000Z</time>
      </trkpt>
      <trkpt lat="45.58275" lon="6.63825">
        <ele>1938.1999511719</ele>
        <time>2015-11-27T10:08:07.000Z</time>
      </trkpt>
      <trkpt lat="45.58277" lon="6.63823">
        <ele>1938.5999755859</ele>
        <time>2015-11-27T10:08:09.000Z</time>
      </trkpt>
      <trkpt lat="45.58278" lon="6.63821">
        <ele>1939.1999511719</ele>
        <time>2015-11-27T10:08:12.000Z</time>
      </trkpt>
      <trkpt lat="45.58279" lon="6.63816">
        <ele>1940.4000244141</ele>
        <time>2015-11-27T10:08:18.000Z</time>
      </trkpt>
      <trkpt lat="45.58278" lon="6.63813">
        <ele>1941.4000244141</ele>
        <time>2015-11-27T10:08:22.000Z</time>
      </trkpt>
      <trkpt lat="45.58278" lon="6.63813">
        <ele>1941.8000488281</ele>
        <time>2015-11-27T10:08:23.000Z</time>
      </trkpt>
      <trkpt lat="45.58277" lon="6.63811">
        <ele>1942.5999755859</ele>
        <time>2015-11-27T10:08:26.000Z</time>
      </trkpt>
      <trkpt lat="45.58277" lon="6.63811">
        <ele>1943.5999755859</ele>
        <time>2015-11-27T10:08:32.000Z</time>
      </trkpt>
      <trkpt lat="45.58276" lon="6.6381">
        <ele>1943.4000244141</ele>
        <time>2015-11-27T10:08:43.000Z</time>
      </trkpt>
      <trkpt lat="45.58276" lon="6.63808">
        <ele>1943.5999755859</ele>
        <time>2015-11-27T10:08:50.000Z</time>
      </trkpt>
      <trkpt lat="45.58276" lon="6.63808">
        <ele>1943.8000488281</ele>
        <time>2015-11-27T10:08:52.000Z</time>
      </trkpt>
      <trkpt lat="45.58276" lon="6.63808">
        <ele>1944.4000244141</ele>
        <time>2015-11-27T10:09:04.000Z</time>
      </trkpt>
      <trkpt lat="45.58276" lon="6.63808">
        <ele>1944.1999511719</ele>
        <time>2015-11-27T10:09:23.000Z</time>
      </trkpt>
      <trkpt lat="45.58276" lon="6.63808">
        <ele>1944.4000244141</ele>
        <time>2015-11-27T10:09:36.000Z</time>
      </trkpt>
      <trkpt lat="45.58277" lon="6.63807">
        <ele>1944.1999511719</ele>
        <time>2015-11-27T10:09:50.000Z</time>
      </trkpt>
      <trkpt lat="45.58277" lon="6.63807">
        <ele>1944.4000244141</ele>
        <time>2015-11-27T10:10:03.000Z</time>
      </trkpt>
      <trkpt lat="45.58277" lon="6.63807">
        <ele>1944.4000244141</ele>
        <time>2015-11-27T10:10:20.000Z</time>
      </trkpt>
      <trkpt lat="45.58277" lon="6.63807">
        <ele>1944.4000244141</ele>
        <time>2015-11-27T10:10:34.000Z</time>
      </trkpt>
      <trkpt lat="45.58277" lon="6.63807">
        <ele>1944.4000244141</ele>
        <time>2015-11-27T10:10:49.000Z</time>
      </trkpt>
      <trkpt lat="45.58277" lon="6.63805">
        <ele>1944.4000244141</ele>
        <time>2015-11-27T10:11:01.000Z</time>
      </trkpt>
      <trkpt lat="45.58277" lon="6.63805">
        <ele>1944.8000488281</ele>
        <time>2015-11-27T10:11:04.000Z</time>
      </trkpt>
      <trkpt lat="45.58277" lon="6.63804">
        <ele>1945.4000244141</ele>
        <time>2015-11-27T10:11:08.000Z</time>
      </trkpt>
      <trkpt lat="45.58277" lon="6.63804">
        <ele>1945.5999755859</ele>
        <time>2015-11-27T10:11:24.000Z</time>
      </trkpt>
      <trkpt lat="45.58277" lon="6.63804">
        <ele>1945.5999755859</ele>
        <time>2015-11-27T10:11:36.000Z</time>
      </trkpt>
      <trkpt lat="45.58278" lon="6.63804">
        <ele>1945.5999755859</ele>
        <time>2015-11-27T10:11:46.000Z</time>
      </trkpt>
      <trkpt lat="45.58277" lon="6.63805">
        <ele>1945.4000244141</ele>
        <time>2015-11-27T10:11:51.000Z</time>
      </trkpt>
      <trkpt lat="45.58276" lon="6.63806">
        <ele>1944.8000488281</ele>
        <time>2015-11-27T10:11:58.000Z</time>
      </trkpt>
      <trkpt lat="45.58276" lon="6.63804">
        <ele>1944.1999511719</ele>
        <time>2015-11-27T10:12:06.000Z</time>
      </trkpt>
      <trkpt lat="45.58277" lon="6.63803">
        <ele>1944.4000244141</ele>
        <time>2015-11-27T10:12:10.000Z</time>
      </trkpt>
      <trkpt lat="45.58277" lon="6.63803">
        <ele>1945</ele>
        <time>2015-11-27T10:12:16.000Z</time>
      </trkpt>
      <trkpt lat="45.58277" lon="6.63803">
        <ele>1944.8000488281</ele>
        <time>2015-11-27T10:12:25.000Z</time>
      </trkpt>
      <trkpt lat="45.58277" lon="6.63803">
        <ele>1944.8000488281</ele>
        <time>2015-11-27T10:12:37.000Z</time>
      </trkpt>
      <trkpt lat="45.58277" lon="6.63803">
        <ele>1944.8000488281</ele>
        <time>2015-11-27T10:12:50.000Z</time>
      </trkpt>
      <trkpt lat="45.58277" lon="6.63803">
        <ele>1944.8000488281</ele>
        <time>2015-11-27T10:13:06.000Z</time>
      </trkpt>
      <trkpt lat="45.58277" lon="6.63803">
        <ele>1944.8000488281</ele>
        <time>2015-11-27T10:13:25.000Z</time>
      </trkpt>
      <trkpt lat="45.58277" lon="6.63803">
        <ele>1945</ele>
        <time>2015-11-27T10:13:42.000Z</time>
      </trkpt>
      <trkpt lat="45.58276" lon="6.63804">
        <ele>1944.8000488281</ele>
        <time>2015-11-27T10:13:50.000Z</time>
      </trkpt>
      <trkpt lat="45.58276" lon="6.63804">
        <ele>1944.8000488281</ele>
        <time>2015-11-27T10:14:01.000Z</time>
      </trkpt>
      <trkpt lat="45.58276" lon="6.63804">
        <ele>1945</ele>
        <time>2015-11-27T10:14:15.000Z</time>
      </trkpt>
      <trkpt lat="45.58276" lon="6.63804">
        <ele>1945</ele>
        <time>2015-11-27T10:14:19.000Z</time>
      </trkpt>
      <trkpt lat="45.58276" lon="6.63804">
        <ele>1944.8000488281</ele>
        <time>2015-11-27T10:14:32.000Z</time>
      </trkpt>
      <trkpt lat="45.58276" lon="6.63804">
        <ele>1944.8000488281</ele>
        <time>2015-11-27T10:14:45.000Z</time>
      </trkpt>
      <trkpt lat="45.58276" lon="6.63804">
        <ele>1945.1999511719</ele>
        <time>2015-11-27T10:14:57.000Z</time>
      </trkpt>
      <trkpt lat="45.58276" lon="6.63804">
        <ele>1945.1999511719</ele>
        <time>2015-11-27T10:15:12.000Z</time>
      </trkpt>
      <trkpt lat="45.58276" lon="6.63804">
        <ele>1945.1999511719</ele>
        <time>2015-11-27T10:15:23.000Z</time>
      </trkpt>
      <trkpt lat="45.58276" lon="6.63804">
        <ele>1945.1999511719</ele>
        <time>2015-11-27T10:15:40.000Z</time>
      </trkpt>
      <trkpt lat="45.58276" lon="6.63804">
        <ele>1945.1999511719</ele>
        <time>2015-11-27T10:15:57.000Z</time>
      </trkpt>
      <trkpt lat="45.58276" lon="6.63804">
        <ele>1945.1999511719</ele>
        <time>2015-11-27T10:16:17.000Z</time>
      </trkpt>
      <trkpt lat="45.58276" lon="6.63804">
        <ele>1945.1999511719</ele>
        <time>2015-11-27T10:16:35.000Z</time>
      </trkpt>
      <trkpt lat="45.58276" lon="6.63804">
        <ele>1945.1999511719</ele>
        <time>2015-11-27T10:16:55.000Z</time>
      </trkpt>
      <trkpt lat="45.58276" lon="6.63804">
        <ele>1945.1999511719</ele>
        <time>2015-11-27T10:17:12.000Z</time>
      </trkpt>
      <trkpt lat="45.58276" lon="6.63804">
        <ele>1945.1999511719</ele>
        <time>2015-11-27T10:17:30.000Z</time>
      </trkpt>
      <trkpt lat="45.58276" lon="6.63804">
        <ele>1945.1999511719</ele>
        <time>2015-11-27T10:17:51.000Z</time>
      </trkpt>
      <trkpt lat="45.58276" lon="6.63804">
        <ele>1945.1999511719</ele>
        <time>2015-11-27T10:18:08.000Z</time>
      </trkpt>
      <trkpt lat="45.58276" lon="6.63804">
        <ele>1945.1999511719</ele>
        <time>2015-11-27T10:18:29.000Z</time>
      </trkpt>
      <trkpt lat="45.58276" lon="6.63804">
        <ele>1945.1999511719</ele>
        <time>2015-11-27T10:18:47.000Z</time>
      </trkpt>
      <trkpt lat="45.58276" lon="6.63804">
        <ele>1945.4000244141</ele>
        <time>2015-11-27T10:19:02.000Z</time>
      </trkpt>
      <trkpt lat="45.58276" lon="6.63804">
        <ele>1945.4000244141</ele>
        <time>2015-11-27T10:19:19.000Z</time>
      </trkpt>
      <trkpt lat="45.58276" lon="6.63804">
        <ele>1945.4000244141</ele>
        <time>2015-11-27T10:19:37.000Z</time>
      </trkpt>
      <trkpt lat="45.58276" lon="6.63804">
        <ele>1945.1999511719</ele>
        <time>2015-11-27T10:19:59.000Z</time>
      </trkpt>
      <trkpt lat="45.58276" lon="6.63804">
        <ele>1945.1999511719</ele>
        <time>2015-11-27T10:20:20.000Z</time>
      </trkpt>
      <trkpt lat="45.58276" lon="6.63804">
        <ele>1945.1999511719</ele>
        <time>2015-11-27T10:20:36.000Z</time>
      </trkpt>
      <trkpt lat="45.58278" lon="6.63802">
        <ele>1945.4000244141</ele>
        <time>2015-11-27T10:20:42.000Z</time>
      </trkpt>
      <trkpt lat="45.58278" lon="6.63802">
        <ele>1946</ele>
        <time>2015-11-27T10:20:46.000Z</time>
      </trkpt>
      <trkpt lat="45.58278" lon="6.63802">
        <ele>1946.1999511719</ele>
        <time>2015-11-27T10:20:47.000Z</time>
      </trkpt>
      <trkpt lat="45.58279" lon="6.638">
        <ele>1946.5999755859</ele>
        <time>2015-11-27T10:20:57.000Z</time>
      </trkpt>
      <trkpt lat="45.58282" lon="6.63796">
        <ele>1947</ele>
        <time>2015-11-27T10:21:01.000Z</time>
      </trkpt>
      <trkpt lat="45.58283" lon="6.63795">
        <ele>1947.4000244141</ele>
        <time>2015-11-27T10:21:03.000Z</time>
      </trkpt>
      <trkpt lat="45.58285" lon="6.63793">
        <ele>1948.1999511719</ele>
        <time>2015-11-27T10:21:07.000Z</time>
      </trkpt>
      <trkpt lat="45.58288" lon="6.63788">
        <ele>1949.4000244141</ele>
        <time>2015-11-27T10:21:13.000Z</time>
      </trkpt>
      <trkpt lat="45.58288" lon="6.63786">
        <ele>1950.4000244141</ele>
        <time>2015-11-27T10:21:17.000Z</time>
      </trkpt>
      <trkpt lat="45.58289" lon="6.63784">
        <ele>1950.5999755859</ele>
        <time>2015-11-27T10:21:18.000Z</time>
      </trkpt>
      <trkpt lat="45.5829" lon="6.63779">
        <ele>1951.5999755859</ele>
        <time>2015-11-27T10:21:23.000Z</time>
      </trkpt>
      <trkpt lat="45.5829" lon="6.63779">
        <ele>1952</ele>
        <time>2015-11-27T10:21:24.000Z</time>
      </trkpt>
      <trkpt lat="45.5829" lon="6.63776">
        <ele>1952.8000488281</ele>
        <time>2015-11-27T10:21:28.000Z</time>
      </trkpt>
      <trkpt lat="45.58289" lon="6.63774">
        <ele>1953</ele>
        <time>2015-11-27T10:21:29.000Z</time>
      </trkpt>
      <trkpt lat="45.58289" lon="6.63772">
        <ele>1953.1999511719</ele>
        <time>2015-11-27T10:21:30.000Z</time>
      </trkpt>
      <trkpt lat="45.58288" lon="6.63769">
        <ele>1954</ele>
        <time>2015-11-27T10:21:34.000Z</time>
      </trkpt>
      <trkpt lat="45.58288" lon="6.63767">
        <ele>1954</ele>
        <time>2015-11-27T10:21:35.000Z</time>
      </trkpt>
      <trkpt lat="45.58291" lon="6.63763">
        <ele>1954.8000488281</ele>
        <time>2015-11-27T10:21:40.000Z</time>
      </trkpt>
      <trkpt lat="45.58292" lon="6.63763">
        <ele>1955</ele>
        <time>2015-11-27T10:21:42.000Z</time>
      </trkpt>
      <trkpt lat="45.58294" lon="6.63762">
        <ele>1955.4000244141</ele>
        <time>2015-11-27T10:21:45.000Z</time>
      </trkpt>
      <trkpt lat="45.58295" lon="6.63763">
        <ele>1955.5999755859</ele>
        <time>2015-11-27T10:21:52.000Z</time>
      </trkpt>
      <trkpt lat="45.58297" lon="6.63763">
        <ele>1955.5999755859</ele>
        <time>2015-11-27T10:22:07.000Z</time>
      </trkpt>
      <trkpt lat="45.58301" lon="6.63759">
        <ele>1956</ele>
        <time>2015-11-27T10:22:13.000Z</time>
      </trkpt>
      <trkpt lat="45.58303" lon="6.63758">
        <ele>1956.1999511719</ele>
        <time>2015-11-27T10:22:14.000Z</time>
      </trkpt>
      <trkpt lat="45.58306" lon="6.63755">
        <ele>1956.5999755859</ele>
        <time>2015-11-27T10:22:18.000Z</time>
      </trkpt>
      <trkpt lat="45.58308" lon="6.63754">
        <ele>1957.4000244141</ele>
        <time>2015-11-27T10:22:22.000Z</time>
      </trkpt>
      <trkpt lat="45.58308" lon="6.63754">
        <ele>1957.4000244141</ele>
        <time>2015-11-27T10:22:23.000Z</time>
      </trkpt>
      <trkpt lat="45.58311" lon="6.63752">
        <ele>1957.8000488281</ele>
        <time>2015-11-27T10:22:28.000Z</time>
      </trkpt>
      <trkpt lat="45.58313" lon="6.63752">
        <ele>1958.4000244141</ele>
        <time>2015-11-27T10:22:32.000Z</time>
      </trkpt>
      <trkpt lat="45.58315" lon="6.63752">
        <ele>1958.5999755859</ele>
        <time>2015-11-27T10:22:34.000Z</time>
      </trkpt>
      <trkpt lat="45.5832" lon="6.63751">
        <ele>1959.4000244141</ele>
        <time>2015-11-27T10:22:40.000Z</time>
      </trkpt>
      <trkpt lat="45.58324" lon="6.63752">
        <ele>1960.4000244141</ele>
        <time>2015-11-27T10:22:46.000Z</time>
      </trkpt>
      <trkpt lat="45.58325" lon="6.63752">
        <ele>1960.4000244141</ele>
        <time>2015-11-27T10:22:47.000Z</time>
      </trkpt>
      <trkpt lat="45.58329" lon="6.63752">
        <ele>1961.5999755859</ele>
        <time>2015-11-27T10:22:53.000Z</time>
      </trkpt>
      <trkpt lat="45.58334" lon="6.63754">
        <ele>1962.5999755859</ele>
        <time>2015-11-27T10:23:00.000Z</time>
      </trkpt>
      <trkpt lat="45.58338" lon="6.63755">
        <ele>1963.8000488281</ele>
        <time>2015-11-27T10:23:07.000Z</time>
      </trkpt>
      <trkpt lat="45.58339" lon="6.63755">
        <ele>1964</ele>
        <time>2015-11-27T10:23:08.000Z</time>
      </trkpt>
      <trkpt lat="45.58342" lon="6.63755">
        <ele>1965</ele>
        <time>2015-11-27T10:23:13.000Z</time>
      </trkpt>
      <trkpt lat="45.58343" lon="6.63756">
        <ele>1965.4000244141</ele>
        <time>2015-11-27T10:23:15.000Z</time>
      </trkpt>
      <trkpt lat="45.58346" lon="6.63757">
        <ele>1966</ele>
        <time>2015-11-27T10:23:19.000Z</time>
      </trkpt>
      <trkpt lat="45.58348" lon="6.63755">
        <ele>1966.5999755859</ele>
        <time>2015-11-27T10:23:22.000Z</time>
      </trkpt>
      <trkpt lat="45.58348" lon="6.63753">
        <ele>1967</ele>
        <time>2015-11-27T10:23:24.000Z</time>
      </trkpt>
      <trkpt lat="45.58349" lon="6.63752">
        <ele>1967.1999511719</ele>
        <time>2015-11-27T10:23:25.000Z</time>
      </trkpt>
      <trkpt lat="45.5835" lon="6.63748">
        <ele>1967.8000488281</ele>
        <time>2015-11-27T10:23:29.000Z</time>
      </trkpt>
      <trkpt lat="45.58349" lon="6.63746">
        <ele>1968.1999511719</ele>
        <time>2015-11-27T10:23:31.000Z</time>
      </trkpt>
      <trkpt lat="45.58349" lon="6.63746">
        <ele>1968.5999755859</ele>
        <time>2015-11-27T10:23:34.000Z</time>
      </trkpt>
      <trkpt lat="45.58349" lon="6.63742">
        <ele>1969.1999511719</ele>
        <time>2015-11-27T10:23:38.000Z</time>
      </trkpt>
      <trkpt lat="45.58349" lon="6.6374">
        <ele>1969.4000244141</ele>
        <time>2015-11-27T10:23:39.000Z</time>
      </trkpt>
      <trkpt lat="45.58349" lon="6.63738">
        <ele>1970.1999511719</ele>
        <time>2015-11-27T10:23:44.000Z</time>
      </trkpt>
      <trkpt lat="45.58349" lon="6.63738">
        <ele>1970.1999511719</ele>
        <time>2015-11-27T10:23:45.000Z</time>
      </trkpt>
      <trkpt lat="45.58349" lon="6.63734">
        <ele>1971.1999511719</ele>
        <time>2015-11-27T10:23:50.000Z</time>
      </trkpt>
      <trkpt lat="45.58349" lon="6.63733">
        <ele>1971.4000244141</ele>
        <time>2015-11-27T10:23:51.000Z</time>
      </trkpt>
      <trkpt lat="45.58348" lon="6.63728">
        <ele>1972.4000244141</ele>
        <time>2015-11-27T10:23:57.000Z</time>
      </trkpt>
      <trkpt lat="45.58348" lon="6.63728">
        <ele>1972.4000244141</ele>
        <time>2015-11-27T10:23:58.000Z</time>
      </trkpt>
      <trkpt lat="45.58347" lon="6.63724">
        <ele>1973.4000244141</ele>
        <time>2015-11-27T10:24:03.000Z</time>
      </trkpt>
      <trkpt lat="45.58347" lon="6.63724">
        <ele>1973.5999755859</ele>
        <time>2015-11-27T10:24:04.000Z</time>
      </trkpt>
      <trkpt lat="45.58346" lon="6.63718">
        <ele>1974.4000244141</ele>
        <time>2015-11-27T10:24:08.000Z</time>
      </trkpt>
      <trkpt lat="45.58346" lon="6.63717">
        <ele>1974.5999755859</ele>
        <time>2015-11-27T10:24:10.000Z</time>
      </trkpt>
      <trkpt lat="45.58346" lon="6.63715">
        <ele>1975.4000244141</ele>
        <time>2015-11-27T10:24:14.000Z</time>
      </trkpt>
      <trkpt lat="45.58345" lon="6.63711">
        <ele>1975.8000488281</ele>
        <time>2015-11-27T10:24:17.000Z</time>
      </trkpt>
      <trkpt lat="45.58346" lon="6.6371">
        <ele>1976.1999511719</ele>
        <time>2015-11-27T10:24:20.000Z</time>
      </trkpt>
      <trkpt lat="45.58346" lon="6.63708">
        <ele>1976.4000244141</ele>
        <time>2015-11-27T10:24:32.000Z</time>
      </trkpt>
      <trkpt lat="45.58345" lon="6.63707">
        <ele>1977</ele>
        <time>2015-11-27T10:24:36.000Z</time>
      </trkpt>
      <trkpt lat="45.58345" lon="6.63707">
        <ele>1977.1999511719</ele>
        <time>2015-11-27T10:24:38.000Z</time>
      </trkpt>
      <trkpt lat="45.58345" lon="6.637">
        <ele>1977.5999755859</ele>
        <time>2015-11-27T10:24:43.000Z</time>
      </trkpt>
      <trkpt lat="45.58345" lon="6.63699">
        <ele>1978.1999511719</ele>
        <time>2015-11-27T10:24:46.000Z</time>
      </trkpt>
      <trkpt lat="45.58344" lon="6.63697">
        <ele>1978.5999755859</ele>
        <time>2015-11-27T10:24:48.000Z</time>
      </trkpt>
      <trkpt lat="45.58344" lon="6.63694">
        <ele>1979.4000244141</ele>
        <time>2015-11-27T10:24:51.000Z</time>
      </trkpt>
      <trkpt lat="45.58344" lon="6.63692">
        <ele>1980</ele>
        <time>2015-11-27T10:24:54.000Z</time>
      </trkpt>
      <trkpt lat="45.58344" lon="6.6369">
        <ele>1980.5999755859</ele>
        <time>2015-11-27T10:24:57.000Z</time>
      </trkpt>
      <trkpt lat="45.58344" lon="6.63687">
        <ele>1981</ele>
        <time>2015-11-27T10:24:59.000Z</time>
      </trkpt>
      <trkpt lat="45.58344" lon="6.63684">
        <ele>1981.8000488281</ele>
        <time>2015-11-27T10:25:04.000Z</time>
      </trkpt>
      <trkpt lat="45.58342" lon="6.63678">
        <ele>1982.8000488281</ele>
        <time>2015-11-27T10:25:10.000Z</time>
      </trkpt>
      <trkpt lat="45.58342" lon="6.63678">
        <ele>1982.8000488281</ele>
        <time>2015-11-27T10:25:11.000Z</time>
      </trkpt>
      <trkpt lat="45.5834" lon="6.63673">
        <ele>1983.5999755859</ele>
        <time>2015-11-27T10:25:16.000Z</time>
      </trkpt>
      <trkpt lat="45.58339" lon="6.63671">
        <ele>1984</ele>
        <time>2015-11-27T10:25:20.000Z</time>
      </trkpt>
      <trkpt lat="45.58339" lon="6.6367">
        <ele>1984</ele>
        <time>2015-11-27T10:25:21.000Z</time>
      </trkpt>
      <trkpt lat="45.58336" lon="6.63663">
        <ele>1984.8000488281</ele>
        <time>2015-11-27T10:25:27.000Z</time>
      </trkpt>
      <trkpt lat="45.58335" lon="6.63661">
        <ele>1985</ele>
        <time>2015-11-27T10:25:29.000Z</time>
      </trkpt>
      <trkpt lat="45.58334" lon="6.6366">
        <ele>1985.1999511719</ele>
        <time>2015-11-27T10:25:31.000Z</time>
      </trkpt>
      <trkpt lat="45.58333" lon="6.63657">
        <ele>1986</ele>
        <time>2015-11-27T10:25:37.000Z</time>
      </trkpt>
      <trkpt lat="45.58333" lon="6.63655">
        <ele>1986.5999755859</ele>
        <time>2015-11-27T10:25:39.000Z</time>
      </trkpt>
      <trkpt lat="45.58332" lon="6.63652">
        <ele>1987</ele>
        <time>2015-11-27T10:25:42.000Z</time>
      </trkpt>
      <trkpt lat="45.58331" lon="6.6365">
        <ele>1987.5999755859</ele>
        <time>2015-11-27T10:25:44.000Z</time>
      </trkpt>
      <trkpt lat="45.58331" lon="6.63649">
        <ele>1988.1999511719</ele>
        <time>2015-11-27T10:25:47.000Z</time>
      </trkpt>
      <trkpt lat="45.58331" lon="6.63648">
        <ele>1988.4000244141</ele>
        <time>2015-11-27T10:25:49.000Z</time>
      </trkpt>
      <trkpt lat="45.5833" lon="6.63646">
        <ele>1989.1999511719</ele>
        <time>2015-11-27T10:25:54.000Z</time>
      </trkpt>
      <trkpt lat="45.58327" lon="6.6364">
        <ele>1990.4000244141</ele>
        <time>2015-11-27T10:26:00.000Z</time>
      </trkpt>
      <trkpt lat="45.58326" lon="6.63635">
        <ele>1991.4000244141</ele>
        <time>2015-11-27T10:26:05.000Z</time>
      </trkpt>
      <trkpt lat="45.58326" lon="6.63634">
        <ele>1991.8000488281</ele>
        <time>2015-11-27T10:26:07.000Z</time>
      </trkpt>
      <trkpt lat="45.58324" lon="6.63628">
        <ele>1992.1999511719</ele>
        <time>2015-11-27T10:26:14.000Z</time>
      </trkpt>
      <trkpt lat="45.58323" lon="6.63627">
        <ele>1992.5999755859</ele>
        <time>2015-11-27T10:26:16.000Z</time>
      </trkpt>
      <trkpt lat="45.58322" lon="6.63622">
        <ele>1993</ele>
        <time>2015-11-27T10:26:19.000Z</time>
      </trkpt>
      <trkpt lat="45.5832" lon="6.63616">
        <ele>1993.4000244141</ele>
        <time>2015-11-27T10:26:25.000Z</time>
      </trkpt>
      <trkpt lat="45.58319" lon="6.63614">
        <ele>1993.5999755859</ele>
        <time>2015-11-27T10:26:28.000Z</time>
      </trkpt>
      <trkpt lat="45.58318" lon="6.63612">
        <ele>1994</ele>
        <time>2015-11-27T10:26:32.000Z</time>
      </trkpt>
      <trkpt lat="45.58318" lon="6.63612">
        <ele>1994</ele>
        <time>2015-11-27T10:26:45.000Z</time>
      </trkpt>
      <trkpt lat="45.58317" lon="6.63609">
        <ele>1994.1999511719</ele>
        <time>2015-11-27T10:26:54.000Z</time>
      </trkpt>
      <trkpt lat="45.58315" lon="6.63607">
        <ele>1994.5999755859</ele>
        <time>2015-11-27T10:26:58.000Z</time>
      </trkpt>
      <trkpt lat="45.58314" lon="6.63606">
        <ele>1995</ele>
        <time>2015-11-27T10:27:00.000Z</time>
      </trkpt>
      <trkpt lat="45.58312" lon="6.63602">
        <ele>1995.5999755859</ele>
        <time>2015-11-27T10:27:04.000Z</time>
      </trkpt>
      <trkpt lat="45.58312" lon="6.63602">
        <ele>1995.8000488281</ele>
        <time>2015-11-27T10:27:05.000Z</time>
      </trkpt>
      <trkpt lat="45.5831" lon="6.63599">
        <ele>1996.1999511719</ele>
        <time>2015-11-27T10:27:09.000Z</time>
      </trkpt>
      <trkpt lat="45.58309" lon="6.63595">
        <ele>1996.8000488281</ele>
        <time>2015-11-27T10:27:13.000Z</time>
      </trkpt>
      <trkpt lat="45.58309" lon="6.63595">
        <ele>1997</ele>
        <time>2015-11-27T10:27:14.000Z</time>
      </trkpt>
      <trkpt lat="45.58308" lon="6.63592">
        <ele>1997.4000244141</ele>
        <time>2015-11-27T10:27:16.000Z</time>
      </trkpt>
      <trkpt lat="45.58308" lon="6.63589">
        <ele>1998</ele>
        <time>2015-11-27T10:27:19.000Z</time>
      </trkpt>
      <trkpt lat="45.58309" lon="6.63589">
        <ele>1998.5999755859</ele>
        <time>2015-11-27T10:27:21.000Z</time>
      </trkpt>
      <trkpt lat="45.58309" lon="6.63589">
        <ele>1999.1999511719</ele>
        <time>2015-11-27T10:27:24.000Z</time>
      </trkpt>
      <trkpt lat="45.5831" lon="6.63589">
        <ele>1999.8000488281</ele>
        <time>2015-11-27T10:27:29.000Z</time>
      </trkpt>
      <trkpt lat="45.58311" lon="6.63588">
        <ele>2000.4000244141</ele>
        <time>2015-11-27T10:27:35.000Z</time>
      </trkpt>
      <trkpt lat="45.58312" lon="6.63587">
        <ele>2000.5999755859</ele>
        <time>2015-11-27T10:27:37.000Z</time>
      </trkpt>
      <trkpt lat="45.58316" lon="6.63586">
        <ele>2001</ele>
        <time>2015-11-27T10:27:41.000Z</time>
      </trkpt>
      <trkpt lat="45.58316" lon="6.63586">
        <ele>2001.1999511719</ele>
        <time>2015-11-27T10:27:42.000Z</time>
      </trkpt>
      <trkpt lat="45.58316" lon="6.63585">
        <ele>2001.4000244141</ele>
        <time>2015-11-27T10:27:43.000Z</time>
      </trkpt>
      <trkpt lat="45.58319" lon="6.63585">
        <ele>2002</ele>
        <time>2015-11-27T10:27:47.000Z</time>
      </trkpt>
      <trkpt lat="45.58321" lon="6.63584">
        <ele>2002.4000244141</ele>
        <time>2015-11-27T10:27:50.000Z</time>
      </trkpt>
      <trkpt lat="45.58323" lon="6.63582">
        <ele>2003</ele>
        <time>2015-11-27T10:27:53.000Z</time>
      </trkpt>
      <trkpt lat="45.58326" lon="6.63582">
        <ele>2003.5999755859</ele>
        <time>2015-11-27T10:27:57.000Z</time>
      </trkpt>
      <trkpt lat="45.58328" lon="6.63582">
        <ele>2004.1999511719</ele>
        <time>2015-11-27T10:28:00.000Z</time>
      </trkpt>
      <trkpt lat="45.58331" lon="6.63579">
        <ele>2005</ele>
        <time>2015-11-27T10:28:04.000Z</time>
      </trkpt>
      <trkpt lat="45.58332" lon="6.63578">
        <ele>2005.8000488281</ele>
        <time>2015-11-27T10:28:08.000Z</time>
      </trkpt>
      <trkpt lat="45.58333" lon="6.63577">
        <ele>2006</ele>
        <time>2015-11-27T10:28:10.000Z</time>
      </trkpt>
      <trkpt lat="45.58336" lon="6.63575">
        <ele>2006.5999755859</ele>
        <time>2015-11-27T10:28:14.000Z</time>
      </trkpt>
      <trkpt lat="45.58338" lon="6.63575">
        <ele>2007.1999511719</ele>
        <time>2015-11-27T10:28:17.000Z</time>
      </trkpt>
      <trkpt lat="45.58339" lon="6.63575">
        <ele>2007.5999755859</ele>
        <time>2015-11-27T10:28:19.000Z</time>
      </trkpt>
      <trkpt lat="45.58342" lon="6.63573">
        <ele>2008.1999511719</ele>
        <time>2015-11-27T10:28:23.000Z</time>
      </trkpt>
      <trkpt lat="45.58343" lon="6.63571">
        <ele>2008.5999755859</ele>
        <time>2015-11-27T10:28:25.000Z</time>
      </trkpt>
      <trkpt lat="45.58346" lon="6.6357">
        <ele>2009.4000244141</ele>
        <time>2015-11-27T10:28:29.000Z</time>
      </trkpt>
      <trkpt lat="45.58347" lon="6.6357">
        <ele>2009.5999755859</ele>
        <time>2015-11-27T10:28:31.000Z</time>
      </trkpt>
      <trkpt lat="45.58354" lon="6.63567">
        <ele>2010.4000244141</ele>
        <time>2015-11-27T10:28:38.000Z</time>
      </trkpt>
      <trkpt lat="45.58356" lon="6.63567">
        <ele>2011.1999511719</ele>
        <time>2015-11-27T10:28:44.000Z</time>
      </trkpt>
      <trkpt lat="45.58358" lon="6.63566">
        <ele>2011.5999755859</ele>
        <time>2015-11-27T10:28:47.000Z</time>
      </trkpt>
      <trkpt lat="45.58361" lon="6.63565">
        <ele>2012.1999511719</ele>
        <time>2015-11-27T10:28:51.000Z</time>
      </trkpt>
      <trkpt lat="45.58362" lon="6.63564">
        <ele>2012.5999755859</ele>
        <time>2015-11-27T10:28:53.000Z</time>
      </trkpt>
      <trkpt lat="45.58362" lon="6.63565">
        <ele>2013.4000244141</ele>
        <time>2015-11-27T10:28:58.000Z</time>
      </trkpt>
      <trkpt lat="45.58362" lon="6.63565">
        <ele>2013.5999755859</ele>
        <time>2015-11-27T10:29:02.000Z</time>
      </trkpt>
      <trkpt lat="45.58365" lon="6.63563">
        <ele>2013.8000488281</ele>
        <time>2015-11-27T10:29:14.000Z</time>
      </trkpt>
      <trkpt lat="45.58367" lon="6.63563">
        <ele>2014.5999755859</ele>
        <time>2015-11-27T10:29:18.000Z</time>
      </trkpt>
      <trkpt lat="45.58367" lon="6.63563">
        <ele>2015.1999511719</ele>
        <time>2015-11-27T10:29:24.000Z</time>
      </trkpt>
      <trkpt lat="45.58369" lon="6.63563">
        <ele>2015.5999755859</ele>
        <time>2015-11-27T10:29:33.000Z</time>
      </trkpt>
      <trkpt lat="45.58369" lon="6.63562">
        <ele>2015.8000488281</ele>
        <time>2015-11-27T10:29:35.000Z</time>
      </trkpt>
      <trkpt lat="45.5837" lon="6.63562">
        <ele>2016</ele>
        <time>2015-11-27T10:29:38.000Z</time>
      </trkpt>
      <trkpt lat="45.58371" lon="6.63562">
        <ele>2017</ele>
        <time>2015-11-27T10:29:41.000Z</time>
      </trkpt>
      <trkpt lat="45.58371" lon="6.63562">
        <ele>2017.4000244141</ele>
        <time>2015-11-27T10:29:44.000Z</time>
      </trkpt>
      <trkpt lat="45.58376" lon="6.63561">
        <ele>2017.5999755859</ele>
        <time>2015-11-27T10:29:49.000Z</time>
      </trkpt>
      <trkpt lat="45.58377" lon="6.63561">
        <ele>2018</ele>
        <time>2015-11-27T10:29:51.000Z</time>
      </trkpt>
      <trkpt lat="45.5838" lon="6.63561">
        <ele>2018.8000488281</ele>
        <time>2015-11-27T10:29:55.000Z</time>
      </trkpt>
      <trkpt lat="45.5838" lon="6.63561">
        <ele>2019</ele>
        <time>2015-11-27T10:29:57.000Z</time>
      </trkpt>
      <trkpt lat="45.5838" lon="6.6356">
        <ele>2019.8000488281</ele>
        <time>2015-11-27T10:30:02.000Z</time>
      </trkpt>
      <trkpt lat="45.5838" lon="6.63559">
        <ele>2020.1999511719</ele>
        <time>2015-11-27T10:30:05.000Z</time>
      </trkpt>
      <trkpt lat="45.5838" lon="6.63557">
        <ele>2020.5999755859</ele>
        <time>2015-11-27T10:30:09.000Z</time>
      </trkpt>
      <trkpt lat="45.5838" lon="6.63555">
        <ele>2021.1999511719</ele>
        <time>2015-11-27T10:30:15.000Z</time>
      </trkpt>
      <trkpt lat="45.58379" lon="6.63552">
        <ele>2022.1999511719</ele>
        <time>2015-11-27T10:30:22.000Z</time>
      </trkpt>
      <trkpt lat="45.58379" lon="6.63551">
        <ele>2022.4000244141</ele>
        <time>2015-11-27T10:30:23.000Z</time>
      </trkpt>
      <trkpt lat="45.58377" lon="6.63546">
        <ele>2023.4000244141</ele>
        <time>2015-11-27T10:30:29.000Z</time>
      </trkpt>
      <trkpt lat="45.58376" lon="6.63545">
        <ele>2023.5999755859</ele>
        <time>2015-11-27T10:30:30.000Z</time>
      </trkpt>
      <trkpt lat="45.58376" lon="6.63544">
        <ele>2024.4000244141</ele>
        <time>2015-11-27T10:30:35.000Z</time>
      </trkpt>
      <trkpt lat="45.58376" lon="6.63544">
        <ele>2024.8000488281</ele>
        <time>2015-11-27T10:30:36.000Z</time>
      </trkpt>
      <trkpt lat="45.5838" lon="6.63544">
        <ele>2025.1999511719</ele>
        <time>2015-11-27T10:30:43.000Z</time>
      </trkpt>
      <trkpt lat="45.58383" lon="6.63544">
        <ele>2025.5999755859</ele>
        <time>2015-11-27T10:30:47.000Z</time>
      </trkpt>
      <trkpt lat="45.58384" lon="6.63543">
        <ele>2026.4000244141</ele>
        <time>2015-11-27T10:30:50.000Z</time>
      </trkpt>
      <trkpt lat="45.58385" lon="6.63542">
        <ele>2026.5999755859</ele>
        <time>2015-11-27T10:30:51.000Z</time>
      </trkpt>
      <trkpt lat="45.58386" lon="6.63542">
        <ele>2027.5999755859</ele>
        <time>2015-11-27T10:30:54.000Z</time>
      </trkpt>
      <trkpt lat="45.58389" lon="6.63541">
        <ele>2028.4000244141</ele>
        <time>2015-11-27T10:30:58.000Z</time>
      </trkpt>
      <trkpt lat="45.58391" lon="6.63541">
        <ele>2028.8000488281</ele>
        <time>2015-11-27T10:31:01.000Z</time>
      </trkpt>
      <trkpt lat="45.58395" lon="6.6354">
        <ele>2030</ele>
        <time>2015-11-27T10:31:06.000Z</time>
      </trkpt>
      <trkpt lat="45.58398" lon="6.63539">
        <ele>2031.1999511719</ele>
        <time>2015-11-27T10:31:11.000Z</time>
      </trkpt>
      <trkpt lat="45.584" lon="6.63539">
        <ele>2031.8000488281</ele>
        <time>2015-11-27T10:31:14.000Z</time>
      </trkpt>
      <trkpt lat="45.58401" lon="6.6354">
        <ele>2032.1999511719</ele>
        <time>2015-11-27T10:31:16.000Z</time>
      </trkpt>
      <trkpt lat="45.58403" lon="6.63537">
        <ele>2033.1999511719</ele>
        <time>2015-11-27T10:31:22.000Z</time>
      </trkpt>
      <trkpt lat="45.58404" lon="6.63536">
        <ele>2033.4000244141</ele>
        <time>2015-11-27T10:31:23.000Z</time>
      </trkpt>
      <trkpt lat="45.58407" lon="6.63535">
        <ele>2034.4000244141</ele>
        <time>2015-11-27T10:31:28.000Z</time>
      </trkpt>
      <trkpt lat="45.58409" lon="6.63535">
        <ele>2034.8000488281</ele>
        <time>2015-11-27T10:31:30.000Z</time>
      </trkpt>
      <trkpt lat="45.58413" lon="6.63534">
        <ele>2035.5999755859</ele>
        <time>2015-11-27T10:31:36.000Z</time>
      </trkpt>
      <trkpt lat="45.58419" lon="6.63536">
        <ele>2036.5999755859</ele>
        <time>2015-11-27T10:31:43.000Z</time>
      </trkpt>
      <trkpt lat="45.58419" lon="6.63535">
        <ele>2036.8000488281</ele>
        <time>2015-11-27T10:31:44.000Z</time>
      </trkpt>
      <trkpt lat="45.5842" lon="6.63532">
        <ele>2037.1999511719</ele>
        <time>2015-11-27T10:31:48.000Z</time>
      </trkpt>
      <trkpt lat="45.58419" lon="6.63531">
        <ele>2037.8000488281</ele>
        <time>2015-11-27T10:31:51.000Z</time>
      </trkpt>
      <trkpt lat="45.58419" lon="6.63531">
        <ele>2038.1999511719</ele>
        <time>2015-11-27T10:31:54.000Z</time>
      </trkpt>
      <trkpt lat="45.58418" lon="6.63529">
        <ele>2038.1999511719</ele>
        <time>2015-11-27T10:32:01.000Z</time>
      </trkpt>
      <trkpt lat="45.58416" lon="6.63523">
        <ele>2038.8000488281</ele>
        <time>2015-11-27T10:32:06.000Z</time>
      </trkpt>
      <trkpt lat="45.58416" lon="6.63522">
        <ele>2039</ele>
        <time>2015-11-27T10:32:07.000Z</time>
      </trkpt>
      <trkpt lat="45.58415" lon="6.63519">
        <ele>2039.8000488281</ele>
        <time>2015-11-27T10:32:11.000Z</time>
      </trkpt>
      <trkpt lat="45.58415" lon="6.63519">
        <ele>2040</ele>
        <time>2015-11-27T10:32:12.000Z</time>
      </trkpt>
      <trkpt lat="45.58415" lon="6.63515">
        <ele>2041</ele>
        <time>2015-11-27T10:32:17.000Z</time>
      </trkpt>
      <trkpt lat="45.58415" lon="6.63514">
        <ele>2041.1999511719</ele>
        <time>2015-11-27T10:32:18.000Z</time>
      </trkpt>
      <trkpt lat="45.58416" lon="6.63511">
        <ele>2042</ele>
        <time>2015-11-27T10:32:21.000Z</time>
      </trkpt>
      <trkpt lat="45.58417" lon="6.63507">
        <ele>2042.8000488281</ele>
        <time>2015-11-27T10:32:25.000Z</time>
      </trkpt>
      <trkpt lat="45.58417" lon="6.63505">
        <ele>2043.4000244141</ele>
        <time>2015-11-27T10:32:28.000Z</time>
      </trkpt>
      <trkpt lat="45.58418" lon="6.63504">
        <ele>2043.8000488281</ele>
        <time>2015-11-27T10:32:31.000Z</time>
      </trkpt>
      <trkpt lat="45.5842" lon="6.63501">
        <ele>2044.4000244141</ele>
        <time>2015-11-27T10:32:34.000Z</time>
      </trkpt>
      <trkpt lat="45.5842" lon="6.635">
        <ele>2044.4000244141</ele>
        <time>2015-11-27T10:32:35.000Z</time>
      </trkpt>
      <trkpt lat="45.5842" lon="6.63498">
        <ele>2044.8000488281</ele>
        <time>2015-11-27T10:32:37.000Z</time>
      </trkpt>
      <trkpt lat="45.58422" lon="6.63494">
        <ele>2045.4000244141</ele>
        <time>2015-11-27T10:32:41.000Z</time>
      </trkpt>
      <trkpt lat="45.58423" lon="6.63493">
        <ele>2045.5999755859</ele>
        <time>2015-11-27T10:32:42.000Z</time>
      </trkpt>
      <trkpt lat="45.58424" lon="6.63486">
        <ele>2046.4000244141</ele>
        <time>2015-11-27T10:32:47.000Z</time>
      </trkpt>
      <trkpt lat="45.58424" lon="6.63485">
        <ele>2046.5999755859</ele>
        <time>2015-11-27T10:32:48.000Z</time>
      </trkpt>
      <trkpt lat="45.58424" lon="6.63481">
        <ele>2047.4000244141</ele>
        <time>2015-11-27T10:32:52.000Z</time>
      </trkpt>
      <trkpt lat="45.58424" lon="6.63479">
        <ele>2047.8000488281</ele>
        <time>2015-11-27T10:32:54.000Z</time>
      </trkpt>
      <trkpt lat="45.58422" lon="6.63474">
        <ele>2048.1999511719</ele>
        <time>2015-11-27T10:32:58.000Z</time>
      </trkpt>
      <trkpt lat="45.5842" lon="6.63467">
        <ele>2048.6000976562</ele>
        <time>2015-11-27T10:33:04.000Z</time>
      </trkpt>
      <trkpt lat="45.58418" lon="6.63461">
        <ele>2048.8000488281</ele>
        <time>2015-11-27T10:33:09.000Z</time>
      </trkpt>
      <trkpt lat="45.58416" lon="6.63457">
        <ele>2048.8000488281</ele>
        <time>2015-11-27T10:33:11.000Z</time>
      </trkpt>
      <trkpt lat="45.58416" lon="6.63448">
        <ele>2049</ele>
        <time>2015-11-27T10:33:17.000Z</time>
      </trkpt>
      <trkpt lat="45.58418" lon="6.63438">
        <ele>2049.8000488281</ele>
        <time>2015-11-27T10:33:24.000Z</time>
      </trkpt>
      <trkpt lat="45.58418" lon="6.63432">
        <ele>2051</ele>
        <time>2015-11-27T10:33:30.000Z</time>
      </trkpt>
      <trkpt lat="45.58418" lon="6.63431">
        <ele>2051.6000976562</ele>
        <time>2015-11-27T10:33:37.000Z</time>
      </trkpt>
      <trkpt lat="45.58418" lon="6.63427">
        <ele>2051.3999023438</ele>
        <time>2015-11-27T10:33:44.000Z</time>
      </trkpt>
      <trkpt lat="45.58416" lon="6.6342">
        <ele>2052</ele>
        <time>2015-11-27T10:33:49.000Z</time>
      </trkpt>
      <trkpt lat="45.58415" lon="6.63412">
        <ele>2052.8000488281</ele>
        <time>2015-11-27T10:33:54.000Z</time>
      </trkpt>
      <trkpt lat="45.58411" lon="6.63403">
        <ele>2053</ele>
        <time>2015-11-27T10:34:00.000Z</time>
      </trkpt>
      <trkpt lat="45.58409" lon="6.63401">
        <ele>2053</ele>
        <time>2015-11-27T10:34:02.000Z</time>
      </trkpt>
      <trkpt lat="45.58406" lon="6.63397">
        <ele>2053.1999511719</ele>
        <time>2015-11-27T10:34:05.000Z</time>
      </trkpt>
      <trkpt lat="45.58402" lon="6.6339">
        <ele>2053.8000488281</ele>
        <time>2015-11-27T10:34:11.000Z</time>
      </trkpt>
      <trkpt lat="45.584" lon="6.63385">
        <ele>2054.1999511719</ele>
        <time>2015-11-27T10:34:15.000Z</time>
      </trkpt>
      <trkpt lat="45.584" lon="6.63383">
        <ele>2054.1999511719</ele>
        <time>2015-11-27T10:34:16.000Z</time>
      </trkpt>
      <trkpt lat="45.58398" lon="6.63376">
        <ele>2055</ele>
        <time>2015-11-27T10:34:22.000Z</time>
      </trkpt>
      <trkpt lat="45.58397" lon="6.63375">
        <ele>2055.1999511719</ele>
        <time>2015-11-27T10:34:23.000Z</time>
      </trkpt>
      <trkpt lat="45.58394" lon="6.63369">
        <ele>2056.1999511719</ele>
        <time>2015-11-27T10:34:28.000Z</time>
      </trkpt>
      <trkpt lat="45.58391" lon="6.63366">
        <ele>2057.1999511719</ele>
        <time>2015-11-27T10:34:32.000Z</time>
      </trkpt>
      <trkpt lat="45.58389" lon="6.63363">
        <ele>2057.6000976562</ele>
        <time>2015-11-27T10:34:34.000Z</time>
      </trkpt>
      <trkpt lat="45.58387" lon="6.63356">
        <ele>2058.1999511719</ele>
        <time>2015-11-27T10:34:40.000Z</time>
      </trkpt>
      <trkpt lat="45.58387" lon="6.63355">
        <ele>2058.3999023438</ele>
        <time>2015-11-27T10:34:41.000Z</time>
      </trkpt>
      <trkpt lat="45.58387" lon="6.63352">
        <ele>2059.1999511719</ele>
        <time>2015-11-27T10:34:47.000Z</time>
      </trkpt>
      <trkpt lat="45.58387" lon="6.63351">
        <ele>2059.3999023438</ele>
        <time>2015-11-27T10:34:48.000Z</time>
      </trkpt>
      <trkpt lat="45.58386" lon="6.63348">
        <ele>2060.1999511719</ele>
        <time>2015-11-27T10:34:52.000Z</time>
      </trkpt>
      <trkpt lat="45.58385" lon="6.63346">
        <ele>2060.6000976562</ele>
        <time>2015-11-27T10:34:54.000Z</time>
      </trkpt>
      <trkpt lat="45.5838" lon="6.63342">
        <ele>2061.6000976562</ele>
        <time>2015-11-27T10:34:59.000Z</time>
      </trkpt>
      <trkpt lat="45.58379" lon="6.63341">
        <ele>2061.8000488281</ele>
        <time>2015-11-27T10:35:00.000Z</time>
      </trkpt>
      <trkpt lat="45.58376" lon="6.63338">
        <ele>2062.3999023438</ele>
        <time>2015-11-27T10:35:04.000Z</time>
      </trkpt>
      <trkpt lat="45.58374" lon="6.63335">
        <ele>2062.8000488281</ele>
        <time>2015-11-27T10:35:07.000Z</time>
      </trkpt>
      <trkpt lat="45.58372" lon="6.63333">
        <ele>2063.3999023438</ele>
        <time>2015-11-27T10:35:10.000Z</time>
      </trkpt>
      <trkpt lat="45.5837" lon="6.63331">
        <ele>2063.8000488281</ele>
        <time>2015-11-27T10:35:12.000Z</time>
      </trkpt>
      <trkpt lat="45.58368" lon="6.63328">
        <ele>2065</ele>
        <time>2015-11-27T10:35:16.000Z</time>
      </trkpt>
      <trkpt lat="45.58367" lon="6.63327">
        <ele>2065.1999511719</ele>
        <time>2015-11-27T10:35:17.000Z</time>
      </trkpt>
      <trkpt lat="45.58365" lon="6.63325">
        <ele>2066</ele>
        <time>2015-11-27T10:35:21.000Z</time>
      </trkpt>
      <trkpt lat="45.58363" lon="6.63322">
        <ele>2066.6000976562</ele>
        <time>2015-11-27T10:35:24.000Z</time>
      </trkpt>
      <trkpt lat="45.58362" lon="6.6332">
        <ele>2067</ele>
        <time>2015-11-27T10:35:27.000Z</time>
      </trkpt>
      <trkpt lat="45.58358" lon="6.63317">
        <ele>2068</ele>
        <time>2015-11-27T10:35:32.000Z</time>
      </trkpt>
      <trkpt lat="45.58355" lon="6.63315">
        <ele>2069.1999511719</ele>
        <time>2015-11-27T10:35:38.000Z</time>
      </trkpt>
      <trkpt lat="45.58354" lon="6.63314">
        <ele>2069.3999023438</ele>
        <time>2015-11-27T10:35:39.000Z</time>
      </trkpt>
      <trkpt lat="45.58351" lon="6.63311">
        <ele>2070.3999023438</ele>
        <time>2015-11-27T10:35:43.000Z</time>
      </trkpt>
      <trkpt lat="45.58349" lon="6.6331">
        <ele>2070.8000488281</ele>
        <time>2015-11-27T10:35:45.000Z</time>
      </trkpt>
      <trkpt lat="45.58347" lon="6.63306">
        <ele>2071.3999023438</ele>
        <time>2015-11-27T10:35:48.000Z</time>
      </trkpt>
      <trkpt lat="45.58345" lon="6.63305">
        <ele>2071.8000488281</ele>
        <time>2015-11-27T10:35:51.000Z</time>
      </trkpt>
      <trkpt lat="45.58341" lon="6.63302">
        <ele>2072.6000976562</ele>
        <time>2015-11-27T10:35:54.000Z</time>
      </trkpt>
      <trkpt lat="45.58341" lon="6.63302">
        <ele>2072.8000488281</ele>
        <time>2015-11-27T10:35:55.000Z</time>
      </trkpt>
      <trkpt lat="45.58338" lon="6.633">
        <ele>2073.6000976562</ele>
        <time>2015-11-27T10:35:59.000Z</time>
      </trkpt>
      <trkpt lat="45.58337" lon="6.63299">
        <ele>2074</ele>
        <time>2015-11-27T10:36:01.000Z</time>
      </trkpt>
      <trkpt lat="45.58336" lon="6.63297">
        <ele>2074.8000488281</ele>
        <time>2015-11-27T10:36:04.000Z</time>
      </trkpt>
      <trkpt lat="45.58334" lon="6.63295">
        <ele>2075.3999023438</ele>
        <time>2015-11-27T10:36:07.000Z</time>
      </trkpt>
      <trkpt lat="45.58333" lon="6.63294">
        <ele>2075.8000488281</ele>
        <time>2015-11-27T10:36:09.000Z</time>
      </trkpt>
      <trkpt lat="45.58331" lon="6.63292">
        <ele>2076.6000976562</ele>
        <time>2015-11-27T10:36:13.000Z</time>
      </trkpt>
      <trkpt lat="45.5833" lon="6.6329">
        <ele>2077</ele>
        <time>2015-11-27T10:36:15.000Z</time>
      </trkpt>
      <trkpt lat="45.58328" lon="6.63286">
        <ele>2077.6000976562</ele>
        <time>2015-11-27T10:36:18.000Z</time>
      </trkpt>
      <trkpt lat="45.58326" lon="6.63283">
        <ele>2078.1999511719</ele>
        <time>2015-11-27T10:36:21.000Z</time>
      </trkpt>
      <trkpt lat="45.58324" lon="6.6328">
        <ele>2079.1999511719</ele>
        <time>2015-11-27T10:36:25.000Z</time>
      </trkpt>
      <trkpt lat="45.58322" lon="6.63276">
        <ele>2080.1999511719</ele>
        <time>2015-11-27T10:36:29.000Z</time>
      </trkpt>
      <trkpt lat="45.58321" lon="6.63274">
        <ele>2080.6000976562</ele>
        <time>2015-11-27T10:36:31.000Z</time>
      </trkpt>
      <trkpt lat="45.58319" lon="6.63273">
        <ele>2081.1999511719</ele>
        <time>2015-11-27T10:36:35.000Z</time>
      </trkpt>
      <trkpt lat="45.58318" lon="6.63271">
        <ele>2081.6000976562</ele>
        <time>2015-11-27T10:36:37.000Z</time>
      </trkpt>
      <trkpt lat="45.58316" lon="6.63269">
        <ele>2082.3999023438</ele>
        <time>2015-11-27T10:36:40.000Z</time>
      </trkpt>
      <trkpt lat="45.58316" lon="6.63268">
        <ele>2083</ele>
        <time>2015-11-27T10:36:42.000Z</time>
      </trkpt>
      <trkpt lat="45.58314" lon="6.63266">
        <ele>2083.3999023438</ele>
        <time>2015-11-27T10:36:44.000Z</time>
      </trkpt>
      <trkpt lat="45.58313" lon="6.63264">
        <ele>2084.1999511719</ele>
        <time>2015-11-27T10:36:47.000Z</time>
      </trkpt>
      <trkpt lat="45.58312" lon="6.63262">
        <ele>2084.6000976562</ele>
        <time>2015-11-27T10:36:49.000Z</time>
      </trkpt>
      <trkpt lat="45.58309" lon="6.6326">
        <ele>2085.6000976562</ele>
        <time>2015-11-27T10:36:53.000Z</time>
      </trkpt>
      <trkpt lat="45.58309" lon="6.63259">
        <ele>2085.8000488281</ele>
        <time>2015-11-27T10:36:54.000Z</time>
      </trkpt>
      <trkpt lat="45.58305" lon="6.63256">
        <ele>2086.1999511719</ele>
        <time>2015-11-27T10:36:58.000Z</time>
      </trkpt>
      <trkpt lat="45.58303" lon="6.63255">
        <ele>2086.8000488281</ele>
        <time>2015-11-27T10:37:01.000Z</time>
      </trkpt>
      <trkpt lat="45.58301" lon="6.63252">
        <ele>2087.1999511719</ele>
        <time>2015-11-27T10:37:04.000Z</time>
      </trkpt>
      <trkpt lat="45.58298" lon="6.63248">
        <ele>2088</ele>
        <time>2015-11-27T10:37:09.000Z</time>
      </trkpt>
      <trkpt lat="45.58297" lon="6.63247">
        <ele>2088.1999511719</ele>
        <time>2015-11-27T10:37:10.000Z</time>
      </trkpt>
      <trkpt lat="45.58297" lon="6.63244">
        <ele>2089</ele>
        <time>2015-11-27T10:37:14.000Z</time>
      </trkpt>
      <trkpt lat="45.58296" lon="6.63242">
        <ele>2089.8000488281</ele>
        <time>2015-11-27T10:37:16.000Z</time>
      </trkpt>
      <trkpt lat="45.58295" lon="6.6324">
        <ele>2090</ele>
        <time>2015-11-27T10:37:19.000Z</time>
      </trkpt>
      <trkpt lat="45.58295" lon="6.63237">
        <ele>2090.6000976562</ele>
        <time>2015-11-27T10:37:23.000Z</time>
      </trkpt>
      <trkpt lat="45.58294" lon="6.63233">
        <ele>2091.1999511719</ele>
        <time>2015-11-27T10:37:26.000Z</time>
      </trkpt>
      <trkpt lat="45.58293" lon="6.63232">
        <ele>2091.6000976562</ele>
        <time>2015-11-27T10:37:28.000Z</time>
      </trkpt>
      <trkpt lat="45.58292" lon="6.63228">
        <ele>2092.1999511719</ele>
        <time>2015-11-27T10:37:32.000Z</time>
      </trkpt>
      <trkpt lat="45.5829" lon="6.63222">
        <ele>2093.3999023438</ele>
        <time>2015-11-27T10:37:37.000Z</time>
      </trkpt>
      <trkpt lat="45.5829" lon="6.6322">
        <ele>2093.6000976562</ele>
        <time>2015-11-27T10:37:38.000Z</time>
      </trkpt>
      <trkpt lat="45.58287" lon="6.63215">
        <ele>2094.6000976562</ele>
        <time>2015-11-27T10:37:43.000Z</time>
      </trkpt>
      <trkpt lat="45.58287" lon="6.63213">
        <ele>2094.8000488281</ele>
        <time>2015-11-27T10:37:45.000Z</time>
      </trkpt>
      <trkpt lat="45.58285" lon="6.63208">
        <ele>2095.6000976562</ele>
        <time>2015-11-27T10:37:49.000Z</time>
      </trkpt>
      <trkpt lat="45.58284" lon="6.63207">
        <ele>2096</ele>
        <time>2015-11-27T10:37:51.000Z</time>
      </trkpt>
      <trkpt lat="45.58283" lon="6.63204">
        <ele>2096.8000488281</ele>
        <time>2015-11-27T10:37:55.000Z</time>
      </trkpt>
      <trkpt lat="45.58283" lon="6.63202">
        <ele>2097.1999511719</ele>
        <time>2015-11-27T10:37:57.000Z</time>
      </trkpt>
      <trkpt lat="45.5828" lon="6.63199">
        <ele>2098</ele>
        <time>2015-11-27T10:38:00.000Z</time>
      </trkpt>
      <trkpt lat="45.58279" lon="6.63197">
        <ele>2098.3999023438</ele>
        <time>2015-11-27T10:38:02.000Z</time>
      </trkpt>
      <trkpt lat="45.58277" lon="6.63195">
        <ele>2099.1999511719</ele>
        <time>2015-11-27T10:38:04.000Z</time>
      </trkpt>
      <trkpt lat="45.58275" lon="6.63193">
        <ele>2099.8000488281</ele>
        <time>2015-11-27T10:38:07.000Z</time>
      </trkpt>
      <trkpt lat="45.58273" lon="6.6319">
        <ele>2100.3999023438</ele>
        <time>2015-11-27T10:38:11.000Z</time>
      </trkpt>
      <trkpt lat="45.58272" lon="6.63189">
        <ele>2100.8000488281</ele>
        <time>2015-11-27T10:38:13.000Z</time>
      </trkpt>
      <trkpt lat="45.58271" lon="6.63187">
        <ele>2101.3999023438</ele>
        <time>2015-11-27T10:38:16.000Z</time>
      </trkpt>
      <trkpt lat="45.5827" lon="6.63184">
        <ele>2102</ele>
        <time>2015-11-27T10:38:18.000Z</time>
      </trkpt>
      <trkpt lat="45.58269" lon="6.63183">
        <ele>2102.6000976562</ele>
        <time>2015-11-27T10:38:20.000Z</time>
      </trkpt>
      <trkpt lat="45.58268" lon="6.6318">
        <ele>2103.1999511719</ele>
        <time>2015-11-27T10:38:23.000Z</time>
      </trkpt>
      <trkpt lat="45.58266" lon="6.63177">
        <ele>2103.6000976562</ele>
        <time>2015-11-27T10:38:26.000Z</time>
      </trkpt>
      <trkpt lat="45.58265" lon="6.63176">
        <ele>2104</ele>
        <time>2015-11-27T10:38:28.000Z</time>
      </trkpt>
      <trkpt lat="45.58263" lon="6.63172">
        <ele>2104.8000488281</ele>
        <time>2015-11-27T10:38:32.000Z</time>
      </trkpt>
      <trkpt lat="45.58261" lon="6.6317">
        <ele>2105.1999511719</ele>
        <time>2015-11-27T10:38:34.000Z</time>
      </trkpt>
      <trkpt lat="45.58259" lon="6.63166">
        <ele>2106</ele>
        <time>2015-11-27T10:38:37.000Z</time>
      </trkpt>
      <trkpt lat="45.58258" lon="6.63164">
        <ele>2106.1999511719</ele>
        <time>2015-11-27T10:38:39.000Z</time>
      </trkpt>
      <trkpt lat="45.58256" lon="6.63162">
        <ele>2106.6000976562</ele>
        <time>2015-11-27T10:38:43.000Z</time>
      </trkpt>
      <trkpt lat="45.58254" lon="6.63161">
        <ele>2106.8000488281</ele>
        <time>2015-11-27T10:38:45.000Z</time>
      </trkpt>
      <trkpt lat="45.58253" lon="6.6316">
        <ele>2107</ele>
        <time>2015-11-27T10:38:46.000Z</time>
      </trkpt>
      <trkpt lat="45.5825" lon="6.63157">
        <ele>2107.8000488281</ele>
        <time>2015-11-27T10:38:52.000Z</time>
      </trkpt>
      <trkpt lat="45.58249" lon="6.63155">
        <ele>2108.1999511719</ele>
        <time>2015-11-27T10:38:54.000Z</time>
      </trkpt>
      <trkpt lat="45.58245" lon="6.63153">
        <ele>2108.3999023438</ele>
        <time>2015-11-27T10:38:58.000Z</time>
      </trkpt>
      <trkpt lat="45.58242" lon="6.63155">
        <ele>2108.6000976562</ele>
        <time>2015-11-27T10:39:03.000Z</time>
      </trkpt>
      <trkpt lat="45.58239" lon="6.63157">
        <ele>2109.1999511719</ele>
        <time>2015-11-27T10:39:07.000Z</time>
      </trkpt>
      <trkpt lat="45.58238" lon="6.63159">
        <ele>2109.8000488281</ele>
        <time>2015-11-27T10:39:10.000Z</time>
      </trkpt>
      <trkpt lat="45.58239" lon="6.63162">
        <ele>2110.3999023438</ele>
        <time>2015-11-27T10:39:13.000Z</time>
      </trkpt>
      <trkpt lat="45.58239" lon="6.63163">
        <ele>2110.6000976562</ele>
        <time>2015-11-27T10:39:16.000Z</time>
      </trkpt>
      <trkpt lat="45.58239" lon="6.63164">
        <ele>2111.3999023438</ele>
        <time>2015-11-27T10:39:22.000Z</time>
      </trkpt>
      <trkpt lat="45.58239" lon="6.63164">
        <ele>2111.3999023438</ele>
        <time>2015-11-27T10:39:25.000Z</time>
      </trkpt>
      <trkpt lat="45.58239" lon="6.63164">
        <ele>2111.1999511719</ele>
        <time>2015-11-27T10:39:38.000Z</time>
      </trkpt>
      <trkpt lat="45.58239" lon="6.63164">
        <ele>2111.3999023438</ele>
        <time>2015-11-27T10:39:50.000Z</time>
      </trkpt>
      <trkpt lat="45.58239" lon="6.63165">
        <ele>2111.3999023438</ele>
        <time>2015-11-27T10:40:01.000Z</time>
      </trkpt>
      <trkpt lat="45.58239" lon="6.63165">
        <ele>2111.3999023438</ele>
        <time>2015-11-27T10:40:20.000Z</time>
      </trkpt>
      <trkpt lat="45.58239" lon="6.63165">
        <ele>2111.1999511719</ele>
        <time>2015-11-27T10:40:39.000Z</time>
      </trkpt>
      <trkpt lat="45.58239" lon="6.63165">
        <ele>2111.3999023438</ele>
        <time>2015-11-27T10:40:57.000Z</time>
      </trkpt>
      <trkpt lat="45.58239" lon="6.63165">
        <ele>2111.1999511719</ele>
        <time>2015-11-27T10:41:13.000Z</time>
      </trkpt>
      <trkpt lat="45.58239" lon="6.63165">
        <ele>2111.1999511719</ele>
        <time>2015-11-27T10:41:26.000Z</time>
      </trkpt>
      <trkpt lat="45.58239" lon="6.63165">
        <ele>2111.1999511719</ele>
        <time>2015-11-27T10:41:46.000Z</time>
      </trkpt>
      <trkpt lat="45.58239" lon="6.63165">
        <ele>2111</ele>
        <time>2015-11-27T10:42:04.000Z</time>
      </trkpt>
      <trkpt lat="45.58239" lon="6.63165">
        <ele>2111.1999511719</ele>
        <time>2015-11-27T10:42:20.000Z</time>
      </trkpt>
      <trkpt lat="45.58239" lon="6.63165">
        <ele>2111.1999511719</ele>
        <time>2015-11-27T10:42:34.000Z</time>
      </trkpt>
      <trkpt lat="45.58239" lon="6.63165">
        <ele>2111.1999511719</ele>
        <time>2015-11-27T10:42:51.000Z</time>
      </trkpt>
      <trkpt lat="45.58239" lon="6.63165">
        <ele>2111</ele>
        <time>2015-11-27T10:43:05.000Z</time>
      </trkpt>
      <trkpt lat="45.58239" lon="6.63165">
        <ele>2111</ele>
        <time>2015-11-27T10:43:17.000Z</time>
      </trkpt>
      <trkpt lat="45.58239" lon="6.63165">
        <ele>2111</ele>
        <time>2015-11-27T10:43:36.000Z</time>
      </trkpt>
      <trkpt lat="45.58239" lon="6.63165">
        <ele>2111</ele>
        <time>2015-11-27T10:44:00.000Z</time>
      </trkpt>
      <trkpt lat="45.58239" lon="6.63165">
        <ele>2110.8000488281</ele>
        <time>2015-11-27T10:44:13.000Z</time>
      </trkpt>
      <trkpt lat="45.58239" lon="6.63165">
        <ele>2110.8000488281</ele>
        <time>2015-11-27T10:44:31.000Z</time>
      </trkpt>
      <trkpt lat="45.58239" lon="6.63165">
        <ele>2111</ele>
        <time>2015-11-27T10:44:46.000Z</time>
      </trkpt>
      <trkpt lat="45.58239" lon="6.63165">
        <ele>2110.8000488281</ele>
        <time>2015-11-27T10:45:07.000Z</time>
      </trkpt>
      <trkpt lat="45.58239" lon="6.63165">
        <ele>2110.8000488281</ele>
        <time>2015-11-27T10:45:27.000Z</time>
      </trkpt>
      <trkpt lat="45.58239" lon="6.63165">
        <ele>2110.8000488281</ele>
        <time>2015-11-27T10:45:41.000Z</time>
      </trkpt>
      <trkpt lat="45.58239" lon="6.63165">
        <ele>2110.8000488281</ele>
        <time>2015-11-27T10:45:55.000Z</time>
      </trkpt>
      <trkpt lat="45.58239" lon="6.63165">
        <ele>2110.8000488281</ele>
        <time>2015-11-27T10:46:15.000Z</time>
      </trkpt>
      <trkpt lat="45.58239" lon="6.63165">
        <ele>2110.8000488281</ele>
        <time>2015-11-27T10:46:34.000Z</time>
      </trkpt>
      <trkpt lat="45.58239" lon="6.63165">
        <ele>2110.8000488281</ele>
        <time>2015-11-27T10:46:54.000Z</time>
      </trkpt>
      <trkpt lat="45.58239" lon="6.63165">
        <ele>2110.8000488281</ele>
        <time>2015-11-27T10:47:12.000Z</time>
      </trkpt>
      <trkpt lat="45.58239" lon="6.63165">
        <ele>2110.8000488281</ele>
        <time>2015-11-27T10:47:33.000Z</time>
      </trkpt>
      <trkpt lat="45.58239" lon="6.63165">
        <ele>2110.6000976562</ele>
        <time>2015-11-27T10:47:47.000Z</time>
      </trkpt>
      <trkpt lat="45.58239" lon="6.63165">
        <ele>2110.8000488281</ele>
        <time>2015-11-27T10:48:02.000Z</time>
      </trkpt>
      <trkpt lat="45.58239" lon="6.63165">
        <ele>2110.8000488281</ele>
        <time>2015-11-27T10:48:18.000Z</time>
      </trkpt>
      <trkpt lat="45.58239" lon="6.63165">
        <ele>2110.6000976562</ele>
        <time>2015-11-27T10:48:26.000Z</time>
      </trkpt>
      <trkpt lat="45.58239" lon="6.63165">
        <ele>2110.6000976562</ele>
        <time>2015-11-27T10:48:33.000Z</time>
      </trkpt>
      <trkpt lat="45.58239" lon="6.63165">
        <ele>2110.6000976562</ele>
        <time>2015-11-27T10:48:52.000Z</time>
      </trkpt>
      <trkpt lat="45.58235" lon="6.63162">
        <ele>2111</ele>
        <time>2015-11-27T10:48:58.000Z</time>
      </trkpt>
      <trkpt lat="45.58233" lon="6.63161">
        <ele>2111.1999511719</ele>
        <time>2015-11-27T10:49:05.000Z</time>
      </trkpt>
      <trkpt lat="45.58231" lon="6.6316">
        <ele>2111.6000976562</ele>
        <time>2015-11-27T10:49:10.000Z</time>
      </trkpt>
      <trkpt lat="45.58232" lon="6.63158">
        <ele>2111.6000976562</ele>
        <time>2015-11-27T10:49:18.000Z</time>
      </trkpt>
      <trkpt lat="45.5823" lon="6.63155">
        <ele>2111.6000976562</ele>
        <time>2015-11-27T10:49:28.000Z</time>
      </trkpt>
      <trkpt lat="45.58228" lon="6.63151">
        <ele>2112</ele>
        <time>2015-11-27T10:49:34.000Z</time>
      </trkpt>
      <trkpt lat="45.58225" lon="6.63149">
        <ele>2112.1999511719</ele>
        <time>2015-11-27T10:49:43.000Z</time>
      </trkpt>
      <trkpt lat="45.58224" lon="6.63149">
        <ele>2112.3999023438</ele>
        <time>2015-11-27T10:49:44.000Z</time>
      </trkpt>
      <trkpt lat="45.58219" lon="6.63146">
        <ele>2112.6000976562</ele>
        <time>2015-11-27T10:49:48.000Z</time>
      </trkpt>
      <trkpt lat="45.58212" lon="6.6314">
        <ele>2113.3999023438</ele>
        <time>2015-11-27T10:49:54.000Z</time>
      </trkpt>
      <trkpt lat="45.58211" lon="6.63139">
        <ele>2113.6000976562</ele>
        <time>2015-11-27T10:49:55.000Z</time>
      </trkpt>
      <trkpt lat="45.58205" lon="6.6313">
        <ele>2114.3999023438</ele>
        <time>2015-11-27T10:50:03.000Z</time>
      </trkpt>
      <trkpt lat="45.58205" lon="6.63129">
        <ele>2114.6000976562</ele>
        <time>2015-11-27T10:50:04.000Z</time>
      </trkpt>
      <trkpt lat="45.58201" lon="6.63126">
        <ele>2115.3999023438</ele>
        <time>2015-11-27T10:50:10.000Z</time>
      </trkpt>
      <trkpt lat="45.582" lon="6.63126">
        <ele>2115.6000976562</ele>
        <time>2015-11-27T10:50:11.000Z</time>
      </trkpt>
      <trkpt lat="45.58199" lon="6.63124">
        <ele>2116.3999023438</ele>
        <time>2015-11-27T10:50:15.000Z</time>
      </trkpt>
      <trkpt lat="45.58198" lon="6.63124">
        <ele>2116.6000976562</ele>
        <time>2015-11-27T10:50:16.000Z</time>
      </trkpt>
      <trkpt lat="45.58195" lon="6.63121">
        <ele>2117.8000488281</ele>
        <time>2015-11-27T10:50:20.000Z</time>
      </trkpt>
      <trkpt lat="45.58193" lon="6.63119">
        <ele>2118.1999511719</ele>
        <time>2015-11-27T10:50:22.000Z</time>
      </trkpt>
      <trkpt lat="45.58187" lon="6.63115">
        <ele>2118.3999023438</ele>
        <time>2015-11-27T10:50:28.000Z</time>
      </trkpt>
      <trkpt lat="45.58183" lon="6.63113">
        <ele>2118.8000488281</ele>
        <time>2015-11-27T10:50:32.000Z</time>
      </trkpt>
      <trkpt lat="45.58181" lon="6.63111">
        <ele>2118.8000488281</ele>
        <time>2015-11-27T10:50:35.000Z</time>
      </trkpt>
      <trkpt lat="45.58175" lon="6.63104">
        <ele>2119.3999023438</ele>
        <time>2015-11-27T10:50:42.000Z</time>
      </trkpt>
      <trkpt lat="45.58174" lon="6.63102">
        <ele>2119.3999023438</ele>
        <time>2015-11-27T10:50:43.000Z</time>
      </trkpt>
      <trkpt lat="45.5817" lon="6.63094">
        <ele>2119</ele>
        <time>2015-11-27T10:50:48.000Z</time>
      </trkpt>
      <trkpt lat="45.58167" lon="6.63087">
        <ele>2118.6000976562</ele>
        <time>2015-11-27T10:50:54.000Z</time>
      </trkpt>
      <trkpt lat="45.58164" lon="6.63077">
        <ele>2118.3999023438</ele>
        <time>2015-11-27T10:51:00.000Z</time>
      </trkpt>
      <trkpt lat="45.58164" lon="6.63069">
        <ele>2118.8000488281</ele>
        <time>2015-11-27T10:51:06.000Z</time>
      </trkpt>
      <trkpt lat="45.58164" lon="6.63061">
        <ele>2119.1999511719</ele>
        <time>2015-11-27T10:51:12.000Z</time>
      </trkpt>
      <trkpt lat="45.58164" lon="6.63054">
        <ele>2119.3999023438</ele>
        <time>2015-11-27T10:51:17.000Z</time>
      </trkpt>
      <trkpt lat="45.58163" lon="6.63049">
        <ele>2120</ele>
        <time>2015-11-27T10:51:21.000Z</time>
      </trkpt>
      <trkpt lat="45.58164" lon="6.63046">
        <ele>2120.1999511719</ele>
        <time>2015-11-27T10:51:23.000Z</time>
      </trkpt>
      <trkpt lat="45.58163" lon="6.63045">
        <ele>2120.8000488281</ele>
        <time>2015-11-27T10:51:30.000Z</time>
      </trkpt>
      <trkpt lat="45.58163" lon="6.63039">
        <ele>2120.6000976562</ele>
        <time>2015-11-27T10:51:36.000Z</time>
      </trkpt>
      <trkpt lat="45.58164" lon="6.63036">
        <ele>2121</ele>
        <time>2015-11-27T10:51:40.000Z</time>
      </trkpt>
      <trkpt lat="45.58164" lon="6.63034">
        <ele>2121.1999511719</ele>
        <time>2015-11-27T10:51:41.000Z</time>
      </trkpt>
      <trkpt lat="45.58163" lon="6.63028">
        <ele>2122.1999511719</ele>
        <time>2015-11-27T10:51:47.000Z</time>
      </trkpt>
      <trkpt lat="45.58163" lon="6.63027">
        <ele>2123</ele>
        <time>2015-11-27T10:52:00.000Z</time>
      </trkpt>
      <trkpt lat="45.58163" lon="6.63027">
        <ele>2122.8000488281</ele>
        <time>2015-11-27T10:52:18.000Z</time>
      </trkpt>
      <trkpt lat="45.58162" lon="6.63027">
        <ele>2122.8000488281</ele>
        <time>2015-11-27T10:52:35.000Z</time>
      </trkpt>
      <trkpt lat="45.58162" lon="6.63027">
        <ele>2122.8000488281</ele>
        <time>2015-11-27T10:52:37.000Z</time>
      </trkpt>
      <trkpt lat="45.58162" lon="6.63027">
        <ele>2122.8000488281</ele>
        <time>2015-11-27T10:52:56.000Z</time>
      </trkpt>
      <trkpt lat="45.58162" lon="6.63027">
        <ele>2122.8000488281</ele>
        <time>2015-11-27T10:53:13.000Z</time>
      </trkpt>
      <trkpt lat="45.58162" lon="6.63024">
        <ele>2123</ele>
        <time>2015-11-27T10:53:18.000Z</time>
      </trkpt>
      <trkpt lat="45.58161" lon="6.63023">
        <ele>2123.1999511719</ele>
        <time>2015-11-27T10:53:19.000Z</time>
      </trkpt>
      <trkpt lat="45.5816" lon="6.63016">
        <ele>2123.8000488281</ele>
        <time>2015-11-27T10:53:23.000Z</time>
      </trkpt>
      <trkpt lat="45.58157" lon="6.6301">
        <ele>2124.3999023438</ele>
        <time>2015-11-27T10:53:28.000Z</time>
      </trkpt>
      <trkpt lat="45.58156" lon="6.63009">
        <ele>2124.3999023438</ele>
        <time>2015-11-27T10:53:29.000Z</time>
      </trkpt>
      <trkpt lat="45.58151" lon="6.63">
        <ele>2125</ele>
        <time>2015-11-27T10:53:36.000Z</time>
      </trkpt>
      <trkpt lat="45.58147" lon="6.62995">
        <ele>2125.3999023438</ele>
        <time>2015-11-27T10:53:42.000Z</time>
      </trkpt>
      <trkpt lat="45.58142" lon="6.6299">
        <ele>2126.3999023438</ele>
        <time>2015-11-27T10:53:48.000Z</time>
      </trkpt>
      <trkpt lat="45.58135" lon="6.62989">
        <ele>2126.6000976562</ele>
        <time>2015-11-27T10:53:54.000Z</time>
      </trkpt>
      <trkpt lat="45.58128" lon="6.6299">
        <ele>2125.8000488281</ele>
        <time>2015-11-27T10:54:00.000Z</time>
      </trkpt>
      <trkpt lat="45.58121" lon="6.62989">
        <ele>2125.8000488281</ele>
        <time>2015-11-27T10:54:06.000Z</time>
      </trkpt>
      <trkpt lat="45.58114" lon="6.62985">
        <ele>2126.1999511719</ele>
        <time>2015-11-27T10:54:13.000Z</time>
      </trkpt>
      <trkpt lat="45.5811" lon="6.6298">
        <ele>2126.8000488281</ele>
        <time>2015-11-27T10:54:19.000Z</time>
      </trkpt>
      <trkpt lat="45.58108" lon="6.62976">
        <ele>2127.1999511719</ele>
        <time>2015-11-27T10:54:25.000Z</time>
      </trkpt>
      <trkpt lat="45.58108" lon="6.62973">
        <ele>2127.1999511719</ele>
        <time>2015-11-27T10:54:35.000Z</time>
      </trkpt>
      <trkpt lat="45.58107" lon="6.62971">
        <ele>2127.3999023438</ele>
        <time>2015-11-27T10:54:37.000Z</time>
      </trkpt>
      <trkpt lat="45.58107" lon="6.62965">
        <ele>2127.6000976562</ele>
        <time>2015-11-27T10:54:43.000Z</time>
      </trkpt>
      <trkpt lat="45.58104" lon="6.62959">
        <ele>2128</ele>
        <time>2015-11-27T10:54:50.000Z</time>
      </trkpt>
      <trkpt lat="45.58098" lon="6.6295">
        <ele>2127</ele>
        <time>2015-11-27T10:54:58.000Z</time>
      </trkpt>
      <trkpt lat="45.58095" lon="6.62946">
        <ele>2126.6000976562</ele>
        <time>2015-11-27T10:55:02.000Z</time>
      </trkpt>
      <trkpt lat="45.58094" lon="6.62944">
        <ele>2126.3999023438</ele>
        <time>2015-11-27T10:55:04.000Z</time>
      </trkpt>
      <trkpt lat="45.58093" lon="6.62943">
        <ele>2126</ele>
        <time>2015-11-27T10:55:06.000Z</time>
      </trkpt>
      <trkpt lat="45.58091" lon="6.62936">
        <ele>2125.1999511719</ele>
        <time>2015-11-27T10:55:12.000Z</time>
      </trkpt>
      <trkpt lat="45.5809" lon="6.62934">
        <ele>2125</ele>
        <time>2015-11-27T10:55:14.000Z</time>
      </trkpt>
      <trkpt lat="45.58089" lon="6.62932">
        <ele>2124</ele>
        <time>2015-11-27T10:55:19.000Z</time>
      </trkpt>
      <trkpt lat="45.58089" lon="6.62931">
        <ele>2123.8000488281</ele>
        <time>2015-11-27T10:55:21.000Z</time>
      </trkpt>
      <trkpt lat="45.58089" lon="6.62931">
        <ele>2123.3999023438</ele>
        <time>2015-11-27T10:55:38.000Z</time>
      </trkpt>
      <trkpt lat="45.58088" lon="6.62929">
        <ele>2123.3999023438</ele>
        <time>2015-11-27T10:55:54.000Z</time>
      </trkpt>
      <trkpt lat="45.58088" lon="6.62927">
        <ele>2123.3999023438</ele>
        <time>2015-11-27T10:55:55.000Z</time>
      </trkpt>
      <trkpt lat="45.58085" lon="6.6292">
        <ele>2122.8000488281</ele>
        <time>2015-11-27T10:55:59.000Z</time>
      </trkpt>
      <trkpt lat="45.58082" lon="6.6291">
        <ele>2121.8000488281</ele>
        <time>2015-11-27T10:56:02.000Z</time>
      </trkpt>
      <trkpt lat="45.58081" lon="6.62906">
        <ele>2121.6000976562</ele>
        <time>2015-11-27T10:56:03.000Z</time>
      </trkpt>
      <trkpt lat="45.58078" lon="6.62894">
        <ele>2120.3999023438</ele>
        <time>2015-11-27T10:56:05.000Z</time>
      </trkpt>
      <trkpt lat="45.58076" lon="6.62887">
        <ele>2119.8000488281</ele>
        <time>2015-11-27T10:56:06.000Z</time>
      </trkpt>
      <trkpt lat="45.58075" lon="6.62883">
        <ele>2118</ele>
        <time>2015-11-27T10:56:07.000Z</time>
      </trkpt>
      <trkpt lat="45.58074" lon="6.62878">
        <ele>2117</ele>
        <time>2015-11-27T10:56:08.000Z</time>
      </trkpt>
      <trkpt lat="45.58074" lon="6.62874">
        <ele>2115.8000488281</ele>
        <time>2015-11-27T10:56:09.000Z</time>
      </trkpt>
      <trkpt lat="45.58073" lon="6.62871">
        <ele>2114.8000488281</ele>
        <time>2015-11-27T10:56:10.000Z</time>
      </trkpt>
      <trkpt lat="45.58074" lon="6.62869">
        <ele>2113.8000488281</ele>
        <time>2015-11-27T10:56:11.000Z</time>
      </trkpt>
      <trkpt lat="45.58074" lon="6.62866">
        <ele>2113.1999511719</ele>
        <time>2015-11-27T10:56:12.000Z</time>
      </trkpt>
      <trkpt lat="45.58074" lon="6.62861">
        <ele>2111.8000488281</ele>
        <time>2015-11-27T10:56:14.000Z</time>
      </trkpt>
      <trkpt lat="45.58073" lon="6.62854">
        <ele>2110.6000976562</ele>
        <time>2015-11-27T10:56:17.000Z</time>
      </trkpt>
      <trkpt lat="45.58073" lon="6.62853">
        <ele>2110.3999023438</ele>
        <time>2015-11-27T10:56:18.000Z</time>
      </trkpt>
      <trkpt lat="45.58072" lon="6.62844">
        <ele>2109.3999023438</ele>
        <time>2015-11-27T10:56:22.000Z</time>
      </trkpt>
      <trkpt lat="45.58072" lon="6.62841">
        <ele>2109</ele>
        <time>2015-11-27T10:56:24.000Z</time>
      </trkpt>
      <trkpt lat="45.58073" lon="6.62834">
        <ele>2108.3999023438</ele>
        <time>2015-11-27T10:56:27.000Z</time>
      </trkpt>
      <trkpt lat="45.58073" lon="6.62826">
        <ele>2107.6000976562</ele>
        <time>2015-11-27T10:56:31.000Z</time>
      </trkpt>
      <trkpt lat="45.58073" lon="6.62822">
        <ele>2107.3999023438</ele>
        <time>2015-11-27T10:56:33.000Z</time>
      </trkpt>
      <trkpt lat="45.58073" lon="6.62813">
        <ele>2106.3999023438</ele>
        <time>2015-11-27T10:56:37.000Z</time>
      </trkpt>
      <trkpt lat="45.58073" lon="6.62811">
        <ele>2106.1999511719</ele>
        <time>2015-11-27T10:56:38.000Z</time>
      </trkpt>
      <trkpt lat="45.58073" lon="6.62802">
        <ele>2105.3999023438</ele>
        <time>2015-11-27T10:56:43.000Z</time>
      </trkpt>
      <trkpt lat="45.58073" lon="6.62801">
        <ele>2105.1999511719</ele>
        <time>2015-11-27T10:56:44.000Z</time>
      </trkpt>
      <trkpt lat="45.58072" lon="6.62793">
        <ele>2104.6000976562</ele>
        <time>2015-11-27T10:56:48.000Z</time>
      </trkpt>
      <trkpt lat="45.58071" lon="6.62789">
        <ele>2104.1999511719</ele>
        <time>2015-11-27T10:56:51.000Z</time>
      </trkpt>
      <trkpt lat="45.58072" lon="6.62782">
        <ele>2103.1999511719</ele>
        <time>2015-11-27T10:56:55.000Z</time>
      </trkpt>
      <trkpt lat="45.58072" lon="6.62781">
        <ele>2103.1999511719</ele>
        <time>2015-11-27T10:56:56.000Z</time>
      </trkpt>
      <trkpt lat="45.5807" lon="6.62772">
        <ele>2102.6000976562</ele>
        <time>2015-11-27T10:57:01.000Z</time>
      </trkpt>
      <trkpt lat="45.58069" lon="6.62766">
        <ele>2102</ele>
        <time>2015-11-27T10:57:05.000Z</time>
      </trkpt>
      <trkpt lat="45.58069" lon="6.62766">
        <ele>2102</ele>
        <time>2015-11-27T10:57:06.000Z</time>
      </trkpt>
      <trkpt lat="45.58068" lon="6.62758">
        <ele>2101.8000488281</ele>
        <time>2015-11-27T10:57:12.000Z</time>
      </trkpt>
      <trkpt lat="45.58068" lon="6.6275">
        <ele>2101.3999023438</ele>
        <time>2015-11-27T10:57:17.000Z</time>
      </trkpt>
      <trkpt lat="45.58067" lon="6.62744">
        <ele>2101</ele>
        <time>2015-11-27T10:57:22.000Z</time>
      </trkpt>
      <trkpt lat="45.58066" lon="6.62742">
        <ele>2101</ele>
        <time>2015-11-27T10:57:23.000Z</time>
      </trkpt>
      <trkpt lat="45.58063" lon="6.62733">
        <ele>2100.6000976562</ele>
        <time>2015-11-27T10:57:29.000Z</time>
      </trkpt>
      <trkpt lat="45.58062" lon="6.62724">
        <ele>2100</ele>
        <time>2015-11-27T10:57:35.000Z</time>
      </trkpt>
      <trkpt lat="45.58062" lon="6.62722">
        <ele>2100</ele>
        <time>2015-11-27T10:57:36.000Z</time>
      </trkpt>
      <trkpt lat="45.58061" lon="6.62717">
        <ele>2099.6000976562</ele>
        <time>2015-11-27T10:57:40.000Z</time>
      </trkpt>
      <trkpt lat="45.5806" lon="6.62708">
        <ele>2099.3999023438</ele>
        <time>2015-11-27T10:57:45.000Z</time>
      </trkpt>
      <trkpt lat="45.58058" lon="6.62702">
        <ele>2099.1999511719</ele>
        <time>2015-11-27T10:57:50.000Z</time>
      </trkpt>
      <trkpt lat="45.58056" lon="6.62693">
        <ele>2099.6000976562</ele>
        <time>2015-11-27T10:57:56.000Z</time>
      </trkpt>
      <trkpt lat="45.58056" lon="6.62693">
        <ele>2100.8000488281</ele>
        <time>2015-11-27T10:58:03.000Z</time>
      </trkpt>
      <trkpt lat="45.58056" lon="6.62693">
        <ele>2101</ele>
        <time>2015-11-27T10:58:05.000Z</time>
      </trkpt>
      <trkpt lat="45.58057" lon="6.62688">
        <ele>2101.6000976562</ele>
        <time>2015-11-27T10:58:10.000Z</time>
      </trkpt>
      <trkpt lat="45.58057" lon="6.62684">
        <ele>2102.1999511719</ele>
        <time>2015-11-27T10:58:15.000Z</time>
      </trkpt>
      <trkpt lat="45.58057" lon="6.62683">
        <ele>2102.3999023438</ele>
        <time>2015-11-27T10:58:16.000Z</time>
      </trkpt>
      <trkpt lat="45.58058" lon="6.62679">
        <ele>2103.1999511719</ele>
        <time>2015-11-27T10:58:22.000Z</time>
      </trkpt>
      <trkpt lat="45.5806" lon="6.62677">
        <ele>2104.3999023438</ele>
        <time>2015-11-27T10:58:27.000Z</time>
      </trkpt>
      <trkpt lat="45.5806" lon="6.62677">
        <ele>2104.3999023438</ele>
        <time>2015-11-27T10:58:28.000Z</time>
      </trkpt>
      <trkpt lat="45.58061" lon="6.62673">
        <ele>2104.6000976562</ele>
        <time>2015-11-27T10:58:35.000Z</time>
      </trkpt>
      <trkpt lat="45.58063" lon="6.6267">
        <ele>2105.3999023438</ele>
        <time>2015-11-27T10:58:40.000Z</time>
      </trkpt>
      <trkpt lat="45.58063" lon="6.6267">
        <ele>2105.6000976562</ele>
        <time>2015-11-27T10:58:41.000Z</time>
      </trkpt>
      <trkpt lat="45.58063" lon="6.62668">
        <ele>2106.3999023438</ele>
        <time>2015-11-27T10:58:45.000Z</time>
      </trkpt>
      <trkpt lat="45.58063" lon="6.62667">
        <ele>2106.6000976562</ele>
        <time>2015-11-27T10:58:46.000Z</time>
      </trkpt>
      <trkpt lat="45.58066" lon="6.62662">
        <ele>2107.8000488281</ele>
        <time>2015-11-27T10:58:52.000Z</time>
      </trkpt>
      <trkpt lat="45.58068" lon="6.62657">
        <ele>2108.3999023438</ele>
        <time>2015-11-27T10:58:56.000Z</time>
      </trkpt>
      <trkpt lat="45.58068" lon="6.62657">
        <ele>2108.6000976562</ele>
        <time>2015-11-27T10:58:57.000Z</time>
      </trkpt>
      <trkpt lat="45.58069" lon="6.62655">
        <ele>2108.8000488281</ele>
        <time>2015-11-27T10:58:59.000Z</time>
      </trkpt>
      <trkpt lat="45.58069" lon="6.62653">
        <ele>2109.1999511719</ele>
        <time>2015-11-27T10:59:02.000Z</time>
      </trkpt>
      <trkpt lat="45.58069" lon="6.62649">
        <ele>2109.8000488281</ele>
        <time>2015-11-27T10:59:07.000Z</time>
      </trkpt>
      <trkpt lat="45.5807" lon="6.62647">
        <ele>2110</ele>
        <time>2015-11-27T10:59:09.000Z</time>
      </trkpt>
      <trkpt lat="45.5807" lon="6.62641">
        <ele>2111</ele>
        <time>2015-11-27T10:59:16.000Z</time>
      </trkpt>
      <trkpt lat="45.58071" lon="6.62637">
        <ele>2112</ele>
        <time>2015-11-27T10:59:21.000Z</time>
      </trkpt>
      <trkpt lat="45.58074" lon="6.62633">
        <ele>2113.1999511719</ele>
        <time>2015-11-27T10:59:26.000Z</time>
      </trkpt>
      <trkpt lat="45.58074" lon="6.6263">
        <ele>2114</ele>
        <time>2015-11-27T10:59:30.000Z</time>
      </trkpt>
      <trkpt lat="45.58075" lon="6.62628">
        <ele>2114.1999511719</ele>
        <time>2015-11-27T10:59:32.000Z</time>
      </trkpt>
      <trkpt lat="45.58076" lon="6.62625">
        <ele>2114.8000488281</ele>
        <time>2015-11-27T10:59:36.000Z</time>
      </trkpt>
      <trkpt lat="45.58076" lon="6.62624">
        <ele>2115.3999023438</ele>
        <time>2015-11-27T10:59:40.000Z</time>
      </trkpt>
      <trkpt lat="45.58076" lon="6.62622">
        <ele>2116</ele>
        <time>2015-11-27T10:59:44.000Z</time>
      </trkpt>
      <trkpt lat="45.58076" lon="6.62621">
        <ele>2116.3999023438</ele>
        <time>2015-11-27T10:59:46.000Z</time>
      </trkpt>
      <trkpt lat="45.58077" lon="6.62619">
        <ele>2116.8000488281</ele>
        <time>2015-11-27T10:59:50.000Z</time>
      </trkpt>
      <trkpt lat="45.58078" lon="6.62614">
        <ele>2117.3999023438</ele>
        <time>2015-11-27T10:59:55.000Z</time>
      </trkpt>
      <trkpt lat="45.5808" lon="6.62612">
        <ele>2117.6000976562</ele>
        <time>2015-11-27T10:59:58.000Z</time>
      </trkpt>
      <trkpt lat="45.58082" lon="6.62608">
        <ele>2118.6000976562</ele>
        <time>2015-11-27T11:00:03.000Z</time>
      </trkpt>
      <trkpt lat="45.58083" lon="6.62607">
        <ele>2119</ele>
        <time>2015-11-27T11:00:05.000Z</time>
      </trkpt>
      <trkpt lat="45.58084" lon="6.62605">
        <ele>2119.6000976562</ele>
        <time>2015-11-27T11:00:08.000Z</time>
      </trkpt>
      <trkpt lat="45.58085" lon="6.62604">
        <ele>2120</ele>
        <time>2015-11-27T11:00:12.000Z</time>
      </trkpt>
      <trkpt lat="45.58087" lon="6.62601">
        <ele>2120.6000976562</ele>
        <time>2015-11-27T11:00:18.000Z</time>
      </trkpt>
      <trkpt lat="45.58087" lon="6.62601">
        <ele>2120.8000488281</ele>
        <time>2015-11-27T11:00:19.000Z</time>
      </trkpt>
      <trkpt lat="45.58089" lon="6.62597">
        <ele>2122</ele>
        <time>2015-11-27T11:00:24.000Z</time>
      </trkpt>
      <trkpt lat="45.58091" lon="6.62592">
        <ele>2123.1999511719</ele>
        <time>2015-11-27T11:00:31.000Z</time>
      </trkpt>
      <trkpt lat="45.58093" lon="6.62586">
        <ele>2123.8000488281</ele>
        <time>2015-11-27T11:00:37.000Z</time>
      </trkpt>
      <trkpt lat="45.58093" lon="6.62584">
        <ele>2124.3999023438</ele>
        <time>2015-11-27T11:00:41.000Z</time>
      </trkpt>
      <trkpt lat="45.58094" lon="6.62583">
        <ele>2124.6000976562</ele>
        <time>2015-11-27T11:00:42.000Z</time>
      </trkpt>
      <trkpt lat="45.58095" lon="6.62581">
        <ele>2125.6000976562</ele>
        <time>2015-11-27T11:00:47.000Z</time>
      </trkpt>
      <trkpt lat="45.58095" lon="6.62581">
        <ele>2125.6000976562</ele>
        <time>2015-11-27T11:00:48.000Z</time>
      </trkpt>
      <trkpt lat="45.58096" lon="6.62579">
        <ele>2126.3999023438</ele>
        <time>2015-11-27T11:00:53.000Z</time>
      </trkpt>
      <trkpt lat="45.58097" lon="6.62577">
        <ele>2126.6000976562</ele>
        <time>2015-11-27T11:00:55.000Z</time>
      </trkpt>
      <trkpt lat="45.58098" lon="6.62574">
        <ele>2127</ele>
        <time>2015-11-27T11:00:58.000Z</time>
      </trkpt>
      <trkpt lat="45.58099" lon="6.62572">
        <ele>2127.6000976562</ele>
        <time>2015-11-27T11:01:03.000Z</time>
      </trkpt>
      <trkpt lat="45.58101" lon="6.62571">
        <ele>2128.8000488281</ele>
        <time>2015-11-27T11:01:10.000Z</time>
      </trkpt>
      <trkpt lat="45.58101" lon="6.62572">
        <ele>2129</ele>
        <time>2015-11-27T11:01:11.000Z</time>
      </trkpt>
      <trkpt lat="45.58104" lon="6.62575">
        <ele>2130</ele>
        <time>2015-11-27T11:01:17.000Z</time>
      </trkpt>
      <trkpt lat="45.58107" lon="6.62579">
        <ele>2131</ele>
        <time>2015-11-27T11:01:24.000Z</time>
      </trkpt>
      <trkpt lat="45.58108" lon="6.62581">
        <ele>2132.1999511719</ele>
        <time>2015-11-27T11:01:29.000Z</time>
      </trkpt>
      <trkpt lat="45.58109" lon="6.62581">
        <ele>2132.3999023438</ele>
        <time>2015-11-27T11:01:31.000Z</time>
      </trkpt>
      <trkpt lat="45.58111" lon="6.62585">
        <ele>2133.1999511719</ele>
        <time>2015-11-27T11:01:37.000Z</time>
      </trkpt>
      <trkpt lat="45.58112" lon="6.62586">
        <ele>2133.6000976562</ele>
        <time>2015-11-27T11:01:39.000Z</time>
      </trkpt>
      <trkpt lat="45.58113" lon="6.62587">
        <ele>2134.1999511719</ele>
        <time>2015-11-27T11:01:43.000Z</time>
      </trkpt>
      <trkpt lat="45.58113" lon="6.62588">
        <ele>2134.3999023438</ele>
        <time>2015-11-27T11:01:44.000Z</time>
      </trkpt>
      <trkpt lat="45.58114" lon="6.62591">
        <ele>2135.1999511719</ele>
        <time>2015-11-27T11:01:49.000Z</time>
      </trkpt>
      <trkpt lat="45.58114" lon="6.62592">
        <ele>2135.3999023438</ele>
        <time>2015-11-27T11:01:51.000Z</time>
      </trkpt>
      <trkpt lat="45.58114" lon="6.62592">
        <ele>2136</ele>
        <time>2015-11-27T11:01:54.000Z</time>
      </trkpt>
      <trkpt lat="45.58115" lon="6.6259">
        <ele>2136.6000976562</ele>
        <time>2015-11-27T11:01:58.000Z</time>
      </trkpt>
      <trkpt lat="45.58116" lon="6.62589">
        <ele>2136.6000976562</ele>
        <time>2015-11-27T11:01:59.000Z</time>
      </trkpt>
      <trkpt lat="45.58118" lon="6.62587">
        <ele>2137.6000976562</ele>
        <time>2015-11-27T11:02:05.000Z</time>
      </trkpt>
      <trkpt lat="45.58118" lon="6.62586">
        <ele>2137.6000976562</ele>
        <time>2015-11-27T11:02:06.000Z</time>
      </trkpt>
      <trkpt lat="45.5812" lon="6.62583">
        <ele>2138.1999511719</ele>
        <time>2015-11-27T11:02:11.000Z</time>
      </trkpt>
      <trkpt lat="45.58122" lon="6.62579">
        <ele>2138.8000488281</ele>
        <time>2015-11-27T11:02:15.000Z</time>
      </trkpt>
      <trkpt lat="45.58122" lon="6.62578">
        <ele>2139.6000976562</ele>
        <time>2015-11-27T11:02:20.000Z</time>
      </trkpt>
      <trkpt lat="45.58122" lon="6.62578">
        <ele>2139.8000488281</ele>
        <time>2015-11-27T11:02:21.000Z</time>
      </trkpt>
      <trkpt lat="45.58122" lon="6.62578">
        <ele>2140.3999023438</ele>
        <time>2015-11-27T11:02:26.000Z</time>
      </trkpt>
      <trkpt lat="45.58123" lon="6.62575">
        <ele>2140.8000488281</ele>
        <time>2015-11-27T11:02:28.000Z</time>
      </trkpt>
      <trkpt lat="45.58125" lon="6.62571">
        <ele>2141.8000488281</ele>
        <time>2015-11-27T11:02:33.000Z</time>
      </trkpt>
      <trkpt lat="45.58125" lon="6.6257">
        <ele>2142</ele>
        <time>2015-11-27T11:02:34.000Z</time>
      </trkpt>
      <trkpt lat="45.58125" lon="6.62567">
        <ele>2142.3999023438</ele>
        <time>2015-11-27T11:02:38.000Z</time>
      </trkpt>
      <trkpt lat="45.58125" lon="6.62565">
        <ele>2143</ele>
        <time>2015-11-27T11:02:42.000Z</time>
      </trkpt>
      <trkpt lat="45.58125" lon="6.62563">
        <ele>2143.1999511719</ele>
        <time>2015-11-27T11:02:43.000Z</time>
      </trkpt>
      <trkpt lat="45.58125" lon="6.62559">
        <ele>2143.8000488281</ele>
        <time>2015-11-27T11:02:47.000Z</time>
      </trkpt>
      <trkpt lat="45.58125" lon="6.62556">
        <ele>2144.3999023438</ele>
        <time>2015-11-27T11:02:49.000Z</time>
      </trkpt>
      <trkpt lat="45.58126" lon="6.62551">
        <ele>2145</ele>
        <time>2015-11-27T11:02:55.000Z</time>
      </trkpt>
      <trkpt lat="45.58126" lon="6.6255">
        <ele>2145.3999023438</ele>
        <time>2015-11-27T11:02:56.000Z</time>
      </trkpt>
      <trkpt lat="45.58127" lon="6.62547">
        <ele>2146.3999023438</ele>
        <time>2015-11-27T11:03:01.000Z</time>
      </trkpt>
      <trkpt lat="45.58127" lon="6.62546">
        <ele>2146.6000976562</ele>
        <time>2015-11-27T11:03:03.000Z</time>
      </trkpt>
      <trkpt lat="45.58128" lon="6.62543">
        <ele>2147.6000976562</ele>
        <time>2015-11-27T11:03:08.000Z</time>
      </trkpt>
      <trkpt lat="45.58131" lon="6.62541">
        <ele>2148.6000976562</ele>
        <time>2015-11-27T11:03:14.000Z</time>
      </trkpt>
      <trkpt lat="45.58132" lon="6.62537">
        <ele>2149.8000488281</ele>
        <time>2015-11-27T11:03:20.000Z</time>
      </trkpt>
      <trkpt lat="45.58132" lon="6.62537">
        <ele>2150.3999023438</ele>
        <time>2015-11-27T11:03:22.000Z</time>
      </trkpt>
      <trkpt lat="45.58133" lon="6.62536">
        <ele>2151</ele>
        <time>2015-11-27T11:03:26.000Z</time>
      </trkpt>
      <trkpt lat="45.58135" lon="6.62534">
        <ele>2151.6000976562</ele>
        <time>2015-11-27T11:03:29.000Z</time>
      </trkpt>
      <trkpt lat="45.58137" lon="6.62531">
        <ele>2152.1999511719</ele>
        <time>2015-11-27T11:03:33.000Z</time>
      </trkpt>
      <trkpt lat="45.58138" lon="6.62531">
        <ele>2152.3999023438</ele>
        <time>2015-11-27T11:03:35.000Z</time>
      </trkpt>
      <trkpt lat="45.58139" lon="6.62528">
        <ele>2153.1999511719</ele>
        <time>2015-11-27T11:03:40.000Z</time>
      </trkpt>
      <trkpt lat="45.5814" lon="6.62526">
        <ele>2154.1999511719</ele>
        <time>2015-11-27T11:03:45.000Z</time>
      </trkpt>
      <trkpt lat="45.5814" lon="6.62526">
        <ele>2154.3999023438</ele>
        <time>2015-11-27T11:03:46.000Z</time>
      </trkpt>
      <trkpt lat="45.58142" lon="6.62524">
        <ele>2155</ele>
        <time>2015-11-27T11:03:50.000Z</time>
      </trkpt>
      <trkpt lat="45.58143" lon="6.62522">
        <ele>2155.3999023438</ele>
        <time>2015-11-27T11:03:53.000Z</time>
      </trkpt>
      <trkpt lat="45.58148" lon="6.62518">
        <ele>2156.6000976562</ele>
        <time>2015-11-27T11:04:00.000Z</time>
      </trkpt>
      <trkpt lat="45.58151" lon="6.62515">
        <ele>2157.6000976562</ele>
        <time>2015-11-27T11:04:06.000Z</time>
      </trkpt>
      <trkpt lat="45.58151" lon="6.62514">
        <ele>2157.8000488281</ele>
        <time>2015-11-27T11:04:07.000Z</time>
      </trkpt>
      <trkpt lat="45.58151" lon="6.62514">
        <ele>2158.1999511719</ele>
        <time>2015-11-27T11:04:08.000Z</time>
      </trkpt>
      <trkpt lat="45.58152" lon="6.6251">
        <ele>2158.6000976562</ele>
        <time>2015-11-27T11:04:12.000Z</time>
      </trkpt>
      <trkpt lat="45.58152" lon="6.62509">
        <ele>2158.6000976562</ele>
        <time>2015-11-27T11:04:13.000Z</time>
      </trkpt>
      <trkpt lat="45.58152" lon="6.62505">
        <ele>2159</ele>
        <time>2015-11-27T11:04:17.000Z</time>
      </trkpt>
      <trkpt lat="45.58152" lon="6.62497">
        <ele>2159.6000976562</ele>
        <time>2015-11-27T11:04:23.000Z</time>
      </trkpt>
      <trkpt lat="45.58152" lon="6.62495">
        <ele>2159.6000976562</ele>
        <time>2015-11-27T11:04:25.000Z</time>
      </trkpt>
      <trkpt lat="45.58152" lon="6.6249">
        <ele>2159.8000488281</ele>
        <time>2015-11-27T11:04:29.000Z</time>
      </trkpt>
      <trkpt lat="45.58153" lon="6.62483">
        <ele>2160.1999511719</ele>
        <time>2015-11-27T11:04:37.000Z</time>
      </trkpt>
      <trkpt lat="45.58154" lon="6.62478">
        <ele>2160.6000976562</ele>
        <time>2015-11-27T11:04:42.000Z</time>
      </trkpt>
      <trkpt lat="45.58154" lon="6.62477">
        <ele>2160.8000488281</ele>
        <time>2015-11-27T11:04:44.000Z</time>
      </trkpt>
      <trkpt lat="45.58155" lon="6.62475">
        <ele>2161</ele>
        <time>2015-11-27T11:04:47.000Z</time>
      </trkpt>
      <trkpt lat="45.58155" lon="6.6247">
        <ele>2161.8000488281</ele>
        <time>2015-11-27T11:04:54.000Z</time>
      </trkpt>
      <trkpt lat="45.58156" lon="6.62463">
        <ele>2162.6000976562</ele>
        <time>2015-11-27T11:05:01.000Z</time>
      </trkpt>
      <trkpt lat="45.58156" lon="6.6246">
        <ele>2162.8000488281</ele>
        <time>2015-11-27T11:05:03.000Z</time>
      </trkpt>
      <trkpt lat="45.58155" lon="6.62454">
        <ele>2163.1999511719</ele>
        <time>2015-11-27T11:05:08.000Z</time>
      </trkpt>
      <trkpt lat="45.58155" lon="6.62449">
        <ele>2163.6000976562</ele>
        <time>2015-11-27T11:05:13.000Z</time>
      </trkpt>
      <trkpt lat="45.58154" lon="6.62448">
        <ele>2163.8000488281</ele>
        <time>2015-11-27T11:05:15.000Z</time>
      </trkpt>
      <trkpt lat="45.58155" lon="6.62446">
        <ele>2164</ele>
        <time>2015-11-27T11:05:19.000Z</time>
      </trkpt>
      <trkpt lat="45.58154" lon="6.62439">
        <ele>2164.6000976562</ele>
        <time>2015-11-27T11:05:24.000Z</time>
      </trkpt>
      <trkpt lat="45.58153" lon="6.62438">
        <ele>2165</ele>
        <time>2015-11-27T11:05:27.000Z</time>
      </trkpt>
      <trkpt lat="45.58153" lon="6.62437">
        <ele>2165</ele>
        <time>2015-11-27T11:05:28.000Z</time>
      </trkpt>
      <trkpt lat="45.58152" lon="6.62433">
        <ele>2165.8000488281</ele>
        <time>2015-11-27T11:05:33.000Z</time>
      </trkpt>
      <trkpt lat="45.58152" lon="6.62431">
        <ele>2166</ele>
        <time>2015-11-27T11:05:34.000Z</time>
      </trkpt>
      <trkpt lat="45.5815" lon="6.62424">
        <ele>2166.6000976562</ele>
        <time>2015-11-27T11:05:39.000Z</time>
      </trkpt>
      <trkpt lat="45.5815" lon="6.62423">
        <ele>2166.8000488281</ele>
        <time>2015-11-27T11:05:40.000Z</time>
      </trkpt>
      <trkpt lat="45.5815" lon="6.62421">
        <ele>2167.1999511719</ele>
        <time>2015-11-27T11:05:43.000Z</time>
      </trkpt>
      <trkpt lat="45.58149" lon="6.62419">
        <ele>2167.3999023438</ele>
        <time>2015-11-27T11:05:45.000Z</time>
      </trkpt>
      <trkpt lat="45.58148" lon="6.62415">
        <ele>2168.1999511719</ele>
        <time>2015-11-27T11:05:51.000Z</time>
      </trkpt>
      <trkpt lat="45.58148" lon="6.62412">
        <ele>2168.1999511719</ele>
        <time>2015-11-27T11:05:52.000Z</time>
      </trkpt>
      <trkpt lat="45.58147" lon="6.62408">
        <ele>2168.8000488281</ele>
        <time>2015-11-27T11:05:57.000Z</time>
      </trkpt>
      <trkpt lat="45.58146" lon="6.62405">
        <ele>2169.1999511719</ele>
        <time>2015-11-27T11:06:01.000Z</time>
      </trkpt>
      <trkpt lat="45.58146" lon="6.62404">
        <ele>2169.1999511719</ele>
        <time>2015-11-27T11:06:02.000Z</time>
      </trkpt>
      <trkpt lat="45.58145" lon="6.624">
        <ele>2169.6000976562</ele>
        <time>2015-11-27T11:06:07.000Z</time>
      </trkpt>
      <trkpt lat="45.58144" lon="6.62394">
        <ele>2170.1999511719</ele>
        <time>2015-11-27T11:06:12.000Z</time>
      </trkpt>
      <trkpt lat="45.58143" lon="6.6239">
        <ele>2170.1999511719</ele>
        <time>2015-11-27T11:06:14.000Z</time>
      </trkpt>
      <trkpt lat="45.58143" lon="6.62383">
        <ele>2170.6000976562</ele>
        <time>2015-11-27T11:06:19.000Z</time>
      </trkpt>
      <trkpt lat="45.58142" lon="6.6238">
        <ele>2171.3999023438</ele>
        <time>2015-11-27T11:06:23.000Z</time>
      </trkpt>
      <trkpt lat="45.58142" lon="6.6238">
        <ele>2171.3999023438</ele>
        <time>2015-11-27T11:06:24.000Z</time>
      </trkpt>
      <trkpt lat="45.58143" lon="6.62377">
        <ele>2172.3999023438</ele>
        <time>2015-11-27T11:06:30.000Z</time>
      </trkpt>
      <trkpt lat="45.58143" lon="6.62377">
        <ele>2172.6000976562</ele>
        <time>2015-11-27T11:06:31.000Z</time>
      </trkpt>
      <trkpt lat="45.58143" lon="6.62376">
        <ele>2173.3999023438</ele>
        <time>2015-11-27T11:06:36.000Z</time>
      </trkpt>
      <trkpt lat="45.58143" lon="6.62376">
        <ele>2173.3999023438</ele>
        <time>2015-11-27T11:06:42.000Z</time>
      </trkpt>
      <trkpt lat="45.58143" lon="6.62376">
        <ele>2173.6000976562</ele>
        <time>2015-11-27T11:06:46.000Z</time>
      </trkpt>
      <trkpt lat="45.58143" lon="6.62376">
        <ele>2173.8000488281</ele>
        <time>2015-11-27T11:06:51.000Z</time>
      </trkpt>
      <trkpt lat="45.58143" lon="6.62376">
        <ele>2173.8000488281</ele>
        <time>2015-11-27T11:07:00.000Z</time>
      </trkpt>
      <trkpt lat="45.58142" lon="6.62379">
        <ele>2173.8000488281</ele>
        <time>2015-11-27T11:07:09.000Z</time>
      </trkpt>
      <trkpt lat="45.58142" lon="6.62379">
        <ele>2174</ele>
        <time>2015-11-27T11:07:17.000Z</time>
      </trkpt>
      <trkpt lat="45.58142" lon="6.62379">
        <ele>2174</ele>
        <time>2015-11-27T11:07:25.000Z</time>
      </trkpt>
      <trkpt lat="45.58142" lon="6.62374">
        <ele>2174.6000976562</ele>
        <time>2015-11-27T11:07:31.000Z</time>
      </trkpt>
      <trkpt lat="45.58142" lon="6.62372">
        <ele>2174.6000976562</ele>
        <time>2015-11-27T11:07:32.000Z</time>
      </trkpt>
      <trkpt lat="45.58141" lon="6.62364">
        <ele>2175.1999511719</ele>
        <time>2015-11-27T11:07:40.000Z</time>
      </trkpt>
      <trkpt lat="45.5814" lon="6.62363">
        <ele>2175.8000488281</ele>
        <time>2015-11-27T11:07:42.000Z</time>
      </trkpt>
      <trkpt lat="45.58141" lon="6.62358">
        <ele>2176.6000976562</ele>
        <time>2015-11-27T11:07:47.000Z</time>
      </trkpt>
      <trkpt lat="45.58141" lon="6.62357">
        <ele>2176.8000488281</ele>
        <time>2015-11-27T11:07:48.000Z</time>
      </trkpt>
      <trkpt lat="45.58141" lon="6.62352">
        <ele>2177.1999511719</ele>
        <time>2015-11-27T11:07:52.000Z</time>
      </trkpt>
      <trkpt lat="45.58141" lon="6.62347">
        <ele>2177.6000976562</ele>
        <time>2015-11-27T11:07:57.000Z</time>
      </trkpt>
      <trkpt lat="45.58141" lon="6.62345">
        <ele>2178</ele>
        <time>2015-11-27T11:07:59.000Z</time>
      </trkpt>
      <trkpt lat="45.5814" lon="6.62343">
        <ele>2178.3999023438</ele>
        <time>2015-11-27T11:08:03.000Z</time>
      </trkpt>
      <trkpt lat="45.5814" lon="6.62338">
        <ele>2179</ele>
        <time>2015-11-27T11:08:07.000Z</time>
      </trkpt>
      <trkpt lat="45.58139" lon="6.62335">
        <ele>2179.3999023438</ele>
        <time>2015-11-27T11:08:09.000Z</time>
      </trkpt>
      <trkpt lat="45.58141" lon="6.62329">
        <ele>2180.1999511719</ele>
        <time>2015-11-27T11:08:15.000Z</time>
      </trkpt>
      <trkpt lat="45.58146" lon="6.62322">
        <ele>2180.8000488281</ele>
        <time>2015-11-27T11:08:22.000Z</time>
      </trkpt>
      <trkpt lat="45.5815" lon="6.62318">
        <ele>2181</ele>
        <time>2015-11-27T11:08:26.000Z</time>
      </trkpt>
      <trkpt lat="45.58153" lon="6.62315">
        <ele>2181.1999511719</ele>
        <time>2015-11-27T11:08:29.000Z</time>
      </trkpt>
      <trkpt lat="45.58153" lon="6.62314">
        <ele>2181.1999511719</ele>
        <time>2015-11-27T11:08:31.000Z</time>
      </trkpt>
      <trkpt lat="45.58157" lon="6.62307">
        <ele>2181.6000976562</ele>
        <time>2015-11-27T11:08:36.000Z</time>
      </trkpt>
      <trkpt lat="45.58163" lon="6.62302">
        <ele>2182.1999511719</ele>
        <time>2015-11-27T11:08:43.000Z</time>
      </trkpt>
      <trkpt lat="45.58164" lon="6.62301">
        <ele>2182.1999511719</ele>
        <time>2015-11-27T11:08:44.000Z</time>
      </trkpt>
      <trkpt lat="45.58169" lon="6.62296">
        <ele>2183</ele>
        <time>2015-11-27T11:08:52.000Z</time>
      </trkpt>
      <trkpt lat="45.58172" lon="6.62294">
        <ele>2183.3999023438</ele>
        <time>2015-11-27T11:08:54.000Z</time>
      </trkpt>
      <trkpt lat="45.58176" lon="6.62289">
        <ele>2184</ele>
        <time>2015-11-27T11:09:00.000Z</time>
      </trkpt>
      <trkpt lat="45.58179" lon="6.62283">
        <ele>2184.3999023438</ele>
        <time>2015-11-27T11:09:05.000Z</time>
      </trkpt>
      <trkpt lat="45.58179" lon="6.62282">
        <ele>2184.6000976562</ele>
        <time>2015-11-27T11:09:07.000Z</time>
      </trkpt>
      <trkpt lat="45.58186" lon="6.62282">
        <ele>2185.1999511719</ele>
        <time>2015-11-27T11:09:15.000Z</time>
      </trkpt>
      <trkpt lat="45.58187" lon="6.62281">
        <ele>2185.3999023438</ele>
        <time>2015-11-27T11:09:16.000Z</time>
      </trkpt>
      <trkpt lat="45.58191" lon="6.62277">
        <ele>2186.1999511719</ele>
        <time>2015-11-27T11:09:23.000Z</time>
      </trkpt>
      <trkpt lat="45.58192" lon="6.62277">
        <ele>2186.3999023438</ele>
        <time>2015-11-27T11:09:24.000Z</time>
      </trkpt>
      <trkpt lat="45.58199" lon="6.62277">
        <ele>2187.6000976562</ele>
        <time>2015-11-27T11:09:31.000Z</time>
      </trkpt>
      <trkpt lat="45.58203" lon="6.62276">
        <ele>2188.3999023438</ele>
        <time>2015-11-27T11:09:36.000Z</time>
      </trkpt>
      <trkpt lat="45.58205" lon="6.62275">
        <ele>2188.6000976562</ele>
        <time>2015-11-27T11:09:38.000Z</time>
      </trkpt>
      <trkpt lat="45.58207" lon="6.62274">
        <ele>2189.1999511719</ele>
        <time>2015-11-27T11:09:41.000Z</time>
      </trkpt>
      <trkpt lat="45.58208" lon="6.62273">
        <ele>2189.8000488281</ele>
        <time>2015-11-27T11:09:43.000Z</time>
      </trkpt>
      <trkpt lat="45.58211" lon="6.62271">
        <ele>2191</ele>
        <time>2015-11-27T11:09:49.000Z</time>
      </trkpt>
      <trkpt lat="45.58212" lon="6.62269">
        <ele>2191.3999023438</ele>
        <time>2015-11-27T11:09:51.000Z</time>
      </trkpt>
      <trkpt lat="45.58213" lon="6.62268">
        <ele>2192</ele>
        <time>2015-11-27T11:09:54.000Z</time>
      </trkpt>
      <trkpt lat="45.58215" lon="6.62267">
        <ele>2192.3999023438</ele>
        <time>2015-11-27T11:09:57.000Z</time>
      </trkpt>
      <trkpt lat="45.58216" lon="6.62266">
        <ele>2193.1999511719</ele>
        <time>2015-11-27T11:10:01.000Z</time>
      </trkpt>
      <trkpt lat="45.58217" lon="6.62266">
        <ele>2193.6000976562</ele>
        <time>2015-11-27T11:10:03.000Z</time>
      </trkpt>
      <trkpt lat="45.58218" lon="6.62266">
        <ele>2194.1999511719</ele>
        <time>2015-11-27T11:10:07.000Z</time>
      </trkpt>
      <trkpt lat="45.58219" lon="6.62265">
        <ele>2194.8000488281</ele>
        <time>2015-11-27T11:10:10.000Z</time>
      </trkpt>
      <trkpt lat="45.58219" lon="6.62265">
        <ele>2195.1999511719</ele>
        <time>2015-11-27T11:10:13.000Z</time>
      </trkpt>
      <trkpt lat="45.58221" lon="6.62264">
        <ele>2196</ele>
        <time>2015-11-27T11:10:18.000Z</time>
      </trkpt>
      <trkpt lat="45.58222" lon="6.62263">
        <ele>2196.3999023438</ele>
        <time>2015-11-27T11:10:21.000Z</time>
      </trkpt>
      <trkpt lat="45.58223" lon="6.62261">
        <ele>2197</ele>
        <time>2015-11-27T11:10:24.000Z</time>
      </trkpt>
      <trkpt lat="45.58224" lon="6.6226">
        <ele>2197.3999023438</ele>
        <time>2015-11-27T11:10:26.000Z</time>
      </trkpt>
      <trkpt lat="45.58225" lon="6.62259">
        <ele>2198.6000976562</ele>
        <time>2015-11-27T11:10:30.000Z</time>
      </trkpt>
      <trkpt lat="45.58225" lon="6.62259">
        <ele>2198.6000976562</ele>
        <time>2015-11-27T11:10:31.000Z</time>
      </trkpt>
      <trkpt lat="45.58226" lon="6.62258">
        <ele>2199.3999023438</ele>
        <time>2015-11-27T11:10:40.000Z</time>
      </trkpt>
      <trkpt lat="45.58227" lon="6.62258">
        <ele>2199.6000976562</ele>
        <time>2015-11-27T11:10:41.000Z</time>
      </trkpt>
      <trkpt lat="45.58228" lon="6.62257">
        <ele>2200.8000488281</ele>
        <time>2015-11-27T11:10:46.000Z</time>
      </trkpt>
      <trkpt lat="45.58229" lon="6.62255">
        <ele>2201.1999511719</ele>
        <time>2015-11-27T11:10:48.000Z</time>
      </trkpt>
      <trkpt lat="45.58232" lon="6.62254">
        <ele>2201.8000488281</ele>
        <time>2015-11-27T11:10:52.000Z</time>
      </trkpt>
      <trkpt lat="45.58234" lon="6.62253">
        <ele>2202.6000976562</ele>
        <time>2015-11-27T11:10:55.000Z</time>
      </trkpt>
      <trkpt lat="45.58234" lon="6.62252">
        <ele>2203</ele>
        <time>2015-11-27T11:10:56.000Z</time>
      </trkpt>
      <trkpt lat="45.58238" lon="6.6225">
        <ele>2204</ele>
        <time>2015-11-27T11:11:01.000Z</time>
      </trkpt>
      <trkpt lat="45.58239" lon="6.6225">
        <ele>2204.1999511719</ele>
        <time>2015-11-27T11:11:02.000Z</time>
      </trkpt>
      <trkpt lat="45.58243" lon="6.62248">
        <ele>2205.3999023438</ele>
        <time>2015-11-27T11:11:07.000Z</time>
      </trkpt>
      <trkpt lat="45.58245" lon="6.62248">
        <ele>2206.3999023438</ele>
        <time>2015-11-27T11:11:13.000Z</time>
      </trkpt>
      <trkpt lat="45.58245" lon="6.62248">
        <ele>2206.8000488281</ele>
        <time>2015-11-27T11:11:17.000Z</time>
      </trkpt>
      <trkpt lat="45.58247" lon="6.62245">
        <ele>2207.3999023438</ele>
        <time>2015-11-27T11:11:24.000Z</time>
      </trkpt>
      <trkpt lat="45.58247" lon="6.62244">
        <ele>2207.6000976562</ele>
        <time>2015-11-27T11:11:25.000Z</time>
      </trkpt>
      <trkpt lat="45.58251" lon="6.62243">
        <ele>2208.8000488281</ele>
        <time>2015-11-27T11:11:29.000Z</time>
      </trkpt>
      <trkpt lat="45.58254" lon="6.62244">
        <ele>2209.8000488281</ele>
        <time>2015-11-27T11:11:34.000Z</time>
      </trkpt>
      <trkpt lat="45.58257" lon="6.62247">
        <ele>2210.8000488281</ele>
        <time>2015-11-27T11:11:39.000Z</time>
      </trkpt>
      <trkpt lat="45.58258" lon="6.62248">
        <ele>2211.3999023438</ele>
        <time>2015-11-27T11:11:42.000Z</time>
      </trkpt>
      <trkpt lat="45.58259" lon="6.6225">
        <ele>2212.1999511719</ele>
        <time>2015-11-27T11:11:44.000Z</time>
      </trkpt>
      <trkpt lat="45.58261" lon="6.62253">
        <ele>2213.3999023438</ele>
        <time>2015-11-27T11:11:50.000Z</time>
      </trkpt>
      <trkpt lat="45.58263" lon="6.62256">
        <ele>2214.3999023438</ele>
        <time>2015-11-27T11:11:55.000Z</time>
      </trkpt>
      <trkpt lat="45.58264" lon="6.62259">
        <ele>2215.1999511719</ele>
        <time>2015-11-27T11:11:59.000Z</time>
      </trkpt>
      <trkpt lat="45.58265" lon="6.6226">
        <ele>2215.3999023438</ele>
        <time>2015-11-27T11:12:01.000Z</time>
      </trkpt>
      <trkpt lat="45.58267" lon="6.62263">
        <ele>2216.3999023438</ele>
        <time>2015-11-27T11:12:06.000Z</time>
      </trkpt>
      <trkpt lat="45.58268" lon="6.62264">
        <ele>2216.6000976562</ele>
        <time>2015-11-27T11:12:07.000Z</time>
      </trkpt>
      <trkpt lat="45.5827" lon="6.62265">
        <ele>2217.6000976562</ele>
        <time>2015-11-27T11:12:12.000Z</time>
      </trkpt>
      <trkpt lat="45.5827" lon="6.62267">
        <ele>2218</ele>
        <time>2015-11-27T11:12:14.000Z</time>
      </trkpt>
      <trkpt lat="45.58271" lon="6.6227">
        <ele>2218.8000488281</ele>
        <time>2015-11-27T11:12:18.000Z</time>
      </trkpt>
      <trkpt lat="45.58272" lon="6.62271">
        <ele>2219.1999511719</ele>
        <time>2015-11-27T11:12:20.000Z</time>
      </trkpt>
      <trkpt lat="45.58272" lon="6.62275">
        <ele>2219.8000488281</ele>
        <time>2015-11-27T11:12:24.000Z</time>
      </trkpt>
      <trkpt lat="45.58273" lon="6.62277">
        <ele>2220.1999511719</ele>
        <time>2015-11-27T11:12:27.000Z</time>
      </trkpt>
      <trkpt lat="45.58274" lon="6.62279">
        <ele>2220.8000488281</ele>
        <time>2015-11-27T11:12:31.000Z</time>
      </trkpt>
      <trkpt lat="45.58274" lon="6.62278">
        <ele>2221.6000976562</ele>
        <time>2015-11-27T11:12:36.000Z</time>
      </trkpt>
      <trkpt lat="45.58277" lon="6.62272">
        <ele>2221.8000488281</ele>
        <time>2015-11-27T11:12:40.000Z</time>
      </trkpt>
      <trkpt lat="45.58278" lon="6.62271">
        <ele>2222</ele>
        <time>2015-11-27T11:12:41.000Z</time>
      </trkpt>
      <trkpt lat="45.58279" lon="6.62266">
        <ele>2223</ele>
        <time>2015-11-27T11:12:45.000Z</time>
      </trkpt>
      <trkpt lat="45.58279" lon="6.62264">
        <ele>2223.1999511719</ele>
        <time>2015-11-27T11:12:48.000Z</time>
      </trkpt>
      <trkpt lat="45.5828" lon="6.62259">
        <ele>2224</ele>
        <time>2015-11-27T11:12:53.000Z</time>
      </trkpt>
      <trkpt lat="45.58281" lon="6.62256">
        <ele>2224.6000976562</ele>
        <time>2015-11-27T11:12:55.000Z</time>
      </trkpt>
      <trkpt lat="45.58281" lon="6.62254">
        <ele>2225.1999511719</ele>
        <time>2015-11-27T11:12:58.000Z</time>
      </trkpt>
      <trkpt lat="45.58281" lon="6.62252">
        <ele>2225.3999023438</ele>
        <time>2015-11-27T11:13:00.000Z</time>
      </trkpt>
      <trkpt lat="45.58283" lon="6.62248">
        <ele>2226.1999511719</ele>
        <time>2015-11-27T11:13:05.000Z</time>
      </trkpt>
      <trkpt lat="45.58283" lon="6.62248">
        <ele>2226.1999511719</ele>
        <time>2015-11-27T11:13:06.000Z</time>
      </trkpt>
      <trkpt lat="45.58284" lon="6.62244">
        <ele>2227</ele>
        <time>2015-11-27T11:13:10.000Z</time>
      </trkpt>
      <trkpt lat="45.58284" lon="6.62242">
        <ele>2227.3999023438</ele>
        <time>2015-11-27T11:13:12.000Z</time>
      </trkpt>
      <trkpt lat="45.58285" lon="6.6224">
        <ele>2227.8000488281</ele>
        <time>2015-11-27T11:13:15.000Z</time>
      </trkpt>
      <trkpt lat="45.58286" lon="6.62237">
        <ele>2228.3999023438</ele>
        <time>2015-11-27T11:13:19.000Z</time>
      </trkpt>
      <trkpt lat="45.58286" lon="6.62237">
        <ele>2229</ele>
        <time>2015-11-27T11:13:20.000Z</time>
      </trkpt>
      <trkpt lat="45.58286" lon="6.62235">
        <ele>2229.6000976562</ele>
        <time>2015-11-27T11:13:23.000Z</time>
      </trkpt>
      <trkpt lat="45.58287" lon="6.62233">
        <ele>2230</ele>
        <time>2015-11-27T11:13:26.000Z</time>
      </trkpt>
      <trkpt lat="45.58288" lon="6.62231">
        <ele>2230.6000976562</ele>
        <time>2015-11-27T11:13:29.000Z</time>
      </trkpt>
      <trkpt lat="45.58288" lon="6.6223">
        <ele>2231</ele>
        <time>2015-11-27T11:13:31.000Z</time>
      </trkpt>
      <trkpt lat="45.58289" lon="6.62227">
        <ele>2231.6000976562</ele>
        <time>2015-11-27T11:13:35.000Z</time>
      </trkpt>
      <trkpt lat="45.5829" lon="6.62226">
        <ele>2232</ele>
        <time>2015-11-27T11:13:37.000Z</time>
      </trkpt>
      <trkpt lat="45.58292" lon="6.62226">
        <ele>2232.8000488281</ele>
        <time>2015-11-27T11:13:41.000Z</time>
      </trkpt>
      <trkpt lat="45.58292" lon="6.62226">
        <ele>2233.6000976562</ele>
        <time>2015-11-27T11:13:45.000Z</time>
      </trkpt>
      <trkpt lat="45.58292" lon="6.62226">
        <ele>2233.8000488281</ele>
        <time>2015-11-27T11:13:46.000Z</time>
      </trkpt>
      <trkpt lat="45.58294" lon="6.62227">
        <ele>2234.6000976562</ele>
        <time>2015-11-27T11:13:55.000Z</time>
      </trkpt>
      <trkpt lat="45.58296" lon="6.62226">
        <ele>2235</ele>
        <time>2015-11-27T11:13:57.000Z</time>
      </trkpt>
      <trkpt lat="45.583" lon="6.62227">
        <ele>2236</ele>
        <time>2015-11-27T11:14:02.000Z</time>
      </trkpt>
      <trkpt lat="45.58301" lon="6.62227">
        <ele>2236.3999023438</ele>
        <time>2015-11-27T11:14:04.000Z</time>
      </trkpt>
      <trkpt lat="45.58302" lon="6.62228">
        <ele>2237</ele>
        <time>2015-11-27T11:14:07.000Z</time>
      </trkpt>
      <trkpt lat="45.58304" lon="6.6223">
        <ele>2238.1999511719</ele>
        <time>2015-11-27T11:14:13.000Z</time>
      </trkpt>
      <trkpt lat="45.58304" lon="6.6223">
        <ele>2238.6000976562</ele>
        <time>2015-11-27T11:14:30.000Z</time>
      </trkpt>
      <trkpt lat="45.58304" lon="6.6223">
        <ele>2238.3999023438</ele>
        <time>2015-11-27T11:14:48.000Z</time>
      </trkpt>
      <trkpt lat="45.58304" lon="6.62233">
        <ele>2238.6000976562</ele>
        <time>2015-11-27T11:14:57.000Z</time>
      </trkpt>
      <trkpt lat="45.58305" lon="6.62234">
        <ele>2239.1999511719</ele>
        <time>2015-11-27T11:15:02.000Z</time>
      </trkpt>
      <trkpt lat="45.58305" lon="6.62232">
        <ele>2239.6000976562</ele>
        <time>2015-11-27T11:15:05.000Z</time>
      </trkpt>
      <trkpt lat="45.58307" lon="6.62229">
        <ele>2240.1999511719</ele>
        <time>2015-11-27T11:15:09.000Z</time>
      </trkpt>
      <trkpt lat="45.58309" lon="6.62229">
        <ele>2240.8000488281</ele>
        <time>2015-11-27T11:15:12.000Z</time>
      </trkpt>
      <trkpt lat="45.5831" lon="6.62227">
        <ele>2241.3999023438</ele>
        <time>2015-11-27T11:15:15.000Z</time>
      </trkpt>
      <trkpt lat="45.58311" lon="6.62226">
        <ele>2242.3999023438</ele>
        <time>2015-11-27T11:15:21.000Z</time>
      </trkpt>
      <trkpt lat="45.58311" lon="6.62226">
        <ele>2242.3999023438</ele>
        <time>2015-11-27T11:15:22.000Z</time>
      </trkpt>
      <trkpt lat="45.58311" lon="6.62226">
        <ele>2243.3999023438</ele>
        <time>2015-11-27T11:15:29.000Z</time>
      </trkpt>
      <trkpt lat="45.58312" lon="6.62229">
        <ele>2243.8000488281</ele>
        <time>2015-11-27T11:15:32.000Z</time>
      </trkpt>
      <trkpt lat="45.58313" lon="6.62231">
        <ele>2244.3999023438</ele>
        <time>2015-11-27T11:15:36.000Z</time>
      </trkpt>
      <trkpt lat="45.58313" lon="6.62231">
        <ele>2245</ele>
        <time>2015-11-27T11:15:40.000Z</time>
      </trkpt>
      <trkpt lat="45.58313" lon="6.62231">
        <ele>2245.6000976562</ele>
        <time>2015-11-27T11:15:44.000Z</time>
      </trkpt>
      <trkpt lat="45.58313" lon="6.62236">
        <ele>2246.6000976562</ele>
        <time>2015-11-27T11:15:51.000Z</time>
      </trkpt>
      <trkpt lat="45.58315" lon="6.62237">
        <ele>2247.3999023438</ele>
        <time>2015-11-27T11:16:00.000Z</time>
      </trkpt>
      <trkpt lat="45.58316" lon="6.62235">
        <ele>2247.6000976562</ele>
        <time>2015-11-27T11:16:03.000Z</time>
      </trkpt>
      <trkpt lat="45.58317" lon="6.62231">
        <ele>2247.8000488281</ele>
        <time>2015-11-27T11:16:06.000Z</time>
      </trkpt>
      <trkpt lat="45.58318" lon="6.62227">
        <ele>2248.6000976562</ele>
        <time>2015-11-27T11:16:12.000Z</time>
      </trkpt>
      <trkpt lat="45.58318" lon="6.62226">
        <ele>2248.8000488281</ele>
        <time>2015-11-27T11:16:13.000Z</time>
      </trkpt>
      <trkpt lat="45.58321" lon="6.6222">
        <ele>2249.3999023438</ele>
        <time>2015-11-27T11:16:19.000Z</time>
      </trkpt>
      <trkpt lat="45.58323" lon="6.62216">
        <ele>2249.8000488281</ele>
        <time>2015-11-27T11:16:22.000Z</time>
      </trkpt>
      <trkpt lat="45.58324" lon="6.62212">
        <ele>2250.3999023438</ele>
        <time>2015-11-27T11:16:26.000Z</time>
      </trkpt>
      <trkpt lat="45.58325" lon="6.62209">
        <ele>2250.8000488281</ele>
        <time>2015-11-27T11:16:31.000Z</time>
      </trkpt>
      <trkpt lat="45.58325" lon="6.62208">
        <ele>2251.1999511719</ele>
        <time>2015-11-27T11:16:33.000Z</time>
      </trkpt>
      <trkpt lat="45.58324" lon="6.62205">
        <ele>2251.8000488281</ele>
        <time>2015-11-27T11:16:38.000Z</time>
      </trkpt>
      <trkpt lat="45.58324" lon="6.622">
        <ele>2253</ele>
        <time>2015-11-27T11:16:43.000Z</time>
      </trkpt>
      <trkpt lat="45.58324" lon="6.622">
        <ele>2253.1999511719</ele>
        <time>2015-11-27T11:16:44.000Z</time>
      </trkpt>
      <trkpt lat="45.58322" lon="6.62198">
        <ele>2254</ele>
        <time>2015-11-27T11:16:48.000Z</time>
      </trkpt>
      <trkpt lat="45.5832" lon="6.62194">
        <ele>2254.8000488281</ele>
        <time>2015-11-27T11:16:52.000Z</time>
      </trkpt>
      <trkpt lat="45.5832" lon="6.62194">
        <ele>2255</ele>
        <time>2015-11-27T11:16:54.000Z</time>
      </trkpt>
      <trkpt lat="45.5832" lon="6.62194">
        <ele>2255.1999511719</ele>
        <time>2015-11-27T11:17:00.000Z</time>
      </trkpt>
      <trkpt lat="45.58324" lon="6.62199">
        <ele>2256</ele>
        <time>2015-11-27T11:17:05.000Z</time>
      </trkpt>
      <trkpt lat="45.58327" lon="6.622">
        <ele>2256.3999023438</ele>
        <time>2015-11-27T11:17:08.000Z</time>
      </trkpt>
      <trkpt lat="45.58333" lon="6.622">
        <ele>2257.1999511719</ele>
        <time>2015-11-27T11:17:14.000Z</time>
      </trkpt>
      <trkpt lat="45.58335" lon="6.62201">
        <ele>2257.3999023438</ele>
        <time>2015-11-27T11:17:16.000Z</time>
      </trkpt>
      <trkpt lat="45.58338" lon="6.622">
        <ele>2258.1999511719</ele>
        <time>2015-11-27T11:17:20.000Z</time>
      </trkpt>
      <trkpt lat="45.58342" lon="6.622">
        <ele>2259.3999023438</ele>
        <time>2015-11-27T11:17:25.000Z</time>
      </trkpt>
      <trkpt lat="45.58343" lon="6.622">
        <ele>2259.8000488281</ele>
        <time>2015-11-27T11:17:27.000Z</time>
      </trkpt>
      <trkpt lat="45.58344" lon="6.622">
        <ele>2260.3999023438</ele>
        <time>2015-11-27T11:17:30.000Z</time>
      </trkpt>
      <trkpt lat="45.58347" lon="6.62198">
        <ele>2261.6000976562</ele>
        <time>2015-11-27T11:17:36.000Z</time>
      </trkpt>
      <trkpt lat="45.58348" lon="6.62198">
        <ele>2261.8000488281</ele>
        <time>2015-11-27T11:17:37.000Z</time>
      </trkpt>
      <trkpt lat="45.58351" lon="6.62197">
        <ele>2262.6000976562</ele>
        <time>2015-11-27T11:17:41.000Z</time>
      </trkpt>
      <trkpt lat="45.58352" lon="6.62195">
        <ele>2263.1999511719</ele>
        <time>2015-11-27T11:17:44.000Z</time>
      </trkpt>
      <trkpt lat="45.58354" lon="6.62196">
        <ele>2263.8000488281</ele>
        <time>2015-11-27T11:17:46.000Z</time>
      </trkpt>
      <trkpt lat="45.58355" lon="6.62197">
        <ele>2264.8000488281</ele>
        <time>2015-11-27T11:17:51.000Z</time>
      </trkpt>
      <trkpt lat="45.58356" lon="6.62196">
        <ele>2265</ele>
        <time>2015-11-27T11:17:52.000Z</time>
      </trkpt>
      <trkpt lat="45.58359" lon="6.62197">
        <ele>2266</ele>
        <time>2015-11-27T11:17:57.000Z</time>
      </trkpt>
      <trkpt lat="45.58361" lon="6.62197">
        <ele>2266.6000976562</ele>
        <time>2015-11-27T11:18:01.000Z</time>
      </trkpt>
      <trkpt lat="45.58362" lon="6.62196">
        <ele>2267</ele>
        <time>2015-11-27T11:18:03.000Z</time>
      </trkpt>
      <trkpt lat="45.58363" lon="6.62194">
        <ele>2268.1999511719</ele>
        <time>2015-11-27T11:18:08.000Z</time>
      </trkpt>
      <trkpt lat="45.58364" lon="6.62194">
        <ele>2268.8000488281</ele>
        <time>2015-11-27T11:18:10.000Z</time>
      </trkpt>
      <trkpt lat="45.58366" lon="6.62194">
        <ele>2269.3999023438</ele>
        <time>2015-11-27T11:18:12.000Z</time>
      </trkpt>
      <trkpt lat="45.58368" lon="6.62196">
        <ele>2270.1999511719</ele>
        <time>2015-11-27T11:18:17.000Z</time>
      </trkpt>
      <trkpt lat="45.58369" lon="6.62196">
        <ele>2270.3999023438</ele>
        <time>2015-11-27T11:18:18.000Z</time>
      </trkpt>
      <trkpt lat="45.58372" lon="6.62198">
        <ele>2271.6000976562</ele>
        <time>2015-11-27T11:18:24.000Z</time>
      </trkpt>
      <trkpt lat="45.58373" lon="6.62199">
        <ele>2271.8000488281</ele>
        <time>2015-11-27T11:18:25.000Z</time>
      </trkpt>
      <trkpt lat="45.58376" lon="6.62202">
        <ele>2272.6000976562</ele>
        <time>2015-11-27T11:18:31.000Z</time>
      </trkpt>
      <trkpt lat="45.58377" lon="6.62202">
        <ele>2272.8000488281</ele>
        <time>2015-11-27T11:18:32.000Z</time>
      </trkpt>
      <trkpt lat="45.58379" lon="6.62203">
        <ele>2273.6000976562</ele>
        <time>2015-11-27T11:18:35.000Z</time>
      </trkpt>
      <trkpt lat="45.58381" lon="6.62204">
        <ele>2274.8000488281</ele>
        <time>2015-11-27T11:18:40.000Z</time>
      </trkpt>
      <trkpt lat="45.58382" lon="6.62204">
        <ele>2275</ele>
        <time>2015-11-27T11:18:41.000Z</time>
      </trkpt>
      <trkpt lat="45.58382" lon="6.62202">
        <ele>2275.8000488281</ele>
        <time>2015-11-27T11:18:45.000Z</time>
      </trkpt>
      <trkpt lat="45.58382" lon="6.62202">
        <ele>2276.3999023438</ele>
        <time>2015-11-27T11:18:48.000Z</time>
      </trkpt>
      <trkpt lat="45.58382" lon="6.62202">
        <ele>2277</ele>
        <time>2015-11-27T11:18:52.000Z</time>
      </trkpt>
      <trkpt lat="45.58382" lon="6.62202">
        <ele>2277.1999511719</ele>
        <time>2015-11-27T11:18:59.000Z</time>
      </trkpt>
      <trkpt lat="45.58384" lon="6.62201">
        <ele>2277.8000488281</ele>
        <time>2015-11-27T11:19:04.000Z</time>
      </trkpt>
      <trkpt lat="45.58384" lon="6.622">
        <ele>2278</ele>
        <time>2015-11-27T11:19:05.000Z</time>
      </trkpt>
      <trkpt lat="45.58387" lon="6.62198">
        <ele>2279.1999511719</ele>
        <time>2015-11-27T11:19:10.000Z</time>
      </trkpt>
      <trkpt lat="45.58388" lon="6.62197">
        <ele>2279.1999511719</ele>
        <time>2015-11-27T11:19:11.000Z</time>
      </trkpt>
      <trkpt lat="45.58389" lon="6.62195">
        <ele>2280.1999511719</ele>
        <time>2015-11-27T11:19:16.000Z</time>
      </trkpt>
      <trkpt lat="45.5839" lon="6.62194">
        <ele>2280.3999023438</ele>
        <time>2015-11-27T11:19:17.000Z</time>
      </trkpt>
      <trkpt lat="45.5839" lon="6.62191">
        <ele>2281.1999511719</ele>
        <time>2015-11-27T11:19:21.000Z</time>
      </trkpt>
      <trkpt lat="45.58391" lon="6.62189">
        <ele>2281.3999023438</ele>
        <time>2015-11-27T11:19:23.000Z</time>
      </trkpt>
      <trkpt lat="45.58394" lon="6.62189">
        <ele>2282.3999023438</ele>
        <time>2015-11-27T11:19:28.000Z</time>
      </trkpt>
      <trkpt lat="45.58396" lon="6.62187">
        <ele>2283.3999023438</ele>
        <time>2015-11-27T11:19:33.000Z</time>
      </trkpt>
      <trkpt lat="45.58396" lon="6.62186">
        <ele>2283.3999023438</ele>
        <time>2015-11-27T11:19:34.000Z</time>
      </trkpt>
      <trkpt lat="45.584" lon="6.62185">
        <ele>2284.1999511719</ele>
        <time>2015-11-27T11:19:38.000Z</time>
      </trkpt>
      <trkpt lat="45.584" lon="6.62183">
        <ele>2284.6000976562</ele>
        <time>2015-11-27T11:19:40.000Z</time>
      </trkpt>
      <trkpt lat="45.58401" lon="6.62181">
        <ele>2285</ele>
        <time>2015-11-27T11:19:43.000Z</time>
      </trkpt>
      <trkpt lat="45.58402" lon="6.62177">
        <ele>2285.6000976562</ele>
        <time>2015-11-27T11:19:47.000Z</time>
      </trkpt>
      <trkpt lat="45.58403" lon="6.62175">
        <ele>2286.1999511719</ele>
        <time>2015-11-27T11:19:50.000Z</time>
      </trkpt>
      <trkpt lat="45.58405" lon="6.62173">
        <ele>2286.8000488281</ele>
        <time>2015-11-27T11:19:53.000Z</time>
      </trkpt>
      <trkpt lat="45.58406" lon="6.62169">
        <ele>2287.3999023438</ele>
        <time>2015-11-27T11:19:56.000Z</time>
      </trkpt>
      <trkpt lat="45.58407" lon="6.62165">
        <ele>2287.8000488281</ele>
        <time>2015-11-27T11:19:59.000Z</time>
      </trkpt>
      <trkpt lat="45.58407" lon="6.62161">
        <ele>2288.1999511719</ele>
        <time>2015-11-27T11:20:02.000Z</time>
      </trkpt>
      <trkpt lat="45.58407" lon="6.62161">
        <ele>2288.3999023438</ele>
        <time>2015-11-27T11:20:09.000Z</time>
      </trkpt>
      <trkpt lat="45.58407" lon="6.62162">
        <ele>2288.3999023438</ele>
        <time>2015-11-27T11:20:17.000Z</time>
      </trkpt>
      <trkpt lat="45.58408" lon="6.62163">
        <ele>2288.1999511719</ele>
        <time>2015-11-27T11:20:27.000Z</time>
      </trkpt>
      <trkpt lat="45.58408" lon="6.62162">
        <ele>2288.3999023438</ele>
        <time>2015-11-27T11:20:40.000Z</time>
      </trkpt>
      <trkpt lat="45.5841" lon="6.62162">
        <ele>2288.3999023438</ele>
        <time>2015-11-27T11:20:47.000Z</time>
      </trkpt>
      <trkpt lat="45.58413" lon="6.62155">
        <ele>2288.3999023438</ele>
        <time>2015-11-27T11:20:53.000Z</time>
      </trkpt>
      <trkpt lat="45.58415" lon="6.62151">
        <ele>2288.3999023438</ele>
        <time>2015-11-27T11:20:59.000Z</time>
      </trkpt>
      <trkpt lat="45.58419" lon="6.62147">
        <ele>2288.3999023438</ele>
        <time>2015-11-27T11:21:07.000Z</time>
      </trkpt>
      <trkpt lat="45.58426" lon="6.62142">
        <ele>2288</ele>
        <time>2015-11-27T11:21:14.000Z</time>
      </trkpt>
      <trkpt lat="45.58428" lon="6.62141">
        <ele>2288</ele>
        <time>2015-11-27T11:21:16.000Z</time>
      </trkpt>
      <trkpt lat="45.58431" lon="6.62141">
        <ele>2287.6000976562</ele>
        <time>2015-11-27T11:21:19.000Z</time>
      </trkpt>
      <trkpt lat="45.58435" lon="6.62139">
        <ele>2287.6000976562</ele>
        <time>2015-11-27T11:21:25.000Z</time>
      </trkpt>
      <trkpt lat="45.58438" lon="6.6214">
        <ele>2288.3999023438</ele>
        <time>2015-11-27T11:21:32.000Z</time>
      </trkpt>
      <trkpt lat="45.58438" lon="6.6214">
        <ele>2288.8000488281</ele>
        <time>2015-11-27T11:21:34.000Z</time>
      </trkpt>
      <trkpt lat="45.58439" lon="6.62139">
        <ele>2289.1999511719</ele>
        <time>2015-11-27T11:21:37.000Z</time>
      </trkpt>
      <trkpt lat="45.58444" lon="6.62137">
        <ele>2289.8000488281</ele>
        <time>2015-11-27T11:21:42.000Z</time>
      </trkpt>
      <trkpt lat="45.58445" lon="6.62137">
        <ele>2289.8000488281</ele>
        <time>2015-11-27T11:21:43.000Z</time>
      </trkpt>
      <trkpt lat="45.58449" lon="6.62134">
        <ele>2290.8000488281</ele>
        <time>2015-11-27T11:21:48.000Z</time>
      </trkpt>
      <trkpt lat="45.5845" lon="6.62129">
        <ele>2291.6000976562</ele>
        <time>2015-11-27T11:21:53.000Z</time>
      </trkpt>
      <trkpt lat="45.5845" lon="6.62126">
        <ele>2292.1999511719</ele>
        <time>2015-11-27T11:21:55.000Z</time>
      </trkpt>
      <trkpt lat="45.5845" lon="6.62123">
        <ele>2292.8000488281</ele>
        <time>2015-11-27T11:21:58.000Z</time>
      </trkpt>
      <trkpt lat="45.5845" lon="6.6212">
        <ele>2293.1999511719</ele>
        <time>2015-11-27T11:22:01.000Z</time>
      </trkpt>
      <trkpt lat="45.58451" lon="6.62117">
        <ele>2293.8000488281</ele>
        <time>2015-11-27T11:22:05.000Z</time>
      </trkpt>
      <trkpt lat="45.58452" lon="6.62115">
        <ele>2294.1999511719</ele>
        <time>2015-11-27T11:22:08.000Z</time>
      </trkpt>
      <trkpt lat="45.58452" lon="6.62114">
        <ele>2294.6000976562</ele>
        <time>2015-11-27T11:22:10.000Z</time>
      </trkpt>
      <trkpt lat="45.58454" lon="6.62107">
        <ele>2295.3999023438</ele>
        <time>2015-11-27T11:22:16.000Z</time>
      </trkpt>
      <trkpt lat="45.58455" lon="6.62099">
        <ele>2296</ele>
        <time>2015-11-27T11:22:22.000Z</time>
      </trkpt>
      <trkpt lat="45.58455" lon="6.62096">
        <ele>2296.3999023438</ele>
        <time>2015-11-27T11:22:24.000Z</time>
      </trkpt>
      <trkpt lat="45.58457" lon="6.62094">
        <ele>2297</ele>
        <time>2015-11-27T11:22:28.000Z</time>
      </trkpt>
      <trkpt lat="45.58459" lon="6.62092">
        <ele>2297.6000976562</ele>
        <time>2015-11-27T11:22:33.000Z</time>
      </trkpt>
      <trkpt lat="45.58459" lon="6.62092">
        <ele>2297.8000488281</ele>
        <time>2015-11-27T11:22:35.000Z</time>
      </trkpt>
      <trkpt lat="45.58459" lon="6.62092">
        <ele>2298.3999023438</ele>
        <time>2015-11-27T11:22:50.000Z</time>
      </trkpt>
      <trkpt lat="45.58459" lon="6.62092">
        <ele>2298.3999023438</ele>
        <time>2015-11-27T11:23:14.000Z</time>
      </trkpt>
      <trkpt lat="45.58459" lon="6.62092">
        <ele>2298.1999511719</ele>
        <time>2015-11-27T11:23:28.000Z</time>
      </trkpt>
      <trkpt lat="45.58459" lon="6.62092">
        <ele>2298.3999023438</ele>
        <time>2015-11-27T11:23:47.000Z</time>
      </trkpt>
      <trkpt lat="45.58459" lon="6.62092">
        <ele>2298.3999023438</ele>
        <time>2015-11-27T11:24:06.000Z</time>
      </trkpt>
      <trkpt lat="45.58459" lon="6.62092">
        <ele>2298.6000976562</ele>
        <time>2015-11-27T11:24:21.000Z</time>
      </trkpt>
      <trkpt lat="45.58459" lon="6.62092">
        <ele>2298.8000488281</ele>
        <time>2015-11-27T11:24:22.000Z</time>
      </trkpt>
      <trkpt lat="45.58459" lon="6.62092">
        <ele>2298.6000976562</ele>
        <time>2015-11-27T11:24:38.000Z</time>
      </trkpt>
      <trkpt lat="45.58459" lon="6.62092">
        <ele>2298.3999023438</ele>
        <time>2015-11-27T11:24:51.000Z</time>
      </trkpt>
      <trkpt lat="45.58459" lon="6.62092">
        <ele>2298.6000976562</ele>
        <time>2015-11-27T11:25:08.000Z</time>
      </trkpt>
      <trkpt lat="45.58459" lon="6.62092">
        <ele>2298.6000976562</ele>
        <time>2015-11-27T11:25:29.000Z</time>
      </trkpt>
      <trkpt lat="45.58459" lon="6.62092">
        <ele>2298.8000488281</ele>
        <time>2015-11-27T11:25:50.000Z</time>
      </trkpt>
      <trkpt lat="45.58459" lon="6.62092">
        <ele>2298.6000976562</ele>
        <time>2015-11-27T11:26:12.000Z</time>
      </trkpt>
      <trkpt lat="45.58459" lon="6.62092">
        <ele>2298.8000488281</ele>
        <time>2015-11-27T11:26:37.000Z</time>
      </trkpt>
      <trkpt lat="45.58459" lon="6.62092">
        <ele>2298.6000976562</ele>
        <time>2015-11-27T11:26:53.000Z</time>
      </trkpt>
      <trkpt lat="45.58459" lon="6.62092">
        <ele>2298.8000488281</ele>
        <time>2015-11-27T11:27:06.000Z</time>
      </trkpt>
      <trkpt lat="45.58459" lon="6.62092">
        <ele>2298.6000976562</ele>
        <time>2015-11-27T11:27:24.000Z</time>
      </trkpt>
      <trkpt lat="45.58459" lon="6.62092">
        <ele>2298.6000976562</ele>
        <time>2015-11-27T11:27:38.000Z</time>
      </trkpt>
      <trkpt lat="45.58459" lon="6.62093">
        <ele>2298.8000488281</ele>
        <time>2015-11-27T11:27:58.000Z</time>
      </trkpt>
      <trkpt lat="45.58459" lon="6.62093">
        <ele>2298.6000976562</ele>
        <time>2015-11-27T11:28:10.000Z</time>
      </trkpt>
      <trkpt lat="45.58459" lon="6.62093">
        <ele>2298.6000976562</ele>
        <time>2015-11-27T11:28:32.000Z</time>
      </trkpt>
      <trkpt lat="45.58459" lon="6.62093">
        <ele>2298.6000976562</ele>
        <time>2015-11-27T11:28:51.000Z</time>
      </trkpt>
      <trkpt lat="45.58461" lon="6.6209">
        <ele>2298.8000488281</ele>
        <time>2015-11-27T11:28:58.000Z</time>
      </trkpt>
      <trkpt lat="45.58467" lon="6.62079">
        <ele>2298.1999511719</ele>
        <time>2015-11-27T11:29:04.000Z</time>
      </trkpt>
      <trkpt lat="45.58471" lon="6.62067">
        <ele>2298</ele>
        <time>2015-11-27T11:29:10.000Z</time>
      </trkpt>
      <trkpt lat="45.58475" lon="6.62061">
        <ele>2297.8000488281</ele>
        <time>2015-11-27T11:29:16.000Z</time>
      </trkpt>
      <trkpt lat="45.58477" lon="6.6205">
        <ele>2298</ele>
        <time>2015-11-27T11:29:23.000Z</time>
      </trkpt>
      <trkpt lat="45.58479" lon="6.62042">
        <ele>2298.8000488281</ele>
        <time>2015-11-27T11:29:30.000Z</time>
      </trkpt>
      <trkpt lat="45.58482" lon="6.62038">
        <ele>2299.8000488281</ele>
        <time>2015-11-27T11:29:35.000Z</time>
      </trkpt>
      <trkpt lat="45.58483" lon="6.62033">
        <ele>2301</ele>
        <time>2015-11-27T11:29:40.000Z</time>
      </trkpt>
      <trkpt lat="45.58483" lon="6.62032">
        <ele>2301.1999511719</ele>
        <time>2015-11-27T11:29:41.000Z</time>
      </trkpt>
      <trkpt lat="45.58483" lon="6.62027">
        <ele>2302</ele>
        <time>2015-11-27T11:29:45.000Z</time>
      </trkpt>
      <trkpt lat="45.58483" lon="6.62025">
        <ele>2302.3999023438</ele>
        <time>2015-11-27T11:29:47.000Z</time>
      </trkpt>
      <trkpt lat="45.58486" lon="6.6202">
        <ele>2303.1999511719</ele>
        <time>2015-11-27T11:29:53.000Z</time>
      </trkpt>
      <trkpt lat="45.58486" lon="6.62019">
        <ele>2303.1999511719</ele>
        <time>2015-11-27T11:29:54.000Z</time>
      </trkpt>
      <trkpt lat="45.58488" lon="6.62013">
        <ele>2304</ele>
        <time>2015-11-27T11:30:00.000Z</time>
      </trkpt>
      <trkpt lat="45.58488" lon="6.62013">
        <ele>2304.1999511719</ele>
        <time>2015-11-27T11:30:01.000Z</time>
      </trkpt>
      <trkpt lat="45.58489" lon="6.62011">
        <ele>2305</ele>
        <time>2015-11-27T11:30:05.000Z</time>
      </trkpt>
      <trkpt lat="45.5849" lon="6.62009">
        <ele>2305.3999023438</ele>
        <time>2015-11-27T11:30:07.000Z</time>
      </trkpt>
      <trkpt lat="45.58492" lon="6.62005">
        <ele>2306.3999023438</ele>
        <time>2015-11-27T11:30:11.000Z</time>
      </trkpt>
      <trkpt lat="45.58492" lon="6.62005">
        <ele>2306.6000976562</ele>
        <time>2015-11-27T11:30:12.000Z</time>
      </trkpt>
      <trkpt lat="45.58493" lon="6.62003">
        <ele>2307.1999511719</ele>
        <time>2015-11-27T11:30:16.000Z</time>
      </trkpt>
      <trkpt lat="45.58492" lon="6.62002">
        <ele>2307.6000976562</ele>
        <time>2015-11-27T11:30:18.000Z</time>
      </trkpt>
      <trkpt lat="45.58492" lon="6.61996">
        <ele>2308.3999023438</ele>
        <time>2015-11-27T11:30:24.000Z</time>
      </trkpt>
      <trkpt lat="45.58491" lon="6.61991">
        <ele>2308.6000976562</ele>
        <time>2015-11-27T11:30:27.000Z</time>
      </trkpt>
      <trkpt lat="45.58489" lon="6.61985">
        <ele>2309</ele>
        <time>2015-11-27T11:30:31.000Z</time>
      </trkpt>
      <trkpt lat="45.58487" lon="6.61978">
        <ele>2309.6000976562</ele>
        <time>2015-11-27T11:30:37.000Z</time>
      </trkpt>
      <trkpt lat="45.58486" lon="6.61975">
        <ele>2310</ele>
        <time>2015-11-27T11:30:40.000Z</time>
      </trkpt>
      <trkpt lat="45.58486" lon="6.61971">
        <ele>2310.6000976562</ele>
        <time>2015-11-27T11:30:44.000Z</time>
      </trkpt>
      <trkpt lat="45.58485" lon="6.61968">
        <ele>2311</ele>
        <time>2015-11-27T11:30:47.000Z</time>
      </trkpt>
      <trkpt lat="45.58483" lon="6.61961">
        <ele>2311.8000488281</ele>
        <time>2015-11-27T11:30:53.000Z</time>
      </trkpt>
      <trkpt lat="45.58482" lon="6.61959">
        <ele>2312.1999511719</ele>
        <time>2015-11-27T11:30:56.000Z</time>
      </trkpt>
      <trkpt lat="45.58481" lon="6.61957">
        <ele>2312.8000488281</ele>
        <time>2015-11-27T11:30:59.000Z</time>
      </trkpt>
      <trkpt lat="45.58481" lon="6.61952">
        <ele>2313.6000976562</ele>
        <time>2015-11-27T11:31:03.000Z</time>
      </trkpt>
      <trkpt lat="45.5848" lon="6.61949">
        <ele>2314</ele>
        <time>2015-11-27T11:31:05.000Z</time>
      </trkpt>
      <trkpt lat="45.58478" lon="6.61941">
        <ele>2314.8000488281</ele>
        <time>2015-11-27T11:31:11.000Z</time>
      </trkpt>
      <trkpt lat="45.58478" lon="6.61938">
        <ele>2315</ele>
        <time>2015-11-27T11:31:13.000Z</time>
      </trkpt>
      <trkpt lat="45.58478" lon="6.61936">
        <ele>2316</ele>
        <time>2015-11-27T11:31:18.000Z</time>
      </trkpt>
      <trkpt lat="45.58478" lon="6.61935">
        <ele>2316.1999511719</ele>
        <time>2015-11-27T11:31:19.000Z</time>
      </trkpt>
      <trkpt lat="45.58478" lon="6.61934">
        <ele>2317.1999511719</ele>
        <time>2015-11-27T11:31:23.000Z</time>
      </trkpt>
      <trkpt lat="45.58479" lon="6.61933">
        <ele>2317.6000976562</ele>
        <time>2015-11-27T11:31:25.000Z</time>
      </trkpt>
      <trkpt lat="45.58479" lon="6.6193">
        <ele>2318.3999023438</ele>
        <time>2015-11-27T11:31:29.000Z</time>
      </trkpt>
      <trkpt lat="45.58479" lon="6.61928">
        <ele>2319</ele>
        <time>2015-11-27T11:31:32.000Z</time>
      </trkpt>
      <trkpt lat="45.58479" lon="6.61926">
        <ele>2319.3999023438</ele>
        <time>2015-11-27T11:31:35.000Z</time>
      </trkpt>
      <trkpt lat="45.58479" lon="6.61921">
        <ele>2320.1999511719</ele>
        <time>2015-11-27T11:31:39.000Z</time>
      </trkpt>
      <trkpt lat="45.5848" lon="6.61919">
        <ele>2320.6000976562</ele>
        <time>2015-11-27T11:31:42.000Z</time>
      </trkpt>
      <trkpt lat="45.58482" lon="6.61918">
        <ele>2321.1999511719</ele>
        <time>2015-11-27T11:31:45.000Z</time>
      </trkpt>
      <trkpt lat="45.58483" lon="6.61917">
        <ele>2321.6000976562</ele>
        <time>2015-11-27T11:31:47.000Z</time>
      </trkpt>
      <trkpt lat="45.58485" lon="6.61917">
        <ele>2322.1999511719</ele>
        <time>2015-11-27T11:31:50.000Z</time>
      </trkpt>
      <trkpt lat="45.58488" lon="6.61917">
        <ele>2322.6000976562</ele>
        <time>2015-11-27T11:31:54.000Z</time>
      </trkpt>
      <trkpt lat="45.58489" lon="6.61918">
        <ele>2323</ele>
        <time>2015-11-27T11:31:56.000Z</time>
      </trkpt>
      <trkpt lat="45.5849" lon="6.61918">
        <ele>2323.8000488281</ele>
        <time>2015-11-27T11:31:59.000Z</time>
      </trkpt>
      <trkpt lat="45.58492" lon="6.61918">
        <ele>2324.8000488281</ele>
        <time>2015-11-27T11:32:03.000Z</time>
      </trkpt>
      <trkpt lat="45.58492" lon="6.61918">
        <ele>2325</ele>
        <time>2015-11-27T11:32:04.000Z</time>
      </trkpt>
      <trkpt lat="45.58496" lon="6.61916">
        <ele>2325.8000488281</ele>
        <time>2015-11-27T11:32:09.000Z</time>
      </trkpt>
      <trkpt lat="45.58496" lon="6.61915">
        <ele>2326.1999511719</ele>
        <time>2015-11-27T11:32:10.000Z</time>
      </trkpt>
      <trkpt lat="45.58497" lon="6.61915">
        <ele>2326.8000488281</ele>
        <time>2015-11-27T11:32:14.000Z</time>
      </trkpt>
      <trkpt lat="45.58498" lon="6.61914">
        <ele>2327.1999511719</ele>
        <time>2015-11-27T11:32:18.000Z</time>
      </trkpt>
      <trkpt lat="45.585" lon="6.61914">
        <ele>2327.3999023438</ele>
        <time>2015-11-27T11:32:20.000Z</time>
      </trkpt>
      <trkpt lat="45.58501" lon="6.61914">
        <ele>2327.8000488281</ele>
        <time>2015-11-27T11:32:22.000Z</time>
      </trkpt>
      <trkpt lat="45.58503" lon="6.61913">
        <ele>2328.1999511719</ele>
        <time>2015-11-27T11:32:25.000Z</time>
      </trkpt>
      <trkpt lat="45.58503" lon="6.61912">
        <ele>2328.3999023438</ele>
        <time>2015-11-27T11:32:26.000Z</time>
      </trkpt>
      <trkpt lat="45.58506" lon="6.61911">
        <ele>2329.1999511719</ele>
        <time>2015-11-27T11:32:31.000Z</time>
      </trkpt>
      <trkpt lat="45.58507" lon="6.61911">
        <ele>2329.6000976562</ele>
        <time>2015-11-27T11:32:33.000Z</time>
      </trkpt>
      <trkpt lat="45.5851" lon="6.61911">
        <ele>2330.3999023438</ele>
        <time>2015-11-27T11:32:37.000Z</time>
      </trkpt>
      <trkpt lat="45.58511" lon="6.61911">
        <ele>2330.6000976562</ele>
        <time>2015-11-27T11:32:38.000Z</time>
      </trkpt>
      <trkpt lat="45.58514" lon="6.61912">
        <ele>2331.3999023438</ele>
        <time>2015-11-27T11:32:43.000Z</time>
      </trkpt>
      <trkpt lat="45.58514" lon="6.61912">
        <ele>2331.8000488281</ele>
        <time>2015-11-27T11:32:45.000Z</time>
      </trkpt>
      <trkpt lat="45.58512" lon="6.61907">
        <ele>2332.1999511719</ele>
        <time>2015-11-27T11:32:50.000Z</time>
      </trkpt>
      <trkpt lat="45.58511" lon="6.61903">
        <ele>2332.8000488281</ele>
        <time>2015-11-27T11:32:53.000Z</time>
      </trkpt>
      <trkpt lat="45.58511" lon="6.61901">
        <ele>2333.1999511719</ele>
        <time>2015-11-27T11:32:56.000Z</time>
      </trkpt>
      <trkpt lat="45.5851" lon="6.61898">
        <ele>2333.8000488281</ele>
        <time>2015-11-27T11:32:59.000Z</time>
      </trkpt>
      <trkpt lat="45.5851" lon="6.61895">
        <ele>2334.6000976562</ele>
        <time>2015-11-27T11:33:02.000Z</time>
      </trkpt>
      <trkpt lat="45.58509" lon="6.61893">
        <ele>2335</ele>
        <time>2015-11-27T11:33:05.000Z</time>
      </trkpt>
      <trkpt lat="45.58508" lon="6.6189">
        <ele>2335.6000976562</ele>
        <time>2015-11-27T11:33:09.000Z</time>
      </trkpt>
      <trkpt lat="45.58507" lon="6.61886">
        <ele>2336.1999511719</ele>
        <time>2015-11-27T11:33:12.000Z</time>
      </trkpt>
      <trkpt lat="45.58506" lon="6.61881">
        <ele>2336.6000976562</ele>
        <time>2015-11-27T11:33:15.000Z</time>
      </trkpt>
      <trkpt lat="45.58507" lon="6.61878">
        <ele>2337.1999511719</ele>
        <time>2015-11-27T11:33:18.000Z</time>
      </trkpt>
      <trkpt lat="45.58507" lon="6.61875">
        <ele>2337.8000488281</ele>
        <time>2015-11-27T11:33:21.000Z</time>
      </trkpt>
      <trkpt lat="45.58507" lon="6.61873">
        <ele>2338.1999511719</ele>
        <time>2015-11-27T11:33:23.000Z</time>
      </trkpt>
      <trkpt lat="45.58507" lon="6.6187">
        <ele>2339</ele>
        <time>2015-11-27T11:33:27.000Z</time>
      </trkpt>
      <trkpt lat="45.58507" lon="6.61866">
        <ele>2339.3999023438</ele>
        <time>2015-11-27T11:33:30.000Z</time>
      </trkpt>
      <trkpt lat="45.58508" lon="6.61863">
        <ele>2339.6000976562</ele>
        <time>2015-11-27T11:33:33.000Z</time>
      </trkpt>
      <trkpt lat="45.58507" lon="6.61857">
        <ele>2340.3999023438</ele>
        <time>2015-11-27T11:33:38.000Z</time>
      </trkpt>
      <trkpt lat="45.58507" lon="6.61857">
        <ele>2340.3999023438</ele>
        <time>2015-11-27T11:33:39.000Z</time>
      </trkpt>
      <trkpt lat="45.58508" lon="6.61852">
        <ele>2341.6000976562</ele>
        <time>2015-11-27T11:33:45.000Z</time>
      </trkpt>
      <trkpt lat="45.58508" lon="6.6185">
        <ele>2342</ele>
        <time>2015-11-27T11:33:46.000Z</time>
      </trkpt>
      <trkpt lat="45.58509" lon="6.61847">
        <ele>2342.8000488281</ele>
        <time>2015-11-27T11:33:50.000Z</time>
      </trkpt>
      <trkpt lat="45.58509" lon="6.61846">
        <ele>2343</ele>
        <time>2015-11-27T11:33:51.000Z</time>
      </trkpt>
      <trkpt lat="45.58513" lon="6.61847">
        <ele>2343.8000488281</ele>
        <time>2015-11-27T11:33:56.000Z</time>
      </trkpt>
      <trkpt lat="45.58514" lon="6.61847">
        <ele>2344.1999511719</ele>
        <time>2015-11-27T11:33:58.000Z</time>
      </trkpt>
      <trkpt lat="45.58516" lon="6.61847">
        <ele>2345</ele>
        <time>2015-11-27T11:34:02.000Z</time>
      </trkpt>
      <trkpt lat="45.58518" lon="6.61847">
        <ele>2345.1999511719</ele>
        <time>2015-11-27T11:34:04.000Z</time>
      </trkpt>
      <trkpt lat="45.5852" lon="6.61846">
        <ele>2346</ele>
        <time>2015-11-27T11:34:07.000Z</time>
      </trkpt>
      <trkpt lat="45.58523" lon="6.61846">
        <ele>2346.8000488281</ele>
        <time>2015-11-27T11:34:10.000Z</time>
      </trkpt>
      <trkpt lat="45.58524" lon="6.61845">
        <ele>2347.1999511719</ele>
        <time>2015-11-27T11:34:12.000Z</time>
      </trkpt>
      <trkpt lat="45.58527" lon="6.61843">
        <ele>2347.8000488281</ele>
        <time>2015-11-27T11:34:16.000Z</time>
      </trkpt>
      <trkpt lat="45.58528" lon="6.61842">
        <ele>2348.1999511719</ele>
        <time>2015-11-27T11:34:18.000Z</time>
      </trkpt>
      <trkpt lat="45.5853" lon="6.61841">
        <ele>2348.8000488281</ele>
        <time>2015-11-27T11:34:21.000Z</time>
      </trkpt>
      <trkpt lat="45.58531" lon="6.6184">
        <ele>2349.1999511719</ele>
        <time>2015-11-27T11:34:24.000Z</time>
      </trkpt>
      <trkpt lat="45.58532" lon="6.61839">
        <ele>2349.6000976562</ele>
        <time>2015-11-27T11:34:26.000Z</time>
      </trkpt>
      <trkpt lat="45.58533" lon="6.61837">
        <ele>2350.1999511719</ele>
        <time>2015-11-27T11:34:30.000Z</time>
      </trkpt>
      <trkpt lat="45.58534" lon="6.61836">
        <ele>2350.8000488281</ele>
        <time>2015-11-27T11:34:32.000Z</time>
      </trkpt>
      <trkpt lat="45.58535" lon="6.61835">
        <ele>2351.3999023438</ele>
        <time>2015-11-27T11:34:34.000Z</time>
      </trkpt>
      <trkpt lat="45.58537" lon="6.61833">
        <ele>2352</ele>
        <time>2015-11-27T11:34:37.000Z</time>
      </trkpt>
      <trkpt lat="45.58538" lon="6.61829">
        <ele>2352.6000976562</ele>
        <time>2015-11-27T11:34:40.000Z</time>
      </trkpt>
      <trkpt lat="45.58539" lon="6.61827">
        <ele>2353</ele>
        <time>2015-11-27T11:34:42.000Z</time>
      </trkpt>
      <trkpt lat="45.5854" lon="6.61823">
        <ele>2353.6000976562</ele>
        <time>2015-11-27T11:34:46.000Z</time>
      </trkpt>
      <trkpt lat="45.5854" lon="6.6182">
        <ele>2354</ele>
        <time>2015-11-27T11:34:48.000Z</time>
      </trkpt>
      <trkpt lat="45.58541" lon="6.61816">
        <ele>2354.6000976562</ele>
        <time>2015-11-27T11:34:52.000Z</time>
      </trkpt>
      <trkpt lat="45.58542" lon="6.61815">
        <ele>2355</ele>
        <time>2015-11-27T11:34:54.000Z</time>
      </trkpt>
      <trkpt lat="45.58542" lon="6.61811">
        <ele>2355.8000488281</ele>
        <time>2015-11-27T11:34:58.000Z</time>
      </trkpt>
      <trkpt lat="45.58542" lon="6.6181">
        <ele>2356</ele>
        <time>2015-11-27T11:35:00.000Z</time>
      </trkpt>
      <trkpt lat="45.58543" lon="6.61806">
        <ele>2357</ele>
        <time>2015-11-27T11:35:05.000Z</time>
      </trkpt>
      <trkpt lat="45.58544" lon="6.61806">
        <ele>2357.1999511719</ele>
        <time>2015-11-27T11:35:06.000Z</time>
      </trkpt>
      <trkpt lat="45.58544" lon="6.61804">
        <ele>2358</ele>
        <time>2015-11-27T11:35:10.000Z</time>
      </trkpt>
      <trkpt lat="45.58544" lon="6.61802">
        <ele>2358.6000976562</ele>
        <time>2015-11-27T11:35:12.000Z</time>
      </trkpt>
      <trkpt lat="45.58545" lon="6.618">
        <ele>2359.1999511719</ele>
        <time>2015-11-27T11:35:15.000Z</time>
      </trkpt>
      <trkpt lat="45.58546" lon="6.61798">
        <ele>2359.8000488281</ele>
        <time>2015-11-27T11:35:18.000Z</time>
      </trkpt>
      <trkpt lat="45.58546" lon="6.61795">
        <ele>2360.3999023438</ele>
        <time>2015-11-27T11:35:21.000Z</time>
      </trkpt>
      <trkpt lat="45.58548" lon="6.61795">
        <ele>2361</ele>
        <time>2015-11-27T11:35:23.000Z</time>
      </trkpt>
      <trkpt lat="45.5855" lon="6.61794">
        <ele>2361.3999023438</ele>
        <time>2015-11-27T11:35:26.000Z</time>
      </trkpt>
      <trkpt lat="45.58553" lon="6.61793">
        <ele>2362.1999511719</ele>
        <time>2015-11-27T11:35:30.000Z</time>
      </trkpt>
      <trkpt lat="45.58553" lon="6.61793">
        <ele>2362.3999023438</ele>
        <time>2015-11-27T11:35:31.000Z</time>
      </trkpt>
      <trkpt lat="45.58556" lon="6.61793">
        <ele>2363.3999023438</ele>
        <time>2015-11-27T11:35:36.000Z</time>
      </trkpt>
      <trkpt lat="45.58558" lon="6.61792">
        <ele>2364.6000976562</ele>
        <time>2015-11-27T11:35:43.000Z</time>
      </trkpt>
      <trkpt lat="45.58557" lon="6.6179">
        <ele>2365.1999511719</ele>
        <time>2015-11-27T11:35:52.000Z</time>
      </trkpt>
      <trkpt lat="45.58556" lon="6.61782">
        <ele>2365.3999023438</ele>
        <time>2015-11-27T11:35:58.000Z</time>
      </trkpt>
      <trkpt lat="45.58556" lon="6.61782">
        <ele>2365.6000976562</ele>
        <time>2015-11-27T11:35:59.000Z</time>
      </trkpt>
      <trkpt lat="45.58555" lon="6.61777">
        <ele>2366.8000488281</ele>
        <time>2015-11-27T11:36:04.000Z</time>
      </trkpt>
      <trkpt lat="45.58556" lon="6.61776">
        <ele>2367.6000976562</ele>
        <time>2015-11-27T11:36:08.000Z</time>
      </trkpt>
      <trkpt lat="45.58555" lon="6.61776">
        <ele>2367.8000488281</ele>
        <time>2015-11-27T11:36:11.000Z</time>
      </trkpt>
      <trkpt lat="45.58555" lon="6.61776">
        <ele>2368.6000976562</ele>
        <time>2015-11-27T11:36:17.000Z</time>
      </trkpt>
      <trkpt lat="45.58555" lon="6.61777">
        <ele>2368.8000488281</ele>
        <time>2015-11-27T11:36:24.000Z</time>
      </trkpt>
      <trkpt lat="45.58555" lon="6.61775">
        <ele>2368.6000976562</ele>
        <time>2015-11-27T11:36:31.000Z</time>
      </trkpt>
      <trkpt lat="45.58555" lon="6.61775">
        <ele>2369</ele>
        <time>2015-11-27T11:36:33.000Z</time>
      </trkpt>
      <trkpt lat="45.58555" lon="6.61773">
        <ele>2369.6000976562</ele>
        <time>2015-11-27T11:36:39.000Z</time>
      </trkpt>
      <trkpt lat="45.58553" lon="6.6177">
        <ele>2370.1999511719</ele>
        <time>2015-11-27T11:36:44.000Z</time>
      </trkpt>
      <trkpt lat="45.58553" lon="6.6177">
        <ele>2370.6000976562</ele>
        <time>2015-11-27T11:36:46.000Z</time>
      </trkpt>
      <trkpt lat="45.58553" lon="6.6177">
        <ele>2371.1999511719</ele>
        <time>2015-11-27T11:36:51.000Z</time>
      </trkpt>
      <trkpt lat="45.58553" lon="6.6177">
        <ele>2371.6000976562</ele>
        <time>2015-11-27T11:36:53.000Z</time>
      </trkpt>
      <trkpt lat="45.58555" lon="6.6177">
        <ele>2371.3999023438</ele>
        <time>2015-11-27T11:37:04.000Z</time>
      </trkpt>
      <trkpt lat="45.58558" lon="6.61769">
        <ele>2372.1999511719</ele>
        <time>2015-11-27T11:37:09.000Z</time>
      </trkpt>
      <trkpt lat="45.58559" lon="6.61769">
        <ele>2372.3999023438</ele>
        <time>2015-11-27T11:37:10.000Z</time>
      </trkpt>
      <trkpt lat="45.58562" lon="6.61769">
        <ele>2373.3999023438</ele>
        <time>2015-11-27T11:37:15.000Z</time>
      </trkpt>
      <trkpt lat="45.58562" lon="6.61769">
        <ele>2373.6000976562</ele>
        <time>2015-11-27T11:37:16.000Z</time>
      </trkpt>
      <trkpt lat="45.58564" lon="6.6177">
        <ele>2374.6000976562</ele>
        <time>2015-11-27T11:37:21.000Z</time>
      </trkpt>
      <trkpt lat="45.58564" lon="6.6177">
        <ele>2375</ele>
        <time>2015-11-27T11:37:22.000Z</time>
      </trkpt>
      <trkpt lat="45.58566" lon="6.6177">
        <ele>2375.6000976562</ele>
        <time>2015-11-27T11:37:25.000Z</time>
      </trkpt>
      <trkpt lat="45.58568" lon="6.6177">
        <ele>2376.3999023438</ele>
        <time>2015-11-27T11:37:28.000Z</time>
      </trkpt>
      <trkpt lat="45.58569" lon="6.6177">
        <ele>2376.8000488281</ele>
        <time>2015-11-27T11:37:30.000Z</time>
      </trkpt>
      <trkpt lat="45.58572" lon="6.61771">
        <ele>2378</ele>
        <time>2015-11-27T11:37:35.000Z</time>
      </trkpt>
      <trkpt lat="45.58576" lon="6.61773">
        <ele>2379</ele>
        <time>2015-11-27T11:37:41.000Z</time>
      </trkpt>
      <trkpt lat="45.58577" lon="6.61773">
        <ele>2379.1999511719</ele>
        <time>2015-11-27T11:37:42.000Z</time>
      </trkpt>
      <trkpt lat="45.58579" lon="6.61775">
        <ele>2380.1999511719</ele>
        <time>2015-11-27T11:37:46.000Z</time>
      </trkpt>
      <trkpt lat="45.5858" lon="6.61776">
        <ele>2380.8000488281</ele>
        <time>2015-11-27T11:37:49.000Z</time>
      </trkpt>
      <trkpt lat="45.58582" lon="6.61776">
        <ele>2381.1999511719</ele>
        <time>2015-11-27T11:37:52.000Z</time>
      </trkpt>
      <trkpt lat="45.58584" lon="6.61776">
        <ele>2382.3999023438</ele>
        <time>2015-11-27T11:37:57.000Z</time>
      </trkpt>
      <trkpt lat="45.58586" lon="6.61776">
        <ele>2383.3999023438</ele>
        <time>2015-11-27T11:38:01.000Z</time>
      </trkpt>
      <trkpt lat="45.58589" lon="6.61776">
        <ele>2384</ele>
        <time>2015-11-27T11:38:05.000Z</time>
      </trkpt>
      <trkpt lat="45.5859" lon="6.61776">
        <ele>2384.3999023438</ele>
        <time>2015-11-27T11:38:07.000Z</time>
      </trkpt>
      <trkpt lat="45.58593" lon="6.61778">
        <ele>2385.6000976562</ele>
        <time>2015-11-27T11:38:12.000Z</time>
      </trkpt>
      <trkpt lat="45.58598" lon="6.61781">
        <ele>2386.3999023438</ele>
        <time>2015-11-27T11:38:18.000Z</time>
      </trkpt>
      <trkpt lat="45.58598" lon="6.61782">
        <ele>2386.6000976562</ele>
        <time>2015-11-27T11:38:19.000Z</time>
      </trkpt>
      <trkpt lat="45.58601" lon="6.61785">
        <ele>2387.3999023438</ele>
        <time>2015-11-27T11:38:24.000Z</time>
      </trkpt>
      <trkpt lat="45.58603" lon="6.61786">
        <ele>2387.8000488281</ele>
        <time>2015-11-27T11:38:26.000Z</time>
      </trkpt>
      <trkpt lat="45.58605" lon="6.61788">
        <ele>2388.3999023438</ele>
        <time>2015-11-27T11:38:30.000Z</time>
      </trkpt>
      <trkpt lat="45.58605" lon="6.6179">
        <ele>2388.8000488281</ele>
        <time>2015-11-27T11:38:32.000Z</time>
      </trkpt>
      <trkpt lat="45.58608" lon="6.61794">
        <ele>2389.1999511719</ele>
        <time>2015-11-27T11:38:36.000Z</time>
      </trkpt>
      <trkpt lat="45.5861" lon="6.61799">
        <ele>2389.8000488281</ele>
        <time>2015-11-27T11:38:41.000Z</time>
      </trkpt>
      <trkpt lat="45.58612" lon="6.618">
        <ele>2390.1999511719</ele>
        <time>2015-11-27T11:38:43.000Z</time>
      </trkpt>
      <trkpt lat="45.58616" lon="6.61807">
        <ele>2391</ele>
        <time>2015-11-27T11:38:50.000Z</time>
      </trkpt>
      <trkpt lat="45.58617" lon="6.61808">
        <ele>2391</ele>
        <time>2015-11-27T11:38:51.000Z</time>
      </trkpt>
      <trkpt lat="45.5862" lon="6.61811">
        <ele>2391.3999023438</ele>
        <time>2015-11-27T11:38:55.000Z</time>
      </trkpt>
      <trkpt lat="45.58624" lon="6.61814">
        <ele>2391.3999023438</ele>
        <time>2015-11-27T11:39:00.000Z</time>
      </trkpt>
      <trkpt lat="45.58631" lon="6.6182">
        <ele>2391.3999023438</ele>
        <time>2015-11-27T11:39:07.000Z</time>
      </trkpt>
      <trkpt lat="45.58634" lon="6.61822">
        <ele>2391.3999023438</ele>
        <time>2015-11-27T11:39:12.000Z</time>
      </trkpt>
      <trkpt lat="45.58641" lon="6.61826">
        <ele>2391.8000488281</ele>
        <time>2015-11-27T11:39:20.000Z</time>
      </trkpt>
      <trkpt lat="45.58642" lon="6.61827">
        <ele>2392</ele>
        <time>2015-11-27T11:39:21.000Z</time>
      </trkpt>
      <trkpt lat="45.58648" lon="6.6183">
        <ele>2392.3999023438</ele>
        <time>2015-11-27T11:39:27.000Z</time>
      </trkpt>
      <trkpt lat="45.58654" lon="6.61836">
        <ele>2393</ele>
        <time>2015-11-27T11:39:35.000Z</time>
      </trkpt>
      <trkpt lat="45.58655" lon="6.61837">
        <ele>2393</ele>
        <time>2015-11-27T11:39:36.000Z</time>
      </trkpt>
      <trkpt lat="45.58661" lon="6.61843">
        <ele>2393.8000488281</ele>
        <time>2015-11-27T11:39:43.000Z</time>
      </trkpt>
      <trkpt lat="45.58663" lon="6.61846">
        <ele>2394.1999511719</ele>
        <time>2015-11-27T11:39:46.000Z</time>
      </trkpt>
      <trkpt lat="45.58665" lon="6.61849">
        <ele>2394.3999023438</ele>
        <time>2015-11-27T11:39:49.000Z</time>
      </trkpt>
      <trkpt lat="45.58668" lon="6.61854">
        <ele>2395.1999511719</ele>
        <time>2015-11-27T11:39:54.000Z</time>
      </trkpt>
      <trkpt lat="45.58671" lon="6.6186">
        <ele>2396.3999023438</ele>
        <time>2015-11-27T11:40:01.000Z</time>
      </trkpt>
      <trkpt lat="45.58674" lon="6.61864">
        <ele>2397.3999023438</ele>
        <time>2015-11-27T11:40:07.000Z</time>
      </trkpt>
      <trkpt lat="45.58676" lon="6.61865">
        <ele>2397.8000488281</ele>
        <time>2015-11-27T11:40:09.000Z</time>
      </trkpt>
      <trkpt lat="45.58678" lon="6.61867">
        <ele>2398.6000976562</ele>
        <time>2015-11-27T11:40:13.000Z</time>
      </trkpt>
      <trkpt lat="45.5868" lon="6.61869">
        <ele>2399</ele>
        <time>2015-11-27T11:40:15.000Z</time>
      </trkpt>
      <trkpt lat="45.58682" lon="6.6187">
        <ele>2399.6000976562</ele>
        <time>2015-11-27T11:40:18.000Z</time>
      </trkpt>
      <trkpt lat="45.58684" lon="6.61873">
        <ele>2400.1999511719</ele>
        <time>2015-11-27T11:40:22.000Z</time>
      </trkpt>
      <trkpt lat="45.58686" lon="6.61875">
        <ele>2400.8000488281</ele>
        <time>2015-11-27T11:40:24.000Z</time>
      </trkpt>
      <trkpt lat="45.58689" lon="6.61881">
        <ele>2401.8000488281</ele>
        <time>2015-11-27T11:40:31.000Z</time>
      </trkpt>
      <trkpt lat="45.58692" lon="6.61887">
        <ele>2403</ele>
        <time>2015-11-27T11:40:37.000Z</time>
      </trkpt>
      <trkpt lat="45.58693" lon="6.61888">
        <ele>2403.1999511719</ele>
        <time>2015-11-27T11:40:38.000Z</time>
      </trkpt>
      <trkpt lat="45.58694" lon="6.61891">
        <ele>2404</ele>
        <time>2015-11-27T11:40:43.000Z</time>
      </trkpt>
      <trkpt lat="45.58695" lon="6.61893">
        <ele>2404.3999023438</ele>
        <time>2015-11-27T11:40:45.000Z</time>
      </trkpt>
      <trkpt lat="45.58697" lon="6.61897">
        <ele>2405.1999511719</ele>
        <time>2015-11-27T11:40:49.000Z</time>
      </trkpt>
      <trkpt lat="45.58698" lon="6.619">
        <ele>2405.6000976562</ele>
        <time>2015-11-27T11:40:51.000Z</time>
      </trkpt>
      <trkpt lat="45.58699" lon="6.61901">
        <ele>2406.1999511719</ele>
        <time>2015-11-27T11:40:54.000Z</time>
      </trkpt>
      <trkpt lat="45.58699" lon="6.61902">
        <ele>2406.8000488281</ele>
        <time>2015-11-27T11:40:57.000Z</time>
      </trkpt>
      <trkpt lat="45.587" lon="6.61905">
        <ele>2407.3999023438</ele>
        <time>2015-11-27T11:41:00.000Z</time>
      </trkpt>
      <trkpt lat="45.58701" lon="6.61909">
        <ele>2408.1999511719</ele>
        <time>2015-11-27T11:41:04.000Z</time>
      </trkpt>
      <trkpt lat="45.58702" lon="6.6191">
        <ele>2408.3999023438</ele>
        <time>2015-11-27T11:41:05.000Z</time>
      </trkpt>
      <trkpt lat="45.58703" lon="6.61913">
        <ele>2409.1999511719</ele>
        <time>2015-11-27T11:41:09.000Z</time>
      </trkpt>
      <trkpt lat="45.58703" lon="6.61914">
        <ele>2409.6000976562</ele>
        <time>2015-11-27T11:41:11.000Z</time>
      </trkpt>
      <trkpt lat="45.58704" lon="6.61918">
        <ele>2410.1999511719</ele>
        <time>2015-11-27T11:41:14.000Z</time>
      </trkpt>
      <trkpt lat="45.58705" lon="6.6192">
        <ele>2410.8000488281</ele>
        <time>2015-11-27T11:41:16.000Z</time>
      </trkpt>
      <trkpt lat="45.58706" lon="6.61925">
        <ele>2411.6000976562</ele>
        <time>2015-11-27T11:41:21.000Z</time>
      </trkpt>
      <trkpt lat="45.58707" lon="6.61926">
        <ele>2411.8000488281</ele>
        <time>2015-11-27T11:41:22.000Z</time>
      </trkpt>
      <trkpt lat="45.58708" lon="6.6193">
        <ele>2413</ele>
        <time>2015-11-27T11:41:26.000Z</time>
      </trkpt>
      <trkpt lat="45.58709" lon="6.61933">
        <ele>2413.1999511719</ele>
        <time>2015-11-27T11:41:28.000Z</time>
      </trkpt>
      <trkpt lat="45.58711" lon="6.61936">
        <ele>2414</ele>
        <time>2015-11-27T11:41:32.000Z</time>
      </trkpt>
      <trkpt lat="45.58712" lon="6.61938">
        <ele>2414.1999511719</ele>
        <time>2015-11-27T11:41:34.000Z</time>
      </trkpt>
      <trkpt lat="45.58714" lon="6.61942">
        <ele>2415</ele>
        <time>2015-11-27T11:41:40.000Z</time>
      </trkpt>
      <trkpt lat="45.58714" lon="6.61944">
        <ele>2415.1999511719</ele>
        <time>2015-11-27T11:41:41.000Z</time>
      </trkpt>
      <trkpt lat="45.58716" lon="6.61944">
        <ele>2415.8000488281</ele>
        <time>2015-11-27T11:41:45.000Z</time>
      </trkpt>
      <trkpt lat="45.58716" lon="6.61945">
        <ele>2416.3999023438</ele>
        <time>2015-11-27T11:41:48.000Z</time>
      </trkpt>
      <trkpt lat="45.58717" lon="6.61943">
        <ele>2416.6000976562</ele>
        <time>2015-11-27T11:41:53.000Z</time>
      </trkpt>
      <trkpt lat="45.58717" lon="6.61942">
        <ele>2416.6000976562</ele>
        <time>2015-11-27T11:41:54.000Z</time>
      </trkpt>
      <trkpt lat="45.58717" lon="6.6194">
        <ele>2416.8000488281</ele>
        <time>2015-11-27T11:41:57.000Z</time>
      </trkpt>
      <trkpt lat="45.58718" lon="6.61938">
        <ele>2417.3999023438</ele>
        <time>2015-11-27T11:41:59.000Z</time>
      </trkpt>
      <trkpt lat="45.58719" lon="6.61935">
        <ele>2418.1999511719</ele>
        <time>2015-11-27T11:42:03.000Z</time>
      </trkpt>
      <trkpt lat="45.58719" lon="6.61933">
        <ele>2418.3999023438</ele>
        <time>2015-11-27T11:42:04.000Z</time>
      </trkpt>
      <trkpt lat="45.58721" lon="6.61929">
        <ele>2419.3999023438</ele>
        <time>2015-11-27T11:42:09.000Z</time>
      </trkpt>
      <trkpt lat="45.58723" lon="6.61926">
        <ele>2420.6000976562</ele>
        <time>2015-11-27T11:42:14.000Z</time>
      </trkpt>
      <trkpt lat="45.58726" lon="6.61923">
        <ele>2421.8000488281</ele>
        <time>2015-11-27T11:42:20.000Z</time>
      </trkpt>
      <trkpt lat="45.58728" lon="6.61926">
        <ele>2423</ele>
        <time>2015-11-27T11:42:25.000Z</time>
      </trkpt>
      <trkpt lat="45.5873" lon="6.61927">
        <ele>2423.6000976562</ele>
        <time>2015-11-27T11:42:28.000Z</time>
      </trkpt>
      <trkpt lat="45.58732" lon="6.61928">
        <ele>2424.1999511719</ele>
        <time>2015-11-27T11:42:31.000Z</time>
      </trkpt>
      <trkpt lat="45.58736" lon="6.61929">
        <ele>2425.3999023438</ele>
        <time>2015-11-27T11:42:36.000Z</time>
      </trkpt>
      <trkpt lat="45.5874" lon="6.61931">
        <ele>2426.6000976562</ele>
        <time>2015-11-27T11:42:42.000Z</time>
      </trkpt>
      <trkpt lat="45.58741" lon="6.61932">
        <ele>2427.3999023438</ele>
        <time>2015-11-27T11:42:45.000Z</time>
      </trkpt>
      <trkpt lat="45.58742" lon="6.61933">
        <ele>2427.8000488281</ele>
        <time>2015-11-27T11:42:47.000Z</time>
      </trkpt>
      <trkpt lat="45.58744" lon="6.61935">
        <ele>2429</ele>
        <time>2015-11-27T11:42:52.000Z</time>
      </trkpt>
      <trkpt lat="45.58745" lon="6.61936">
        <ele>2429.3999023438</ele>
        <time>2015-11-27T11:42:54.000Z</time>
      </trkpt>
      <trkpt lat="45.58746" lon="6.61936">
        <ele>2430</ele>
        <time>2015-11-27T11:42:56.000Z</time>
      </trkpt>
      <trkpt lat="45.58748" lon="6.61938">
        <ele>2431.1999511719</ele>
        <time>2015-11-27T11:43:00.000Z</time>
      </trkpt>
      <trkpt lat="45.58749" lon="6.61939">
        <ele>2431.8000488281</ele>
        <time>2015-11-27T11:43:02.000Z</time>
      </trkpt>
      <trkpt lat="45.58751" lon="6.6194">
        <ele>2432.3999023438</ele>
        <time>2015-11-27T11:43:05.000Z</time>
      </trkpt>
      <trkpt lat="45.58753" lon="6.61941">
        <ele>2433.6000976562</ele>
        <time>2015-11-27T11:43:10.000Z</time>
      </trkpt>
      <trkpt lat="45.58755" lon="6.61943">
        <ele>2434.6000976562</ele>
        <time>2015-11-27T11:43:14.000Z</time>
      </trkpt>
      <trkpt lat="45.58758" lon="6.61943">
        <ele>2435.6000976562</ele>
        <time>2015-11-27T11:43:18.000Z</time>
      </trkpt>
      <trkpt lat="45.58758" lon="6.61943">
        <ele>2435.8000488281</ele>
        <time>2015-11-27T11:43:19.000Z</time>
      </trkpt>
      <trkpt lat="45.5876" lon="6.61945">
        <ele>2436.8000488281</ele>
        <time>2015-11-27T11:43:23.000Z</time>
      </trkpt>
      <trkpt lat="45.5876" lon="6.61945">
        <ele>2437.6000976562</ele>
        <time>2015-11-27T11:43:25.000Z</time>
      </trkpt>
      <trkpt lat="45.58761" lon="6.61943">
        <ele>2438</ele>
        <time>2015-11-27T11:43:27.000Z</time>
      </trkpt>
      <trkpt lat="45.58764" lon="6.6194">
        <ele>2439</ele>
        <time>2015-11-27T11:43:31.000Z</time>
      </trkpt>
      <trkpt lat="45.58764" lon="6.61939">
        <ele>2439.1999511719</ele>
        <time>2015-11-27T11:43:32.000Z</time>
      </trkpt>
      <trkpt lat="45.58766" lon="6.61939">
        <ele>2440</ele>
        <time>2015-11-27T11:43:36.000Z</time>
      </trkpt>
      <trkpt lat="45.58766" lon="6.61939">
        <ele>2440.3999023438</ele>
        <time>2015-11-27T11:43:38.000Z</time>
      </trkpt>
      <trkpt lat="45.58769" lon="6.61938">
        <ele>2441.1999511719</ele>
        <time>2015-11-27T11:43:48.000Z</time>
      </trkpt>
      <trkpt lat="45.58771" lon="6.61938">
        <ele>2441.3999023438</ele>
        <time>2015-11-27T11:43:51.000Z</time>
      </trkpt>
      <trkpt lat="45.58775" lon="6.61939">
        <ele>2442.1999511719</ele>
        <time>2015-11-27T11:43:55.000Z</time>
      </trkpt>
      <trkpt lat="45.58776" lon="6.61939">
        <ele>2442.3999023438</ele>
        <time>2015-11-27T11:43:57.000Z</time>
      </trkpt>
      <trkpt lat="45.58776" lon="6.61939">
        <ele>2443.3999023438</ele>
        <time>2015-11-27T11:44:02.000Z</time>
      </trkpt>
      <trkpt lat="45.58776" lon="6.61939">
        <ele>2443.6000976562</ele>
        <time>2015-11-27T11:44:03.000Z</time>
      </trkpt>
      <trkpt lat="45.58776" lon="6.61939">
        <ele>2444</ele>
        <time>2015-11-27T11:44:20.000Z</time>
      </trkpt>
      <trkpt lat="45.58776" lon="6.61939">
        <ele>2444.1999511719</ele>
        <time>2015-11-27T11:44:38.000Z</time>
      </trkpt>
      <trkpt lat="45.58777" lon="6.61938">
        <ele>2444</ele>
        <time>2015-11-27T11:44:49.000Z</time>
      </trkpt>
      <trkpt lat="45.58779" lon="6.61931">
        <ele>2444.6000976562</ele>
        <time>2015-11-27T11:44:55.000Z</time>
      </trkpt>
      <trkpt lat="45.5878" lon="6.6193">
        <ele>2444.8000488281</ele>
        <time>2015-11-27T11:44:56.000Z</time>
      </trkpt>
      <trkpt lat="45.58782" lon="6.61925">
        <ele>2445.8000488281</ele>
        <time>2015-11-27T11:45:01.000Z</time>
      </trkpt>
      <trkpt lat="45.58784" lon="6.61919">
        <ele>2447</ele>
        <time>2015-11-27T11:45:07.000Z</time>
      </trkpt>
      <trkpt lat="45.58785" lon="6.61915">
        <ele>2447.8000488281</ele>
        <time>2015-11-27T11:45:12.000Z</time>
      </trkpt>
      <trkpt lat="45.58785" lon="6.61914">
        <ele>2448</ele>
        <time>2015-11-27T11:45:13.000Z</time>
      </trkpt>
      <trkpt lat="45.58786" lon="6.6191">
        <ele>2449.1999511719</ele>
        <time>2015-11-27T11:45:18.000Z</time>
      </trkpt>
      <trkpt lat="45.58787" lon="6.61907">
        <ele>2450.3999023438</ele>
        <time>2015-11-27T11:45:22.000Z</time>
      </trkpt>
      <trkpt lat="45.58788" lon="6.61906">
        <ele>2451.1999511719</ele>
        <time>2015-11-27T11:45:24.000Z</time>
      </trkpt>
      <trkpt lat="45.58788" lon="6.61906">
        <ele>2451.3999023438</ele>
        <time>2015-11-27T11:45:25.000Z</time>
      </trkpt>
      <trkpt lat="45.5879" lon="6.61902">
        <ele>2452.3999023438</ele>
        <time>2015-11-27T11:45:30.000Z</time>
      </trkpt>
      <trkpt lat="45.5879" lon="6.61896">
        <ele>2453.3999023438</ele>
        <time>2015-11-27T11:45:36.000Z</time>
      </trkpt>
      <trkpt lat="45.5879" lon="6.61896">
        <ele>2453.6000976562</ele>
        <time>2015-11-27T11:45:37.000Z</time>
      </trkpt>
      <trkpt lat="45.58791" lon="6.61893">
        <ele>2453.8000488281</ele>
        <time>2015-11-27T11:45:38.000Z</time>
      </trkpt>
      <trkpt lat="45.58791" lon="6.61891">
        <ele>2454.3999023438</ele>
        <time>2015-11-27T11:45:41.000Z</time>
      </trkpt>
      <trkpt lat="45.58792" lon="6.61888">
        <ele>2454.6000976562</ele>
        <time>2015-11-27T11:45:43.000Z</time>
      </trkpt>
      <trkpt lat="45.58792" lon="6.61886">
        <ele>2455.1999511719</ele>
        <time>2015-11-27T11:45:47.000Z</time>
      </trkpt>
      <trkpt lat="45.58792" lon="6.61883">
        <ele>2455.6000976562</ele>
        <time>2015-11-27T11:45:50.000Z</time>
      </trkpt>
      <trkpt lat="45.58792" lon="6.61879">
        <ele>2456.1999511719</ele>
        <time>2015-11-27T11:45:53.000Z</time>
      </trkpt>
      <trkpt lat="45.58793" lon="6.61877">
        <ele>2456.8000488281</ele>
        <time>2015-11-27T11:45:56.000Z</time>
      </trkpt>
      <trkpt lat="45.58794" lon="6.61875">
        <ele>2457.1999511719</ele>
        <time>2015-11-27T11:45:58.000Z</time>
      </trkpt>
      <trkpt lat="45.58795" lon="6.61872">
        <ele>2458</ele>
        <time>2015-11-27T11:46:01.000Z</time>
      </trkpt>
      <trkpt lat="45.58796" lon="6.6187">
        <ele>2458.3999023438</ele>
        <time>2015-11-27T11:46:03.000Z</time>
      </trkpt>
      <trkpt lat="45.58796" lon="6.61869">
        <ele>2459</ele>
        <time>2015-11-27T11:46:05.000Z</time>
      </trkpt>
      <trkpt lat="45.58797" lon="6.61866">
        <ele>2459.8000488281</ele>
        <time>2015-11-27T11:46:09.000Z</time>
      </trkpt>
      <trkpt lat="45.58797" lon="6.61866">
        <ele>2460</ele>
        <time>2015-11-27T11:46:10.000Z</time>
      </trkpt>
      <trkpt lat="45.58799" lon="6.61862">
        <ele>2460.8000488281</ele>
        <time>2015-11-27T11:46:14.000Z</time>
      </trkpt>
      <trkpt lat="45.58799" lon="6.61861">
        <ele>2461.1999511719</ele>
        <time>2015-11-27T11:46:15.000Z</time>
      </trkpt>
      <trkpt lat="45.588" lon="6.61859">
        <ele>2461.3999023438</ele>
        <time>2015-11-27T11:46:16.000Z</time>
      </trkpt>
      <trkpt lat="45.58799" lon="6.61859">
        <ele>2461.6000976562</ele>
        <time>2015-11-27T11:46:17.000Z</time>
      </trkpt>
      <trkpt lat="45.588" lon="6.61856">
        <ele>2462</ele>
        <time>2015-11-27T11:46:19.000Z</time>
      </trkpt>
      <trkpt lat="45.588" lon="6.61856">
        <ele>2462.1999511719</ele>
        <time>2015-11-27T11:46:20.000Z</time>
      </trkpt>
      <trkpt lat="45.58802" lon="6.61851">
        <ele>2462.8000488281</ele>
        <time>2015-11-27T11:46:24.000Z</time>
      </trkpt>
      <trkpt lat="45.58803" lon="6.6185">
        <ele>2463.1999511719</ele>
        <time>2015-11-27T11:46:27.000Z</time>
      </trkpt>
      <trkpt lat="45.58804" lon="6.61848">
        <ele>2463.6000976562</ele>
        <time>2015-11-27T11:46:29.000Z</time>
      </trkpt>
      <trkpt lat="45.58804" lon="6.61845">
        <ele>2464.3999023438</ele>
        <time>2015-11-27T11:46:32.000Z</time>
      </trkpt>
      <trkpt lat="45.58805" lon="6.61843">
        <ele>2464.8000488281</ele>
        <time>2015-11-27T11:46:34.000Z</time>
      </trkpt>
      <trkpt lat="45.58805" lon="6.61841">
        <ele>2465.6000976562</ele>
        <time>2015-11-27T11:46:37.000Z</time>
      </trkpt>
      <trkpt lat="45.58805" lon="6.6184">
        <ele>2466</ele>
        <time>2015-11-27T11:46:39.000Z</time>
      </trkpt>
      <trkpt lat="45.58807" lon="6.61835">
        <ele>2466.6000976562</ele>
        <time>2015-11-27T11:46:44.000Z</time>
      </trkpt>
      <trkpt lat="45.58807" lon="6.61834">
        <ele>2466.8000488281</ele>
        <time>2015-11-27T11:46:45.000Z</time>
      </trkpt>
      <trkpt lat="45.58809" lon="6.61831">
        <ele>2467.8000488281</ele>
        <time>2015-11-27T11:46:50.000Z</time>
      </trkpt>
      <trkpt lat="45.58809" lon="6.61831">
        <ele>2468</ele>
        <time>2015-11-27T11:46:51.000Z</time>
      </trkpt>
      <trkpt lat="45.5881" lon="6.61827">
        <ele>2469</ele>
        <time>2015-11-27T11:46:56.000Z</time>
      </trkpt>
      <trkpt lat="45.5881" lon="6.61826">
        <ele>2469</ele>
        <time>2015-11-27T11:46:57.000Z</time>
      </trkpt>
      <trkpt lat="45.58812" lon="6.61823">
        <ele>2470</ele>
        <time>2015-11-27T11:47:00.000Z</time>
      </trkpt>
      <trkpt lat="45.58812" lon="6.61821">
        <ele>2470.3999023438</ele>
        <time>2015-11-27T11:47:02.000Z</time>
      </trkpt>
      <trkpt lat="45.58812" lon="6.61821">
        <ele>2470.6000976562</ele>
        <time>2015-11-27T11:47:03.000Z</time>
      </trkpt>
      <trkpt lat="45.58813" lon="6.6182">
        <ele>2471</ele>
        <time>2015-11-27T11:47:05.000Z</time>
      </trkpt>
      <trkpt lat="45.58814" lon="6.61819">
        <ele>2472</ele>
        <time>2015-11-27T11:47:09.000Z</time>
      </trkpt>
      <trkpt lat="45.58814" lon="6.61819">
        <ele>2472.1999511719</ele>
        <time>2015-11-27T11:47:10.000Z</time>
      </trkpt>
      <trkpt lat="45.58816" lon="6.61819">
        <ele>2473.3999023438</ele>
        <time>2015-11-27T11:47:14.000Z</time>
      </trkpt>
      <trkpt lat="45.58819" lon="6.61817">
        <ele>2474.3999023438</ele>
        <time>2015-11-27T11:47:19.000Z</time>
      </trkpt>
      <trkpt lat="45.58823" lon="6.61817">
        <ele>2475.1999511719</ele>
        <time>2015-11-27T11:47:22.000Z</time>
      </trkpt>
      <trkpt lat="45.58825" lon="6.61817">
        <ele>2475.6000976562</ele>
        <time>2015-11-27T11:47:24.000Z</time>
      </trkpt>
      <trkpt lat="45.58826" lon="6.61818">
        <ele>2476.8000488281</ele>
        <time>2015-11-27T11:47:28.000Z</time>
      </trkpt>
      <trkpt lat="45.58827" lon="6.61819">
        <ele>2477.1999511719</ele>
        <time>2015-11-27T11:47:30.000Z</time>
      </trkpt>
      <trkpt lat="45.58828" lon="6.61821">
        <ele>2478</ele>
        <time>2015-11-27T11:47:33.000Z</time>
      </trkpt>
      <trkpt lat="45.58828" lon="6.61821">
        <ele>2478.8000488281</ele>
        <time>2015-11-27T11:47:38.000Z</time>
      </trkpt>
      <trkpt lat="45.58829" lon="6.61824">
        <ele>2479.1999511719</ele>
        <time>2015-11-27T11:47:50.000Z</time>
      </trkpt>
      <trkpt lat="45.5883" lon="6.61827">
        <ele>2480.1999511719</ele>
        <time>2015-11-27T11:47:55.000Z</time>
      </trkpt>
      <trkpt lat="45.5883" lon="6.61828">
        <ele>2480.6000976562</ele>
        <time>2015-11-27T11:47:57.000Z</time>
      </trkpt>
      <trkpt lat="45.58831" lon="6.61829">
        <ele>2481.3999023438</ele>
        <time>2015-11-27T11:48:00.000Z</time>
      </trkpt>
      <trkpt lat="45.58833" lon="6.61831">
        <ele>2482.6000976562</ele>
        <time>2015-11-27T11:48:04.000Z</time>
      </trkpt>
      <trkpt lat="45.58835" lon="6.61833">
        <ele>2483.6000976562</ele>
        <time>2015-11-27T11:48:08.000Z</time>
      </trkpt>
      <trkpt lat="45.58838" lon="6.61832">
        <ele>2484.8000488281</ele>
        <time>2015-11-27T11:48:12.000Z</time>
      </trkpt>
      <trkpt lat="45.5884" lon="6.61833">
        <ele>2486</ele>
        <time>2015-11-27T11:48:17.000Z</time>
      </trkpt>
      <trkpt lat="45.58841" lon="6.61833">
        <ele>2487</ele>
        <time>2015-11-27T11:48:21.000Z</time>
      </trkpt>
      <trkpt lat="45.58842" lon="6.61829">
        <ele>2487.8000488281</ele>
        <time>2015-11-27T11:48:27.000Z</time>
      </trkpt>
      <trkpt lat="45.58843" lon="6.61825">
        <ele>2488.1999511719</ele>
        <time>2015-11-27T11:48:30.000Z</time>
      </trkpt>
      <trkpt lat="45.58844" lon="6.61824">
        <ele>2488.3999023438</ele>
        <time>2015-11-27T11:48:32.000Z</time>
      </trkpt>
      <trkpt lat="45.58847" lon="6.6182">
        <ele>2489.1999511719</ele>
        <time>2015-11-27T11:48:37.000Z</time>
      </trkpt>
      <trkpt lat="45.58848" lon="6.61819">
        <ele>2489.3999023438</ele>
        <time>2015-11-27T11:48:38.000Z</time>
      </trkpt>
      <trkpt lat="45.58851" lon="6.61814">
        <ele>2490</ele>
        <time>2015-11-27T11:48:44.000Z</time>
      </trkpt>
      <trkpt lat="45.58852" lon="6.61811">
        <ele>2490.3999023438</ele>
        <time>2015-11-27T11:48:47.000Z</time>
      </trkpt>
      <trkpt lat="45.58854" lon="6.61808">
        <ele>2490.6000976562</ele>
        <time>2015-11-27T11:48:50.000Z</time>
      </trkpt>
      <trkpt lat="45.58857" lon="6.61802">
        <ele>2491.1999511719</ele>
        <time>2015-11-27T11:48:56.000Z</time>
      </trkpt>
      <trkpt lat="45.58857" lon="6.61801">
        <ele>2491.3999023438</ele>
        <time>2015-11-27T11:48:58.000Z</time>
      </trkpt>
      <trkpt lat="45.5886" lon="6.61798">
        <ele>2492.1999511719</ele>
        <time>2015-11-27T11:49:02.000Z</time>
      </trkpt>
      <trkpt lat="45.58862" lon="6.61796">
        <ele>2492.6000976562</ele>
        <time>2015-11-27T11:49:04.000Z</time>
      </trkpt>
      <trkpt lat="45.58863" lon="6.61794">
        <ele>2493.1999511719</ele>
        <time>2015-11-27T11:49:08.000Z</time>
      </trkpt>
      <trkpt lat="45.58868" lon="6.61792">
        <ele>2493.8000488281</ele>
        <time>2015-11-27T11:49:12.000Z</time>
      </trkpt>
      <trkpt lat="45.5887" lon="6.6179">
        <ele>2494</ele>
        <time>2015-11-27T11:49:14.000Z</time>
      </trkpt>
      <trkpt lat="45.58872" lon="6.61788">
        <ele>2494.8000488281</ele>
        <time>2015-11-27T11:49:19.000Z</time>
      </trkpt>
      <trkpt lat="45.58874" lon="6.61786">
        <ele>2495.1999511719</ele>
        <time>2015-11-27T11:49:21.000Z</time>
      </trkpt>
      <trkpt lat="45.58878" lon="6.61782">
        <ele>2496</ele>
        <time>2015-11-27T11:49:27.000Z</time>
      </trkpt>
      <trkpt lat="45.58882" lon="6.61777">
        <ele>2496.1999511719</ele>
        <time>2015-11-27T11:49:33.000Z</time>
      </trkpt>
      <trkpt lat="45.58886" lon="6.61773">
        <ele>2496.8000488281</ele>
        <time>2015-11-27T11:49:39.000Z</time>
      </trkpt>
      <trkpt lat="45.58888" lon="6.6177">
        <ele>2497</ele>
        <time>2015-11-27T11:49:41.000Z</time>
      </trkpt>
      <trkpt lat="45.58892" lon="6.61767">
        <ele>2497.3999023438</ele>
        <time>2015-11-27T11:49:45.000Z</time>
      </trkpt>
      <trkpt lat="45.58894" lon="6.61765">
        <ele>2498.1999511719</ele>
        <time>2015-11-27T11:49:48.000Z</time>
      </trkpt>
      <trkpt lat="45.58896" lon="6.61762">
        <ele>2498.3999023438</ele>
        <time>2015-11-27T11:49:50.000Z</time>
      </trkpt>
      <trkpt lat="45.58899" lon="6.61758">
        <ele>2499</ele>
        <time>2015-11-27T11:49:55.000Z</time>
      </trkpt>
      <trkpt lat="45.589" lon="6.61754">
        <ele>2499.3999023438</ele>
        <time>2015-11-27T11:49:57.000Z</time>
      </trkpt>
      <trkpt lat="45.58902" lon="6.6175">
        <ele>2500</ele>
        <time>2015-11-27T11:50:00.000Z</time>
      </trkpt>
      <trkpt lat="45.58903" lon="6.61746">
        <ele>2500.3999023438</ele>
        <time>2015-11-27T11:50:04.000Z</time>
      </trkpt>
      <trkpt lat="45.58904" lon="6.61744">
        <ele>2500.8000488281</ele>
        <time>2015-11-27T11:50:06.000Z</time>
      </trkpt>
      <trkpt lat="45.58906" lon="6.61739">
        <ele>2501.6000976562</ele>
        <time>2015-11-27T11:50:11.000Z</time>
      </trkpt>
      <trkpt lat="45.58906" lon="6.61739">
        <ele>2502</ele>
        <time>2015-11-27T11:50:12.000Z</time>
      </trkpt>
      <trkpt lat="45.58908" lon="6.61734">
        <ele>2502.6000976562</ele>
        <time>2015-11-27T11:50:16.000Z</time>
      </trkpt>
      <trkpt lat="45.58908" lon="6.61733">
        <ele>2502.8000488281</ele>
        <time>2015-11-27T11:50:17.000Z</time>
      </trkpt>
      <trkpt lat="45.5891" lon="6.61728">
        <ele>2503.8000488281</ele>
        <time>2015-11-27T11:50:22.000Z</time>
      </trkpt>
      <trkpt lat="45.58913" lon="6.61721">
        <ele>2504.1999511719</ele>
        <time>2015-11-27T11:50:27.000Z</time>
      </trkpt>
      <trkpt lat="45.58914" lon="6.61715">
        <ele>2504.8000488281</ele>
        <time>2015-11-27T11:50:31.000Z</time>
      </trkpt>
      <trkpt lat="45.58914" lon="6.61714">
        <ele>2505.1999511719</ele>
        <time>2015-11-27T11:50:33.000Z</time>
      </trkpt>
      <trkpt lat="45.58916" lon="6.61709">
        <ele>2506</ele>
        <time>2015-11-27T11:50:36.000Z</time>
      </trkpt>
      <trkpt lat="45.58917" lon="6.61706">
        <ele>2506.3999023438</ele>
        <time>2015-11-27T11:50:38.000Z</time>
      </trkpt>
      <trkpt lat="45.5892" lon="6.61702">
        <ele>2507</ele>
        <time>2015-11-27T11:50:43.000Z</time>
      </trkpt>
      <trkpt lat="45.58922" lon="6.61696">
        <ele>2507.1999511719</ele>
        <time>2015-11-27T11:50:49.000Z</time>
      </trkpt>
      <trkpt lat="45.58922" lon="6.61694">
        <ele>2507.6000976562</ele>
        <time>2015-11-27T11:50:55.000Z</time>
      </trkpt>
      <trkpt lat="45.58922" lon="6.61694">
        <ele>2508</ele>
        <time>2015-11-27T11:51:00.000Z</time>
      </trkpt>
      <trkpt lat="45.58922" lon="6.61694">
        <ele>2508.1999511719</ele>
        <time>2015-11-27T11:51:14.000Z</time>
      </trkpt>
      <trkpt lat="45.58922" lon="6.61694">
        <ele>2508.3999023438</ele>
        <time>2015-11-27T11:51:30.000Z</time>
      </trkpt>
      <trkpt lat="45.58922" lon="6.61694">
        <ele>2508.1999511719</ele>
        <time>2015-11-27T11:51:56.000Z</time>
      </trkpt>
      <trkpt lat="45.58922" lon="6.61691">
        <ele>2508.3999023438</ele>
        <time>2015-11-27T11:52:05.000Z</time>
      </trkpt>
      <trkpt lat="45.58922" lon="6.61686">
        <ele>2508.6000976562</ele>
        <time>2015-11-27T11:52:09.000Z</time>
      </trkpt>
      <trkpt lat="45.58921" lon="6.61684">
        <ele>2508.6000976562</ele>
        <time>2015-11-27T11:52:11.000Z</time>
      </trkpt>
      <trkpt lat="45.58921" lon="6.61676">
        <ele>2509.1999511719</ele>
        <time>2015-11-27T11:52:15.000Z</time>
      </trkpt>
      <trkpt lat="45.58921" lon="6.61671">
        <ele>2509.8000488281</ele>
        <time>2015-11-27T11:52:18.000Z</time>
      </trkpt>
      <trkpt lat="45.58922" lon="6.61666">
        <ele>2510.1999511719</ele>
        <time>2015-11-27T11:52:22.000Z</time>
      </trkpt>
      <trkpt lat="45.58923" lon="6.61665">
        <ele>2510.3999023438</ele>
        <time>2015-11-27T11:52:23.000Z</time>
      </trkpt>
      <trkpt lat="45.58924" lon="6.61659">
        <ele>2511.3999023438</ele>
        <time>2015-11-27T11:52:28.000Z</time>
      </trkpt>
      <trkpt lat="45.58925" lon="6.61658">
        <ele>2511.6000976562</ele>
        <time>2015-11-27T11:52:29.000Z</time>
      </trkpt>
      <trkpt lat="45.58925" lon="6.61655">
        <ele>2512.6000976562</ele>
        <time>2015-11-27T11:52:33.000Z</time>
      </trkpt>
      <trkpt lat="45.58926" lon="6.61652">
        <ele>2513</ele>
        <time>2015-11-27T11:52:35.000Z</time>
      </trkpt>
      <trkpt lat="45.58926" lon="6.61652">
        <ele>2513.6000976562</ele>
        <time>2015-11-27T11:52:37.000Z</time>
      </trkpt>
      <trkpt lat="45.58927" lon="6.61648">
        <ele>2514.8000488281</ele>
        <time>2015-11-27T11:52:41.000Z</time>
      </trkpt>
      <trkpt lat="45.58926" lon="6.61643">
        <ele>2515.8000488281</ele>
        <time>2015-11-27T11:52:46.000Z</time>
      </trkpt>
      <trkpt lat="45.58925" lon="6.61641">
        <ele>2517</ele>
        <time>2015-11-27T11:52:50.000Z</time>
      </trkpt>
      <trkpt lat="45.58925" lon="6.6164">
        <ele>2517.3999023438</ele>
        <time>2015-11-27T11:52:52.000Z</time>
      </trkpt>
      <trkpt lat="45.58925" lon="6.61637">
        <ele>2518</ele>
        <time>2015-11-27T11:52:55.000Z</time>
      </trkpt>
      <trkpt lat="45.58924" lon="6.61635">
        <ele>2518.8000488281</ele>
        <time>2015-11-27T11:52:58.000Z</time>
      </trkpt>
      <trkpt lat="45.58924" lon="6.61633">
        <ele>2519.1999511719</ele>
        <time>2015-11-27T11:53:00.000Z</time>
      </trkpt>
      <trkpt lat="45.58923" lon="6.61632">
        <ele>2520</ele>
        <time>2015-11-27T11:53:04.000Z</time>
      </trkpt>
      <trkpt lat="45.58923" lon="6.61632">
        <ele>2520.1999511719</ele>
        <time>2015-11-27T11:53:06.000Z</time>
      </trkpt>
      <trkpt lat="45.58923" lon="6.61632">
        <ele>2521.3999023438</ele>
        <time>2015-11-27T11:53:12.000Z</time>
      </trkpt>
      <trkpt lat="45.58924" lon="6.61631">
        <ele>2522.6000976562</ele>
        <time>2015-11-27T11:53:18.000Z</time>
      </trkpt>
      <trkpt lat="45.58925" lon="6.6163">
        <ele>2522.6000976562</ele>
        <time>2015-11-27T11:53:19.000Z</time>
      </trkpt>
      <trkpt lat="45.58926" lon="6.61629">
        <ele>2523.3999023438</ele>
        <time>2015-11-27T11:53:24.000Z</time>
      </trkpt>
      <trkpt lat="45.58926" lon="6.61629">
        <ele>2523.8000488281</ele>
        <time>2015-11-27T11:53:25.000Z</time>
      </trkpt>
      <trkpt lat="45.58926" lon="6.61629">
        <ele>2525</ele>
        <time>2015-11-27T11:53:29.000Z</time>
      </trkpt>
      <trkpt lat="45.58926" lon="6.61629">
        <ele>2525.1999511719</ele>
        <time>2015-11-27T11:53:31.000Z</time>
      </trkpt>
      <trkpt lat="45.58926" lon="6.61629">
        <ele>2526</ele>
        <time>2015-11-27T11:53:36.000Z</time>
      </trkpt>
      <trkpt lat="45.58926" lon="6.61627">
        <ele>2526.6000976562</ele>
        <time>2015-11-27T11:53:38.000Z</time>
      </trkpt>
      <trkpt lat="45.58926" lon="6.61623">
        <ele>2527</ele>
        <time>2015-11-27T11:53:40.000Z</time>
      </trkpt>
      <trkpt lat="45.58926" lon="6.61619">
        <ele>2527.6000976562</ele>
        <time>2015-11-27T11:53:43.000Z</time>
      </trkpt>
      <trkpt lat="45.58926" lon="6.61618">
        <ele>2528.1999511719</ele>
        <time>2015-11-27T11:53:45.000Z</time>
      </trkpt>
      <trkpt lat="45.58926" lon="6.61613">
        <ele>2529.3999023438</ele>
        <time>2015-11-27T11:53:49.000Z</time>
      </trkpt>
      <trkpt lat="45.58928" lon="6.61606">
        <ele>2530.1999511719</ele>
        <time>2015-11-27T11:53:54.000Z</time>
      </trkpt>
      <trkpt lat="45.58928" lon="6.61605">
        <ele>2530.3999023438</ele>
        <time>2015-11-27T11:53:55.000Z</time>
      </trkpt>
      <trkpt lat="45.58932" lon="6.61603">
        <ele>2531.3999023438</ele>
        <time>2015-11-27T11:54:01.000Z</time>
      </trkpt>
      <trkpt lat="45.58933" lon="6.61603">
        <ele>2531.3999023438</ele>
        <time>2015-11-27T11:54:02.000Z</time>
      </trkpt>
      <trkpt lat="45.58935" lon="6.61601">
        <ele>2532.1999511719</ele>
        <time>2015-11-27T11:54:07.000Z</time>
      </trkpt>
      <trkpt lat="45.58936" lon="6.616">
        <ele>2532.6000976562</ele>
        <time>2015-11-27T11:54:10.000Z</time>
      </trkpt>
      <trkpt lat="45.58936" lon="6.616">
        <ele>2533.3999023438</ele>
        <time>2015-11-27T11:54:15.000Z</time>
      </trkpt>
      <trkpt lat="45.58936" lon="6.616">
        <ele>2533.6000976562</ele>
        <time>2015-11-27T11:54:18.000Z</time>
      </trkpt>
      <trkpt lat="45.58936" lon="6.616">
        <ele>2533.6000976562</ele>
        <time>2015-11-27T11:54:21.000Z</time>
      </trkpt>
      <trkpt lat="45.58936" lon="6.616">
        <ele>2534</ele>
        <time>2015-11-27T11:54:32.000Z</time>
      </trkpt>
      <trkpt lat="45.58936" lon="6.616">
        <ele>2534</ele>
        <time>2015-11-27T11:54:44.000Z</time>
      </trkpt>
      <trkpt lat="45.58937" lon="6.616">
        <ele>2533.8000488281</ele>
        <time>2015-11-27T11:55:05.000Z</time>
      </trkpt>
      <trkpt lat="45.58937" lon="6.616">
        <ele>2534.1999511719</ele>
        <time>2015-11-27T11:55:21.000Z</time>
      </trkpt>
      <trkpt lat="45.58937" lon="6.616">
        <ele>2534.1999511719</ele>
        <time>2015-11-27T11:55:41.000Z</time>
      </trkpt>
      <trkpt lat="45.58937" lon="6.616">
        <ele>2534.1999511719</ele>
        <time>2015-11-27T11:55:53.000Z</time>
      </trkpt>
      <trkpt lat="45.58937" lon="6.616">
        <ele>2534</ele>
        <time>2015-11-27T11:56:02.000Z</time>
      </trkpt>
      <trkpt lat="45.58937" lon="6.616">
        <ele>2534.1999511719</ele>
        <time>2015-11-27T11:56:17.000Z</time>
      </trkpt>
      <trkpt lat="45.58937" lon="6.616">
        <ele>2534.6000976562</ele>
        <time>2015-11-27T11:56:34.000Z</time>
      </trkpt>
      <trkpt lat="45.58937" lon="6.616">
        <ele>2534.6000976562</ele>
        <time>2015-11-27T11:56:35.000Z</time>
      </trkpt>
      <trkpt lat="45.58938" lon="6.616">
        <ele>2534.1999511719</ele>
        <time>2015-11-27T11:56:56.000Z</time>
      </trkpt>
      <trkpt lat="45.58938" lon="6.616">
        <ele>2534.1999511719</ele>
        <time>2015-11-27T11:57:13.000Z</time>
      </trkpt>
      <trkpt lat="45.58938" lon="6.616">
        <ele>2534.3999023438</ele>
        <time>2015-11-27T11:57:30.000Z</time>
      </trkpt>
      <trkpt lat="45.58938" lon="6.616">
        <ele>2534.3999023438</ele>
        <time>2015-11-27T11:57:49.000Z</time>
      </trkpt>
      <trkpt lat="45.58938" lon="6.616">
        <ele>2534.6000976562</ele>
        <time>2015-11-27T11:58:06.000Z</time>
      </trkpt>
      <trkpt lat="45.58938" lon="6.616">
        <ele>2534.6000976562</ele>
        <time>2015-11-27T11:58:20.000Z</time>
      </trkpt>
      <trkpt lat="45.58938" lon="6.616">
        <ele>2534.3999023438</ele>
        <time>2015-11-27T11:58:32.000Z</time>
      </trkpt>
      <trkpt lat="45.58938" lon="6.616">
        <ele>2534.6000976562</ele>
        <time>2015-11-27T11:58:47.000Z</time>
      </trkpt>
      <trkpt lat="45.58938" lon="6.616">
        <ele>2534.3999023438</ele>
        <time>2015-11-27T11:59:01.000Z</time>
      </trkpt>
      <trkpt lat="45.58938" lon="6.616">
        <ele>2534.6000976562</ele>
        <time>2015-11-27T11:59:16.000Z</time>
      </trkpt>
      <trkpt lat="45.58939" lon="6.61599">
        <ele>2534.8000488281</ele>
        <time>2015-11-27T11:59:31.000Z</time>
      </trkpt>
      <trkpt lat="45.58939" lon="6.61599">
        <ele>2535</ele>
        <time>2015-11-27T11:59:52.000Z</time>
      </trkpt>
      <trkpt lat="45.58939" lon="6.61599">
        <ele>2535</ele>
        <time>2015-11-27T12:00:04.000Z</time>
      </trkpt>
      <trkpt lat="45.58939" lon="6.616">
        <ele>2535.1999511719</ele>
        <time>2015-11-27T12:00:13.000Z</time>
      </trkpt>
      <trkpt lat="45.58939" lon="6.616">
        <ele>2535.1999511719</ele>
        <time>2015-11-27T12:00:32.000Z</time>
      </trkpt>
      <trkpt lat="45.58939" lon="6.616">
        <ele>2535.1999511719</ele>
        <time>2015-11-27T12:00:46.000Z</time>
      </trkpt>
      <trkpt lat="45.58939" lon="6.616">
        <ele>2535.1999511719</ele>
        <time>2015-11-27T12:01:01.000Z</time>
      </trkpt>
      <trkpt lat="45.58939" lon="6.616">
        <ele>2535.3999023438</ele>
        <time>2015-11-27T12:01:14.000Z</time>
      </trkpt>
      <trkpt lat="45.58939" lon="6.616">
        <ele>2535.3999023438</ele>
        <time>2015-11-27T12:01:20.000Z</time>
      </trkpt>
      <trkpt lat="45.58939" lon="6.616">
        <ele>2535.3999023438</ele>
        <time>2015-11-27T12:01:35.000Z</time>
      </trkpt>
      <trkpt lat="45.58939" lon="6.616">
        <ele>2535.6000976562</ele>
        <time>2015-11-27T12:02:01.000Z</time>
      </trkpt>
      <trkpt lat="45.58939" lon="6.616">
        <ele>2535.6000976562</ele>
        <time>2015-11-27T12:02:19.000Z</time>
      </trkpt>
      <trkpt lat="45.58939" lon="6.616">
        <ele>2535.8000488281</ele>
        <time>2015-11-27T12:02:28.000Z</time>
      </trkpt>
      <trkpt lat="45.58939" lon="6.616">
        <ele>2535.6000976562</ele>
        <time>2015-11-27T12:02:39.000Z</time>
      </trkpt>
      <trkpt lat="45.5894" lon="6.616">
        <ele>2535.6000976562</ele>
        <time>2015-11-27T12:02:58.000Z</time>
      </trkpt>
      <trkpt lat="45.5894" lon="6.616">
        <ele>2535.8000488281</ele>
        <time>2015-11-27T12:03:15.000Z</time>
      </trkpt>
      <trkpt lat="45.5894" lon="6.616">
        <ele>2535.8000488281</ele>
        <time>2015-11-27T12:03:39.000Z</time>
      </trkpt>
      <trkpt lat="45.5894" lon="6.616">
        <ele>2535.6000976562</ele>
        <time>2015-11-27T12:03:56.000Z</time>
      </trkpt>
      <trkpt lat="45.5894" lon="6.61599">
        <ele>2535.6000976562</ele>
        <time>2015-11-27T12:04:11.000Z</time>
      </trkpt>
      <trkpt lat="45.5894" lon="6.61599">
        <ele>2535.8000488281</ele>
        <time>2015-11-27T12:04:28.000Z</time>
      </trkpt>
      <trkpt lat="45.5894" lon="6.61599">
        <ele>2535.8000488281</ele>
        <time>2015-11-27T12:04:39.000Z</time>
      </trkpt>
      <trkpt lat="45.5894" lon="6.61599">
        <ele>2535.6000976562</ele>
        <time>2015-11-27T12:04:48.000Z</time>
      </trkpt>
      <trkpt lat="45.5894" lon="6.61599">
        <ele>2535.8000488281</ele>
        <time>2015-11-27T12:05:08.000Z</time>
      </trkpt>
      <trkpt lat="45.5894" lon="6.61599">
        <ele>2535.3999023438</ele>
        <time>2015-11-27T12:05:27.000Z</time>
      </trkpt>
      <trkpt lat="45.5894" lon="6.61599">
        <ele>2535.3999023438</ele>
        <time>2015-11-27T12:05:47.000Z</time>
      </trkpt>
      <trkpt lat="45.5894" lon="6.61599">
        <ele>2535.3999023438</ele>
        <time>2015-11-27T12:06:00.000Z</time>
      </trkpt>
      <trkpt lat="45.58941" lon="6.61599">
        <ele>2535.3999023438</ele>
        <time>2015-11-27T12:06:12.000Z</time>
      </trkpt>
      <trkpt lat="45.58941" lon="6.61599">
        <ele>2535.3999023438</ele>
        <time>2015-11-27T12:06:23.000Z</time>
      </trkpt>
      <trkpt lat="45.58941" lon="6.61599">
        <ele>2535.3999023438</ele>
        <time>2015-11-27T12:06:39.000Z</time>
      </trkpt>
      <trkpt lat="45.58941" lon="6.61599">
        <ele>2535.3999023438</ele>
        <time>2015-11-27T12:06:50.000Z</time>
      </trkpt>
      <trkpt lat="45.58941" lon="6.61599">
        <ele>2535.1999511719</ele>
        <time>2015-11-27T12:07:09.000Z</time>
      </trkpt>
      <trkpt lat="45.58941" lon="6.61599">
        <ele>2535.1999511719</ele>
        <time>2015-11-27T12:07:25.000Z</time>
      </trkpt>
      <trkpt lat="45.58941" lon="6.61598">
        <ele>2535.3999023438</ele>
        <time>2015-11-27T12:07:31.000Z</time>
      </trkpt>
      <trkpt lat="45.58941" lon="6.61598">
        <ele>2535.1999511719</ele>
        <time>2015-11-27T12:07:40.000Z</time>
      </trkpt>
      <trkpt lat="45.58941" lon="6.61598">
        <ele>2535.3999023438</ele>
        <time>2015-11-27T12:07:49.000Z</time>
      </trkpt>
      <trkpt lat="45.58941" lon="6.61598">
        <ele>2535.1999511719</ele>
        <time>2015-11-27T12:07:56.000Z</time>
      </trkpt>
      <trkpt lat="45.58941" lon="6.61598">
        <ele>2535.6000976562</ele>
        <time>2015-11-27T12:08:11.000Z</time>
      </trkpt>
      <trkpt lat="45.58941" lon="6.61598">
        <ele>2535.6000976562</ele>
        <time>2015-11-27T12:08:26.000Z</time>
      </trkpt>
      <trkpt lat="45.58941" lon="6.61598">
        <ele>2535.3999023438</ele>
        <time>2015-11-27T12:08:40.000Z</time>
      </trkpt>
      <trkpt lat="45.58941" lon="6.61598">
        <ele>2535.1999511719</ele>
        <time>2015-11-27T12:08:57.000Z</time>
      </trkpt>
      <trkpt lat="45.58941" lon="6.61598">
        <ele>2535.3999023438</ele>
        <time>2015-11-27T12:09:10.000Z</time>
      </trkpt>
      <trkpt lat="45.58941" lon="6.61598">
        <ele>2535.3999023438</ele>
        <time>2015-11-27T12:09:24.000Z</time>
      </trkpt>
      <trkpt lat="45.58942" lon="6.61597">
        <ele>2535.3999023438</ele>
        <time>2015-11-27T12:09:41.000Z</time>
      </trkpt>
      <trkpt lat="45.58946" lon="6.61596">
        <ele>2535.3999023438</ele>
        <time>2015-11-27T12:09:49.000Z</time>
      </trkpt>
      <trkpt lat="45.58949" lon="6.61597">
        <ele>2534.8000488281</ele>
        <time>2015-11-27T12:09:58.000Z</time>
      </trkpt>
      <trkpt lat="45.58951" lon="6.61596">
        <ele>2534.6000976562</ele>
        <time>2015-11-27T12:10:02.000Z</time>
      </trkpt>
      <trkpt lat="45.58951" lon="6.61596">
        <ele>2534</ele>
        <time>2015-11-27T12:10:09.000Z</time>
      </trkpt>
      <trkpt lat="45.58952" lon="6.61596">
        <ele>2533.6000976562</ele>
        <time>2015-11-27T12:10:13.000Z</time>
      </trkpt>
      <trkpt lat="45.58954" lon="6.61595">
        <ele>2532.6000976562</ele>
        <time>2015-11-27T12:10:18.000Z</time>
      </trkpt>
      <trkpt lat="45.58954" lon="6.61595">
        <ele>2532.3999023438</ele>
        <time>2015-11-27T12:10:19.000Z</time>
      </trkpt>
      <trkpt lat="45.58956" lon="6.61594">
        <ele>2532</ele>
        <time>2015-11-27T12:10:22.000Z</time>
      </trkpt>
      <trkpt lat="45.58961" lon="6.61591">
        <ele>2531.8000488281</ele>
        <time>2015-11-27T12:10:24.000Z</time>
      </trkpt>
      <trkpt lat="45.58967" lon="6.61588">
        <ele>2531.1999511719</ele>
        <time>2015-11-27T12:10:26.000Z</time>
      </trkpt>
      <trkpt lat="45.58971" lon="6.61586">
        <ele>2530</ele>
        <time>2015-11-27T12:10:28.000Z</time>
      </trkpt>
      <trkpt lat="45.58972" lon="6.61585">
        <ele>2529.1999511719</ele>
        <time>2015-11-27T12:10:29.000Z</time>
      </trkpt>
      <trkpt lat="45.58974" lon="6.61585">
        <ele>2528.6000976562</ele>
        <time>2015-11-27T12:10:30.000Z</time>
      </trkpt>
      <trkpt lat="45.58977" lon="6.61583">
        <ele>2527.3999023438</ele>
        <time>2015-11-27T12:10:33.000Z</time>
      </trkpt>
      <trkpt lat="45.58979" lon="6.61582">
        <ele>2527</ele>
        <time>2015-11-27T12:10:35.000Z</time>
      </trkpt>
      <trkpt lat="45.58982" lon="6.61581">
        <ele>2526.3999023438</ele>
        <time>2015-11-27T12:10:38.000Z</time>
      </trkpt>
      <trkpt lat="45.58988" lon="6.61577">
        <ele>2526</ele>
        <time>2015-11-27T12:10:41.000Z</time>
      </trkpt>
      <trkpt lat="45.58997" lon="6.61574">
        <ele>2525.1999511719</ele>
        <time>2015-11-27T12:10:43.000Z</time>
      </trkpt>
      <trkpt lat="45.59004" lon="6.61572">
        <ele>2523.3999023438</ele>
        <time>2015-11-27T12:10:45.000Z</time>
      </trkpt>
      <trkpt lat="45.59007" lon="6.61571">
        <ele>2522.3999023438</ele>
        <time>2015-11-27T12:10:46.000Z</time>
      </trkpt>
      <trkpt lat="45.5901" lon="6.61571">
        <ele>2520.3999023438</ele>
        <time>2015-11-27T12:10:48.000Z</time>
      </trkpt>
      <trkpt lat="45.59013" lon="6.6157">
        <ele>2519.1999511719</ele>
        <time>2015-11-27T12:10:50.000Z</time>
      </trkpt>
      <trkpt lat="45.59014" lon="6.6157">
        <ele>2519</ele>
        <time>2015-11-27T12:10:51.000Z</time>
      </trkpt>
      <trkpt lat="45.59019" lon="6.61569">
        <ele>2518.1999511719</ele>
        <time>2015-11-27T12:10:55.000Z</time>
      </trkpt>
      <trkpt lat="45.59024" lon="6.61566">
        <ele>2518</ele>
        <time>2015-11-27T12:10:57.000Z</time>
      </trkpt>
      <trkpt lat="45.59036" lon="6.61561">
        <ele>2516.8000488281</ele>
        <time>2015-11-27T12:11:00.000Z</time>
      </trkpt>
      <trkpt lat="45.59044" lon="6.61558">
        <ele>2513.8000488281</ele>
        <time>2015-11-27T12:11:02.000Z</time>
      </trkpt>
      <trkpt lat="45.59048" lon="6.61556">
        <ele>2513</ele>
        <time>2015-11-27T12:11:03.000Z</time>
      </trkpt>
      <trkpt lat="45.59051" lon="6.61555">
        <ele>2512.1999511719</ele>
        <time>2015-11-27T12:11:04.000Z</time>
      </trkpt>
      <trkpt lat="45.59055" lon="6.61555">
        <ele>2510.6000976562</ele>
        <time>2015-11-27T12:11:06.000Z</time>
      </trkpt>
      <trkpt lat="45.59058" lon="6.61554">
        <ele>2509.3999023438</ele>
        <time>2015-11-27T12:11:10.000Z</time>
      </trkpt>
      <trkpt lat="45.59059" lon="6.61553">
        <ele>2509.3999023438</ele>
        <time>2015-11-27T12:11:12.000Z</time>
      </trkpt>
      <trkpt lat="45.59064" lon="6.61551">
        <ele>2509.8000488281</ele>
        <time>2015-11-27T12:11:19.000Z</time>
      </trkpt>
      <trkpt lat="45.59066" lon="6.6155">
        <ele>2510</ele>
        <time>2015-11-27T12:11:30.000Z</time>
      </trkpt>
      <trkpt lat="45.59069" lon="6.61549">
        <ele>2510.1999511719</ele>
        <time>2015-11-27T12:11:36.000Z</time>
      </trkpt>
      <trkpt lat="45.59069" lon="6.61549">
        <ele>2510.3999023438</ele>
        <time>2015-11-27T12:11:38.000Z</time>
      </trkpt>
      <trkpt lat="45.59069" lon="6.61549">
        <ele>2510.6000976562</ele>
        <time>2015-11-27T12:11:46.000Z</time>
      </trkpt>
      <trkpt lat="45.59072" lon="6.61548">
        <ele>2510.6000976562</ele>
        <time>2015-11-27T12:11:55.000Z</time>
      </trkpt>
      <trkpt lat="45.59078" lon="6.61546">
        <ele>2511.3999023438</ele>
        <time>2015-11-27T12:12:01.000Z</time>
      </trkpt>
      <trkpt lat="45.59079" lon="6.61546">
        <ele>2511.6000976562</ele>
        <time>2015-11-27T12:12:02.000Z</time>
      </trkpt>
      <trkpt lat="45.59083" lon="6.61545">
        <ele>2512.6000976562</ele>
        <time>2015-11-27T12:12:07.000Z</time>
      </trkpt>
      <trkpt lat="45.59083" lon="6.61545">
        <ele>2512.8000488281</ele>
        <time>2015-11-27T12:12:08.000Z</time>
      </trkpt>
      <trkpt lat="45.59087" lon="6.61544">
        <ele>2513.8000488281</ele>
        <time>2015-11-27T12:12:12.000Z</time>
      </trkpt>
      <trkpt lat="45.59089" lon="6.61544">
        <ele>2514.1999511719</ele>
        <time>2015-11-27T12:12:15.000Z</time>
      </trkpt>
      <trkpt lat="45.59095" lon="6.61543">
        <ele>2515</ele>
        <time>2015-11-27T12:12:22.000Z</time>
      </trkpt>
      <trkpt lat="45.59099" lon="6.61542">
        <ele>2516</ele>
        <time>2015-11-27T12:12:29.000Z</time>
      </trkpt>
      <trkpt lat="45.59101" lon="6.61541">
        <ele>2516.6000976562</ele>
        <time>2015-11-27T12:12:37.000Z</time>
      </trkpt>
      <trkpt lat="45.59106" lon="6.61538">
        <ele>2517.1999511719</ele>
        <time>2015-11-27T12:12:43.000Z</time>
      </trkpt>
      <trkpt lat="45.59111" lon="6.61536">
        <ele>2518.1999511719</ele>
        <time>2015-11-27T12:12:50.000Z</time>
      </trkpt>
      <trkpt lat="45.59113" lon="6.61536">
        <ele>2518.3999023438</ele>
        <time>2015-11-27T12:12:52.000Z</time>
      </trkpt>
      <trkpt lat="45.59117" lon="6.61534">
        <ele>2518.3999023438</ele>
        <time>2015-11-27T12:12:56.000Z</time>
      </trkpt>
      <trkpt lat="45.59122" lon="6.61532">
        <ele>2518</ele>
        <time>2015-11-27T12:13:02.000Z</time>
      </trkpt>
      <trkpt lat="45.59129" lon="6.61532">
        <ele>2519</ele>
        <time>2015-11-27T12:13:09.000Z</time>
      </trkpt>
      <trkpt lat="45.59132" lon="6.61533">
        <ele>2519.3999023438</ele>
        <time>2015-11-27T12:13:12.000Z</time>
      </trkpt>
      <trkpt lat="45.59136" lon="6.61534">
        <ele>2520.1999511719</ele>
        <time>2015-11-27T12:13:17.000Z</time>
      </trkpt>
      <trkpt lat="45.59138" lon="6.61534">
        <ele>2520.3999023438</ele>
        <time>2015-11-27T12:13:20.000Z</time>
      </trkpt>
      <trkpt lat="45.59142" lon="6.61534">
        <ele>2521</ele>
        <time>2015-11-27T12:13:25.000Z</time>
      </trkpt>
      <trkpt lat="45.59143" lon="6.61533">
        <ele>2521.6000976562</ele>
        <time>2015-11-27T12:13:28.000Z</time>
      </trkpt>
      <trkpt lat="45.59144" lon="6.61533">
        <ele>2522.3999023438</ele>
        <time>2015-11-27T12:13:32.000Z</time>
      </trkpt>
      <trkpt lat="45.59144" lon="6.61532">
        <ele>2522.8000488281</ele>
        <time>2015-11-27T12:13:33.000Z</time>
      </trkpt>
      <trkpt lat="45.59147" lon="6.61532">
        <ele>2523.8000488281</ele>
        <time>2015-11-27T12:13:38.000Z</time>
      </trkpt>
      <trkpt lat="45.59148" lon="6.61531">
        <ele>2524</ele>
        <time>2015-11-27T12:13:39.000Z</time>
      </trkpt>
      <trkpt lat="45.59152" lon="6.61531">
        <ele>2524.8000488281</ele>
        <time>2015-11-27T12:13:44.000Z</time>
      </trkpt>
      <trkpt lat="45.59153" lon="6.6153">
        <ele>2525.1999511719</ele>
        <time>2015-11-27T12:13:46.000Z</time>
      </trkpt>
      <trkpt lat="45.59156" lon="6.61531">
        <ele>2526</ele>
        <time>2015-11-27T12:13:50.000Z</time>
      </trkpt>
      <trkpt lat="45.59158" lon="6.61531">
        <ele>2526.3999023438</ele>
        <time>2015-11-27T12:13:53.000Z</time>
      </trkpt>
      <trkpt lat="45.5916" lon="6.61531">
        <ele>2527</ele>
        <time>2015-11-27T12:13:56.000Z</time>
      </trkpt>
      <trkpt lat="45.5916" lon="6.61531">
        <ele>2527.8000488281</ele>
        <time>2015-11-27T12:14:01.000Z</time>
      </trkpt>
      <trkpt lat="45.5916" lon="6.61531">
        <ele>2528.1999511719</ele>
        <time>2015-11-27T12:14:04.000Z</time>
      </trkpt>
      <trkpt lat="45.59162" lon="6.61533">
        <ele>2528.3999023438</ele>
        <time>2015-11-27T12:14:11.000Z</time>
      </trkpt>
      <trkpt lat="45.59165" lon="6.61534">
        <ele>2529.1999511719</ele>
        <time>2015-11-27T12:14:15.000Z</time>
      </trkpt>
      <trkpt lat="45.59167" lon="6.61533">
        <ele>2529.6000976562</ele>
        <time>2015-11-27T12:14:18.000Z</time>
      </trkpt>
      <trkpt lat="45.5917" lon="6.61532">
        <ele>2530.3999023438</ele>
        <time>2015-11-27T12:14:23.000Z</time>
      </trkpt>
      <trkpt lat="45.59171" lon="6.61532">
        <ele>2530.6000976562</ele>
        <time>2015-11-27T12:14:24.000Z</time>
      </trkpt>
      <trkpt lat="45.59173" lon="6.61531">
        <ele>2531.3999023438</ele>
        <time>2015-11-27T12:14:28.000Z</time>
      </trkpt>
      <trkpt lat="45.59173" lon="6.61531">
        <ele>2531.8000488281</ele>
        <time>2015-11-27T12:14:30.000Z</time>
      </trkpt>
      <trkpt lat="45.59173" lon="6.61531">
        <ele>2532.3999023438</ele>
        <time>2015-11-27T12:14:35.000Z</time>
      </trkpt>
      <trkpt lat="45.59173" lon="6.61531">
        <ele>2532.6000976562</ele>
        <time>2015-11-27T12:14:36.000Z</time>
      </trkpt>
      <trkpt lat="45.59173" lon="6.61531">
        <ele>2533.6000976562</ele>
        <time>2015-11-27T12:14:41.000Z</time>
      </trkpt>
      <trkpt lat="45.59173" lon="6.61531">
        <ele>2533.8000488281</ele>
        <time>2015-11-27T12:14:42.000Z</time>
      </trkpt>
      <trkpt lat="45.59173" lon="6.61531">
        <ele>2534.1999511719</ele>
        <time>2015-11-27T12:14:44.000Z</time>
      </trkpt>
      <trkpt lat="45.59173" lon="6.61531">
        <ele>2534.8000488281</ele>
        <time>2015-11-27T12:14:47.000Z</time>
      </trkpt>
      <trkpt lat="45.59173" lon="6.61531">
        <ele>2534.8000488281</ele>
        <time>2015-11-27T12:14:48.000Z</time>
      </trkpt>
      <trkpt lat="45.59173" lon="6.61531">
        <ele>2535.8000488281</ele>
        <time>2015-11-27T12:14:54.000Z</time>
      </trkpt>
      <trkpt lat="45.59176" lon="6.61528">
        <ele>2536.3999023438</ele>
        <time>2015-11-27T12:14:59.000Z</time>
      </trkpt>
      <trkpt lat="45.59176" lon="6.61528">
        <ele>2536.8000488281</ele>
        <time>2015-11-27T12:15:02.000Z</time>
      </trkpt>
      <trkpt lat="45.59176" lon="6.61528">
        <ele>2537.3999023438</ele>
        <time>2015-11-27T12:15:06.000Z</time>
      </trkpt>
      <trkpt lat="45.59179" lon="6.61533">
        <ele>2538</ele>
        <time>2015-11-27T12:15:11.000Z</time>
      </trkpt>
      <trkpt lat="45.5918" lon="6.61535">
        <ele>2538.3999023438</ele>
        <time>2015-11-27T12:15:13.000Z</time>
      </trkpt>
      <trkpt lat="45.5918" lon="6.61535">
        <ele>2539.1999511719</ele>
        <time>2015-11-27T12:15:16.000Z</time>
      </trkpt>
      <trkpt lat="45.5918" lon="6.61535">
        <ele>2539.8000488281</ele>
        <time>2015-11-27T12:15:19.000Z</time>
      </trkpt>
      <trkpt lat="45.5918" lon="6.61535">
        <ele>2540.1999511719</ele>
        <time>2015-11-27T12:15:23.000Z</time>
      </trkpt>
      <trkpt lat="45.5918" lon="6.61535">
        <ele>2541</ele>
        <time>2015-11-27T12:15:26.000Z</time>
      </trkpt>
      <trkpt lat="45.5918" lon="6.61535">
        <ele>2541.1999511719</ele>
        <time>2015-11-27T12:15:27.000Z</time>
      </trkpt>
      <trkpt lat="45.59185" lon="6.6153">
        <ele>2542</ele>
        <time>2015-11-27T12:15:33.000Z</time>
      </trkpt>
      <trkpt lat="45.59186" lon="6.6153">
        <ele>2542.1999511719</ele>
        <time>2015-11-27T12:15:34.000Z</time>
      </trkpt>
      <trkpt lat="45.59192" lon="6.61527">
        <ele>2543</ele>
        <time>2015-11-27T12:15:39.000Z</time>
      </trkpt>
      <trkpt lat="45.59193" lon="6.61527">
        <ele>2543.3999023438</ele>
        <time>2015-11-27T12:15:41.000Z</time>
      </trkpt>
      <trkpt lat="45.59197" lon="6.61525">
        <ele>2544</ele>
        <time>2015-11-27T12:15:46.000Z</time>
      </trkpt>
      <trkpt lat="45.59198" lon="6.61525">
        <ele>2544.3999023438</ele>
        <time>2015-11-27T12:15:49.000Z</time>
      </trkpt>
      <trkpt lat="45.59198" lon="6.61525">
        <ele>2545.3999023438</ele>
        <time>2015-11-27T12:15:53.000Z</time>
      </trkpt>
      <trkpt lat="45.59198" lon="6.61525">
        <ele>2545.6000976562</ele>
        <time>2015-11-27T12:15:54.000Z</time>
      </trkpt>
      <trkpt lat="45.59198" lon="6.61525">
        <ele>2546.3999023438</ele>
        <time>2015-11-27T12:16:01.000Z</time>
      </trkpt>
      <trkpt lat="45.59198" lon="6.61525">
        <ele>2546.6000976562</ele>
        <time>2015-11-27T12:16:02.000Z</time>
      </trkpt>
      <trkpt lat="45.59198" lon="6.61525">
        <ele>2547.6000976562</ele>
        <time>2015-11-27T12:16:07.000Z</time>
      </trkpt>
      <trkpt lat="45.59198" lon="6.61525">
        <ele>2547.8000488281</ele>
        <time>2015-11-27T12:16:08.000Z</time>
      </trkpt>
      <trkpt lat="45.59198" lon="6.61525">
        <ele>2548.6000976562</ele>
        <time>2015-11-27T12:16:13.000Z</time>
      </trkpt>
      <trkpt lat="45.59198" lon="6.61525">
        <ele>2548.8000488281</ele>
        <time>2015-11-27T12:16:14.000Z</time>
      </trkpt>
      <trkpt lat="45.59198" lon="6.61525">
        <ele>2550</ele>
        <time>2015-11-27T12:16:20.000Z</time>
      </trkpt>
      <trkpt lat="45.59198" lon="6.61525">
        <ele>2551.1999511719</ele>
        <time>2015-11-27T12:16:26.000Z</time>
      </trkpt>
      <trkpt lat="45.59199" lon="6.61525">
        <ele>2551.3999023438</ele>
        <time>2015-11-27T12:16:27.000Z</time>
      </trkpt>
      <trkpt lat="45.59209" lon="6.61522">
        <ele>2552.1999511719</ele>
        <time>2015-11-27T12:16:33.000Z</time>
      </trkpt>
      <trkpt lat="45.59213" lon="6.61522">
        <ele>2552.3999023438</ele>
        <time>2015-11-27T12:16:35.000Z</time>
      </trkpt>
      <trkpt lat="45.59224" lon="6.61519">
        <ele>2553</ele>
        <time>2015-11-27T12:16:43.000Z</time>
      </trkpt>
      <trkpt lat="45.59226" lon="6.61517">
        <ele>2553.1999511719</ele>
        <time>2015-11-27T12:16:45.000Z</time>
      </trkpt>
      <trkpt lat="45.59228" lon="6.61516">
        <ele>2553.6000976562</ele>
        <time>2015-11-27T12:16:48.000Z</time>
      </trkpt>
      <trkpt lat="45.59228" lon="6.61516">
        <ele>2554.3999023438</ele>
        <time>2015-11-27T12:16:52.000Z</time>
      </trkpt>
      <trkpt lat="45.59228" lon="6.61516">
        <ele>2554.8000488281</ele>
        <time>2015-11-27T12:16:54.000Z</time>
      </trkpt>
      <trkpt lat="45.5923" lon="6.61515">
        <ele>2555.6000976562</ele>
        <time>2015-11-27T12:16:59.000Z</time>
      </trkpt>
      <trkpt lat="45.59232" lon="6.61514">
        <ele>2556.1999511719</ele>
        <time>2015-11-27T12:17:01.000Z</time>
      </trkpt>
      <trkpt lat="45.59234" lon="6.61514">
        <ele>2556.6000976562</ele>
        <time>2015-11-27T12:17:02.000Z</time>
      </trkpt>
      <trkpt lat="45.59234" lon="6.61514">
        <ele>2557</ele>
        <time>2015-11-27T12:17:10.000Z</time>
      </trkpt>
      <trkpt lat="45.59234" lon="6.61514">
        <ele>2557.6000976562</ele>
        <time>2015-11-27T12:17:14.000Z</time>
      </trkpt>
      <trkpt lat="45.59234" lon="6.61514">
        <ele>2558.3999023438</ele>
        <time>2015-11-27T12:17:17.000Z</time>
      </trkpt>
      <trkpt lat="45.59234" lon="6.61514">
        <ele>2558.8000488281</ele>
        <time>2015-11-27T12:17:19.000Z</time>
      </trkpt>
      <trkpt lat="45.59234" lon="6.61514">
        <ele>2559.3999023438</ele>
        <time>2015-11-27T12:17:27.000Z</time>
      </trkpt>
      <trkpt lat="45.59234" lon="6.61514">
        <ele>2559.3999023438</ele>
        <time>2015-11-27T12:17:40.000Z</time>
      </trkpt>
      <trkpt lat="45.59235" lon="6.61514">
        <ele>2559.3999023438</ele>
        <time>2015-11-27T12:17:55.000Z</time>
      </trkpt>
      <trkpt lat="45.59237" lon="6.61514">
        <ele>2559.3999023438</ele>
        <time>2015-11-27T12:18:06.000Z</time>
      </trkpt>
      <trkpt lat="45.59239" lon="6.61515">
        <ele>2559.3999023438</ele>
        <time>2015-11-27T12:18:07.000Z</time>
      </trkpt>
      <trkpt lat="45.59249" lon="6.61514">
        <ele>2560</ele>
        <time>2015-11-27T12:18:14.000Z</time>
      </trkpt>
      <trkpt lat="45.59252" lon="6.61514">
        <ele>2560.3999023438</ele>
        <time>2015-11-27T12:18:16.000Z</time>
      </trkpt>
      <trkpt lat="45.59264" lon="6.61517">
        <ele>2560.8000488281</ele>
        <time>2015-11-27T12:18:24.000Z</time>
      </trkpt>
      <trkpt lat="45.59271" lon="6.61518">
        <ele>2561</ele>
        <time>2015-11-27T12:18:30.000Z</time>
      </trkpt>
      <trkpt lat="45.59272" lon="6.61519">
        <ele>2561.1999511719</ele>
        <time>2015-11-27T12:18:32.000Z</time>
      </trkpt>
      <trkpt lat="45.59276" lon="6.61519">
        <ele>2562.1999511719</ele>
        <time>2015-11-27T12:18:36.000Z</time>
      </trkpt>
      <trkpt lat="45.59279" lon="6.61518">
        <ele>2563.3999023438</ele>
        <time>2015-11-27T12:18:40.000Z</time>
      </trkpt>
      <trkpt lat="45.59283" lon="6.61517">
        <ele>2564.6000976562</ele>
        <time>2015-11-27T12:18:45.000Z</time>
      </trkpt>
      <trkpt lat="45.59287" lon="6.61517">
        <ele>2565.3999023438</ele>
        <time>2015-11-27T12:18:49.000Z</time>
      </trkpt>
      <trkpt lat="45.59289" lon="6.61516">
        <ele>2565.8000488281</ele>
        <time>2015-11-27T12:18:51.000Z</time>
      </trkpt>
      <trkpt lat="45.59293" lon="6.61516">
        <ele>2566.8000488281</ele>
        <time>2015-11-27T12:18:56.000Z</time>
      </trkpt>
      <trkpt lat="45.59298" lon="6.61518">
        <ele>2568</ele>
        <time>2015-11-27T12:19:02.000Z</time>
      </trkpt>
      <trkpt lat="45.59299" lon="6.61518">
        <ele>2568.3999023438</ele>
        <time>2015-11-27T12:19:03.000Z</time>
      </trkpt>
      <trkpt lat="45.59303" lon="6.6152">
        <ele>2569.1999511719</ele>
        <time>2015-11-27T12:19:08.000Z</time>
      </trkpt>
      <trkpt lat="45.59304" lon="6.61521">
        <ele>2569.6000976562</ele>
        <time>2015-11-27T12:19:11.000Z</time>
      </trkpt>
      <trkpt lat="45.59307" lon="6.61521">
        <ele>2570.1999511719</ele>
        <time>2015-11-27T12:19:14.000Z</time>
      </trkpt>
      <trkpt lat="45.59312" lon="6.61522">
        <ele>2571.1999511719</ele>
        <time>2015-11-27T12:19:20.000Z</time>
      </trkpt>
      <trkpt lat="45.59315" lon="6.61523">
        <ele>2572.3999023438</ele>
        <time>2015-11-27T12:19:25.000Z</time>
      </trkpt>
      <trkpt lat="45.59316" lon="6.61524">
        <ele>2573.1999511719</ele>
        <time>2015-11-27T12:19:28.000Z</time>
      </trkpt>
      <trkpt lat="45.59317" lon="6.61524">
        <ele>2573.3999023438</ele>
        <time>2015-11-27T12:19:29.000Z</time>
      </trkpt>
      <trkpt lat="45.5932" lon="6.61525">
        <ele>2574.3999023438</ele>
        <time>2015-11-27T12:19:34.000Z</time>
      </trkpt>
      <trkpt lat="45.59321" lon="6.61525">
        <ele>2574.8000488281</ele>
        <time>2015-11-27T12:19:36.000Z</time>
      </trkpt>
      <trkpt lat="45.59324" lon="6.61524">
        <ele>2575.3999023438</ele>
        <time>2015-11-27T12:19:40.000Z</time>
      </trkpt>
      <trkpt lat="45.59328" lon="6.61522">
        <ele>2576</ele>
        <time>2015-11-27T12:19:45.000Z</time>
      </trkpt>
      <trkpt lat="45.59333" lon="6.61521">
        <ele>2576.3999023438</ele>
        <time>2015-11-27T12:19:50.000Z</time>
      </trkpt>
      <trkpt lat="45.59334" lon="6.6152">
        <ele>2576.6000976562</ele>
        <time>2015-11-27T12:19:51.000Z</time>
      </trkpt>
      <trkpt lat="45.59342" lon="6.61517">
        <ele>2576.3999023438</ele>
        <time>2015-11-27T12:19:58.000Z</time>
      </trkpt>
      <trkpt lat="45.59346" lon="6.61513">
        <ele>2576.1999511719</ele>
        <time>2015-11-27T12:20:04.000Z</time>
      </trkpt>
      <trkpt lat="45.59348" lon="6.61509">
        <ele>2576.3999023438</ele>
        <time>2015-11-27T12:20:09.000Z</time>
      </trkpt>
      <trkpt lat="45.5935" lon="6.61506">
        <ele>2576.8000488281</ele>
        <time>2015-11-27T12:20:11.000Z</time>
      </trkpt>
      <trkpt lat="45.59352" lon="6.61501">
        <ele>2577.1999511719</ele>
        <time>2015-11-27T12:20:15.000Z</time>
      </trkpt>
      <trkpt lat="45.59353" lon="6.61495">
        <ele>2577.3999023438</ele>
        <time>2015-11-27T12:20:20.000Z</time>
      </trkpt>
      <trkpt lat="45.59354" lon="6.61493">
        <ele>2577.6000976562</ele>
        <time>2015-11-27T12:20:22.000Z</time>
      </trkpt>
      <trkpt lat="45.59355" lon="6.61489">
        <ele>2578.3999023438</ele>
        <time>2015-11-27T12:20:27.000Z</time>
      </trkpt>
      <trkpt lat="45.59356" lon="6.61487">
        <ele>2578.8000488281</ele>
        <time>2015-11-27T12:20:29.000Z</time>
      </trkpt>
      <trkpt lat="45.59358" lon="6.61484">
        <ele>2579.1999511719</ele>
        <time>2015-11-27T12:20:33.000Z</time>
      </trkpt>
      <trkpt lat="45.59361" lon="6.6148">
        <ele>2579.6000976562</ele>
        <time>2015-11-27T12:20:39.000Z</time>
      </trkpt>
      <trkpt lat="45.59364" lon="6.61479">
        <ele>2579.8000488281</ele>
        <time>2015-11-27T12:20:43.000Z</time>
      </trkpt>
      <trkpt lat="45.59366" lon="6.61479">
        <ele>2580.1999511719</ele>
        <time>2015-11-27T12:20:46.000Z</time>
      </trkpt>
      <trkpt lat="45.59371" lon="6.61482">
        <ele>2580.8000488281</ele>
        <time>2015-11-27T12:20:51.000Z</time>
      </trkpt>
      <trkpt lat="45.59373" lon="6.61483">
        <ele>2581</ele>
        <time>2015-11-27T12:20:53.000Z</time>
      </trkpt>
      <trkpt lat="45.59379" lon="6.61486">
        <ele>2581.3999023438</ele>
        <time>2015-11-27T12:21:00.000Z</time>
      </trkpt>
      <trkpt lat="45.59382" lon="6.61487">
        <ele>2582</ele>
        <time>2015-11-27T12:21:04.000Z</time>
      </trkpt>
      <trkpt lat="45.59385" lon="6.61488">
        <ele>2582.8000488281</ele>
        <time>2015-11-27T12:21:09.000Z</time>
      </trkpt>
      <trkpt lat="45.59387" lon="6.61489">
        <ele>2583</ele>
        <time>2015-11-27T12:21:10.000Z</time>
      </trkpt>
      <trkpt lat="45.59392" lon="6.61491">
        <ele>2584.1999511719</ele>
        <time>2015-11-27T12:21:16.000Z</time>
      </trkpt>
      <trkpt lat="45.59398" lon="6.61494">
        <ele>2585.1999511719</ele>
        <time>2015-11-27T12:21:22.000Z</time>
      </trkpt>
      <trkpt lat="45.59401" lon="6.61495">
        <ele>2586</ele>
        <time>2015-11-27T12:21:25.000Z</time>
      </trkpt>
      <trkpt lat="45.59403" lon="6.61496">
        <ele>2586.6000976562</ele>
        <time>2015-11-27T12:21:27.000Z</time>
      </trkpt>
      <trkpt lat="45.59406" lon="6.61498">
        <ele>2587.3999023438</ele>
        <time>2015-11-27T12:21:31.000Z</time>
      </trkpt>
      <trkpt lat="45.59407" lon="6.61498">
        <ele>2587.6000976562</ele>
        <time>2015-11-27T12:21:32.000Z</time>
      </trkpt>
      <trkpt lat="45.5941" lon="6.615">
        <ele>2588.6000976562</ele>
        <time>2015-11-27T12:21:37.000Z</time>
      </trkpt>
      <trkpt lat="45.59411" lon="6.615">
        <ele>2588.8000488281</ele>
        <time>2015-11-27T12:21:38.000Z</time>
      </trkpt>
      <trkpt lat="45.59416" lon="6.61502">
        <ele>2589.8000488281</ele>
        <time>2015-11-27T12:21:45.000Z</time>
      </trkpt>
      <trkpt lat="45.59419" lon="6.61503">
        <ele>2590.8000488281</ele>
        <time>2015-11-27T12:21:51.000Z</time>
      </trkpt>
      <trkpt lat="45.59422" lon="6.61505">
        <ele>2591.8000488281</ele>
        <time>2015-11-27T12:21:56.000Z</time>
      </trkpt>
      <trkpt lat="45.59423" lon="6.61506">
        <ele>2592.8000488281</ele>
        <time>2015-11-27T12:22:00.000Z</time>
      </trkpt>
      <trkpt lat="45.59424" lon="6.61505">
        <ele>2593.3999023438</ele>
        <time>2015-11-27T12:22:04.000Z</time>
      </trkpt>
      <trkpt lat="45.59425" lon="6.61507">
        <ele>2594</ele>
        <time>2015-11-27T12:22:08.000Z</time>
      </trkpt>
      <trkpt lat="45.59427" lon="6.61508">
        <ele>2594.6000976562</ele>
        <time>2015-11-27T12:22:12.000Z</time>
      </trkpt>
      <trkpt lat="45.59427" lon="6.61508">
        <ele>2595.1999511719</ele>
        <time>2015-11-27T12:22:15.000Z</time>
      </trkpt>
      <trkpt lat="45.59427" lon="6.61508">
        <ele>2595.1999511719</ele>
        <time>2015-11-27T12:22:24.000Z</time>
      </trkpt>
      <trkpt lat="45.59427" lon="6.61508">
        <ele>2595.1999511719</ele>
        <time>2015-11-27T12:22:41.000Z</time>
      </trkpt>
      <trkpt lat="45.59427" lon="6.61508">
        <ele>2595.1999511719</ele>
        <time>2015-11-27T12:23:00.000Z</time>
      </trkpt>
      <trkpt lat="45.59429" lon="6.61508">
        <ele>2595</ele>
        <time>2015-11-27T12:23:12.000Z</time>
      </trkpt>
      <trkpt lat="45.59435" lon="6.61508">
        <ele>2595.6000976562</ele>
        <time>2015-11-27T12:23:19.000Z</time>
      </trkpt>
      <trkpt lat="45.59436" lon="6.61508">
        <ele>2596.1999511719</ele>
        <time>2015-11-27T12:23:22.000Z</time>
      </trkpt>
      <trkpt lat="45.5944" lon="6.61508">
        <ele>2597.1999511719</ele>
        <time>2015-11-27T12:23:27.000Z</time>
      </trkpt>
      <trkpt lat="45.59441" lon="6.61508">
        <ele>2597.1999511719</ele>
        <time>2015-11-27T12:23:28.000Z</time>
      </trkpt>
      <trkpt lat="45.59443" lon="6.61508">
        <ele>2597.8000488281</ele>
        <time>2015-11-27T12:23:33.000Z</time>
      </trkpt>
      <trkpt lat="45.59446" lon="6.61508">
        <ele>2598.1999511719</ele>
        <time>2015-11-27T12:23:38.000Z</time>
      </trkpt>
      <trkpt lat="45.59448" lon="6.61508">
        <ele>2598.6000976562</ele>
        <time>2015-11-27T12:23:43.000Z</time>
      </trkpt>
      <trkpt lat="45.59449" lon="6.61508">
        <ele>2599.1999511719</ele>
        <time>2015-11-27T12:23:52.000Z</time>
      </trkpt>
      <trkpt lat="45.59449" lon="6.61508">
        <ele>2599.1999511719</ele>
        <time>2015-11-27T12:24:11.000Z</time>
      </trkpt>
      <trkpt lat="45.59449" lon="6.61508">
        <ele>2599.3999023438</ele>
        <time>2015-11-27T12:24:16.000Z</time>
      </trkpt>
      <trkpt lat="45.59449" lon="6.61508">
        <ele>2600.1999511719</ele>
        <time>2015-11-27T12:24:20.000Z</time>
      </trkpt>
      <trkpt lat="45.59448" lon="6.61508">
        <ele>2600</ele>
        <time>2015-11-27T12:24:31.000Z</time>
      </trkpt>
      <trkpt lat="45.5945" lon="6.61509">
        <ele>2599.3999023438</ele>
        <time>2015-11-27T12:24:38.000Z</time>
      </trkpt>
      <trkpt lat="45.5945" lon="6.61509">
        <ele>2599.1999511719</ele>
        <time>2015-11-27T12:25:00.000Z</time>
      </trkpt>
      <trkpt lat="45.5945" lon="6.61509">
        <ele>2599.3999023438</ele>
        <time>2015-11-27T12:25:11.000Z</time>
      </trkpt>
      <trkpt lat="45.59449" lon="6.61509">
        <ele>2599.1999511719</ele>
        <time>2015-11-27T12:25:27.000Z</time>
      </trkpt>
      <trkpt lat="45.59449" lon="6.61509">
        <ele>2599.1999511719</ele>
        <time>2015-11-27T12:25:36.000Z</time>
      </trkpt>
      <trkpt lat="45.59449" lon="6.61509">
        <ele>2599.3999023438</ele>
        <time>2015-11-27T12:25:49.000Z</time>
      </trkpt>
      <trkpt lat="45.5945" lon="6.61509">
        <ele>2599.3999023438</ele>
        <time>2015-11-27T12:25:58.000Z</time>
      </trkpt>
      <trkpt lat="45.5945" lon="6.61509">
        <ele>2599.3999023438</ele>
        <time>2015-11-27T12:26:09.000Z</time>
      </trkpt>
      <trkpt lat="45.5945" lon="6.61509">
        <ele>2599.3999023438</ele>
        <time>2015-11-27T12:26:18.000Z</time>
      </trkpt>
      <trkpt lat="45.5945" lon="6.61509">
        <ele>2599.3999023438</ele>
        <time>2015-11-27T12:26:30.000Z</time>
      </trkpt>
      <trkpt lat="45.5945" lon="6.61509">
        <ele>2599.6000976562</ele>
        <time>2015-11-27T12:26:44.000Z</time>
      </trkpt>
      <trkpt lat="45.5945" lon="6.61509">
        <ele>2599.6000976562</ele>
        <time>2015-11-27T12:26:57.000Z</time>
      </trkpt>
      <trkpt lat="45.5945" lon="6.61509">
        <ele>2600</ele>
        <time>2015-11-27T12:27:12.000Z</time>
      </trkpt>
      <trkpt lat="45.5945" lon="6.61509">
        <ele>2599.1999511719</ele>
        <time>2015-11-27T12:27:26.000Z</time>
      </trkpt>
      <trkpt lat="45.5945" lon="6.61509">
        <ele>2599.1999511719</ele>
        <time>2015-11-27T12:27:46.000Z</time>
      </trkpt>
      <trkpt lat="45.5945" lon="6.61509">
        <ele>2599</ele>
        <time>2015-11-27T12:28:04.000Z</time>
      </trkpt>
      <trkpt lat="45.5945" lon="6.61509">
        <ele>2599.1999511719</ele>
        <time>2015-11-27T12:28:17.000Z</time>
      </trkpt>
      <trkpt lat="45.5945" lon="6.61509">
        <ele>2599.1999511719</ele>
        <time>2015-11-27T12:28:40.000Z</time>
      </trkpt>
      <trkpt lat="45.5945" lon="6.61509">
        <ele>2599</ele>
        <time>2015-11-27T12:28:58.000Z</time>
      </trkpt>
      <trkpt lat="45.5945" lon="6.61509">
        <ele>2599.1999511719</ele>
        <time>2015-11-27T12:29:04.000Z</time>
      </trkpt>
      <trkpt lat="45.5945" lon="6.61509">
        <ele>2599</ele>
        <time>2015-11-27T12:29:21.000Z</time>
      </trkpt>
      <trkpt lat="45.5945" lon="6.61509">
        <ele>2599.1999511719</ele>
        <time>2015-11-27T12:29:43.000Z</time>
      </trkpt>
      <trkpt lat="45.5945" lon="6.61509">
        <ele>2599.1999511719</ele>
        <time>2015-11-27T12:29:55.000Z</time>
      </trkpt>
      <trkpt lat="45.5945" lon="6.61509">
        <ele>2599.1999511719</ele>
        <time>2015-11-27T12:30:12.000Z</time>
      </trkpt>
      <trkpt lat="45.5945" lon="6.61509">
        <ele>2599</ele>
        <time>2015-11-27T12:30:28.000Z</time>
      </trkpt>
      <trkpt lat="45.5945" lon="6.61509">
        <ele>2598.8000488281</ele>
        <time>2015-11-27T12:30:44.000Z</time>
      </trkpt>
      <trkpt lat="45.5945" lon="6.61509">
        <ele>2598.8000488281</ele>
        <time>2015-11-27T12:31:00.000Z</time>
      </trkpt>
      <trkpt lat="45.5945" lon="6.61509">
        <ele>2598.6000976562</ele>
        <time>2015-11-27T12:31:13.000Z</time>
      </trkpt>
      <trkpt lat="45.5945" lon="6.61509">
        <ele>2598.6000976562</ele>
        <time>2015-11-27T12:31:28.000Z</time>
      </trkpt>
      <trkpt lat="45.5945" lon="6.61509">
        <ele>2598.6000976562</ele>
        <time>2015-11-27T12:31:43.000Z</time>
      </trkpt>
      <trkpt lat="45.59451" lon="6.6151">
        <ele>2598.6000976562</ele>
        <time>2015-11-27T12:32:02.000Z</time>
      </trkpt>
      <trkpt lat="45.59451" lon="6.6151">
        <ele>2598.6000976562</ele>
        <time>2015-11-27T12:32:19.000Z</time>
      </trkpt>
      <trkpt lat="45.59451" lon="6.6151">
        <ele>2598.3999023438</ele>
        <time>2015-11-27T12:32:26.000Z</time>
      </trkpt>
      <trkpt lat="45.5945" lon="6.6151">
        <ele>2598.6000976562</ele>
        <time>2015-11-27T12:32:35.000Z</time>
      </trkpt>
      <trkpt lat="45.5945" lon="6.6151">
        <ele>2598.6000976562</ele>
        <time>2015-11-27T12:32:51.000Z</time>
      </trkpt>
      <trkpt lat="45.5945" lon="6.6151">
        <ele>2598.6000976562</ele>
        <time>2015-11-27T12:33:06.000Z</time>
      </trkpt>
      <trkpt lat="45.5945" lon="6.6151">
        <ele>2598.6000976562</ele>
        <time>2015-11-27T12:33:16.000Z</time>
      </trkpt>
      <trkpt lat="45.5945" lon="6.6151">
        <ele>2598.8000488281</ele>
        <time>2015-11-27T12:33:34.000Z</time>
      </trkpt>
      <trkpt lat="45.5945" lon="6.6151">
        <ele>2598.8000488281</ele>
        <time>2015-11-27T12:33:49.000Z</time>
      </trkpt>
      <trkpt lat="45.5945" lon="6.6151">
        <ele>2598.8000488281</ele>
        <time>2015-11-27T12:34:04.000Z</time>
      </trkpt>
      <trkpt lat="45.5945" lon="6.6151">
        <ele>2599</ele>
        <time>2015-11-27T12:34:17.000Z</time>
      </trkpt>
      <trkpt lat="45.59451" lon="6.6151">
        <ele>2598.6000976562</ele>
        <time>2015-11-27T12:34:35.000Z</time>
      </trkpt>
      <trkpt lat="45.59451" lon="6.6151">
        <ele>2598.6000976562</ele>
        <time>2015-11-27T12:34:49.000Z</time>
      </trkpt>
      <trkpt lat="45.59451" lon="6.6151">
        <ele>2598.6000976562</ele>
        <time>2015-11-27T12:35:08.000Z</time>
      </trkpt>
      <trkpt lat="45.59451" lon="6.6151">
        <ele>2598.8000488281</ele>
        <time>2015-11-27T12:35:25.000Z</time>
      </trkpt>
      <trkpt lat="45.59451" lon="6.6151">
        <ele>2598.6000976562</ele>
        <time>2015-11-27T12:35:44.000Z</time>
      </trkpt>
      <trkpt lat="45.59451" lon="6.6151">
        <ele>2598.8000488281</ele>
        <time>2015-11-27T12:36:07.000Z</time>
      </trkpt>
      <trkpt lat="45.59451" lon="6.6151">
        <ele>2598.8000488281</ele>
        <time>2015-11-27T12:36:27.000Z</time>
      </trkpt>
      <trkpt lat="45.59451" lon="6.6151">
        <ele>2599</ele>
        <time>2015-11-27T12:36:49.000Z</time>
      </trkpt>
      <trkpt lat="45.59451" lon="6.6151">
        <ele>2599</ele>
        <time>2015-11-27T12:37:08.000Z</time>
      </trkpt>
      <trkpt lat="45.59451" lon="6.6151">
        <ele>2598.8000488281</ele>
        <time>2015-11-27T12:37:30.000Z</time>
      </trkpt>
      <trkpt lat="45.59451" lon="6.6151">
        <ele>2599</ele>
        <time>2015-11-27T12:37:47.000Z</time>
      </trkpt>
      <trkpt lat="45.59451" lon="6.6151">
        <ele>2599</ele>
        <time>2015-11-27T12:38:05.000Z</time>
      </trkpt>
      <trkpt lat="45.59451" lon="6.6151">
        <ele>2599.1999511719</ele>
        <time>2015-11-27T12:38:23.000Z</time>
      </trkpt>
      <trkpt lat="45.59451" lon="6.6151">
        <ele>2599.1999511719</ele>
        <time>2015-11-27T12:38:37.000Z</time>
      </trkpt>
      <trkpt lat="45.59451" lon="6.6151">
        <ele>2599.6000976562</ele>
        <time>2015-11-27T12:38:42.000Z</time>
      </trkpt>
      <trkpt lat="45.59451" lon="6.6151">
        <ele>2599.3999023438</ele>
        <time>2015-11-27T12:38:50.000Z</time>
      </trkpt>
      <trkpt lat="45.59451" lon="6.6151">
        <ele>2599.3999023438</ele>
        <time>2015-11-27T12:39:01.000Z</time>
      </trkpt>
      <trkpt lat="45.59451" lon="6.6151">
        <ele>2599.8000488281</ele>
        <time>2015-11-27T12:39:17.000Z</time>
      </trkpt>
      <trkpt lat="45.59451" lon="6.6151">
        <ele>2599.6000976562</ele>
        <time>2015-11-27T12:39:34.000Z</time>
      </trkpt>
      <trkpt lat="45.59451" lon="6.6151">
        <ele>2599.3999023438</ele>
        <time>2015-11-27T12:39:51.000Z</time>
      </trkpt>
      <trkpt lat="45.59451" lon="6.6151">
        <ele>2599.3999023438</ele>
        <time>2015-11-27T12:40:04.000Z</time>
      </trkpt>
      <trkpt lat="45.59451" lon="6.6151">
        <ele>2599.8000488281</ele>
        <time>2015-11-27T12:40:18.000Z</time>
      </trkpt>
      <trkpt lat="45.59451" lon="6.6151">
        <ele>2600</ele>
        <time>2015-11-27T12:40:37.000Z</time>
      </trkpt>
      <trkpt lat="45.59451" lon="6.6151">
        <ele>2600</ele>
        <time>2015-11-27T12:40:57.000Z</time>
      </trkpt>
      <trkpt lat="45.59451" lon="6.6151">
        <ele>2600.1999511719</ele>
        <time>2015-11-27T12:41:10.000Z</time>
      </trkpt>
      <trkpt lat="45.59451" lon="6.6151">
        <ele>2600</ele>
        <time>2015-11-27T12:41:21.000Z</time>
      </trkpt>
      <trkpt lat="45.59451" lon="6.6151">
        <ele>2600.1999511719</ele>
        <time>2015-11-27T12:41:33.000Z</time>
      </trkpt>
      <trkpt lat="45.59451" lon="6.6151">
        <ele>2600.1999511719</ele>
        <time>2015-11-27T12:41:53.000Z</time>
      </trkpt>
      <trkpt lat="45.59451" lon="6.6151">
        <ele>2600.1999511719</ele>
        <time>2015-11-27T12:42:01.000Z</time>
      </trkpt>
      <trkpt lat="45.59451" lon="6.6151">
        <ele>2600.1999511719</ele>
        <time>2015-11-27T12:42:11.000Z</time>
      </trkpt>
      <trkpt lat="45.59451" lon="6.6151">
        <ele>2600</ele>
        <time>2015-11-27T12:42:23.000Z</time>
      </trkpt>
      <trkpt lat="45.59451" lon="6.6151">
        <ele>2600</ele>
        <time>2015-11-27T12:42:37.000Z</time>
      </trkpt>
      <trkpt lat="45.59451" lon="6.6151">
        <ele>2600</ele>
        <time>2015-11-27T12:42:53.000Z</time>
      </trkpt>
      <trkpt lat="45.59451" lon="6.6151">
        <ele>2600</ele>
        <time>2015-11-27T12:43:07.000Z</time>
      </trkpt>
      <trkpt lat="45.59451" lon="6.6151">
        <ele>2600.1999511719</ele>
        <time>2015-11-27T12:43:26.000Z</time>
      </trkpt>
      <trkpt lat="45.59451" lon="6.6151">
        <ele>2600.1999511719</ele>
        <time>2015-11-27T12:43:36.000Z</time>
      </trkpt>
      <trkpt lat="45.59451" lon="6.6151">
        <ele>2600.1999511719</ele>
        <time>2015-11-27T12:43:50.000Z</time>
      </trkpt>
      <trkpt lat="45.59451" lon="6.6151">
        <ele>2600.1999511719</ele>
        <time>2015-11-27T12:44:00.000Z</time>
      </trkpt>
      <trkpt lat="45.59451" lon="6.6151">
        <ele>2600</ele>
        <time>2015-11-27T12:44:18.000Z</time>
      </trkpt>
      <trkpt lat="45.59451" lon="6.6151">
        <ele>2600</ele>
        <time>2015-11-27T12:44:40.000Z</time>
      </trkpt>
      <trkpt lat="45.59451" lon="6.6151">
        <ele>2600</ele>
        <time>2015-11-27T12:44:56.000Z</time>
      </trkpt>
      <trkpt lat="45.59451" lon="6.6151">
        <ele>2600.3999023438</ele>
        <time>2015-11-27T12:45:12.000Z</time>
      </trkpt>
      <trkpt lat="45.59451" lon="6.6151">
        <ele>2600.1999511719</ele>
        <time>2015-11-27T12:45:29.000Z</time>
      </trkpt>
      <trkpt lat="45.59451" lon="6.6151">
        <ele>2599.6000976562</ele>
        <time>2015-11-27T12:45:39.000Z</time>
      </trkpt>
      <trkpt lat="45.59451" lon="6.6151">
        <ele>2600.1999511719</ele>
        <time>2015-11-27T12:45:50.000Z</time>
      </trkpt>
      <trkpt lat="45.59451" lon="6.6151">
        <ele>2600</ele>
        <time>2015-11-27T12:46:03.000Z</time>
      </trkpt>
      <trkpt lat="45.59451" lon="6.6151">
        <ele>2600</ele>
        <time>2015-11-27T12:46:19.000Z</time>
      </trkpt>
      <trkpt lat="45.59451" lon="6.6151">
        <ele>2600</ele>
        <time>2015-11-27T12:46:29.000Z</time>
      </trkpt>
      <trkpt lat="45.59451" lon="6.6151">
        <ele>2600</ele>
        <time>2015-11-27T12:46:45.000Z</time>
      </trkpt>
      <trkpt lat="45.59451" lon="6.6151">
        <ele>2599.8000488281</ele>
        <time>2015-11-27T12:47:04.000Z</time>
      </trkpt>
      <trkpt lat="45.59451" lon="6.6151">
        <ele>2600</ele>
        <time>2015-11-27T12:47:17.000Z</time>
      </trkpt>
      <trkpt lat="45.59451" lon="6.6151">
        <ele>2599.8000488281</ele>
        <time>2015-11-27T12:47:33.000Z</time>
      </trkpt>
      <trkpt lat="45.59451" lon="6.6151">
        <ele>2600</ele>
        <time>2015-11-27T12:47:49.000Z</time>
      </trkpt>
      <trkpt lat="45.59451" lon="6.6151">
        <ele>2599.8000488281</ele>
        <time>2015-11-27T12:48:04.000Z</time>
      </trkpt>
      <trkpt lat="45.59451" lon="6.6151">
        <ele>2600</ele>
        <time>2015-11-27T12:48:17.000Z</time>
      </trkpt>
      <trkpt lat="45.59451" lon="6.6151">
        <ele>2600</ele>
        <time>2015-11-27T12:48:27.000Z</time>
      </trkpt>
      <trkpt lat="45.59451" lon="6.61511">
        <ele>2599.8000488281</ele>
        <time>2015-11-27T12:48:33.000Z</time>
      </trkpt>
      <trkpt lat="45.59454" lon="6.61511">
        <ele>2598.8000488281</ele>
        <time>2015-11-27T12:48:43.000Z</time>
      </trkpt>
      <trkpt lat="45.59457" lon="6.61512">
        <ele>2598.3999023438</ele>
        <time>2015-11-27T12:48:45.000Z</time>
      </trkpt>
      <trkpt lat="45.59463" lon="6.61515">
        <ele>2597.6000976562</ele>
        <time>2015-11-27T12:48:47.000Z</time>
      </trkpt>
      <trkpt lat="45.59464" lon="6.61516">
        <ele>2597.1999511719</ele>
        <time>2015-11-27T12:48:48.000Z</time>
      </trkpt>
      <trkpt lat="45.59468" lon="6.6152">
        <ele>2596</ele>
        <time>2015-11-27T12:48:50.000Z</time>
      </trkpt>
      <trkpt lat="45.5947" lon="6.61519">
        <ele>2595.3999023438</ele>
        <time>2015-11-27T12:48:51.000Z</time>
      </trkpt>
      <trkpt lat="45.59473" lon="6.61519">
        <ele>2594.8000488281</ele>
        <time>2015-11-27T12:48:52.000Z</time>
      </trkpt>
      <trkpt lat="45.59478" lon="6.6152">
        <ele>2593.6000976562</ele>
        <time>2015-11-27T12:48:54.000Z</time>
      </trkpt>
      <trkpt lat="45.59479" lon="6.61521">
        <ele>2592.8000488281</ele>
        <time>2015-11-27T12:48:55.000Z</time>
      </trkpt>
      <trkpt lat="45.59479" lon="6.61521">
        <ele>2592</ele>
        <time>2015-11-27T12:48:56.000Z</time>
      </trkpt>
      <trkpt lat="45.5948" lon="6.61521">
        <ele>2590.1999511719</ele>
        <time>2015-11-27T12:48:58.000Z</time>
      </trkpt>
      <trkpt lat="45.5948" lon="6.61521">
        <ele>2589.3999023438</ele>
        <time>2015-11-27T12:48:59.000Z</time>
      </trkpt>
      <trkpt lat="45.5948" lon="6.61521">
        <ele>2588.8000488281</ele>
        <time>2015-11-27T12:49:00.000Z</time>
      </trkpt>
      <trkpt lat="45.5948" lon="6.61521">
        <ele>2588</ele>
        <time>2015-11-27T12:49:15.000Z</time>
      </trkpt>
      <trkpt lat="45.5948" lon="6.61521">
        <ele>2587.8000488281</ele>
        <time>2015-11-27T12:49:21.000Z</time>
      </trkpt>
      <trkpt lat="45.59481" lon="6.61522">
        <ele>2587.8000488281</ele>
        <time>2015-11-27T12:49:23.000Z</time>
      </trkpt>
      <trkpt lat="45.59482" lon="6.61521">
        <ele>2587.8000488281</ele>
        <time>2015-11-27T12:49:24.000Z</time>
      </trkpt>
      <trkpt lat="45.59483" lon="6.61521">
        <ele>2586.8000488281</ele>
        <time>2015-11-27T12:49:30.000Z</time>
      </trkpt>
      <trkpt lat="45.59483" lon="6.61521">
        <ele>2586</ele>
        <time>2015-11-27T12:49:49.000Z</time>
      </trkpt>
      <trkpt lat="45.59483" lon="6.61521">
        <ele>2585.8000488281</ele>
        <time>2015-11-27T12:49:51.000Z</time>
      </trkpt>
      <trkpt lat="45.59486" lon="6.61518">
        <ele>2585.1999511719</ele>
        <time>2015-11-27T12:49:54.000Z</time>
      </trkpt>
      <trkpt lat="45.59487" lon="6.61518">
        <ele>2584.6000976562</ele>
        <time>2015-11-27T12:49:56.000Z</time>
      </trkpt>
      <trkpt lat="45.59487" lon="6.61519">
        <ele>2583.3999023438</ele>
        <time>2015-11-27T12:49:58.000Z</time>
      </trkpt>
      <trkpt lat="45.59488" lon="6.6152">
        <ele>2582.8000488281</ele>
        <time>2015-11-27T12:49:59.000Z</time>
      </trkpt>
      <trkpt lat="45.59489" lon="6.6152">
        <ele>2582.1999511719</ele>
        <time>2015-11-27T12:50:00.000Z</time>
      </trkpt>
      <trkpt lat="45.59489" lon="6.61521">
        <ele>2581.8000488281</ele>
        <time>2015-11-27T12:50:01.000Z</time>
      </trkpt>
      <trkpt lat="45.59489" lon="6.61521">
        <ele>2581</ele>
        <time>2015-11-27T12:50:03.000Z</time>
      </trkpt>
      <trkpt lat="45.59492" lon="6.61524">
        <ele>2580</ele>
        <time>2015-11-27T12:50:09.000Z</time>
      </trkpt>
      <trkpt lat="45.59495" lon="6.61526">
        <ele>2579</ele>
        <time>2015-11-27T12:50:13.000Z</time>
      </trkpt>
      <trkpt lat="45.59495" lon="6.61527">
        <ele>2578.6000976562</ele>
        <time>2015-11-27T12:50:14.000Z</time>
      </trkpt>
      <trkpt lat="45.59495" lon="6.61527">
        <ele>2577.8000488281</ele>
        <time>2015-11-27T12:50:19.000Z</time>
      </trkpt>
      <trkpt lat="45.59495" lon="6.61527">
        <ele>2577.6000976562</ele>
        <time>2015-11-27T12:50:22.000Z</time>
      </trkpt>
      <trkpt lat="45.59495" lon="6.61527">
        <ele>2578.6000976562</ele>
        <time>2015-11-27T12:50:30.000Z</time>
      </trkpt>
      <trkpt lat="45.59495" lon="6.61527">
        <ele>2578.6000976562</ele>
        <time>2015-11-27T12:50:38.000Z</time>
      </trkpt>
      <trkpt lat="45.59499" lon="6.61533">
        <ele>2578.6000976562</ele>
        <time>2015-11-27T12:50:48.000Z</time>
      </trkpt>
      <trkpt lat="45.59506" lon="6.6154">
        <ele>2577.8000488281</ele>
        <time>2015-11-27T12:50:52.000Z</time>
      </trkpt>
      <trkpt lat="45.59506" lon="6.6154">
        <ele>2576.8000488281</ele>
        <time>2015-11-27T12:50:56.000Z</time>
      </trkpt>
      <trkpt lat="45.59506" lon="6.6154">
        <ele>2576.6000976562</ele>
        <time>2015-11-27T12:51:00.000Z</time>
      </trkpt>
      <trkpt lat="45.59506" lon="6.6154">
        <ele>2575.8000488281</ele>
        <time>2015-11-27T12:51:08.000Z</time>
      </trkpt>
      <trkpt lat="45.59506" lon="6.6154">
        <ele>2575.6000976562</ele>
        <time>2015-11-27T12:51:12.000Z</time>
      </trkpt>
      <trkpt lat="45.59506" lon="6.6154">
        <ele>2574.8000488281</ele>
        <time>2015-11-27T12:51:21.000Z</time>
      </trkpt>
      <trkpt lat="45.59507" lon="6.61541">
        <ele>2574.8000488281</ele>
        <time>2015-11-27T12:51:22.000Z</time>
      </trkpt>
      <trkpt lat="45.5951" lon="6.61545">
        <ele>2574.1999511719</ele>
        <time>2015-11-27T12:51:28.000Z</time>
      </trkpt>
      <trkpt lat="45.5951" lon="6.61545">
        <ele>2574.8000488281</ele>
        <time>2015-11-27T12:51:36.000Z</time>
      </trkpt>
      <trkpt lat="45.59511" lon="6.61547">
        <ele>2575.1999511719</ele>
        <time>2015-11-27T12:51:45.000Z</time>
      </trkpt>
      <trkpt lat="45.59514" lon="6.61551">
        <ele>2575.3999023438</ele>
        <time>2015-11-27T12:51:52.000Z</time>
      </trkpt>
      <trkpt lat="45.59514" lon="6.61551">
        <ele>2576</ele>
        <time>2015-11-27T12:51:55.000Z</time>
      </trkpt>
      <trkpt lat="45.59514" lon="6.61551">
        <ele>2576.1999511719</ele>
        <time>2015-11-27T12:52:00.000Z</time>
      </trkpt>
      <trkpt lat="45.59514" lon="6.61551">
        <ele>2576.1999511719</ele>
        <time>2015-11-27T12:52:10.000Z</time>
      </trkpt>
      <trkpt lat="45.59514" lon="6.61551">
        <ele>2576.1999511719</ele>
        <time>2015-11-27T12:52:18.000Z</time>
      </trkpt>
      <trkpt lat="45.59514" lon="6.61551">
        <ele>2576.1999511719</ele>
        <time>2015-11-27T12:52:29.000Z</time>
      </trkpt>
      <trkpt lat="45.59515" lon="6.61553">
        <ele>2576.1999511719</ele>
        <time>2015-11-27T12:52:40.000Z</time>
      </trkpt>
      <trkpt lat="45.59517" lon="6.61558">
        <ele>2576.1999511719</ele>
        <time>2015-11-27T12:52:47.000Z</time>
      </trkpt>
      <trkpt lat="45.59517" lon="6.61558">
        <ele>2576</ele>
        <time>2015-11-27T12:52:59.000Z</time>
      </trkpt>
      <trkpt lat="45.59517" lon="6.61558">
        <ele>2576</ele>
        <time>2015-11-27T12:53:10.000Z</time>
      </trkpt>
      <trkpt lat="45.59517" lon="6.61558">
        <ele>2576</ele>
        <time>2015-11-27T12:53:23.000Z</time>
      </trkpt>
      <trkpt lat="45.59519" lon="6.6156">
        <ele>2576</ele>
        <time>2015-11-27T12:53:39.000Z</time>
      </trkpt>
      <trkpt lat="45.59519" lon="6.6156">
        <ele>2575.8000488281</ele>
        <time>2015-11-27T12:53:54.000Z</time>
      </trkpt>
      <trkpt lat="45.59519" lon="6.61561">
        <ele>2576</ele>
        <time>2015-11-27T12:54:16.000Z</time>
      </trkpt>
      <trkpt lat="45.59519" lon="6.61561">
        <ele>2576</ele>
        <time>2015-11-27T12:54:35.000Z</time>
      </trkpt>
      <trkpt lat="45.5952" lon="6.61562">
        <ele>2576</ele>
        <time>2015-11-27T12:54:51.000Z</time>
      </trkpt>
      <trkpt lat="45.5952" lon="6.61562">
        <ele>2576</ele>
        <time>2015-11-27T12:55:08.000Z</time>
      </trkpt>
      <trkpt lat="45.5952" lon="6.61563">
        <ele>2576</ele>
        <time>2015-11-27T12:55:27.000Z</time>
      </trkpt>
      <trkpt lat="45.5952" lon="6.61563">
        <ele>2576</ele>
        <time>2015-11-27T12:55:46.000Z</time>
      </trkpt>
      <trkpt lat="45.59521" lon="6.61564">
        <ele>2576.1999511719</ele>
        <time>2015-11-27T12:56:04.000Z</time>
      </trkpt>
      <trkpt lat="45.59521" lon="6.61564">
        <ele>2576.1999511719</ele>
        <time>2015-11-27T12:56:25.000Z</time>
      </trkpt>
      <trkpt lat="45.59521" lon="6.61564">
        <ele>2576.1999511719</ele>
        <time>2015-11-27T12:56:42.000Z</time>
      </trkpt>
      <trkpt lat="45.5952" lon="6.61565">
        <ele>2576.1999511719</ele>
        <time>2015-11-27T12:56:56.000Z</time>
      </trkpt>
      <trkpt lat="45.5952" lon="6.61565">
        <ele>2576.3999023438</ele>
        <time>2015-11-27T12:57:08.000Z</time>
      </trkpt>
      <trkpt lat="45.59521" lon="6.61566">
        <ele>2576.3999023438</ele>
        <time>2015-11-27T12:57:25.000Z</time>
      </trkpt>
      <trkpt lat="45.59521" lon="6.61566">
        <ele>2576.1999511719</ele>
        <time>2015-11-27T12:57:42.000Z</time>
      </trkpt>
      <trkpt lat="45.59521" lon="6.61566">
        <ele>2576.3999023438</ele>
        <time>2015-11-27T12:57:52.000Z</time>
      </trkpt>
      <trkpt lat="45.59522" lon="6.61566">
        <ele>2576.6000976562</ele>
        <time>2015-11-27T12:58:06.000Z</time>
      </trkpt>
      <trkpt lat="45.59523" lon="6.61569">
        <ele>2576.6000976562</ele>
        <time>2015-11-27T12:58:18.000Z</time>
      </trkpt>
      <trkpt lat="45.59524" lon="6.61571">
        <ele>2576.6000976562</ele>
        <time>2015-11-27T12:58:19.000Z</time>
      </trkpt>
      <trkpt lat="45.59525" lon="6.61576">
        <ele>2574.8000488281</ele>
        <time>2015-11-27T12:58:25.000Z</time>
      </trkpt>
      <trkpt lat="45.59524" lon="6.61576">
        <ele>2574.3999023438</ele>
        <time>2015-11-27T12:58:26.000Z</time>
      </trkpt>
      <trkpt lat="45.59523" lon="6.61577">
        <ele>2573.1999511719</ele>
        <time>2015-11-27T12:58:29.000Z</time>
      </trkpt>
      <trkpt lat="45.59523" lon="6.61577">
        <ele>2572.8000488281</ele>
        <time>2015-11-27T12:58:30.000Z</time>
      </trkpt>
      <trkpt lat="45.59523" lon="6.61577">
        <ele>2572</ele>
        <time>2015-11-27T12:58:32.000Z</time>
      </trkpt>
      <trkpt lat="45.59523" lon="6.6158">
        <ele>2571.6000976562</ele>
        <time>2015-11-27T12:58:33.000Z</time>
      </trkpt>
      <trkpt lat="45.59524" lon="6.61584">
        <ele>2571.1999511719</ele>
        <time>2015-11-27T12:58:34.000Z</time>
      </trkpt>
      <trkpt lat="45.59524" lon="6.61586">
        <ele>2570.8000488281</ele>
        <time>2015-11-27T12:58:35.000Z</time>
      </trkpt>
      <trkpt lat="45.59522" lon="6.6159">
        <ele>2569.8000488281</ele>
        <time>2015-11-27T12:58:38.000Z</time>
      </trkpt>
      <trkpt lat="45.59521" lon="6.61591">
        <ele>2569</ele>
        <time>2015-11-27T12:58:39.000Z</time>
      </trkpt>
      <trkpt lat="45.59521" lon="6.61596">
        <ele>2567.1999511719</ele>
        <time>2015-11-27T12:58:41.000Z</time>
      </trkpt>
      <trkpt lat="45.59521" lon="6.61598">
        <ele>2566.3999023438</ele>
        <time>2015-11-27T12:58:42.000Z</time>
      </trkpt>
      <trkpt lat="45.59521" lon="6.61599">
        <ele>2566</ele>
        <time>2015-11-27T12:58:43.000Z</time>
      </trkpt>
      <trkpt lat="45.59521" lon="6.616">
        <ele>2564.8000488281</ele>
        <time>2015-11-27T12:58:44.000Z</time>
      </trkpt>
      <trkpt lat="45.59521" lon="6.616">
        <ele>2563</ele>
        <time>2015-11-27T12:58:46.000Z</time>
      </trkpt>
      <trkpt lat="45.59521" lon="6.616">
        <ele>2562.3999023438</ele>
        <time>2015-11-27T12:58:47.000Z</time>
      </trkpt>
      <trkpt lat="45.59522" lon="6.61601">
        <ele>2561.8000488281</ele>
        <time>2015-11-27T12:58:49.000Z</time>
      </trkpt>
      <trkpt lat="45.59523" lon="6.61604">
        <ele>2561.1999511719</ele>
        <time>2015-11-27T12:58:52.000Z</time>
      </trkpt>
      <trkpt lat="45.59523" lon="6.61604">
        <ele>2560.6000976562</ele>
        <time>2015-11-27T12:58:54.000Z</time>
      </trkpt>
      <trkpt lat="45.59522" lon="6.61605">
        <ele>2559.6000976562</ele>
        <time>2015-11-27T12:58:58.000Z</time>
      </trkpt>
      <trkpt lat="45.59521" lon="6.61605">
        <ele>2559.3999023438</ele>
        <time>2015-11-27T12:58:59.000Z</time>
      </trkpt>
      <trkpt lat="45.59521" lon="6.6161">
        <ele>2558.3999023438</ele>
        <time>2015-11-27T12:59:02.000Z</time>
      </trkpt>
      <trkpt lat="45.59519" lon="6.61614">
        <ele>2557</ele>
        <time>2015-11-27T12:59:05.000Z</time>
      </trkpt>
      <trkpt lat="45.59519" lon="6.61613">
        <ele>2556.3999023438</ele>
        <time>2015-11-27T12:59:06.000Z</time>
      </trkpt>
      <trkpt lat="45.59518" lon="6.61613">
        <ele>2555.3999023438</ele>
        <time>2015-11-27T12:59:07.000Z</time>
      </trkpt>
      <trkpt lat="45.59517" lon="6.61614">
        <ele>2553.3999023438</ele>
        <time>2015-11-27T12:59:08.000Z</time>
      </trkpt>
      <trkpt lat="45.59517" lon="6.61621">
        <ele>2551.6000976562</ele>
        <time>2015-11-27T12:59:10.000Z</time>
      </trkpt>
      <trkpt lat="45.59518" lon="6.61627">
        <ele>2550.6000976562</ele>
        <time>2015-11-27T12:59:12.000Z</time>
      </trkpt>
      <trkpt lat="45.59515" lon="6.61635">
        <ele>2548.8000488281</ele>
        <time>2015-11-27T12:59:14.000Z</time>
      </trkpt>
      <trkpt lat="45.59514" lon="6.61641">
        <ele>2547.8000488281</ele>
        <time>2015-11-27T12:59:15.000Z</time>
      </trkpt>
      <trkpt lat="45.59509" lon="6.61651">
        <ele>2545.6000976562</ele>
        <time>2015-11-27T12:59:17.000Z</time>
      </trkpt>
      <trkpt lat="45.59506" lon="6.61656">
        <ele>2543.8000488281</ele>
        <time>2015-11-27T12:59:18.000Z</time>
      </trkpt>
      <trkpt lat="45.59503" lon="6.61659">
        <ele>2541.8000488281</ele>
        <time>2015-11-27T12:59:19.000Z</time>
      </trkpt>
      <trkpt lat="45.595" lon="6.61663">
        <ele>2539.6000976562</ele>
        <time>2015-11-27T12:59:20.000Z</time>
      </trkpt>
      <trkpt lat="45.59497" lon="6.61667">
        <ele>2537.3999023438</ele>
        <time>2015-11-27T12:59:21.000Z</time>
      </trkpt>
      <trkpt lat="45.59494" lon="6.6167">
        <ele>2535.3999023438</ele>
        <time>2015-11-27T12:59:22.000Z</time>
      </trkpt>
      <trkpt lat="45.59491" lon="6.61673">
        <ele>2533.3999023438</ele>
        <time>2015-11-27T12:59:23.000Z</time>
      </trkpt>
      <trkpt lat="45.59489" lon="6.61677">
        <ele>2531.6000976562</ele>
        <time>2015-11-27T12:59:24.000Z</time>
      </trkpt>
      <trkpt lat="45.59486" lon="6.61679">
        <ele>2529.6000976562</ele>
        <time>2015-11-27T12:59:25.000Z</time>
      </trkpt>
      <trkpt lat="45.59484" lon="6.61681">
        <ele>2527.8000488281</ele>
        <time>2015-11-27T12:59:26.000Z</time>
      </trkpt>
      <trkpt lat="45.59483" lon="6.61682">
        <ele>2525.8000488281</ele>
        <time>2015-11-27T12:59:27.000Z</time>
      </trkpt>
      <trkpt lat="45.59483" lon="6.61683">
        <ele>2524</ele>
        <time>2015-11-27T12:59:28.000Z</time>
      </trkpt>
      <trkpt lat="45.59483" lon="6.61682">
        <ele>2522.6000976562</ele>
        <time>2015-11-27T12:59:29.000Z</time>
      </trkpt>
      <trkpt lat="45.59483" lon="6.61682">
        <ele>2521.1999511719</ele>
        <time>2015-11-27T12:59:31.000Z</time>
      </trkpt>
      <trkpt lat="45.59484" lon="6.61679">
        <ele>2520.3999023438</ele>
        <time>2015-11-27T12:59:36.000Z</time>
      </trkpt>
      <trkpt lat="45.59484" lon="6.61679">
        <ele>2520.6000976562</ele>
        <time>2015-11-27T12:59:42.000Z</time>
      </trkpt>
      <trkpt lat="45.59484" lon="6.61679">
        <ele>2520</ele>
        <time>2015-11-27T12:59:51.000Z</time>
      </trkpt>
      <trkpt lat="45.59484" lon="6.61679">
        <ele>2520</ele>
        <time>2015-11-27T12:59:56.000Z</time>
      </trkpt>
      <trkpt lat="45.59484" lon="6.61679">
        <ele>2520</ele>
        <time>2015-11-27T13:00:06.000Z</time>
      </trkpt>
      <trkpt lat="45.59484" lon="6.61679">
        <ele>2520</ele>
        <time>2015-11-27T13:00:23.000Z</time>
      </trkpt>
      <trkpt lat="45.59484" lon="6.61679">
        <ele>2519.8000488281</ele>
        <time>2015-11-27T13:00:38.000Z</time>
      </trkpt>
      <trkpt lat="45.59484" lon="6.61679">
        <ele>2519.6000976562</ele>
        <time>2015-11-27T13:00:49.000Z</time>
      </trkpt>
      <trkpt lat="45.59484" lon="6.6168">
        <ele>2519.8000488281</ele>
        <time>2015-11-27T13:00:57.000Z</time>
      </trkpt>
      <trkpt lat="45.59484" lon="6.61681">
        <ele>2519.8000488281</ele>
        <time>2015-11-27T13:01:03.000Z</time>
      </trkpt>
      <trkpt lat="45.59486" lon="6.61683">
        <ele>2520.1999511719</ele>
        <time>2015-11-27T13:01:10.000Z</time>
      </trkpt>
      <trkpt lat="45.59486" lon="6.61684">
        <ele>2520.3999023438</ele>
        <time>2015-11-27T13:01:17.000Z</time>
      </trkpt>
      <trkpt lat="45.59486" lon="6.61684">
        <ele>2520.8000488281</ele>
        <time>2015-11-27T13:01:25.000Z</time>
      </trkpt>
      <trkpt lat="45.59487" lon="6.61685">
        <ele>2521.1999511719</ele>
        <time>2015-11-27T13:01:31.000Z</time>
      </trkpt>
      <trkpt lat="45.59487" lon="6.61685">
        <ele>2521.3999023438</ele>
        <time>2015-11-27T13:01:33.000Z</time>
      </trkpt>
      <trkpt lat="45.5949" lon="6.61689">
        <ele>2522</ele>
        <time>2015-11-27T13:01:39.000Z</time>
      </trkpt>
      <trkpt lat="45.59491" lon="6.61692">
        <ele>2522.1999511719</ele>
        <time>2015-11-27T13:01:45.000Z</time>
      </trkpt>
      <trkpt lat="45.59491" lon="6.61692">
        <ele>2522.3999023438</ele>
        <time>2015-11-27T13:01:57.000Z</time>
      </trkpt>
      <trkpt lat="45.59491" lon="6.61692">
        <ele>2522.6000976562</ele>
        <time>2015-11-27T13:02:04.000Z</time>
      </trkpt>
      <trkpt lat="45.59492" lon="6.61692">
        <ele>2522.6000976562</ele>
        <time>2015-11-27T13:02:08.000Z</time>
      </trkpt>
      <trkpt lat="45.59496" lon="6.61694">
        <ele>2522.8000488281</ele>
        <time>2015-11-27T13:02:14.000Z</time>
      </trkpt>
      <trkpt lat="45.59497" lon="6.61694">
        <ele>2523.1999511719</ele>
        <time>2015-11-27T13:02:19.000Z</time>
      </trkpt>
      <trkpt lat="45.59497" lon="6.61694">
        <ele>2523</ele>
        <time>2015-11-27T13:02:23.000Z</time>
      </trkpt>
      <trkpt lat="45.59499" lon="6.61694">
        <ele>2523.1999511719</ele>
        <time>2015-11-27T13:02:32.000Z</time>
      </trkpt>
      <trkpt lat="45.59502" lon="6.61694">
        <ele>2523.1999511719</ele>
        <time>2015-11-27T13:02:33.000Z</time>
      </trkpt>
      <trkpt lat="45.59511" lon="6.61697">
        <ele>2522.6000976562</ele>
        <time>2015-11-27T13:02:38.000Z</time>
      </trkpt>
      <trkpt lat="45.59513" lon="6.61698">
        <ele>2522.1999511719</ele>
        <time>2015-11-27T13:02:40.000Z</time>
      </trkpt>
      <trkpt lat="45.59516" lon="6.617">
        <ele>2522</ele>
        <time>2015-11-27T13:02:45.000Z</time>
      </trkpt>
      <trkpt lat="45.59517" lon="6.617">
        <ele>2522</ele>
        <time>2015-11-27T13:02:53.000Z</time>
      </trkpt>
      <trkpt lat="45.59517" lon="6.617">
        <ele>2522</ele>
        <time>2015-11-27T13:03:08.000Z</time>
      </trkpt>
      <trkpt lat="45.59518" lon="6.617">
        <ele>2522.1999511719</ele>
        <time>2015-11-27T13:03:14.000Z</time>
      </trkpt>
      <trkpt lat="45.59518" lon="6.617">
        <ele>2522.1999511719</ele>
        <time>2015-11-27T13:03:30.000Z</time>
      </trkpt>
      <trkpt lat="45.59518" lon="6.617">
        <ele>2522.1999511719</ele>
        <time>2015-11-27T13:03:48.000Z</time>
      </trkpt>
      <trkpt lat="45.59519" lon="6.61702">
        <ele>2522.3999023438</ele>
        <time>2015-11-27T13:04:01.000Z</time>
      </trkpt>
      <trkpt lat="45.59519" lon="6.61702">
        <ele>2522.1999511719</ele>
        <time>2015-11-27T13:04:20.000Z</time>
      </trkpt>
      <trkpt lat="45.59519" lon="6.61702">
        <ele>2522.1999511719</ele>
        <time>2015-11-27T13:04:36.000Z</time>
      </trkpt>
      <trkpt lat="45.59519" lon="6.61702">
        <ele>2522.1999511719</ele>
        <time>2015-11-27T13:04:53.000Z</time>
      </trkpt>
      <trkpt lat="45.59519" lon="6.61702">
        <ele>2522</ele>
        <time>2015-11-27T13:05:10.000Z</time>
      </trkpt>
      <trkpt lat="45.59521" lon="6.61703">
        <ele>2522.1999511719</ele>
        <time>2015-11-27T13:05:26.000Z</time>
      </trkpt>
      <trkpt lat="45.5953" lon="6.61714">
        <ele>2522.1999511719</ele>
        <time>2015-11-27T13:05:29.000Z</time>
      </trkpt>
      <trkpt lat="45.59537" lon="6.61734">
        <ele>2519.6000976562</ele>
        <time>2015-11-27T13:05:32.000Z</time>
      </trkpt>
      <trkpt lat="45.59537" lon="6.61739">
        <ele>2518</ele>
        <time>2015-11-27T13:05:33.000Z</time>
      </trkpt>
      <trkpt lat="45.59537" lon="6.61741">
        <ele>2516.3999023438</ele>
        <time>2015-11-27T13:05:34.000Z</time>
      </trkpt>
      <trkpt lat="45.59537" lon="6.61742">
        <ele>2514.8000488281</ele>
        <time>2015-11-27T13:05:35.000Z</time>
      </trkpt>
      <trkpt lat="45.59537" lon="6.61742">
        <ele>2513.3999023438</ele>
        <time>2015-11-27T13:05:36.000Z</time>
      </trkpt>
      <trkpt lat="45.59537" lon="6.61742">
        <ele>2512.1999511719</ele>
        <time>2015-11-27T13:05:37.000Z</time>
      </trkpt>
      <trkpt lat="45.59537" lon="6.61742">
        <ele>2510.8000488281</ele>
        <time>2015-11-27T13:05:39.000Z</time>
      </trkpt>
      <trkpt lat="45.59537" lon="6.61742">
        <ele>2510</ele>
        <time>2015-11-27T13:05:47.000Z</time>
      </trkpt>
      <trkpt lat="45.59537" lon="6.61742">
        <ele>2510</ele>
        <time>2015-11-27T13:05:54.000Z</time>
      </trkpt>
      <trkpt lat="45.59537" lon="6.61742">
        <ele>2509.8000488281</ele>
        <time>2015-11-27T13:05:56.000Z</time>
      </trkpt>
      <trkpt lat="45.59539" lon="6.61744">
        <ele>2509.6000976562</ele>
        <time>2015-11-27T13:05:57.000Z</time>
      </trkpt>
      <trkpt lat="45.59543" lon="6.61749">
        <ele>2509.3999023438</ele>
        <time>2015-11-27T13:05:59.000Z</time>
      </trkpt>
      <trkpt lat="45.59548" lon="6.61758">
        <ele>2508.6000976562</ele>
        <time>2015-11-27T13:06:02.000Z</time>
      </trkpt>
      <trkpt lat="45.5955" lon="6.61762">
        <ele>2507.6000976562</ele>
        <time>2015-11-27T13:06:04.000Z</time>
      </trkpt>
      <trkpt lat="45.5955" lon="6.61763">
        <ele>2506.3999023438</ele>
        <time>2015-11-27T13:06:06.000Z</time>
      </trkpt>
      <trkpt lat="45.5955" lon="6.61763">
        <ele>2505.1999511719</ele>
        <time>2015-11-27T13:06:09.000Z</time>
      </trkpt>
      <trkpt lat="45.5955" lon="6.61763">
        <ele>2504.6000976562</ele>
        <time>2015-11-27T13:06:25.000Z</time>
      </trkpt>
      <trkpt lat="45.59548" lon="6.61767">
        <ele>2504.3999023438</ele>
        <time>2015-11-27T13:06:29.000Z</time>
      </trkpt>
      <trkpt lat="45.59547" lon="6.61772">
        <ele>2504</ele>
        <time>2015-11-27T13:06:31.000Z</time>
      </trkpt>
      <trkpt lat="45.59545" lon="6.61772">
        <ele>2503.6000976562</ele>
        <time>2015-11-27T13:06:32.000Z</time>
      </trkpt>
      <trkpt lat="45.59544" lon="6.61771">
        <ele>2503</ele>
        <time>2015-11-27T13:06:33.000Z</time>
      </trkpt>
      <trkpt lat="45.5954" lon="6.61769">
        <ele>2500.8000488281</ele>
        <time>2015-11-27T13:06:35.000Z</time>
      </trkpt>
      <trkpt lat="45.59538" lon="6.61767">
        <ele>2499.3999023438</ele>
        <time>2015-11-27T13:06:36.000Z</time>
      </trkpt>
      <trkpt lat="45.59536" lon="6.61765">
        <ele>2497.6000976562</ele>
        <time>2015-11-27T13:06:38.000Z</time>
      </trkpt>
      <trkpt lat="45.59535" lon="6.61765">
        <ele>2496</ele>
        <time>2015-11-27T13:06:40.000Z</time>
      </trkpt>
      <trkpt lat="45.59535" lon="6.61765">
        <ele>2494.3999023438</ele>
        <time>2015-11-27T13:06:42.000Z</time>
      </trkpt>
      <trkpt lat="45.59535" lon="6.61765">
        <ele>2493.3999023438</ele>
        <time>2015-11-27T13:06:45.000Z</time>
      </trkpt>
      <trkpt lat="45.59535" lon="6.61765">
        <ele>2493.3999023438</ele>
        <time>2015-11-27T13:06:52.000Z</time>
      </trkpt>
      <trkpt lat="45.59533" lon="6.61764">
        <ele>2493.3999023438</ele>
        <time>2015-11-27T13:06:53.000Z</time>
      </trkpt>
      <trkpt lat="45.59529" lon="6.61763">
        <ele>2492.6000976562</ele>
        <time>2015-11-27T13:06:57.000Z</time>
      </trkpt>
      <trkpt lat="45.59529" lon="6.61763">
        <ele>2492</ele>
        <time>2015-11-27T13:06:58.000Z</time>
      </trkpt>
      <trkpt lat="45.59529" lon="6.61763">
        <ele>2491.1999511719</ele>
        <time>2015-11-27T13:07:00.000Z</time>
      </trkpt>
      <trkpt lat="45.59529" lon="6.61765">
        <ele>2490.8000488281</ele>
        <time>2015-11-27T13:07:01.000Z</time>
      </trkpt>
      <trkpt lat="45.59528" lon="6.61767">
        <ele>2490.6000976562</ele>
        <time>2015-11-27T13:07:02.000Z</time>
      </trkpt>
      <trkpt lat="45.59525" lon="6.61769">
        <ele>2490.1999511719</ele>
        <time>2015-11-27T13:07:04.000Z</time>
      </trkpt>
      <trkpt lat="45.59524" lon="6.61771">
        <ele>2489.6000976562</ele>
        <time>2015-11-27T13:07:05.000Z</time>
      </trkpt>
      <trkpt lat="45.59523" lon="6.61776">
        <ele>2487.8000488281</ele>
        <time>2015-11-27T13:07:07.000Z</time>
      </trkpt>
      <trkpt lat="45.59522" lon="6.61777">
        <ele>2485.8000488281</ele>
        <time>2015-11-27T13:07:08.000Z</time>
      </trkpt>
      <trkpt lat="45.59519" lon="6.61778">
        <ele>2484.6000976562</ele>
        <time>2015-11-27T13:07:09.000Z</time>
      </trkpt>
      <trkpt lat="45.59517" lon="6.61778">
        <ele>2482.8000488281</ele>
        <time>2015-11-27T13:07:10.000Z</time>
      </trkpt>
      <trkpt lat="45.59515" lon="6.61778">
        <ele>2481.1999511719</ele>
        <time>2015-11-27T13:07:11.000Z</time>
      </trkpt>
      <trkpt lat="45.59514" lon="6.61778">
        <ele>2480</ele>
        <time>2015-11-27T13:07:12.000Z</time>
      </trkpt>
      <trkpt lat="45.59513" lon="6.61777">
        <ele>2478.1999511719</ele>
        <time>2015-11-27T13:07:14.000Z</time>
      </trkpt>
      <trkpt lat="45.59513" lon="6.61777">
        <ele>2477.1999511719</ele>
        <time>2015-11-27T13:07:15.000Z</time>
      </trkpt>
      <trkpt lat="45.59513" lon="6.61777">
        <ele>2476.1999511719</ele>
        <time>2015-11-27T13:07:16.000Z</time>
      </trkpt>
      <trkpt lat="45.59513" lon="6.61777">
        <ele>2475.1999511719</ele>
        <time>2015-11-27T13:07:18.000Z</time>
      </trkpt>
      <trkpt lat="45.59511" lon="6.61779">
        <ele>2474.6000976562</ele>
        <time>2015-11-27T13:07:20.000Z</time>
      </trkpt>
      <trkpt lat="45.59507" lon="6.61785">
        <ele>2474.1999511719</ele>
        <time>2015-11-27T13:07:23.000Z</time>
      </trkpt>
      <trkpt lat="45.59503" lon="6.61786">
        <ele>2472.8000488281</ele>
        <time>2015-11-27T13:07:25.000Z</time>
      </trkpt>
      <trkpt lat="45.59503" lon="6.6179">
        <ele>2471.3999023438</ele>
        <time>2015-11-27T13:07:26.000Z</time>
      </trkpt>
      <trkpt lat="45.59503" lon="6.61792">
        <ele>2469.8000488281</ele>
        <time>2015-11-27T13:07:27.000Z</time>
      </trkpt>
      <trkpt lat="45.59503" lon="6.61792">
        <ele>2468.3999023438</ele>
        <time>2015-11-27T13:07:28.000Z</time>
      </trkpt>
      <trkpt lat="45.59502" lon="6.61792">
        <ele>2467.1999511719</ele>
        <time>2015-11-27T13:07:29.000Z</time>
      </trkpt>
      <trkpt lat="45.59502" lon="6.61792">
        <ele>2465.8000488281</ele>
        <time>2015-11-27T13:07:30.000Z</time>
      </trkpt>
      <trkpt lat="45.59501" lon="6.61791">
        <ele>2464.3999023438</ele>
        <time>2015-11-27T13:07:31.000Z</time>
      </trkpt>
      <trkpt lat="45.59501" lon="6.61791">
        <ele>2461.6000976562</ele>
        <time>2015-11-27T13:07:32.000Z</time>
      </trkpt>
      <trkpt lat="45.59501" lon="6.61791">
        <ele>2460.6000976562</ele>
        <time>2015-11-27T13:07:34.000Z</time>
      </trkpt>
      <trkpt lat="45.59501" lon="6.61791">
        <ele>2460.3999023438</ele>
        <time>2015-11-27T13:07:35.000Z</time>
      </trkpt>
      <trkpt lat="45.595" lon="6.61791">
        <ele>2460.1999511719</ele>
        <time>2015-11-27T13:07:37.000Z</time>
      </trkpt>
      <trkpt lat="45.59499" lon="6.61791">
        <ele>2459.6000976562</ele>
        <time>2015-11-27T13:07:39.000Z</time>
      </trkpt>
      <trkpt lat="45.59499" lon="6.61791">
        <ele>2459.1999511719</ele>
        <time>2015-11-27T13:07:40.000Z</time>
      </trkpt>
      <trkpt lat="45.59499" lon="6.61792">
        <ele>2458</ele>
        <time>2015-11-27T13:07:43.000Z</time>
      </trkpt>
      <trkpt lat="45.595" lon="6.61792">
        <ele>2457.3999023438</ele>
        <time>2015-11-27T13:07:45.000Z</time>
      </trkpt>
      <trkpt lat="45.595" lon="6.61792">
        <ele>2456.8000488281</ele>
        <time>2015-11-27T13:07:51.000Z</time>
      </trkpt>
      <trkpt lat="45.595" lon="6.61792">
        <ele>2456.8000488281</ele>
        <time>2015-11-27T13:07:52.000Z</time>
      </trkpt>
      <trkpt lat="45.59499" lon="6.61793">
        <ele>2456.8000488281</ele>
        <time>2015-11-27T13:07:53.000Z</time>
      </trkpt>
      <trkpt lat="45.59499" lon="6.61797">
        <ele>2456.6000976562</ele>
        <time>2015-11-27T13:07:55.000Z</time>
      </trkpt>
      <trkpt lat="45.595" lon="6.618">
        <ele>2455.6000976562</ele>
        <time>2015-11-27T13:07:57.000Z</time>
      </trkpt>
      <trkpt lat="45.59498" lon="6.61801">
        <ele>2454.8000488281</ele>
        <time>2015-11-27T13:07:58.000Z</time>
      </trkpt>
      <trkpt lat="45.59497" lon="6.61802">
        <ele>2453.8000488281</ele>
        <time>2015-11-27T13:07:59.000Z</time>
      </trkpt>
      <trkpt lat="45.59496" lon="6.61807">
        <ele>2452.3999023438</ele>
        <time>2015-11-27T13:08:01.000Z</time>
      </trkpt>
      <trkpt lat="45.59495" lon="6.61809">
        <ele>2451.6000976562</ele>
        <time>2015-11-27T13:08:02.000Z</time>
      </trkpt>
      <trkpt lat="45.59493" lon="6.61812">
        <ele>2450.8000488281</ele>
        <time>2015-11-27T13:08:03.000Z</time>
      </trkpt>
      <trkpt lat="45.59493" lon="6.61817">
        <ele>2449.8000488281</ele>
        <time>2015-11-27T13:08:04.000Z</time>
      </trkpt>
      <trkpt lat="45.59492" lon="6.6182">
        <ele>2448.6000976562</ele>
        <time>2015-11-27T13:08:05.000Z</time>
      </trkpt>
      <trkpt lat="45.59488" lon="6.61823">
        <ele>2447.1999511719</ele>
        <time>2015-11-27T13:08:06.000Z</time>
      </trkpt>
      <trkpt lat="45.59486" lon="6.61827">
        <ele>2445.8000488281</ele>
        <time>2015-11-27T13:08:07.000Z</time>
      </trkpt>
      <trkpt lat="45.59486" lon="6.61832">
        <ele>2444.1999511719</ele>
        <time>2015-11-27T13:08:08.000Z</time>
      </trkpt>
      <trkpt lat="45.59484" lon="6.61835">
        <ele>2442.6000976562</ele>
        <time>2015-11-27T13:08:09.000Z</time>
      </trkpt>
      <trkpt lat="45.59481" lon="6.61837">
        <ele>2440.8000488281</ele>
        <time>2015-11-27T13:08:10.000Z</time>
      </trkpt>
      <trkpt lat="45.5948" lon="6.61841">
        <ele>2439</ele>
        <time>2015-11-27T13:08:11.000Z</time>
      </trkpt>
      <trkpt lat="45.59478" lon="6.61844">
        <ele>2436.8000488281</ele>
        <time>2015-11-27T13:08:12.000Z</time>
      </trkpt>
      <trkpt lat="45.59476" lon="6.61848">
        <ele>2434.8000488281</ele>
        <time>2015-11-27T13:08:13.000Z</time>
      </trkpt>
      <trkpt lat="45.59475" lon="6.61853">
        <ele>2432.8000488281</ele>
        <time>2015-11-27T13:08:14.000Z</time>
      </trkpt>
      <trkpt lat="45.59475" lon="6.61859">
        <ele>2431</ele>
        <time>2015-11-27T13:08:15.000Z</time>
      </trkpt>
      <trkpt lat="45.59476" lon="6.61864">
        <ele>2429</ele>
        <time>2015-11-27T13:08:16.000Z</time>
      </trkpt>
      <trkpt lat="45.59477" lon="6.61867">
        <ele>2426.8000488281</ele>
        <time>2015-11-27T13:08:17.000Z</time>
      </trkpt>
      <trkpt lat="45.59478" lon="6.61868">
        <ele>2424.6000976562</ele>
        <time>2015-11-27T13:08:18.000Z</time>
      </trkpt>
      <trkpt lat="45.59478" lon="6.61868">
        <ele>2422.6000976562</ele>
        <time>2015-11-27T13:08:19.000Z</time>
      </trkpt>
      <trkpt lat="45.59478" lon="6.61868">
        <ele>2419.1999511719</ele>
        <time>2015-11-27T13:08:20.000Z</time>
      </trkpt>
      <trkpt lat="45.59478" lon="6.61868">
        <ele>2418</ele>
        <time>2015-11-27T13:08:21.000Z</time>
      </trkpt>
      <trkpt lat="45.59478" lon="6.6187">
        <ele>2417</ele>
        <time>2015-11-27T13:08:23.000Z</time>
      </trkpt>
      <trkpt lat="45.59477" lon="6.6187">
        <ele>2416</ele>
        <time>2015-11-27T13:08:27.000Z</time>
      </trkpt>
      <trkpt lat="45.59477" lon="6.6187">
        <ele>2415</ele>
        <time>2015-11-27T13:08:37.000Z</time>
      </trkpt>
      <trkpt lat="45.59477" lon="6.6187">
        <ele>2415</ele>
        <time>2015-11-27T13:08:42.000Z</time>
      </trkpt>
      <trkpt lat="45.59477" lon="6.6187">
        <ele>2415</ele>
        <time>2015-11-27T13:08:57.000Z</time>
      </trkpt>
      <trkpt lat="45.59477" lon="6.61871">
        <ele>2415</ele>
        <time>2015-11-27T13:09:14.000Z</time>
      </trkpt>
      <trkpt lat="45.59477" lon="6.61871">
        <ele>2415</ele>
        <time>2015-11-27T13:09:31.000Z</time>
      </trkpt>
      <trkpt lat="45.59477" lon="6.61871">
        <ele>2415</ele>
        <time>2015-11-27T13:09:44.000Z</time>
      </trkpt>
      <trkpt lat="45.59477" lon="6.61872">
        <ele>2415</ele>
        <time>2015-11-27T13:09:57.000Z</time>
      </trkpt>
      <trkpt lat="45.59477" lon="6.61872">
        <ele>2415</ele>
        <time>2015-11-27T13:10:08.000Z</time>
      </trkpt>
      <trkpt lat="45.59477" lon="6.61872">
        <ele>2415</ele>
        <time>2015-11-27T13:10:22.000Z</time>
      </trkpt>
      <trkpt lat="45.59477" lon="6.61872">
        <ele>2415</ele>
        <time>2015-11-27T13:10:38.000Z</time>
      </trkpt>
      <trkpt lat="45.59477" lon="6.61872">
        <ele>2415</ele>
        <time>2015-11-27T13:10:51.000Z</time>
      </trkpt>
      <trkpt lat="45.59477" lon="6.61872">
        <ele>2415.1999511719</ele>
        <time>2015-11-27T13:11:09.000Z</time>
      </trkpt>
      <trkpt lat="45.59477" lon="6.61872">
        <ele>2415.1999511719</ele>
        <time>2015-11-27T13:11:23.000Z</time>
      </trkpt>
      <trkpt lat="45.59477" lon="6.61872">
        <ele>2415.3999023438</ele>
        <time>2015-11-27T13:11:35.000Z</time>
      </trkpt>
      <trkpt lat="45.59477" lon="6.61872">
        <ele>2415.3999023438</ele>
        <time>2015-11-27T13:11:41.000Z</time>
      </trkpt>
      <trkpt lat="45.59477" lon="6.61872">
        <ele>2414.8000488281</ele>
        <time>2015-11-27T13:11:53.000Z</time>
      </trkpt>
      <trkpt lat="45.59477" lon="6.61872">
        <ele>2414.8000488281</ele>
        <time>2015-11-27T13:12:03.000Z</time>
      </trkpt>
      <trkpt lat="45.59477" lon="6.61872">
        <ele>2414.8000488281</ele>
        <time>2015-11-27T13:12:14.000Z</time>
      </trkpt>
      <trkpt lat="45.59478" lon="6.61872">
        <ele>2415</ele>
        <time>2015-11-27T13:12:27.000Z</time>
      </trkpt>
      <trkpt lat="45.59478" lon="6.61872">
        <ele>2414.8000488281</ele>
        <time>2015-11-27T13:12:45.000Z</time>
      </trkpt>
      <trkpt lat="45.59478" lon="6.61872">
        <ele>2414.8000488281</ele>
        <time>2015-11-27T13:13:01.000Z</time>
      </trkpt>
      <trkpt lat="45.59478" lon="6.61872">
        <ele>2415</ele>
        <time>2015-11-27T13:13:14.000Z</time>
      </trkpt>
      <trkpt lat="45.59478" lon="6.61872">
        <ele>2415</ele>
        <time>2015-11-27T13:13:30.000Z</time>
      </trkpt>
      <trkpt lat="45.59478" lon="6.61871">
        <ele>2415</ele>
        <time>2015-11-27T13:13:50.000Z</time>
      </trkpt>
      <trkpt lat="45.59478" lon="6.61871">
        <ele>2414.8000488281</ele>
        <time>2015-11-27T13:14:03.000Z</time>
      </trkpt>
      <trkpt lat="45.59478" lon="6.61871">
        <ele>2415.3999023438</ele>
        <time>2015-11-27T13:14:20.000Z</time>
      </trkpt>
      <trkpt lat="45.59478" lon="6.61871">
        <ele>2415.1999511719</ele>
        <time>2015-11-27T13:14:36.000Z</time>
      </trkpt>
      <trkpt lat="45.59477" lon="6.6187">
        <ele>2415.1999511719</ele>
        <time>2015-11-27T13:14:48.000Z</time>
      </trkpt>
      <trkpt lat="45.59474" lon="6.61869">
        <ele>2415.1999511719</ele>
        <time>2015-11-27T13:14:50.000Z</time>
      </trkpt>
      <trkpt lat="45.59465" lon="6.61864">
        <ele>2414.6000976562</ele>
        <time>2015-11-27T13:14:54.000Z</time>
      </trkpt>
      <trkpt lat="45.59461" lon="6.61861">
        <ele>2414</ele>
        <time>2015-11-27T13:14:56.000Z</time>
      </trkpt>
      <trkpt lat="45.5945" lon="6.61854">
        <ele>2412.6000976562</ele>
        <time>2015-11-27T13:15:00.000Z</time>
      </trkpt>
      <trkpt lat="45.59447" lon="6.61851">
        <ele>2412.1999511719</ele>
        <time>2015-11-27T13:15:01.000Z</time>
      </trkpt>
      <trkpt lat="45.59442" lon="6.61845">
        <ele>2411.1999511719</ele>
        <time>2015-11-27T13:15:03.000Z</time>
      </trkpt>
      <trkpt lat="45.59439" lon="6.61845">
        <ele>2410.6000976562</ele>
        <time>2015-11-27T13:15:04.000Z</time>
      </trkpt>
      <trkpt lat="45.59438" lon="6.61847">
        <ele>2409.8000488281</ele>
        <time>2015-11-27T13:15:05.000Z</time>
      </trkpt>
      <trkpt lat="45.59433" lon="6.61851">
        <ele>2408.1999511719</ele>
        <time>2015-11-27T13:15:07.000Z</time>
      </trkpt>
      <trkpt lat="45.59428" lon="6.61858">
        <ele>2405.3999023438</ele>
        <time>2015-11-27T13:15:09.000Z</time>
      </trkpt>
      <trkpt lat="45.59424" lon="6.61861">
        <ele>2404.1999511719</ele>
        <time>2015-11-27T13:15:10.000Z</time>
      </trkpt>
      <trkpt lat="45.59419" lon="6.61863">
        <ele>2402.6000976562</ele>
        <time>2015-11-27T13:15:11.000Z</time>
      </trkpt>
      <trkpt lat="45.59415" lon="6.61868">
        <ele>2401.1999511719</ele>
        <time>2015-11-27T13:15:12.000Z</time>
      </trkpt>
      <trkpt lat="45.5941" lon="6.6187">
        <ele>2399.3999023438</ele>
        <time>2015-11-27T13:15:13.000Z</time>
      </trkpt>
      <trkpt lat="45.59405" lon="6.61874">
        <ele>2397.6000976562</ele>
        <time>2015-11-27T13:15:14.000Z</time>
      </trkpt>
      <trkpt lat="45.594" lon="6.61878">
        <ele>2395.3999023438</ele>
        <time>2015-11-27T13:15:15.000Z</time>
      </trkpt>
      <trkpt lat="45.59395" lon="6.61882">
        <ele>2393.1999511719</ele>
        <time>2015-11-27T13:15:16.000Z</time>
      </trkpt>
      <trkpt lat="45.5939" lon="6.61887">
        <ele>2390.8000488281</ele>
        <time>2015-11-27T13:15:17.000Z</time>
      </trkpt>
      <trkpt lat="45.59387" lon="6.61892">
        <ele>2388.6000976562</ele>
        <time>2015-11-27T13:15:18.000Z</time>
      </trkpt>
      <trkpt lat="45.59385" lon="6.61894">
        <ele>2386.1999511719</ele>
        <time>2015-11-27T13:15:19.000Z</time>
      </trkpt>
      <trkpt lat="45.59384" lon="6.61896">
        <ele>2384</ele>
        <time>2015-11-27T13:15:20.000Z</time>
      </trkpt>
      <trkpt lat="45.59383" lon="6.61896">
        <ele>2382</ele>
        <time>2015-11-27T13:15:21.000Z</time>
      </trkpt>
      <trkpt lat="45.59383" lon="6.61896">
        <ele>2380.1999511719</ele>
        <time>2015-11-27T13:15:22.000Z</time>
      </trkpt>
      <trkpt lat="45.59382" lon="6.61896">
        <ele>2379.1999511719</ele>
        <time>2015-11-27T13:15:23.000Z</time>
      </trkpt>
      <trkpt lat="45.59382" lon="6.61896">
        <ele>2377.8000488281</ele>
        <time>2015-11-27T13:15:25.000Z</time>
      </trkpt>
      <trkpt lat="45.5938" lon="6.619">
        <ele>2377.1999511719</ele>
        <time>2015-11-27T13:15:30.000Z</time>
      </trkpt>
      <trkpt lat="45.59381" lon="6.619">
        <ele>2376.8000488281</ele>
        <time>2015-11-27T13:15:32.000Z</time>
      </trkpt>
      <trkpt lat="45.59381" lon="6.619">
        <ele>2375.6000976562</ele>
        <time>2015-11-27T13:15:35.000Z</time>
      </trkpt>
      <trkpt lat="45.59381" lon="6.619">
        <ele>2375.6000976562</ele>
        <time>2015-11-27T13:15:36.000Z</time>
      </trkpt>
      <trkpt lat="45.59381" lon="6.619">
        <ele>2375.3999023438</ele>
        <time>2015-11-27T13:15:50.000Z</time>
      </trkpt>
      <trkpt lat="45.59381" lon="6.619">
        <ele>2375.1999511719</ele>
        <time>2015-11-27T13:16:10.000Z</time>
      </trkpt>
      <trkpt lat="45.59381" lon="6.619">
        <ele>2375.1999511719</ele>
        <time>2015-11-27T13:16:30.000Z</time>
      </trkpt>
      <trkpt lat="45.59381" lon="6.619">
        <ele>2375.1999511719</ele>
        <time>2015-11-27T13:16:49.000Z</time>
      </trkpt>
      <trkpt lat="45.5938" lon="6.61901">
        <ele>2375.1999511719</ele>
        <time>2015-11-27T13:16:54.000Z</time>
      </trkpt>
      <trkpt lat="45.5938" lon="6.61906">
        <ele>2375</ele>
        <time>2015-11-27T13:16:56.000Z</time>
      </trkpt>
      <trkpt lat="45.59378" lon="6.61906">
        <ele>2374.8000488281</ele>
        <time>2015-11-27T13:16:57.000Z</time>
      </trkpt>
      <trkpt lat="45.59376" lon="6.61907">
        <ele>2374.6000976562</ele>
        <time>2015-11-27T13:16:58.000Z</time>
      </trkpt>
      <trkpt lat="45.59375" lon="6.6191">
        <ele>2374.1999511719</ele>
        <time>2015-11-27T13:16:59.000Z</time>
      </trkpt>
      <trkpt lat="45.59375" lon="6.61914">
        <ele>2373.6000976562</ele>
        <time>2015-11-27T13:17:00.000Z</time>
      </trkpt>
      <trkpt lat="45.5937" lon="6.61916">
        <ele>2371.8000488281</ele>
        <time>2015-11-27T13:17:02.000Z</time>
      </trkpt>
      <trkpt lat="45.5937" lon="6.61919">
        <ele>2370.3999023438</ele>
        <time>2015-11-27T13:17:03.000Z</time>
      </trkpt>
      <trkpt lat="45.59369" lon="6.61922">
        <ele>2368.8000488281</ele>
        <time>2015-11-27T13:17:04.000Z</time>
      </trkpt>
      <trkpt lat="45.59367" lon="6.61925">
        <ele>2367.1999511719</ele>
        <time>2015-11-27T13:17:05.000Z</time>
      </trkpt>
      <trkpt lat="45.59364" lon="6.61927">
        <ele>2365.8000488281</ele>
        <time>2015-11-27T13:17:06.000Z</time>
      </trkpt>
      <trkpt lat="45.59365" lon="6.61931">
        <ele>2364.3999023438</ele>
        <time>2015-11-27T13:17:07.000Z</time>
      </trkpt>
      <trkpt lat="45.59364" lon="6.61936">
        <ele>2362.8000488281</ele>
        <time>2015-11-27T13:17:08.000Z</time>
      </trkpt>
      <trkpt lat="45.59361" lon="6.61939">
        <ele>2361.1999511719</ele>
        <time>2015-11-27T13:17:09.000Z</time>
      </trkpt>
      <trkpt lat="45.59358" lon="6.61942">
        <ele>2358</ele>
        <time>2015-11-27T13:17:10.000Z</time>
      </trkpt>
      <trkpt lat="45.59358" lon="6.61947">
        <ele>2356</ele>
        <time>2015-11-27T13:17:11.000Z</time>
      </trkpt>
      <trkpt lat="45.59356" lon="6.61951">
        <ele>2354.1999511719</ele>
        <time>2015-11-27T13:17:12.000Z</time>
      </trkpt>
      <trkpt lat="45.59354" lon="6.61955">
        <ele>2352.1999511719</ele>
        <time>2015-11-27T13:17:13.000Z</time>
      </trkpt>
      <trkpt lat="45.59353" lon="6.61959">
        <ele>2350.3999023438</ele>
        <time>2015-11-27T13:17:14.000Z</time>
      </trkpt>
      <trkpt lat="45.59353" lon="6.61962">
        <ele>2348.3999023438</ele>
        <time>2015-11-27T13:17:15.000Z</time>
      </trkpt>
      <trkpt lat="45.59351" lon="6.61965">
        <ele>2346.3999023438</ele>
        <time>2015-11-27T13:17:16.000Z</time>
      </trkpt>
      <trkpt lat="45.59348" lon="6.6197">
        <ele>2344.6000976562</ele>
        <time>2015-11-27T13:17:17.000Z</time>
      </trkpt>
      <trkpt lat="45.59348" lon="6.61975">
        <ele>2342.8000488281</ele>
        <time>2015-11-27T13:17:18.000Z</time>
      </trkpt>
      <trkpt lat="45.59347" lon="6.61981">
        <ele>2340.6000976562</ele>
        <time>2015-11-27T13:17:19.000Z</time>
      </trkpt>
      <trkpt lat="45.59344" lon="6.61985">
        <ele>2338.6000976562</ele>
        <time>2015-11-27T13:17:20.000Z</time>
      </trkpt>
      <trkpt lat="45.59341" lon="6.61987">
        <ele>2336.3999023438</ele>
        <time>2015-11-27T13:17:21.000Z</time>
      </trkpt>
      <trkpt lat="45.59339" lon="6.61991">
        <ele>2334</ele>
        <time>2015-11-27T13:17:22.000Z</time>
      </trkpt>
      <trkpt lat="45.59336" lon="6.61995">
        <ele>2331.8000488281</ele>
        <time>2015-11-27T13:17:23.000Z</time>
      </trkpt>
      <trkpt lat="45.59332" lon="6.61997">
        <ele>2330</ele>
        <time>2015-11-27T13:17:24.000Z</time>
      </trkpt>
      <trkpt lat="45.5933" lon="6.62002">
        <ele>2328.3999023438</ele>
        <time>2015-11-27T13:17:25.000Z</time>
      </trkpt>
      <trkpt lat="45.59329" lon="6.62005">
        <ele>2326.3999023438</ele>
        <time>2015-11-27T13:17:26.000Z</time>
      </trkpt>
      <trkpt lat="45.59325" lon="6.62009">
        <ele>2324.1999511719</ele>
        <time>2015-11-27T13:17:27.000Z</time>
      </trkpt>
      <trkpt lat="45.59322" lon="6.62012">
        <ele>2322</ele>
        <time>2015-11-27T13:17:28.000Z</time>
      </trkpt>
      <trkpt lat="45.59323" lon="6.62015">
        <ele>2319.8000488281</ele>
        <time>2015-11-27T13:17:29.000Z</time>
      </trkpt>
      <trkpt lat="45.59325" lon="6.6202">
        <ele>2317.3999023438</ele>
        <time>2015-11-27T13:17:30.000Z</time>
      </trkpt>
      <trkpt lat="45.59325" lon="6.62023">
        <ele>2315.1999511719</ele>
        <time>2015-11-27T13:17:31.000Z</time>
      </trkpt>
      <trkpt lat="45.59323" lon="6.62027">
        <ele>2313.1999511719</ele>
        <time>2015-11-27T13:17:32.000Z</time>
      </trkpt>
      <trkpt lat="45.5932" lon="6.62029">
        <ele>2311.1999511719</ele>
        <time>2015-11-27T13:17:33.000Z</time>
      </trkpt>
      <trkpt lat="45.59316" lon="6.6203">
        <ele>2306.8000488281</ele>
        <time>2015-11-27T13:17:34.000Z</time>
      </trkpt>
      <trkpt lat="45.59316" lon="6.62032">
        <ele>2304.6000976562</ele>
        <time>2015-11-27T13:17:35.000Z</time>
      </trkpt>
      <trkpt lat="45.59317" lon="6.62036">
        <ele>2302.6000976562</ele>
        <time>2015-11-27T13:17:36.000Z</time>
      </trkpt>
      <trkpt lat="45.59318" lon="6.62039">
        <ele>2301.1999511719</ele>
        <time>2015-11-27T13:17:37.000Z</time>
      </trkpt>
      <trkpt lat="45.59316" lon="6.62043">
        <ele>2299.6000976562</ele>
        <time>2015-11-27T13:17:38.000Z</time>
      </trkpt>
      <trkpt lat="45.59313" lon="6.62046">
        <ele>2297.6000976562</ele>
        <time>2015-11-27T13:17:39.000Z</time>
      </trkpt>
      <trkpt lat="45.59312" lon="6.62051">
        <ele>2295.1999511719</ele>
        <time>2015-11-27T13:17:40.000Z</time>
      </trkpt>
      <trkpt lat="45.59311" lon="6.62056">
        <ele>2292.8000488281</ele>
        <time>2015-11-27T13:17:41.000Z</time>
      </trkpt>
      <trkpt lat="45.59308" lon="6.62058">
        <ele>2290.6000976562</ele>
        <time>2015-11-27T13:17:42.000Z</time>
      </trkpt>
      <trkpt lat="45.59307" lon="6.62061">
        <ele>2288.3999023438</ele>
        <time>2015-11-27T13:17:43.000Z</time>
      </trkpt>
      <trkpt lat="45.59306" lon="6.62065">
        <ele>2286.1999511719</ele>
        <time>2015-11-27T13:17:44.000Z</time>
      </trkpt>
      <trkpt lat="45.59303" lon="6.62067">
        <ele>2283.8000488281</ele>
        <time>2015-11-27T13:17:45.000Z</time>
      </trkpt>
      <trkpt lat="45.59299" lon="6.62068">
        <ele>2281.6000976562</ele>
        <time>2015-11-27T13:17:46.000Z</time>
      </trkpt>
      <trkpt lat="45.59297" lon="6.62071">
        <ele>2279.1999511719</ele>
        <time>2015-11-27T13:17:47.000Z</time>
      </trkpt>
      <trkpt lat="45.59296" lon="6.62074">
        <ele>2276.6000976562</ele>
        <time>2015-11-27T13:17:48.000Z</time>
      </trkpt>
      <trkpt lat="45.59291" lon="6.62077">
        <ele>2274.1999511719</ele>
        <time>2015-11-27T13:17:49.000Z</time>
      </trkpt>
      <trkpt lat="45.59289" lon="6.6208">
        <ele>2271.8000488281</ele>
        <time>2015-11-27T13:17:50.000Z</time>
      </trkpt>
      <trkpt lat="45.59289" lon="6.62084">
        <ele>2269.6000976562</ele>
        <time>2015-11-27T13:17:51.000Z</time>
      </trkpt>
      <trkpt lat="45.59288" lon="6.62088">
        <ele>2267.1999511719</ele>
        <time>2015-11-27T13:17:52.000Z</time>
      </trkpt>
      <trkpt lat="45.59288" lon="6.62094">
        <ele>2265.1999511719</ele>
        <time>2015-11-27T13:17:53.000Z</time>
      </trkpt>
      <trkpt lat="45.59288" lon="6.62099">
        <ele>2263</ele>
        <time>2015-11-27T13:17:54.000Z</time>
      </trkpt>
      <trkpt lat="45.59284" lon="6.62106">
        <ele>2260.8000488281</ele>
        <time>2015-11-27T13:17:55.000Z</time>
      </trkpt>
      <trkpt lat="45.59279" lon="6.62109">
        <ele>2258.3999023438</ele>
        <time>2015-11-27T13:17:56.000Z</time>
      </trkpt>
      <trkpt lat="45.59275" lon="6.62112">
        <ele>2255.8000488281</ele>
        <time>2015-11-27T13:17:57.000Z</time>
      </trkpt>
      <trkpt lat="45.59272" lon="6.62116">
        <ele>2250.1999511719</ele>
        <time>2015-11-27T13:17:58.000Z</time>
      </trkpt>
      <trkpt lat="45.59269" lon="6.6212">
        <ele>2248</ele>
        <time>2015-11-27T13:17:59.000Z</time>
      </trkpt>
      <trkpt lat="45.59265" lon="6.62123">
        <ele>2245.8000488281</ele>
        <time>2015-11-27T13:18:00.000Z</time>
      </trkpt>
      <trkpt lat="45.59261" lon="6.62125">
        <ele>2243.6000976562</ele>
        <time>2015-11-27T13:18:01.000Z</time>
      </trkpt>
      <trkpt lat="45.59261" lon="6.62127">
        <ele>2241.1999511719</ele>
        <time>2015-11-27T13:18:02.000Z</time>
      </trkpt>
      <trkpt lat="45.59261" lon="6.62128">
        <ele>2238.8000488281</ele>
        <time>2015-11-27T13:18:03.000Z</time>
      </trkpt>
      <trkpt lat="45.59261" lon="6.62128">
        <ele>2236.6000976562</ele>
        <time>2015-11-27T13:18:04.000Z</time>
      </trkpt>
      <trkpt lat="45.59261" lon="6.62128">
        <ele>2234.8000488281</ele>
        <time>2015-11-27T13:18:05.000Z</time>
      </trkpt>
      <trkpt lat="45.59261" lon="6.62128">
        <ele>2233.3999023438</ele>
        <time>2015-11-27T13:18:06.000Z</time>
      </trkpt>
      <trkpt lat="45.59261" lon="6.62128">
        <ele>2232.3999023438</ele>
        <time>2015-11-27T13:18:07.000Z</time>
      </trkpt>
      <trkpt lat="45.59261" lon="6.62127">
        <ele>2231.1999511719</ele>
        <time>2015-11-27T13:18:09.000Z</time>
      </trkpt>
      <trkpt lat="45.5926" lon="6.62127">
        <ele>2230.8000488281</ele>
        <time>2015-11-27T13:18:13.000Z</time>
      </trkpt>
      <trkpt lat="45.5926" lon="6.62131">
        <ele>2230.3999023438</ele>
        <time>2015-11-27T13:18:27.000Z</time>
      </trkpt>
      <trkpt lat="45.59258" lon="6.62131">
        <ele>2230.3999023438</ele>
        <time>2015-11-27T13:18:40.000Z</time>
      </trkpt>
      <trkpt lat="45.59258" lon="6.62131">
        <ele>2230.3999023438</ele>
        <time>2015-11-27T13:18:41.000Z</time>
      </trkpt>
      <trkpt lat="45.59258" lon="6.62131">
        <ele>2230.1999511719</ele>
        <time>2015-11-27T13:18:57.000Z</time>
      </trkpt>
      <trkpt lat="45.59258" lon="6.62131">
        <ele>2230.1999511719</ele>
        <time>2015-11-27T13:19:17.000Z</time>
      </trkpt>
      <trkpt lat="45.59258" lon="6.62129">
        <ele>2230.3999023438</ele>
        <time>2015-11-27T13:19:27.000Z</time>
      </trkpt>
      <trkpt lat="45.59258" lon="6.6213">
        <ele>2230.3999023438</ele>
        <time>2015-11-27T13:19:30.000Z</time>
      </trkpt>
      <trkpt lat="45.59255" lon="6.62129">
        <ele>2230.3999023438</ele>
        <time>2015-11-27T13:19:31.000Z</time>
      </trkpt>
      <trkpt lat="45.59255" lon="6.62131">
        <ele>2230.1999511719</ele>
        <time>2015-11-27T13:19:32.000Z</time>
      </trkpt>
      <trkpt lat="45.59256" lon="6.62133">
        <ele>2229.8000488281</ele>
        <time>2015-11-27T13:19:33.000Z</time>
      </trkpt>
      <trkpt lat="45.59256" lon="6.62136">
        <ele>2229</ele>
        <time>2015-11-27T13:19:34.000Z</time>
      </trkpt>
      <trkpt lat="45.59253" lon="6.62142">
        <ele>2226.8000488281</ele>
        <time>2015-11-27T13:19:36.000Z</time>
      </trkpt>
      <trkpt lat="45.59252" lon="6.62146">
        <ele>2225.1999511719</ele>
        <time>2015-11-27T13:19:37.000Z</time>
      </trkpt>
      <trkpt lat="45.59249" lon="6.62151">
        <ele>2223.6000976562</ele>
        <time>2015-11-27T13:19:38.000Z</time>
      </trkpt>
      <trkpt lat="45.59248" lon="6.62156">
        <ele>2221.8000488281</ele>
        <time>2015-11-27T13:19:39.000Z</time>
      </trkpt>
      <trkpt lat="45.5925" lon="6.62161">
        <ele>2219.8000488281</ele>
        <time>2015-11-27T13:19:40.000Z</time>
      </trkpt>
      <trkpt lat="45.59249" lon="6.62166">
        <ele>2217.6000976562</ele>
        <time>2015-11-27T13:19:41.000Z</time>
      </trkpt>
      <trkpt lat="45.59246" lon="6.6217">
        <ele>2215.3999023438</ele>
        <time>2015-11-27T13:19:42.000Z</time>
      </trkpt>
      <trkpt lat="45.59243" lon="6.62174">
        <ele>2213.1999511719</ele>
        <time>2015-11-27T13:19:43.000Z</time>
      </trkpt>
      <trkpt lat="45.59243" lon="6.6218">
        <ele>2210.8000488281</ele>
        <time>2015-11-27T13:19:44.000Z</time>
      </trkpt>
      <trkpt lat="45.59241" lon="6.62185">
        <ele>2208.6000976562</ele>
        <time>2015-11-27T13:19:45.000Z</time>
      </trkpt>
      <trkpt lat="45.59237" lon="6.62189">
        <ele>2206.3999023438</ele>
        <time>2015-11-27T13:19:46.000Z</time>
      </trkpt>
      <trkpt lat="45.59234" lon="6.62195">
        <ele>2203.8000488281</ele>
        <time>2015-11-27T13:19:47.000Z</time>
      </trkpt>
      <trkpt lat="45.5923" lon="6.62201">
        <ele>2201</ele>
        <time>2015-11-27T13:19:48.000Z</time>
      </trkpt>
      <trkpt lat="45.59224" lon="6.62207">
        <ele>2198.3999023438</ele>
        <time>2015-11-27T13:19:49.000Z</time>
      </trkpt>
      <trkpt lat="45.59221" lon="6.62214">
        <ele>2195.6000976562</ele>
        <time>2015-11-27T13:19:50.000Z</time>
      </trkpt>
      <trkpt lat="45.5922" lon="6.62222">
        <ele>2192.8000488281</ele>
        <time>2015-11-27T13:19:51.000Z</time>
      </trkpt>
      <trkpt lat="45.59217" lon="6.6223">
        <ele>2189.8000488281</ele>
        <time>2015-11-27T13:19:52.000Z</time>
      </trkpt>
      <trkpt lat="45.59213" lon="6.62237">
        <ele>2187</ele>
        <time>2015-11-27T13:19:53.000Z</time>
      </trkpt>
      <trkpt lat="45.5921" lon="6.62238">
        <ele>2184</ele>
        <time>2015-11-27T13:19:54.000Z</time>
      </trkpt>
      <trkpt lat="45.59208" lon="6.62237">
        <ele>2181</ele>
        <time>2015-11-27T13:19:55.000Z</time>
      </trkpt>
      <trkpt lat="45.59207" lon="6.62237">
        <ele>2178</ele>
        <time>2015-11-27T13:19:56.000Z</time>
      </trkpt>
      <trkpt lat="45.59206" lon="6.62236">
        <ele>2175.1999511719</ele>
        <time>2015-11-27T13:19:57.000Z</time>
      </trkpt>
      <trkpt lat="45.59205" lon="6.62236">
        <ele>2171.8000488281</ele>
        <time>2015-11-27T13:19:58.000Z</time>
      </trkpt>
      <trkpt lat="45.59205" lon="6.62234">
        <ele>2170.8000488281</ele>
        <time>2015-11-27T13:20:00.000Z</time>
      </trkpt>
      <trkpt lat="45.59205" lon="6.62234">
        <ele>2170.1999511719</ele>
        <time>2015-11-27T13:20:09.000Z</time>
      </trkpt>
      <trkpt lat="45.59205" lon="6.62234">
        <ele>2170</ele>
        <time>2015-11-27T13:20:24.000Z</time>
      </trkpt>
      <trkpt lat="45.59205" lon="6.62234">
        <ele>2170</ele>
        <time>2015-11-27T13:20:43.000Z</time>
      </trkpt>
      <trkpt lat="45.59205" lon="6.62234">
        <ele>2170</ele>
        <time>2015-11-27T13:20:57.000Z</time>
      </trkpt>
      <trkpt lat="45.59205" lon="6.62234">
        <ele>2170</ele>
        <time>2015-11-27T13:21:11.000Z</time>
      </trkpt>
      <trkpt lat="45.59205" lon="6.62234">
        <ele>2170</ele>
        <time>2015-11-27T13:21:20.000Z</time>
      </trkpt>
      <trkpt lat="45.59205" lon="6.62234">
        <ele>2169.8000488281</ele>
        <time>2015-11-27T13:21:32.000Z</time>
      </trkpt>
      <trkpt lat="45.59205" lon="6.62234">
        <ele>2169.8000488281</ele>
        <time>2015-11-27T13:21:52.000Z</time>
      </trkpt>
      <trkpt lat="45.59204" lon="6.62236">
        <ele>2169.6000976562</ele>
        <time>2015-11-27T13:21:58.000Z</time>
      </trkpt>
      <trkpt lat="45.59203" lon="6.62239">
        <ele>2169.1999511719</ele>
        <time>2015-11-27T13:22:01.000Z</time>
      </trkpt>
      <trkpt lat="45.59205" lon="6.62241">
        <ele>2169</ele>
        <time>2015-11-27T13:22:02.000Z</time>
      </trkpt>
      <trkpt lat="45.59203" lon="6.62245">
        <ele>2168.8000488281</ele>
        <time>2015-11-27T13:22:04.000Z</time>
      </trkpt>
      <trkpt lat="45.59201" lon="6.62246">
        <ele>2168.6000976562</ele>
        <time>2015-11-27T13:22:05.000Z</time>
      </trkpt>
      <trkpt lat="45.592" lon="6.62254">
        <ele>2167.3999023438</ele>
        <time>2015-11-27T13:22:07.000Z</time>
      </trkpt>
      <trkpt lat="45.59198" lon="6.62257">
        <ele>2166.6000976562</ele>
        <time>2015-11-27T13:22:08.000Z</time>
      </trkpt>
      <trkpt lat="45.59198" lon="6.62262">
        <ele>2165.8000488281</ele>
        <time>2015-11-27T13:22:09.000Z</time>
      </trkpt>
      <trkpt lat="45.59196" lon="6.62273">
        <ele>2163.8000488281</ele>
        <time>2015-11-27T13:22:11.000Z</time>
      </trkpt>
      <trkpt lat="45.59197" lon="6.62278">
        <ele>2162.6000976562</ele>
        <time>2015-11-27T13:22:12.000Z</time>
      </trkpt>
      <trkpt lat="45.59194" lon="6.62282">
        <ele>2161.1999511719</ele>
        <time>2015-11-27T13:22:13.000Z</time>
      </trkpt>
      <trkpt lat="45.59193" lon="6.62288">
        <ele>2159.8000488281</ele>
        <time>2015-11-27T13:22:14.000Z</time>
      </trkpt>
      <trkpt lat="45.59188" lon="6.62294">
        <ele>2158</ele>
        <time>2015-11-27T13:22:15.000Z</time>
      </trkpt>
      <trkpt lat="45.59183" lon="6.62299">
        <ele>2156</ele>
        <time>2015-11-27T13:22:16.000Z</time>
      </trkpt>
      <trkpt lat="45.59177" lon="6.62303">
        <ele>2154.1999511719</ele>
        <time>2015-11-27T13:22:17.000Z</time>
      </trkpt>
      <trkpt lat="45.59172" lon="6.62306">
        <ele>2152.1999511719</ele>
        <time>2015-11-27T13:22:18.000Z</time>
      </trkpt>
      <trkpt lat="45.59169" lon="6.6231">
        <ele>2150</ele>
        <time>2015-11-27T13:22:19.000Z</time>
      </trkpt>
      <trkpt lat="45.59166" lon="6.62316">
        <ele>2147.8000488281</ele>
        <time>2015-11-27T13:22:20.000Z</time>
      </trkpt>
      <trkpt lat="45.59164" lon="6.62322">
        <ele>2145.8000488281</ele>
        <time>2015-11-27T13:22:21.000Z</time>
      </trkpt>
      <trkpt lat="45.59162" lon="6.6233">
        <ele>2144</ele>
        <time>2015-11-27T13:22:22.000Z</time>
      </trkpt>
      <trkpt lat="45.59159" lon="6.62335">
        <ele>2141</ele>
        <time>2015-11-27T13:22:23.000Z</time>
      </trkpt>
      <trkpt lat="45.59156" lon="6.62342">
        <ele>2139.3999023438</ele>
        <time>2015-11-27T13:22:24.000Z</time>
      </trkpt>
      <trkpt lat="45.59153" lon="6.6235">
        <ele>2137.6000976562</ele>
        <time>2015-11-27T13:22:25.000Z</time>
      </trkpt>
      <trkpt lat="45.59148" lon="6.62358">
        <ele>2135.3999023438</ele>
        <time>2015-11-27T13:22:26.000Z</time>
      </trkpt>
      <trkpt lat="45.59144" lon="6.62366">
        <ele>2133.1999511719</ele>
        <time>2015-11-27T13:22:27.000Z</time>
      </trkpt>
      <trkpt lat="45.59141" lon="6.62374">
        <ele>2130.8000488281</ele>
        <time>2015-11-27T13:22:28.000Z</time>
      </trkpt>
      <trkpt lat="45.59138" lon="6.62381">
        <ele>2128.3999023438</ele>
        <time>2015-11-27T13:22:29.000Z</time>
      </trkpt>
      <trkpt lat="45.59138" lon="6.62386">
        <ele>2126.1999511719</ele>
        <time>2015-11-27T13:22:30.000Z</time>
      </trkpt>
      <trkpt lat="45.59137" lon="6.6239">
        <ele>2124.3999023438</ele>
        <time>2015-11-27T13:22:31.000Z</time>
      </trkpt>
      <trkpt lat="45.59136" lon="6.62393">
        <ele>2122.8000488281</ele>
        <time>2015-11-27T13:22:32.000Z</time>
      </trkpt>
      <trkpt lat="45.59135" lon="6.62394">
        <ele>2121.6000976562</ele>
        <time>2015-11-27T13:22:33.000Z</time>
      </trkpt>
      <trkpt lat="45.59135" lon="6.62393">
        <ele>2120.3999023438</ele>
        <time>2015-11-27T13:22:34.000Z</time>
      </trkpt>
      <trkpt lat="45.59136" lon="6.6239">
        <ele>2119.3999023438</ele>
        <time>2015-11-27T13:22:35.000Z</time>
      </trkpt>
      <trkpt lat="45.59136" lon="6.6239">
        <ele>2117.8000488281</ele>
        <time>2015-11-27T13:22:37.000Z</time>
      </trkpt>
      <trkpt lat="45.59136" lon="6.6239">
        <ele>2117.1999511719</ele>
        <time>2015-11-27T13:22:42.000Z</time>
      </trkpt>
      <trkpt lat="45.59136" lon="6.6239">
        <ele>2117</ele>
        <time>2015-11-27T13:22:55.000Z</time>
      </trkpt>
      <trkpt lat="45.59136" lon="6.6239">
        <ele>2117.1999511719</ele>
        <time>2015-11-27T13:23:12.000Z</time>
      </trkpt>
      <trkpt lat="45.59136" lon="6.6239">
        <ele>2117</ele>
        <time>2015-11-27T13:23:28.000Z</time>
      </trkpt>
      <trkpt lat="45.59136" lon="6.6239">
        <ele>2117</ele>
        <time>2015-11-27T13:23:42.000Z</time>
      </trkpt>
      <trkpt lat="45.59136" lon="6.6239">
        <ele>2116.8000488281</ele>
        <time>2015-11-27T13:23:43.000Z</time>
      </trkpt>
      <trkpt lat="45.59137" lon="6.62387">
        <ele>2117</ele>
        <time>2015-11-27T13:24:02.000Z</time>
      </trkpt>
      <trkpt lat="45.59137" lon="6.62387">
        <ele>2117</ele>
        <time>2015-11-27T13:24:09.000Z</time>
      </trkpt>
      <trkpt lat="45.59137" lon="6.62387">
        <ele>2117</ele>
        <time>2015-11-27T13:24:24.000Z</time>
      </trkpt>
      <trkpt lat="45.59138" lon="6.62386">
        <ele>2117</ele>
        <time>2015-11-27T13:24:43.000Z</time>
      </trkpt>
      <trkpt lat="45.59138" lon="6.62385">
        <ele>2117</ele>
        <time>2015-11-27T13:24:54.000Z</time>
      </trkpt>
      <trkpt lat="45.59138" lon="6.62385">
        <ele>2117</ele>
        <time>2015-11-27T13:25:08.000Z</time>
      </trkpt>
      <trkpt lat="45.59138" lon="6.62385">
        <ele>2117</ele>
        <time>2015-11-27T13:25:23.000Z</time>
      </trkpt>
      <trkpt lat="45.59138" lon="6.62385">
        <ele>2117</ele>
        <time>2015-11-27T13:25:40.000Z</time>
      </trkpt>
      <trkpt lat="45.59138" lon="6.62384">
        <ele>2117.1999511719</ele>
        <time>2015-11-27T13:25:51.000Z</time>
      </trkpt>
      <trkpt lat="45.59136" lon="6.62386">
        <ele>2116.8000488281</ele>
        <time>2015-11-27T13:26:02.000Z</time>
      </trkpt>
      <trkpt lat="45.59132" lon="6.62394">
        <ele>2116.8000488281</ele>
        <time>2015-11-27T13:26:08.000Z</time>
      </trkpt>
      <trkpt lat="45.59127" lon="6.62408">
        <ele>2115.8000488281</ele>
        <time>2015-11-27T13:26:12.000Z</time>
      </trkpt>
      <trkpt lat="45.59124" lon="6.62416">
        <ele>2114.8000488281</ele>
        <time>2015-11-27T13:26:14.000Z</time>
      </trkpt>
      <trkpt lat="45.59123" lon="6.6242">
        <ele>2114.1999511719</ele>
        <time>2015-11-27T13:26:15.000Z</time>
      </trkpt>
      <trkpt lat="45.5912" lon="6.62429">
        <ele>2113.1999511719</ele>
        <time>2015-11-27T13:26:17.000Z</time>
      </trkpt>
      <trkpt lat="45.59118" lon="6.62441">
        <ele>2112.1999511719</ele>
        <time>2015-11-27T13:26:19.000Z</time>
      </trkpt>
      <trkpt lat="45.59116" lon="6.62451">
        <ele>2110.8000488281</ele>
        <time>2015-11-27T13:26:21.000Z</time>
      </trkpt>
      <trkpt lat="45.59114" lon="6.62464">
        <ele>2108.8000488281</ele>
        <time>2015-11-27T13:26:23.000Z</time>
      </trkpt>
      <trkpt lat="45.5911" lon="6.62474">
        <ele>2107</ele>
        <time>2015-11-27T13:26:25.000Z</time>
      </trkpt>
      <trkpt lat="45.59104" lon="6.62486">
        <ele>2105</ele>
        <time>2015-11-27T13:26:27.000Z</time>
      </trkpt>
      <trkpt lat="45.591" lon="6.62489">
        <ele>2103.8000488281</ele>
        <time>2015-11-27T13:26:28.000Z</time>
      </trkpt>
      <trkpt lat="45.59097" lon="6.62491">
        <ele>2102.3999023438</ele>
        <time>2015-11-27T13:26:29.000Z</time>
      </trkpt>
      <trkpt lat="45.59097" lon="6.62494">
        <ele>2100.8000488281</ele>
        <time>2015-11-27T13:26:30.000Z</time>
      </trkpt>
      <trkpt lat="45.59097" lon="6.62499">
        <ele>2099.6000976562</ele>
        <time>2015-11-27T13:26:31.000Z</time>
      </trkpt>
      <trkpt lat="45.591" lon="6.62503">
        <ele>2098.3999023438</ele>
        <time>2015-11-27T13:26:32.000Z</time>
      </trkpt>
      <trkpt lat="45.591" lon="6.6251">
        <ele>2097.1999511719</ele>
        <time>2015-11-27T13:26:33.000Z</time>
      </trkpt>
      <trkpt lat="45.591" lon="6.62518">
        <ele>2096</ele>
        <time>2015-11-27T13:26:34.000Z</time>
      </trkpt>
      <trkpt lat="45.591" lon="6.62523">
        <ele>2095</ele>
        <time>2015-11-27T13:26:35.000Z</time>
      </trkpt>
      <trkpt lat="45.591" lon="6.62529">
        <ele>2093.8000488281</ele>
        <time>2015-11-27T13:26:36.000Z</time>
      </trkpt>
      <trkpt lat="45.59102" lon="6.62535">
        <ele>2092.8000488281</ele>
        <time>2015-11-27T13:26:37.000Z</time>
      </trkpt>
      <trkpt lat="45.59103" lon="6.62541">
        <ele>2092</ele>
        <time>2015-11-27T13:26:38.000Z</time>
      </trkpt>
      <trkpt lat="45.59111" lon="6.6255">
        <ele>2090.3999023438</ele>
        <time>2015-11-27T13:26:40.000Z</time>
      </trkpt>
      <trkpt lat="45.5911" lon="6.62554">
        <ele>2089.6000976562</ele>
        <time>2015-11-27T13:26:41.000Z</time>
      </trkpt>
      <trkpt lat="45.5911" lon="6.62558">
        <ele>2088.8000488281</ele>
        <time>2015-11-27T13:26:42.000Z</time>
      </trkpt>
      <trkpt lat="45.59108" lon="6.6256">
        <ele>2087.6000976562</ele>
        <time>2015-11-27T13:26:43.000Z</time>
      </trkpt>
      <trkpt lat="45.59107" lon="6.62561">
        <ele>2086.6000976562</ele>
        <time>2015-11-27T13:26:44.000Z</time>
      </trkpt>
      <trkpt lat="45.59106" lon="6.62561">
        <ele>2085.6000976562</ele>
        <time>2015-11-27T13:26:45.000Z</time>
      </trkpt>
      <trkpt lat="45.59106" lon="6.62561">
        <ele>2085</ele>
        <time>2015-11-27T13:26:46.000Z</time>
      </trkpt>
      <trkpt lat="45.59106" lon="6.62561">
        <ele>2083.8000488281</ele>
        <time>2015-11-27T13:26:47.000Z</time>
      </trkpt>
      <trkpt lat="45.59106" lon="6.62561">
        <ele>2083</ele>
        <time>2015-11-27T13:26:58.000Z</time>
      </trkpt>
      <trkpt lat="45.59102" lon="6.62563">
        <ele>2083</ele>
        <time>2015-11-27T13:27:08.000Z</time>
      </trkpt>
      <trkpt lat="45.591" lon="6.62564">
        <ele>2082.8000488281</ele>
        <time>2015-11-27T13:27:10.000Z</time>
      </trkpt>
      <trkpt lat="45.59098" lon="6.62566">
        <ele>2082.6000976562</ele>
        <time>2015-11-27T13:27:13.000Z</time>
      </trkpt>
      <trkpt lat="45.59095" lon="6.62577">
        <ele>2082.1999511719</ele>
        <time>2015-11-27T13:27:17.000Z</time>
      </trkpt>
      <trkpt lat="45.59091" lon="6.62594">
        <ele>2081.6000976562</ele>
        <time>2015-11-27T13:27:20.000Z</time>
      </trkpt>
      <trkpt lat="45.5909" lon="6.62601">
        <ele>2081.1999511719</ele>
        <time>2015-11-27T13:27:21.000Z</time>
      </trkpt>
      <trkpt lat="45.5909" lon="6.62608">
        <ele>2080.6000976562</ele>
        <time>2015-11-27T13:27:22.000Z</time>
      </trkpt>
      <trkpt lat="45.59089" lon="6.62623">
        <ele>2078.8000488281</ele>
        <time>2015-11-27T13:27:24.000Z</time>
      </trkpt>
      <trkpt lat="45.59089" lon="6.62628">
        <ele>2077.8000488281</ele>
        <time>2015-11-27T13:27:25.000Z</time>
      </trkpt>
      <trkpt lat="45.59088" lon="6.62633">
        <ele>2076.8000488281</ele>
        <time>2015-11-27T13:27:26.000Z</time>
      </trkpt>
      <trkpt lat="45.59088" lon="6.62638">
        <ele>2075.3999023438</ele>
        <time>2015-11-27T13:27:27.000Z</time>
      </trkpt>
      <trkpt lat="45.59087" lon="6.62644">
        <ele>2074.1999511719</ele>
        <time>2015-11-27T13:27:28.000Z</time>
      </trkpt>
      <trkpt lat="45.59085" lon="6.62652">
        <ele>2073.1999511719</ele>
        <time>2015-11-27T13:27:29.000Z</time>
      </trkpt>
      <trkpt lat="45.59081" lon="6.62667">
        <ele>2071.6000976562</ele>
        <time>2015-11-27T13:27:31.000Z</time>
      </trkpt>
      <trkpt lat="45.59078" lon="6.62675">
        <ele>2070.6000976562</ele>
        <time>2015-11-27T13:27:32.000Z</time>
      </trkpt>
      <trkpt lat="45.59076" lon="6.62683">
        <ele>2069.6000976562</ele>
        <time>2015-11-27T13:27:33.000Z</time>
      </trkpt>
      <trkpt lat="45.59075" lon="6.62691">
        <ele>2068.3999023438</ele>
        <time>2015-11-27T13:27:34.000Z</time>
      </trkpt>
      <trkpt lat="45.59073" lon="6.62699">
        <ele>2065.6000976562</ele>
        <time>2015-11-27T13:27:35.000Z</time>
      </trkpt>
      <trkpt lat="45.59069" lon="6.62706">
        <ele>2064.1999511719</ele>
        <time>2015-11-27T13:27:36.000Z</time>
      </trkpt>
      <trkpt lat="45.59065" lon="6.62711">
        <ele>2063</ele>
        <time>2015-11-27T13:27:37.000Z</time>
      </trkpt>
      <trkpt lat="45.59063" lon="6.62715">
        <ele>2061.6000976562</ele>
        <time>2015-11-27T13:27:38.000Z</time>
      </trkpt>
      <trkpt lat="45.59061" lon="6.62716">
        <ele>2060.3999023438</ele>
        <time>2015-11-27T13:27:39.000Z</time>
      </trkpt>
      <trkpt lat="45.59059" lon="6.62716">
        <ele>2059.1999511719</ele>
        <time>2015-11-27T13:27:40.000Z</time>
      </trkpt>
      <trkpt lat="45.59058" lon="6.62716">
        <ele>2057.6000976562</ele>
        <time>2015-11-27T13:27:42.000Z</time>
      </trkpt>
      <trkpt lat="45.59057" lon="6.62715">
        <ele>2056.8000488281</ele>
        <time>2015-11-27T13:27:44.000Z</time>
      </trkpt>
      <trkpt lat="45.59057" lon="6.62715">
        <ele>2056.6000976562</ele>
        <time>2015-11-27T13:27:46.000Z</time>
      </trkpt>
      <trkpt lat="45.59057" lon="6.62715">
        <ele>2056.3999023438</ele>
        <time>2015-11-27T13:27:58.000Z</time>
      </trkpt>
      <trkpt lat="45.59053" lon="6.62716">
        <ele>2056.1999511719</ele>
        <time>2015-11-27T13:28:06.000Z</time>
      </trkpt>
      <trkpt lat="45.59046" lon="6.62719">
        <ele>2055.8000488281</ele>
        <time>2015-11-27T13:28:12.000Z</time>
      </trkpt>
      <trkpt lat="45.59043" lon="6.62721">
        <ele>2055.3999023438</ele>
        <time>2015-11-27T13:28:14.000Z</time>
      </trkpt>
      <trkpt lat="45.59035" lon="6.62734">
        <ele>2054.1999511719</ele>
        <time>2015-11-27T13:28:19.000Z</time>
      </trkpt>
      <trkpt lat="45.59033" lon="6.62736">
        <ele>2054</ele>
        <time>2015-11-27T13:28:20.000Z</time>
      </trkpt>
      <trkpt lat="45.5903" lon="6.62738">
        <ele>2052.8000488281</ele>
        <time>2015-11-27T13:28:23.000Z</time>
      </trkpt>
      <trkpt lat="45.5903" lon="6.62738">
        <ele>2052.6000976562</ele>
        <time>2015-11-27T13:28:24.000Z</time>
      </trkpt>
      <trkpt lat="45.59029" lon="6.6274">
        <ele>2052.1999511719</ele>
        <time>2015-11-27T13:28:34.000Z</time>
      </trkpt>
      <trkpt lat="45.59025" lon="6.62755">
        <ele>2052.1999511719</ele>
        <time>2015-11-27T13:28:38.000Z</time>
      </trkpt>
      <trkpt lat="45.59021" lon="6.62766">
        <ele>2051.6000976562</ele>
        <time>2015-11-27T13:28:40.000Z</time>
      </trkpt>
      <trkpt lat="45.59017" lon="6.62773">
        <ele>2050.3999023438</ele>
        <time>2015-11-27T13:28:42.000Z</time>
      </trkpt>
      <trkpt lat="45.59016" lon="6.62776">
        <ele>2049.6000976562</ele>
        <time>2015-11-27T13:28:43.000Z</time>
      </trkpt>
      <trkpt lat="45.59015" lon="6.62778">
        <ele>2048.8000488281</ele>
        <time>2015-11-27T13:28:44.000Z</time>
      </trkpt>
      <trkpt lat="45.59011" lon="6.62784">
        <ele>2047.8000488281</ele>
        <time>2015-11-27T13:28:46.000Z</time>
      </trkpt>
      <trkpt lat="45.59011" lon="6.62786">
        <ele>2046.4000244141</ele>
        <time>2015-11-27T13:28:48.000Z</time>
      </trkpt>
      <trkpt lat="45.59012" lon="6.62789">
        <ele>2045.4000244141</ele>
        <time>2015-11-27T13:28:53.000Z</time>
      </trkpt>
      <trkpt lat="45.59013" lon="6.62792">
        <ele>2045.4000244141</ele>
        <time>2015-11-27T13:28:54.000Z</time>
      </trkpt>
      <trkpt lat="45.59011" lon="6.62814">
        <ele>2044.5999755859</ele>
        <time>2015-11-27T13:28:58.000Z</time>
      </trkpt>
      <trkpt lat="45.59009" lon="6.6282">
        <ele>2044.1999511719</ele>
        <time>2015-11-27T13:28:59.000Z</time>
      </trkpt>
      <trkpt lat="45.59007" lon="6.62837">
        <ele>2042.8000488281</ele>
        <time>2015-11-27T13:29:01.000Z</time>
      </trkpt>
      <trkpt lat="45.59006" lon="6.62845">
        <ele>2042.1999511719</ele>
        <time>2015-11-27T13:29:02.000Z</time>
      </trkpt>
      <trkpt lat="45.59006" lon="6.6285">
        <ele>2041.1999511719</ele>
        <time>2015-11-27T13:29:03.000Z</time>
      </trkpt>
      <trkpt lat="45.59006" lon="6.62864">
        <ele>2039.1999511719</ele>
        <time>2015-11-27T13:29:05.000Z</time>
      </trkpt>
      <trkpt lat="45.59007" lon="6.62881">
        <ele>2037.5999755859</ele>
        <time>2015-11-27T13:29:07.000Z</time>
      </trkpt>
      <trkpt lat="45.59007" lon="6.62889">
        <ele>2036.8000488281</ele>
        <time>2015-11-27T13:29:08.000Z</time>
      </trkpt>
      <trkpt lat="45.59007" lon="6.62895">
        <ele>2036</ele>
        <time>2015-11-27T13:29:09.000Z</time>
      </trkpt>
      <trkpt lat="45.59009" lon="6.62905">
        <ele>2033</ele>
        <time>2015-11-27T13:29:11.000Z</time>
      </trkpt>
      <trkpt lat="45.59012" lon="6.6291">
        <ele>2032.1999511719</ele>
        <time>2015-11-27T13:29:12.000Z</time>
      </trkpt>
      <trkpt lat="45.59013" lon="6.62915">
        <ele>2031.4000244141</ele>
        <time>2015-11-27T13:29:13.000Z</time>
      </trkpt>
      <trkpt lat="45.59012" lon="6.62917">
        <ele>2029.8000488281</ele>
        <time>2015-11-27T13:29:15.000Z</time>
      </trkpt>
      <trkpt lat="45.59012" lon="6.62917">
        <ele>2028</ele>
        <time>2015-11-27T13:29:17.000Z</time>
      </trkpt>
      <trkpt lat="45.59012" lon="6.62917">
        <ele>2027</ele>
        <time>2015-11-27T13:29:20.000Z</time>
      </trkpt>
      <trkpt lat="45.59012" lon="6.62917">
        <ele>2026.4000244141</ele>
        <time>2015-11-27T13:29:22.000Z</time>
      </trkpt>
      <trkpt lat="45.59012" lon="6.62918">
        <ele>2026.5999755859</ele>
        <time>2015-11-27T13:29:28.000Z</time>
      </trkpt>
      <trkpt lat="45.59012" lon="6.62918">
        <ele>2026.1999511719</ele>
        <time>2015-11-27T13:29:35.000Z</time>
      </trkpt>
      <trkpt lat="45.59012" lon="6.62918">
        <ele>2025.8000488281</ele>
        <time>2015-11-27T13:29:40.000Z</time>
      </trkpt>
      <trkpt lat="45.59012" lon="6.62918">
        <ele>2025.8000488281</ele>
        <time>2015-11-27T13:29:42.000Z</time>
      </trkpt>
      <trkpt lat="45.59012" lon="6.62918">
        <ele>2025.5999755859</ele>
        <time>2015-11-27T13:29:52.000Z</time>
      </trkpt>
      <trkpt lat="45.59012" lon="6.62918">
        <ele>2025.4000244141</ele>
        <time>2015-11-27T13:29:57.000Z</time>
      </trkpt>
      <trkpt lat="45.59007" lon="6.62922">
        <ele>2025.4000244141</ele>
        <time>2015-11-27T13:30:00.000Z</time>
      </trkpt>
      <trkpt lat="45.59005" lon="6.62926">
        <ele>2025.4000244141</ele>
        <time>2015-11-27T13:30:03.000Z</time>
      </trkpt>
      <trkpt lat="45.59001" lon="6.62935">
        <ele>2025.1999511719</ele>
        <time>2015-11-27T13:30:05.000Z</time>
      </trkpt>
      <trkpt lat="45.58998" lon="6.6294">
        <ele>2024.8000488281</ele>
        <time>2015-11-27T13:30:07.000Z</time>
      </trkpt>
      <trkpt lat="45.58994" lon="6.62946">
        <ele>2023.8000488281</ele>
        <time>2015-11-27T13:30:11.000Z</time>
      </trkpt>
      <trkpt lat="45.58994" lon="6.62946">
        <ele>2022.5999755859</ele>
        <time>2015-11-27T13:30:17.000Z</time>
      </trkpt>
      <trkpt lat="45.58994" lon="6.62946">
        <ele>2022.5999755859</ele>
        <time>2015-11-27T13:30:19.000Z</time>
      </trkpt>
      <trkpt lat="45.58992" lon="6.6295">
        <ele>2022.1999511719</ele>
        <time>2015-11-27T13:30:31.000Z</time>
      </trkpt>
      <trkpt lat="45.58989" lon="6.62958">
        <ele>2021.8000488281</ele>
        <time>2015-11-27T13:30:35.000Z</time>
      </trkpt>
      <trkpt lat="45.58989" lon="6.62958">
        <ele>2021.5999755859</ele>
        <time>2015-11-27T13:30:36.000Z</time>
      </trkpt>
      <trkpt lat="45.58989" lon="6.62958">
        <ele>2020.8000488281</ele>
        <time>2015-11-27T13:30:44.000Z</time>
      </trkpt>
      <trkpt lat="45.58989" lon="6.62958">
        <ele>2020.8000488281</ele>
        <time>2015-11-27T13:30:57.000Z</time>
      </trkpt>
      <trkpt lat="45.58989" lon="6.62963">
        <ele>2020.8000488281</ele>
        <time>2015-11-27T13:31:05.000Z</time>
      </trkpt>
      <trkpt lat="45.58987" lon="6.62972">
        <ele>2020.5999755859</ele>
        <time>2015-11-27T13:31:07.000Z</time>
      </trkpt>
      <trkpt lat="45.58988" lon="6.62982">
        <ele>2019.4000244141</ele>
        <time>2015-11-27T13:31:11.000Z</time>
      </trkpt>
      <trkpt lat="45.5899" lon="6.62984">
        <ele>2019</ele>
        <time>2015-11-27T13:31:12.000Z</time>
      </trkpt>
      <trkpt lat="45.58993" lon="6.62995">
        <ele>2018.1999511719</ele>
        <time>2015-11-27T13:31:15.000Z</time>
      </trkpt>
      <trkpt lat="45.58992" lon="6.62998">
        <ele>2017.4000244141</ele>
        <time>2015-11-27T13:31:17.000Z</time>
      </trkpt>
      <trkpt lat="45.58992" lon="6.62998">
        <ele>2017</ele>
        <time>2015-11-27T13:31:18.000Z</time>
      </trkpt>
      <trkpt lat="45.58994" lon="6.62999">
        <ele>2016.4000244141</ele>
        <time>2015-11-27T13:31:23.000Z</time>
      </trkpt>
      <trkpt lat="45.58995" lon="6.63">
        <ele>2016.4000244141</ele>
        <time>2015-11-27T13:31:24.000Z</time>
      </trkpt>
      <trkpt lat="45.58999" lon="6.63002">
        <ele>2015.8000488281</ele>
        <time>2015-11-27T13:31:27.000Z</time>
      </trkpt>
      <trkpt lat="45.58999" lon="6.63002">
        <ele>2015.5999755859</ele>
        <time>2015-11-27T13:31:28.000Z</time>
      </trkpt>
      <trkpt lat="45.58998" lon="6.63009">
        <ele>2015.1999511719</ele>
        <time>2015-11-27T13:31:34.000Z</time>
      </trkpt>
      <trkpt lat="45.59001" lon="6.63021">
        <ele>2014.8000488281</ele>
        <time>2015-11-27T13:31:38.000Z</time>
      </trkpt>
      <trkpt lat="45.59003" lon="6.63026">
        <ele>2014.5999755859</ele>
        <time>2015-11-27T13:31:39.000Z</time>
      </trkpt>
      <trkpt lat="45.59009" lon="6.63047">
        <ele>2013.4000244141</ele>
        <time>2015-11-27T13:31:42.000Z</time>
      </trkpt>
      <trkpt lat="45.59009" lon="6.63054">
        <ele>2012.8000488281</ele>
        <time>2015-11-27T13:31:43.000Z</time>
      </trkpt>
      <trkpt lat="45.59007" lon="6.63059">
        <ele>2012</ele>
        <time>2015-11-27T13:31:44.000Z</time>
      </trkpt>
      <trkpt lat="45.59002" lon="6.63061">
        <ele>2010.1999511719</ele>
        <time>2015-11-27T13:31:46.000Z</time>
      </trkpt>
      <trkpt lat="45.59001" lon="6.63062">
        <ele>2009.5999755859</ele>
        <time>2015-11-27T13:31:47.000Z</time>
      </trkpt>
      <trkpt lat="45.58999" lon="6.63064">
        <ele>2009</ele>
        <time>2015-11-27T13:31:48.000Z</time>
      </trkpt>
      <trkpt lat="45.58996" lon="6.63073">
        <ele>2008.1999511719</ele>
        <time>2015-11-27T13:31:51.000Z</time>
      </trkpt>
      <trkpt lat="45.58995" lon="6.63076">
        <ele>2008</ele>
        <time>2015-11-27T13:31:52.000Z</time>
      </trkpt>
      <trkpt lat="45.58993" lon="6.63081">
        <ele>2007</ele>
        <time>2015-11-27T13:31:56.000Z</time>
      </trkpt>
      <trkpt lat="45.58992" lon="6.63083">
        <ele>2006.1999511719</ele>
        <time>2015-11-27T13:32:03.000Z</time>
      </trkpt>
      <trkpt lat="45.58992" lon="6.63083">
        <ele>2006</ele>
        <time>2015-11-27T13:32:10.000Z</time>
      </trkpt>
      <trkpt lat="45.58992" lon="6.63083">
        <ele>2005.8000488281</ele>
        <time>2015-11-27T13:32:14.000Z</time>
      </trkpt>
      <trkpt lat="45.58992" lon="6.63084">
        <ele>2005.8000488281</ele>
        <time>2015-11-27T13:32:18.000Z</time>
      </trkpt>
      <trkpt lat="45.58992" lon="6.63084">
        <ele>2006</ele>
        <time>2015-11-27T13:32:30.000Z</time>
      </trkpt>
      <trkpt lat="45.58992" lon="6.63084">
        <ele>2006</ele>
        <time>2015-11-27T13:32:44.000Z</time>
      </trkpt>
      <trkpt lat="45.58992" lon="6.63084">
        <ele>2004.8000488281</ele>
        <time>2015-11-27T13:32:48.000Z</time>
      </trkpt>
      <trkpt lat="45.58992" lon="6.63084">
        <ele>2006</ele>
        <time>2015-11-27T13:32:50.000Z</time>
      </trkpt>
      <trkpt lat="45.58992" lon="6.63084">
        <ele>2007</ele>
        <time>2015-11-27T13:32:53.000Z</time>
      </trkpt>
      <trkpt lat="45.58992" lon="6.63084">
        <ele>2006.4000244141</ele>
        <time>2015-11-27T13:32:56.000Z</time>
      </trkpt>
      <trkpt lat="45.58992" lon="6.63084">
        <ele>2005.8000488281</ele>
        <time>2015-11-27T13:33:01.000Z</time>
      </trkpt>
      <trkpt lat="45.58992" lon="6.63084">
        <ele>2005.5999755859</ele>
        <time>2015-11-27T13:33:09.000Z</time>
      </trkpt>
      <trkpt lat="45.58992" lon="6.63084">
        <ele>2006.1999511719</ele>
        <time>2015-11-27T13:33:19.000Z</time>
      </trkpt>
      <trkpt lat="45.58992" lon="6.63084">
        <ele>2006</ele>
        <time>2015-11-27T13:33:30.000Z</time>
      </trkpt>
      <trkpt lat="45.58992" lon="6.63084">
        <ele>2006</ele>
        <time>2015-11-27T13:33:50.000Z</time>
      </trkpt>
      <trkpt lat="45.58992" lon="6.63084">
        <ele>2006</ele>
        <time>2015-11-27T13:34:12.000Z</time>
      </trkpt>
      <trkpt lat="45.58992" lon="6.63084">
        <ele>2006</ele>
        <time>2015-11-27T13:34:32.000Z</time>
      </trkpt>
      <trkpt lat="45.58992" lon="6.63084">
        <ele>2006</ele>
        <time>2015-11-27T13:34:51.000Z</time>
      </trkpt>
      <trkpt lat="45.58992" lon="6.63084">
        <ele>2006</ele>
        <time>2015-11-27T13:35:10.000Z</time>
      </trkpt>
      <trkpt lat="45.58992" lon="6.63084">
        <ele>2006.1999511719</ele>
        <time>2015-11-27T13:35:30.000Z</time>
      </trkpt>
      <trkpt lat="45.58992" lon="6.63084">
        <ele>2006</ele>
        <time>2015-11-27T13:35:50.000Z</time>
      </trkpt>
      <trkpt lat="45.58992" lon="6.63084">
        <ele>2006</ele>
        <time>2015-11-27T13:36:03.000Z</time>
      </trkpt>
      <trkpt lat="45.58992" lon="6.63084">
        <ele>2006</ele>
        <time>2015-11-27T13:36:19.000Z</time>
      </trkpt>
      <trkpt lat="45.58992" lon="6.63084">
        <ele>2006</ele>
        <time>2015-11-27T13:36:29.000Z</time>
      </trkpt>
      <trkpt lat="45.58992" lon="6.63084">
        <ele>2006.5999755859</ele>
        <time>2015-11-27T13:36:41.000Z</time>
      </trkpt>
      <trkpt lat="45.58992" lon="6.63084">
        <ele>2006.8000488281</ele>
        <time>2015-11-27T13:36:56.000Z</time>
      </trkpt>
      <trkpt lat="45.58992" lon="6.63084">
        <ele>2006.4000244141</ele>
        <time>2015-11-27T13:37:11.000Z</time>
      </trkpt>
      <trkpt lat="45.58992" lon="6.63084">
        <ele>2006.5999755859</ele>
        <time>2015-11-27T13:37:28.000Z</time>
      </trkpt>
      <trkpt lat="45.58992" lon="6.63084">
        <ele>2006.8000488281</ele>
        <time>2015-11-27T13:37:39.000Z</time>
      </trkpt>
      <trkpt lat="45.58992" lon="6.63084">
        <ele>2006.8000488281</ele>
        <time>2015-11-27T13:37:58.000Z</time>
      </trkpt>
      <trkpt lat="45.58992" lon="6.63084">
        <ele>2006.5999755859</ele>
        <time>2015-11-27T13:38:13.000Z</time>
      </trkpt>
      <trkpt lat="45.58992" lon="6.63084">
        <ele>2006.5999755859</ele>
        <time>2015-11-27T13:38:21.000Z</time>
      </trkpt>
      <trkpt lat="45.58992" lon="6.63084">
        <ele>2006.8000488281</ele>
        <time>2015-11-27T13:38:27.000Z</time>
      </trkpt>
      <trkpt lat="45.58992" lon="6.63084">
        <ele>2007</ele>
        <time>2015-11-27T13:38:32.000Z</time>
      </trkpt>
      <trkpt lat="45.5899" lon="6.63084">
        <ele>2007</ele>
        <time>2015-11-27T13:38:45.000Z</time>
      </trkpt>
      <trkpt lat="45.58985" lon="6.63082">
        <ele>2007.5999755859</ele>
        <time>2015-11-27T13:38:51.000Z</time>
      </trkpt>
      <trkpt lat="45.5898" lon="6.63084">
        <ele>2007.5999755859</ele>
        <time>2015-11-27T13:38:56.000Z</time>
      </trkpt>
      <trkpt lat="45.58977" lon="6.63089">
        <ele>2007.1999511719</ele>
        <time>2015-11-27T13:39:00.000Z</time>
      </trkpt>
      <trkpt lat="45.58977" lon="6.63088">
        <ele>2007</ele>
        <time>2015-11-27T13:39:01.000Z</time>
      </trkpt>
      <trkpt lat="45.58974" lon="6.63095">
        <ele>2006.4000244141</ele>
        <time>2015-11-27T13:39:07.000Z</time>
      </trkpt>
      <trkpt lat="45.58971" lon="6.631">
        <ele>2006.1999511719</ele>
        <time>2015-11-27T13:39:13.000Z</time>
      </trkpt>
      <trkpt lat="45.5897" lon="6.631">
        <ele>2006.1999511719</ele>
        <time>2015-11-27T13:39:21.000Z</time>
      </trkpt>
      <trkpt lat="45.58969" lon="6.631">
        <ele>2006.5999755859</ele>
        <time>2015-11-27T13:39:28.000Z</time>
      </trkpt>
      <trkpt lat="45.58964" lon="6.63098">
        <ele>2007</ele>
        <time>2015-11-27T13:39:34.000Z</time>
      </trkpt>
      <trkpt lat="45.58962" lon="6.63098">
        <ele>2007.5999755859</ele>
        <time>2015-11-27T13:39:39.000Z</time>
      </trkpt>
      <trkpt lat="45.58961" lon="6.63098">
        <ele>2008</ele>
        <time>2015-11-27T13:39:43.000Z</time>
      </trkpt>
      <trkpt lat="45.5896" lon="6.63097">
        <ele>2008</ele>
        <time>2015-11-27T13:39:46.000Z</time>
      </trkpt>
      <trkpt lat="45.58958" lon="6.63098">
        <ele>2009</ele>
        <time>2015-11-27T13:39:51.000Z</time>
      </trkpt>
      <trkpt lat="45.58957" lon="6.63098">
        <ele>2009.1999511719</ele>
        <time>2015-11-27T13:39:52.000Z</time>
      </trkpt>
      <trkpt lat="45.58955" lon="6.63098">
        <ele>2009.8000488281</ele>
        <time>2015-11-27T13:39:58.000Z</time>
      </trkpt>
      <trkpt lat="45.58954" lon="6.63099">
        <ele>2010</ele>
        <time>2015-11-27T13:40:05.000Z</time>
      </trkpt>
      <trkpt lat="45.58953" lon="6.63103">
        <ele>2010.8000488281</ele>
        <time>2015-11-27T13:40:12.000Z</time>
      </trkpt>
      <trkpt lat="45.58952" lon="6.63104">
        <ele>2011</ele>
        <time>2015-11-27T13:40:15.000Z</time>
      </trkpt>
      <trkpt lat="45.58952" lon="6.63104">
        <ele>2011</ele>
        <time>2015-11-27T13:40:16.000Z</time>
      </trkpt>
      <trkpt lat="45.58949" lon="6.63107">
        <ele>2011.8000488281</ele>
        <time>2015-11-27T13:40:22.000Z</time>
      </trkpt>
      <trkpt lat="45.58947" lon="6.63108">
        <ele>2012.4000244141</ele>
        <time>2015-11-27T13:40:24.000Z</time>
      </trkpt>
      <trkpt lat="45.58946" lon="6.6311">
        <ele>2012.8000488281</ele>
        <time>2015-11-27T13:40:27.000Z</time>
      </trkpt>
      <trkpt lat="45.58945" lon="6.63111">
        <ele>2013.4000244141</ele>
        <time>2015-11-27T13:40:34.000Z</time>
      </trkpt>
      <trkpt lat="45.58943" lon="6.63112">
        <ele>2013.4000244141</ele>
        <time>2015-11-27T13:40:38.000Z</time>
      </trkpt>
      <trkpt lat="45.58941" lon="6.63112">
        <ele>2013.4000244141</ele>
        <time>2015-11-27T13:40:40.000Z</time>
      </trkpt>
      <trkpt lat="45.58938" lon="6.6311">
        <ele>2013.8000488281</ele>
        <time>2015-11-27T13:40:43.000Z</time>
      </trkpt>
      <trkpt lat="45.58938" lon="6.63109">
        <ele>2014</ele>
        <time>2015-11-27T13:40:45.000Z</time>
      </trkpt>
      <trkpt lat="45.58937" lon="6.63108">
        <ele>2014.4000244141</ele>
        <time>2015-11-27T13:40:48.000Z</time>
      </trkpt>
      <trkpt lat="45.58936" lon="6.63106">
        <ele>2014.5999755859</ele>
        <time>2015-11-27T13:40:50.000Z</time>
      </trkpt>
      <trkpt lat="45.58932" lon="6.63101">
        <ele>2014.8000488281</ele>
        <time>2015-11-27T13:40:56.000Z</time>
      </trkpt>
      <trkpt lat="45.58928" lon="6.63095">
        <ele>2015.1999511719</ele>
        <time>2015-11-27T13:41:03.000Z</time>
      </trkpt>
      <trkpt lat="45.58927" lon="6.63092">
        <ele>2015.1999511719</ele>
        <time>2015-11-27T13:41:10.000Z</time>
      </trkpt>
      <trkpt lat="45.58927" lon="6.63091">
        <ele>2015.4000244141</ele>
        <time>2015-11-27T13:41:12.000Z</time>
      </trkpt>
      <trkpt lat="45.58927" lon="6.6309">
        <ele>2015.8000488281</ele>
        <time>2015-11-27T13:41:14.000Z</time>
      </trkpt>
      <trkpt lat="45.58925" lon="6.63087">
        <ele>2016.1999511719</ele>
        <time>2015-11-27T13:41:19.000Z</time>
      </trkpt>
      <trkpt lat="45.58923" lon="6.63084">
        <ele>2016.1999511719</ele>
        <time>2015-11-27T13:41:23.000Z</time>
      </trkpt>
      <trkpt lat="45.58922" lon="6.63082">
        <ele>2016.4000244141</ele>
        <time>2015-11-27T13:41:26.000Z</time>
      </trkpt>
      <trkpt lat="45.58921" lon="6.6308">
        <ele>2016.4000244141</ele>
        <time>2015-11-27T13:41:27.000Z</time>
      </trkpt>
      <trkpt lat="45.58918" lon="6.63074">
        <ele>2016.5999755859</ele>
        <time>2015-11-27T13:41:33.000Z</time>
      </trkpt>
      <trkpt lat="45.58916" lon="6.63071">
        <ele>2016.8000488281</ele>
        <time>2015-11-27T13:41:38.000Z</time>
      </trkpt>
      <trkpt lat="45.58914" lon="6.63066">
        <ele>2017</ele>
        <time>2015-11-27T13:41:45.000Z</time>
      </trkpt>
      <trkpt lat="45.58912" lon="6.63061">
        <ele>2016.5999755859</ele>
        <time>2015-11-27T13:41:51.000Z</time>
      </trkpt>
      <trkpt lat="45.58909" lon="6.63053">
        <ele>2016.4000244141</ele>
        <time>2015-11-27T13:41:59.000Z</time>
      </trkpt>
      <trkpt lat="45.58906" lon="6.63048">
        <ele>2016.1999511719</ele>
        <time>2015-11-27T13:42:06.000Z</time>
      </trkpt>
      <trkpt lat="45.58904" lon="6.63045">
        <ele>2015.8000488281</ele>
        <time>2015-11-27T13:42:12.000Z</time>
      </trkpt>
      <trkpt lat="45.58902" lon="6.63041">
        <ele>2015.4000244141</ele>
        <time>2015-11-27T13:42:16.000Z</time>
      </trkpt>
      <trkpt lat="45.589" lon="6.63039">
        <ele>2015.4000244141</ele>
        <time>2015-11-27T13:42:18.000Z</time>
      </trkpt>
      <trkpt lat="45.58895" lon="6.63035">
        <ele>2014.8000488281</ele>
        <time>2015-11-27T13:42:24.000Z</time>
      </trkpt>
      <trkpt lat="45.58894" lon="6.63035">
        <ele>2014.4000244141</ele>
        <time>2015-11-27T13:42:25.000Z</time>
      </trkpt>
      <trkpt lat="45.58893" lon="6.63036">
        <ele>2014.4000244141</ele>
        <time>2015-11-27T13:42:26.000Z</time>
      </trkpt>
      <trkpt lat="45.58889" lon="6.63036">
        <ele>2014</ele>
        <time>2015-11-27T13:42:29.000Z</time>
      </trkpt>
      <trkpt lat="45.58883" lon="6.63037">
        <ele>2013.8000488281</ele>
        <time>2015-11-27T13:42:35.000Z</time>
      </trkpt>
      <trkpt lat="45.58881" lon="6.63038">
        <ele>2013.8000488281</ele>
        <time>2015-11-27T13:42:36.000Z</time>
      </trkpt>
      <trkpt lat="45.58876" lon="6.63037">
        <ele>2013.8000488281</ele>
        <time>2015-11-27T13:42:40.000Z</time>
      </trkpt>
      <trkpt lat="45.58872" lon="6.63035">
        <ele>2014.8000488281</ele>
        <time>2015-11-27T13:42:47.000Z</time>
      </trkpt>
      <trkpt lat="45.5887" lon="6.63033">
        <ele>2015.4000244141</ele>
        <time>2015-11-27T13:42:50.000Z</time>
      </trkpt>
      <trkpt lat="45.58868" lon="6.63032">
        <ele>2015.8000488281</ele>
        <time>2015-11-27T13:42:52.000Z</time>
      </trkpt>
      <trkpt lat="45.58867" lon="6.63031">
        <ele>2016</ele>
        <time>2015-11-27T13:42:53.000Z</time>
      </trkpt>
      <trkpt lat="45.58864" lon="6.6303">
        <ele>2016.5999755859</ele>
        <time>2015-11-27T13:42:57.000Z</time>
      </trkpt>
      <trkpt lat="45.58859" lon="6.63027">
        <ele>2017.4000244141</ele>
        <time>2015-11-27T13:43:03.000Z</time>
      </trkpt>
      <trkpt lat="45.58859" lon="6.63026">
        <ele>2017.8000488281</ele>
        <time>2015-11-27T13:43:05.000Z</time>
      </trkpt>
      <trkpt lat="45.58858" lon="6.63024">
        <ele>2018.1999511719</ele>
        <time>2015-11-27T13:43:09.000Z</time>
      </trkpt>
      <trkpt lat="45.58858" lon="6.63022">
        <ele>2019</ele>
        <time>2015-11-27T13:43:13.000Z</time>
      </trkpt>
      <trkpt lat="45.58856" lon="6.63019">
        <ele>2020.1999511719</ele>
        <time>2015-11-27T13:43:18.000Z</time>
      </trkpt>
      <trkpt lat="45.58855" lon="6.63016">
        <ele>2020.8000488281</ele>
        <time>2015-11-27T13:43:22.000Z</time>
      </trkpt>
      <trkpt lat="45.58853" lon="6.63013">
        <ele>2021.1999511719</ele>
        <time>2015-11-27T13:43:26.000Z</time>
      </trkpt>
      <trkpt lat="45.58849" lon="6.63006">
        <ele>2022</ele>
        <time>2015-11-27T13:43:32.000Z</time>
      </trkpt>
      <trkpt lat="45.58847" lon="6.63003">
        <ele>2022.1999511719</ele>
        <time>2015-11-27T13:43:36.000Z</time>
      </trkpt>
      <trkpt lat="45.58847" lon="6.63002">
        <ele>2022.4000244141</ele>
        <time>2015-11-27T13:43:37.000Z</time>
      </trkpt>
      <trkpt lat="45.58844" lon="6.62999">
        <ele>2022.8000488281</ele>
        <time>2015-11-27T13:43:42.000Z</time>
      </trkpt>
      <trkpt lat="45.58842" lon="6.62997">
        <ele>2023.4000244141</ele>
        <time>2015-11-27T13:43:45.000Z</time>
      </trkpt>
      <trkpt lat="45.58841" lon="6.62997">
        <ele>2023.8000488281</ele>
        <time>2015-11-27T13:43:47.000Z</time>
      </trkpt>
      <trkpt lat="45.58838" lon="6.62999">
        <ele>2024.4000244141</ele>
        <time>2015-11-27T13:43:52.000Z</time>
      </trkpt>
      <trkpt lat="45.58838" lon="6.62999">
        <ele>2024.5999755859</ele>
        <time>2015-11-27T13:43:53.000Z</time>
      </trkpt>
      <trkpt lat="45.58836" lon="6.63">
        <ele>2025.1999511719</ele>
        <time>2015-11-27T13:43:56.000Z</time>
      </trkpt>
      <trkpt lat="45.58834" lon="6.63001">
        <ele>2025.5999755859</ele>
        <time>2015-11-27T13:43:59.000Z</time>
      </trkpt>
      <trkpt lat="45.58832" lon="6.63003">
        <ele>2026</ele>
        <time>2015-11-27T13:44:01.000Z</time>
      </trkpt>
      <trkpt lat="45.58829" lon="6.63005">
        <ele>2026.4000244141</ele>
        <time>2015-11-27T13:44:06.000Z</time>
      </trkpt>
      <trkpt lat="45.58826" lon="6.63008">
        <ele>2026.5999755859</ele>
        <time>2015-11-27T13:44:11.000Z</time>
      </trkpt>
      <trkpt lat="45.58825" lon="6.63009">
        <ele>2026.8000488281</ele>
        <time>2015-11-27T13:44:12.000Z</time>
      </trkpt>
      <trkpt lat="45.58824" lon="6.63012">
        <ele>2027</ele>
        <time>2015-11-27T13:44:17.000Z</time>
      </trkpt>
      <trkpt lat="45.58823" lon="6.63016">
        <ele>2027.1999511719</ele>
        <time>2015-11-27T13:44:23.000Z</time>
      </trkpt>
      <trkpt lat="45.58823" lon="6.63022">
        <ele>2027.4000244141</ele>
        <time>2015-11-27T13:44:29.000Z</time>
      </trkpt>
      <trkpt lat="45.58823" lon="6.63026">
        <ele>2026.4000244141</ele>
        <time>2015-11-27T13:44:36.000Z</time>
      </trkpt>
      <trkpt lat="45.58821" lon="6.6303">
        <ele>2026.1999511719</ele>
        <time>2015-11-27T13:44:41.000Z</time>
      </trkpt>
      <trkpt lat="45.58819" lon="6.63034">
        <ele>2026.8000488281</ele>
        <time>2015-11-27T13:44:47.000Z</time>
      </trkpt>
      <trkpt lat="45.58816" lon="6.63036">
        <ele>2027.5999755859</ele>
        <time>2015-11-27T13:44:51.000Z</time>
      </trkpt>
      <trkpt lat="45.58815" lon="6.63037">
        <ele>2027.8000488281</ele>
        <time>2015-11-27T13:44:52.000Z</time>
      </trkpt>
      <trkpt lat="45.58813" lon="6.63039">
        <ele>2028.1999511719</ele>
        <time>2015-11-27T13:44:56.000Z</time>
      </trkpt>
      <trkpt lat="45.5881" lon="6.63043">
        <ele>2028.8000488281</ele>
        <time>2015-11-27T13:45:00.000Z</time>
      </trkpt>
      <trkpt lat="45.58807" lon="6.63045">
        <ele>2029</ele>
        <time>2015-11-27T13:45:03.000Z</time>
      </trkpt>
      <trkpt lat="45.58802" lon="6.6305">
        <ele>2030</ele>
        <time>2015-11-27T13:45:09.000Z</time>
      </trkpt>
      <trkpt lat="45.58802" lon="6.6305">
        <ele>2030.1999511719</ele>
        <time>2015-11-27T13:45:10.000Z</time>
      </trkpt>
      <trkpt lat="45.58801" lon="6.63053">
        <ele>2031</ele>
        <time>2015-11-27T13:45:14.000Z</time>
      </trkpt>
      <trkpt lat="45.588" lon="6.63056">
        <ele>2031.4000244141</ele>
        <time>2015-11-27T13:45:17.000Z</time>
      </trkpt>
      <trkpt lat="45.58798" lon="6.63062">
        <ele>2031.4000244141</ele>
        <time>2015-11-27T13:45:24.000Z</time>
      </trkpt>
      <trkpt lat="45.58798" lon="6.63071">
        <ele>2031.4000244141</ele>
        <time>2015-11-27T13:45:31.000Z</time>
      </trkpt>
      <trkpt lat="45.58798" lon="6.63076">
        <ele>2032</ele>
        <time>2015-11-27T13:45:38.000Z</time>
      </trkpt>
      <trkpt lat="45.58798" lon="6.6308">
        <ele>2032</ele>
        <time>2015-11-27T13:45:41.000Z</time>
      </trkpt>
      <trkpt lat="45.58798" lon="6.63085">
        <ele>2032.1999511719</ele>
        <time>2015-11-27T13:45:46.000Z</time>
      </trkpt>
      <trkpt lat="45.58797" lon="6.63089">
        <ele>2032.4000244141</ele>
        <time>2015-11-27T13:45:52.000Z</time>
      </trkpt>
      <trkpt lat="45.58796" lon="6.6309">
        <ele>2033</ele>
        <time>2015-11-27T13:45:57.000Z</time>
      </trkpt>
      <trkpt lat="45.58796" lon="6.6309">
        <ele>2033.1999511719</ele>
        <time>2015-11-27T13:45:59.000Z</time>
      </trkpt>
      <trkpt lat="45.58796" lon="6.6309">
        <ele>2033.4000244141</ele>
        <time>2015-11-27T13:46:10.000Z</time>
      </trkpt>
      <trkpt lat="45.58795" lon="6.63091">
        <ele>2033.4000244141</ele>
        <time>2015-11-27T13:46:19.000Z</time>
      </trkpt>
      <trkpt lat="45.58794" lon="6.63095">
        <ele>2033.4000244141</ele>
        <time>2015-11-27T13:46:26.000Z</time>
      </trkpt>
      <trkpt lat="45.58789" lon="6.63101">
        <ele>2032.5999755859</ele>
        <time>2015-11-27T13:46:31.000Z</time>
      </trkpt>
      <trkpt lat="45.58786" lon="6.63106">
        <ele>2032</ele>
        <time>2015-11-27T13:46:34.000Z</time>
      </trkpt>
      <trkpt lat="45.58786" lon="6.63107">
        <ele>2031.5999755859</ele>
        <time>2015-11-27T13:46:35.000Z</time>
      </trkpt>
      <trkpt lat="45.58785" lon="6.63109">
        <ele>2030.8000488281</ele>
        <time>2015-11-27T13:46:37.000Z</time>
      </trkpt>
      <trkpt lat="45.58783" lon="6.63111">
        <ele>2029.8000488281</ele>
        <time>2015-11-27T13:46:41.000Z</time>
      </trkpt>
      <trkpt lat="45.58783" lon="6.63111">
        <ele>2029.8000488281</ele>
        <time>2015-11-27T13:46:42.000Z</time>
      </trkpt>
      <trkpt lat="45.58783" lon="6.63115">
        <ele>2029.5999755859</ele>
        <time>2015-11-27T13:46:46.000Z</time>
      </trkpt>
      <trkpt lat="45.58781" lon="6.63118">
        <ele>2029.4000244141</ele>
        <time>2015-11-27T13:46:51.000Z</time>
      </trkpt>
      <trkpt lat="45.58777" lon="6.63124">
        <ele>2029.4000244141</ele>
        <time>2015-11-27T13:46:58.000Z</time>
      </trkpt>
      <trkpt lat="45.58773" lon="6.63131">
        <ele>2029</ele>
        <time>2015-11-27T13:47:04.000Z</time>
      </trkpt>
      <trkpt lat="45.58773" lon="6.63133">
        <ele>2029</ele>
        <time>2015-11-27T13:47:11.000Z</time>
      </trkpt>
      <trkpt lat="45.58771" lon="6.63137">
        <ele>2028.5999755859</ele>
        <time>2015-11-27T13:47:16.000Z</time>
      </trkpt>
      <trkpt lat="45.58769" lon="6.63142">
        <ele>2028.5999755859</ele>
        <time>2015-11-27T13:47:21.000Z</time>
      </trkpt>
      <trkpt lat="45.58766" lon="6.63148">
        <ele>2028</ele>
        <time>2015-11-27T13:47:27.000Z</time>
      </trkpt>
      <trkpt lat="45.58764" lon="6.6315">
        <ele>2027.5999755859</ele>
        <time>2015-11-27T13:47:30.000Z</time>
      </trkpt>
      <trkpt lat="45.58762" lon="6.63152">
        <ele>2027</ele>
        <time>2015-11-27T13:47:34.000Z</time>
      </trkpt>
      <trkpt lat="45.5876" lon="6.63158">
        <ele>2026.5999755859</ele>
        <time>2015-11-27T13:47:39.000Z</time>
      </trkpt>
      <trkpt lat="45.5876" lon="6.6316">
        <ele>2026.5999755859</ele>
        <time>2015-11-27T13:47:40.000Z</time>
      </trkpt>
      <trkpt lat="45.58757" lon="6.63166">
        <ele>2026.4000244141</ele>
        <time>2015-11-27T13:47:46.000Z</time>
      </trkpt>
      <trkpt lat="45.58753" lon="6.63174">
        <ele>2026.1999511719</ele>
        <time>2015-11-27T13:47:54.000Z</time>
      </trkpt>
      <trkpt lat="45.5875" lon="6.63178">
        <ele>2026</ele>
        <time>2015-11-27T13:48:00.000Z</time>
      </trkpt>
      <trkpt lat="45.58747" lon="6.63185">
        <ele>2025.5999755859</ele>
        <time>2015-11-27T13:48:06.000Z</time>
      </trkpt>
      <trkpt lat="45.58746" lon="6.63191">
        <ele>2025.8000488281</ele>
        <time>2015-11-27T13:48:13.000Z</time>
      </trkpt>
      <trkpt lat="45.58744" lon="6.63199">
        <ele>2025.8000488281</ele>
        <time>2015-11-27T13:48:20.000Z</time>
      </trkpt>
      <trkpt lat="45.58743" lon="6.63203">
        <ele>2025.4000244141</ele>
        <time>2015-11-27T13:48:22.000Z</time>
      </trkpt>
      <trkpt lat="45.58741" lon="6.63207">
        <ele>2024.5999755859</ele>
        <time>2015-11-27T13:48:27.000Z</time>
      </trkpt>
      <trkpt lat="45.58739" lon="6.63209">
        <ele>2024.5999755859</ele>
        <time>2015-11-27T13:48:32.000Z</time>
      </trkpt>
      <trkpt lat="45.58738" lon="6.6321">
        <ele>2024.4000244141</ele>
        <time>2015-11-27T13:48:33.000Z</time>
      </trkpt>
      <trkpt lat="45.58736" lon="6.63216">
        <ele>2024.4000244141</ele>
        <time>2015-11-27T13:48:37.000Z</time>
      </trkpt>
      <trkpt lat="45.58735" lon="6.6322">
        <ele>2024.4000244141</ele>
        <time>2015-11-27T13:48:41.000Z</time>
      </trkpt>
      <trkpt lat="45.58734" lon="6.63227">
        <ele>2024.5999755859</ele>
        <time>2015-11-27T13:48:47.000Z</time>
      </trkpt>
      <trkpt lat="45.58733" lon="6.63231">
        <ele>2024.1999511719</ele>
        <time>2015-11-27T13:48:54.000Z</time>
      </trkpt>
      <trkpt lat="45.58732" lon="6.63236">
        <ele>2023.1999511719</ele>
        <time>2015-11-27T13:48:57.000Z</time>
      </trkpt>
      <trkpt lat="45.58732" lon="6.63237">
        <ele>2023</ele>
        <time>2015-11-27T13:48:58.000Z</time>
      </trkpt>
      <trkpt lat="45.58731" lon="6.63242">
        <ele>2022.1999511719</ele>
        <time>2015-11-27T13:49:01.000Z</time>
      </trkpt>
      <trkpt lat="45.5873" lon="6.63245">
        <ele>2021.8000488281</ele>
        <time>2015-11-27T13:49:04.000Z</time>
      </trkpt>
      <trkpt lat="45.58731" lon="6.63248">
        <ele>2021.8000488281</ele>
        <time>2015-11-27T13:49:11.000Z</time>
      </trkpt>
      <trkpt lat="45.5873" lon="6.63255">
        <ele>2022</ele>
        <time>2015-11-27T13:49:17.000Z</time>
      </trkpt>
      <trkpt lat="45.58729" lon="6.6326">
        <ele>2022.8000488281</ele>
        <time>2015-11-27T13:49:21.000Z</time>
      </trkpt>
      <trkpt lat="45.58728" lon="6.63265">
        <ele>2023</ele>
        <time>2015-11-27T13:49:27.000Z</time>
      </trkpt>
      <trkpt lat="45.58725" lon="6.63269">
        <ele>2022.4000244141</ele>
        <time>2015-11-27T13:49:32.000Z</time>
      </trkpt>
      <trkpt lat="45.58723" lon="6.63271">
        <ele>2022.4000244141</ele>
        <time>2015-11-27T13:49:39.000Z</time>
      </trkpt>
      <trkpt lat="45.58724" lon="6.63276">
        <ele>2022.4000244141</ele>
        <time>2015-11-27T13:49:44.000Z</time>
      </trkpt>
      <trkpt lat="45.58724" lon="6.63279">
        <ele>2021.8000488281</ele>
        <time>2015-11-27T13:49:49.000Z</time>
      </trkpt>
      <trkpt lat="45.58724" lon="6.63279">
        <ele>2021.1999511719</ele>
        <time>2015-11-27T13:49:59.000Z</time>
      </trkpt>
      <trkpt lat="45.58724" lon="6.63279">
        <ele>2021</ele>
        <time>2015-11-27T13:50:02.000Z</time>
      </trkpt>
      <trkpt lat="45.58724" lon="6.63283">
        <ele>2021</ele>
        <time>2015-11-27T13:50:07.000Z</time>
      </trkpt>
      <trkpt lat="45.58723" lon="6.63283">
        <ele>2021.1999511719</ele>
        <time>2015-11-27T13:50:15.000Z</time>
      </trkpt>
      <trkpt lat="45.58723" lon="6.63287">
        <ele>2021.1999511719</ele>
        <time>2015-11-27T13:50:21.000Z</time>
      </trkpt>
      <trkpt lat="45.5872" lon="6.63301">
        <ele>2020.8000488281</ele>
        <time>2015-11-27T13:50:27.000Z</time>
      </trkpt>
      <trkpt lat="45.5872" lon="6.63305">
        <ele>2021</ele>
        <time>2015-11-27T13:50:30.000Z</time>
      </trkpt>
      <trkpt lat="45.5872" lon="6.63308">
        <ele>2021.4000244141</ele>
        <time>2015-11-27T13:50:32.000Z</time>
      </trkpt>
      <trkpt lat="45.5872" lon="6.63311">
        <ele>2022</ele>
        <time>2015-11-27T13:50:37.000Z</time>
      </trkpt>
      <trkpt lat="45.5872" lon="6.63312">
        <ele>2022</ele>
        <time>2015-11-27T13:50:38.000Z</time>
      </trkpt>
      <trkpt lat="45.58719" lon="6.63315">
        <ele>2022</ele>
        <time>2015-11-27T13:50:40.000Z</time>
      </trkpt>
      <trkpt lat="45.58719" lon="6.63318">
        <ele>2022</ele>
        <time>2015-11-27T13:50:42.000Z</time>
      </trkpt>
      <trkpt lat="45.58717" lon="6.63323">
        <ele>2021</ele>
        <time>2015-11-27T13:50:46.000Z</time>
      </trkpt>
      <trkpt lat="45.58715" lon="6.63328">
        <ele>2020.8000488281</ele>
        <time>2015-11-27T13:50:50.000Z</time>
      </trkpt>
      <trkpt lat="45.58714" lon="6.6333">
        <ele>2021.1999511719</ele>
        <time>2015-11-27T13:50:54.000Z</time>
      </trkpt>
      <trkpt lat="45.58714" lon="6.63332">
        <ele>2021.8000488281</ele>
        <time>2015-11-27T13:50:59.000Z</time>
      </trkpt>
      <trkpt lat="45.58714" lon="6.63337">
        <ele>2022</ele>
        <time>2015-11-27T13:51:04.000Z</time>
      </trkpt>
      <trkpt lat="45.58714" lon="6.63339">
        <ele>2022.1999511719</ele>
        <time>2015-11-27T13:51:08.000Z</time>
      </trkpt>
      <trkpt lat="45.58714" lon="6.63339">
        <ele>2022</ele>
        <time>2015-11-27T13:51:09.000Z</time>
      </trkpt>
      <trkpt lat="45.58714" lon="6.63343">
        <ele>2022.1999511719</ele>
        <time>2015-11-27T13:51:14.000Z</time>
      </trkpt>
      <trkpt lat="45.58712" lon="6.63353">
        <ele>2021.8000488281</ele>
        <time>2015-11-27T13:51:20.000Z</time>
      </trkpt>
      <trkpt lat="45.58712" lon="6.63357">
        <ele>2021</ele>
        <time>2015-11-27T13:51:24.000Z</time>
      </trkpt>
      <trkpt lat="45.58711" lon="6.63363">
        <ele>2020.8000488281</ele>
        <time>2015-11-27T13:51:28.000Z</time>
      </trkpt>
      <trkpt lat="45.5871" lon="6.6337">
        <ele>2020.5999755859</ele>
        <time>2015-11-27T13:51:34.000Z</time>
      </trkpt>
      <trkpt lat="45.58709" lon="6.63375">
        <ele>2020.4000244141</ele>
        <time>2015-11-27T13:51:39.000Z</time>
      </trkpt>
      <trkpt lat="45.58708" lon="6.63379">
        <ele>2020.4000244141</ele>
        <time>2015-11-27T13:51:43.000Z</time>
      </trkpt>
      <trkpt lat="45.58706" lon="6.6339">
        <ele>2020</ele>
        <time>2015-11-27T13:51:51.000Z</time>
      </trkpt>
      <trkpt lat="45.58706" lon="6.63393">
        <ele>2020</ele>
        <time>2015-11-27T13:51:55.000Z</time>
      </trkpt>
      <trkpt lat="45.58706" lon="6.63401">
        <ele>2020</ele>
        <time>2015-11-27T13:52:00.000Z</time>
      </trkpt>
      <trkpt lat="45.58705" lon="6.63405">
        <ele>2020</ele>
        <time>2015-11-27T13:52:05.000Z</time>
      </trkpt>
      <trkpt lat="45.58703" lon="6.6341">
        <ele>2019.8000488281</ele>
        <time>2015-11-27T13:52:10.000Z</time>
      </trkpt>
      <trkpt lat="45.58701" lon="6.63417">
        <ele>2019.5999755859</ele>
        <time>2015-11-27T13:52:15.000Z</time>
      </trkpt>
      <trkpt lat="45.587" lon="6.63423">
        <ele>2019.4000244141</ele>
        <time>2015-11-27T13:52:19.000Z</time>
      </trkpt>
      <trkpt lat="45.58698" lon="6.63429">
        <ele>2019</ele>
        <time>2015-11-27T13:52:23.000Z</time>
      </trkpt>
      <trkpt lat="45.58697" lon="6.6343">
        <ele>2019</ele>
        <time>2015-11-27T13:52:24.000Z</time>
      </trkpt>
      <trkpt lat="45.58697" lon="6.63438">
        <ele>2018.4000244141</ele>
        <time>2015-11-27T13:52:29.000Z</time>
      </trkpt>
      <trkpt lat="45.58696" lon="6.63442">
        <ele>2017.8000488281</ele>
        <time>2015-11-27T13:52:32.000Z</time>
      </trkpt>
      <trkpt lat="45.58696" lon="6.63446">
        <ele>2017</ele>
        <time>2015-11-27T13:52:35.000Z</time>
      </trkpt>
      <trkpt lat="45.58696" lon="6.63448">
        <ele>2016.5999755859</ele>
        <time>2015-11-27T13:52:37.000Z</time>
      </trkpt>
      <trkpt lat="45.58696" lon="6.63452">
        <ele>2016.4000244141</ele>
        <time>2015-11-27T13:52:40.000Z</time>
      </trkpt>
      <trkpt lat="45.58697" lon="6.63453">
        <ele>2016.4000244141</ele>
        <time>2015-11-27T13:52:41.000Z</time>
      </trkpt>
      <trkpt lat="45.58697" lon="6.63456">
        <ele>2016.4000244141</ele>
        <time>2015-11-27T13:52:44.000Z</time>
      </trkpt>
      <trkpt lat="45.58698" lon="6.63461">
        <ele>2016.1999511719</ele>
        <time>2015-11-27T13:52:48.000Z</time>
      </trkpt>
      <trkpt lat="45.58698" lon="6.63467">
        <ele>2016.4000244141</ele>
        <time>2015-11-27T13:52:53.000Z</time>
      </trkpt>
      <trkpt lat="45.587" lon="6.63475">
        <ele>2016.4000244141</ele>
        <time>2015-11-27T13:52:59.000Z</time>
      </trkpt>
      <trkpt lat="45.58701" lon="6.63479">
        <ele>2016.4000244141</ele>
        <time>2015-11-27T13:53:03.000Z</time>
      </trkpt>
      <trkpt lat="45.58697" lon="6.63489">
        <ele>2017.4000244141</ele>
        <time>2015-11-27T13:53:09.000Z</time>
      </trkpt>
      <trkpt lat="45.58696" lon="6.63493">
        <ele>2017.5999755859</ele>
        <time>2015-11-27T13:53:12.000Z</time>
      </trkpt>
      <trkpt lat="45.58695" lon="6.63497">
        <ele>2017.8000488281</ele>
        <time>2015-11-27T13:53:15.000Z</time>
      </trkpt>
      <trkpt lat="45.58691" lon="6.63502">
        <ele>2018</ele>
        <time>2015-11-27T13:53:21.000Z</time>
      </trkpt>
      <trkpt lat="45.58687" lon="6.63507">
        <ele>2018.4000244141</ele>
        <time>2015-11-27T13:53:27.000Z</time>
      </trkpt>
      <trkpt lat="45.58684" lon="6.63513">
        <ele>2018.5999755859</ele>
        <time>2015-11-27T13:53:33.000Z</time>
      </trkpt>
      <trkpt lat="45.58683" lon="6.63513">
        <ele>2018.5999755859</ele>
        <time>2015-11-27T13:53:34.000Z</time>
      </trkpt>
      <trkpt lat="45.58681" lon="6.63516">
        <ele>2018.8000488281</ele>
        <time>2015-11-27T13:53:39.000Z</time>
      </trkpt>
      <trkpt lat="45.58679" lon="6.63521">
        <ele>2018.5999755859</ele>
        <time>2015-11-27T13:53:46.000Z</time>
      </trkpt>
      <trkpt lat="45.58677" lon="6.63526">
        <ele>2018.8000488281</ele>
        <time>2015-11-27T13:53:51.000Z</time>
      </trkpt>
      <trkpt lat="45.58675" lon="6.63531">
        <ele>2019</ele>
        <time>2015-11-27T13:53:57.000Z</time>
      </trkpt>
      <trkpt lat="45.58671" lon="6.63538">
        <ele>2018.8000488281</ele>
        <time>2015-11-27T13:54:03.000Z</time>
      </trkpt>
      <trkpt lat="45.5867" lon="6.6354">
        <ele>2018.8000488281</ele>
        <time>2015-11-27T13:54:05.000Z</time>
      </trkpt>
      <trkpt lat="45.58669" lon="6.63548">
        <ele>2018.8000488281</ele>
        <time>2015-11-27T13:54:12.000Z</time>
      </trkpt>
      <trkpt lat="45.58666" lon="6.63553">
        <ele>2018.4000244141</ele>
        <time>2015-11-27T13:54:17.000Z</time>
      </trkpt>
      <trkpt lat="45.58665" lon="6.63562">
        <ele>2017.8000488281</ele>
        <time>2015-11-27T13:54:23.000Z</time>
      </trkpt>
      <trkpt lat="45.58664" lon="6.63565">
        <ele>2017.5999755859</ele>
        <time>2015-11-27T13:54:25.000Z</time>
      </trkpt>
      <trkpt lat="45.58662" lon="6.63569">
        <ele>2017.4000244141</ele>
        <time>2015-11-27T13:54:28.000Z</time>
      </trkpt>
      <trkpt lat="45.58661" lon="6.63577">
        <ele>2017</ele>
        <time>2015-11-27T13:54:34.000Z</time>
      </trkpt>
      <trkpt lat="45.58659" lon="6.63583">
        <ele>2017</ele>
        <time>2015-11-27T13:54:40.000Z</time>
      </trkpt>
      <trkpt lat="45.58654" lon="6.63589">
        <ele>2017.4000244141</ele>
        <time>2015-11-27T13:54:47.000Z</time>
      </trkpt>
      <trkpt lat="45.58653" lon="6.6359">
        <ele>2017.4000244141</ele>
        <time>2015-11-27T13:54:48.000Z</time>
      </trkpt>
      <trkpt lat="45.58651" lon="6.63594">
        <ele>2017.4000244141</ele>
        <time>2015-11-27T13:54:52.000Z</time>
      </trkpt>
      <trkpt lat="45.58645" lon="6.63599">
        <ele>2017</ele>
        <time>2015-11-27T13:54:58.000Z</time>
      </trkpt>
      <trkpt lat="45.58643" lon="6.63603">
        <ele>2016.5999755859</ele>
        <time>2015-11-27T13:55:01.000Z</time>
      </trkpt>
      <trkpt lat="45.58641" lon="6.63608">
        <ele>2015.5999755859</ele>
        <time>2015-11-27T13:55:05.000Z</time>
      </trkpt>
      <trkpt lat="45.58641" lon="6.6361">
        <ele>2015.4000244141</ele>
        <time>2015-11-27T13:55:06.000Z</time>
      </trkpt>
      <trkpt lat="45.5864" lon="6.63618">
        <ele>2014.8000488281</ele>
        <time>2015-11-27T13:55:11.000Z</time>
      </trkpt>
      <trkpt lat="45.58639" lon="6.63622">
        <ele>2014.8000488281</ele>
        <time>2015-11-27T13:55:17.000Z</time>
      </trkpt>
      <trkpt lat="45.58637" lon="6.63625">
        <ele>2015.4000244141</ele>
        <time>2015-11-27T13:55:22.000Z</time>
      </trkpt>
      <trkpt lat="45.58632" lon="6.63627">
        <ele>2016.1999511719</ele>
        <time>2015-11-27T13:55:28.000Z</time>
      </trkpt>
      <trkpt lat="45.58631" lon="6.63628">
        <ele>2016.4000244141</ele>
        <time>2015-11-27T13:55:29.000Z</time>
      </trkpt>
      <trkpt lat="45.58629" lon="6.6363">
        <ele>2016.8000488281</ele>
        <time>2015-11-27T13:55:32.000Z</time>
      </trkpt>
      <trkpt lat="45.58629" lon="6.63631">
        <ele>2017</ele>
        <time>2015-11-27T13:55:33.000Z</time>
      </trkpt>
      <trkpt lat="45.58625" lon="6.63632">
        <ele>2017.5999755859</ele>
        <time>2015-11-27T13:55:37.000Z</time>
      </trkpt>
      <trkpt lat="45.58624" lon="6.63632">
        <ele>2017.8000488281</ele>
        <time>2015-11-27T13:55:38.000Z</time>
      </trkpt>
      <trkpt lat="45.58618" lon="6.63634">
        <ele>2018.8000488281</ele>
        <time>2015-11-27T13:55:44.000Z</time>
      </trkpt>
      <trkpt lat="45.58612" lon="6.63636">
        <ele>2019.8000488281</ele>
        <time>2015-11-27T13:55:51.000Z</time>
      </trkpt>
      <trkpt lat="45.58612" lon="6.63636">
        <ele>2020</ele>
        <time>2015-11-27T13:55:52.000Z</time>
      </trkpt>
      <trkpt lat="45.58607" lon="6.63639">
        <ele>2021</ele>
        <time>2015-11-27T13:55:58.000Z</time>
      </trkpt>
      <trkpt lat="45.58606" lon="6.63642">
        <ele>2022.1999511719</ele>
        <time>2015-11-27T13:56:03.000Z</time>
      </trkpt>
      <trkpt lat="45.58604" lon="6.63642">
        <ele>2023.1999511719</ele>
        <time>2015-11-27T13:56:07.000Z</time>
      </trkpt>
      <trkpt lat="45.58602" lon="6.63643">
        <ele>2023.8000488281</ele>
        <time>2015-11-27T13:56:09.000Z</time>
      </trkpt>
      <trkpt lat="45.58599" lon="6.63644">
        <ele>2024.4000244141</ele>
        <time>2015-11-27T13:56:13.000Z</time>
      </trkpt>
      <trkpt lat="45.58595" lon="6.63645">
        <ele>2025.4000244141</ele>
        <time>2015-11-27T13:56:20.000Z</time>
      </trkpt>
      <trkpt lat="45.58594" lon="6.63645">
        <ele>2026.5999755859</ele>
        <time>2015-11-27T13:56:25.000Z</time>
      </trkpt>
      <trkpt lat="45.58594" lon="6.63645">
        <ele>2026.8000488281</ele>
        <time>2015-11-27T13:56:28.000Z</time>
      </trkpt>
      <trkpt lat="45.58589" lon="6.63644">
        <ele>2027</ele>
        <time>2015-11-27T13:56:35.000Z</time>
      </trkpt>
      <trkpt lat="45.58585" lon="6.63644">
        <ele>2027.4000244141</ele>
        <time>2015-11-27T13:56:41.000Z</time>
      </trkpt>
      <trkpt lat="45.58585" lon="6.63644">
        <ele>2027.5999755859</ele>
        <time>2015-11-27T13:56:42.000Z</time>
      </trkpt>
      <trkpt lat="45.5858" lon="6.63642">
        <ele>2028</ele>
        <time>2015-11-27T13:56:47.000Z</time>
      </trkpt>
      <trkpt lat="45.58575" lon="6.63642">
        <ele>2028.5999755859</ele>
        <time>2015-11-27T13:56:53.000Z</time>
      </trkpt>
      <trkpt lat="45.58575" lon="6.63642">
        <ele>2028.5999755859</ele>
        <time>2015-11-27T13:56:54.000Z</time>
      </trkpt>
      <trkpt lat="45.5857" lon="6.63643">
        <ele>2029.8000488281</ele>
        <time>2015-11-27T13:57:00.000Z</time>
      </trkpt>
      <trkpt lat="45.58569" lon="6.63642">
        <ele>2029.8000488281</ele>
        <time>2015-11-27T13:57:01.000Z</time>
      </trkpt>
      <trkpt lat="45.58567" lon="6.63642">
        <ele>2030.4000244141</ele>
        <time>2015-11-27T13:57:06.000Z</time>
      </trkpt>
      <trkpt lat="45.58567" lon="6.63642">
        <ele>2030.8000488281</ele>
        <time>2015-11-27T13:57:11.000Z</time>
      </trkpt>
      <trkpt lat="45.58566" lon="6.63641">
        <ele>2031</ele>
        <time>2015-11-27T13:57:14.000Z</time>
      </trkpt>
      <trkpt lat="45.58565" lon="6.63638">
        <ele>2031</ele>
        <time>2015-11-27T13:57:18.000Z</time>
      </trkpt>
      <trkpt lat="45.58565" lon="6.63633">
        <ele>2031.8000488281</ele>
        <time>2015-11-27T13:57:22.000Z</time>
      </trkpt>
      <trkpt lat="45.58565" lon="6.63633">
        <ele>2032</ele>
        <time>2015-11-27T13:57:23.000Z</time>
      </trkpt>
      <trkpt lat="45.58567" lon="6.63631">
        <ele>2032.4000244141</ele>
        <time>2015-11-27T13:57:26.000Z</time>
      </trkpt>
      <trkpt lat="45.58568" lon="6.63628">
        <ele>2033.1999511719</ele>
        <time>2015-11-27T13:57:30.000Z</time>
      </trkpt>
      <trkpt lat="45.58568" lon="6.63626">
        <ele>2033.4000244141</ele>
        <time>2015-11-27T13:57:31.000Z</time>
      </trkpt>
      <trkpt lat="45.58567" lon="6.63621">
        <ele>2034.1999511719</ele>
        <time>2015-11-27T13:57:36.000Z</time>
      </trkpt>
      <trkpt lat="45.58566" lon="6.63615">
        <ele>2035</ele>
        <time>2015-11-27T13:57:41.000Z</time>
      </trkpt>
      <trkpt lat="45.58566" lon="6.63613">
        <ele>2035.1999511719</ele>
        <time>2015-11-27T13:57:43.000Z</time>
      </trkpt>
      <trkpt lat="45.58565" lon="6.63609">
        <ele>2035.5999755859</ele>
        <time>2015-11-27T13:57:46.000Z</time>
      </trkpt>
      <trkpt lat="45.58563" lon="6.63603">
        <ele>2036.4000244141</ele>
        <time>2015-11-27T13:57:52.000Z</time>
      </trkpt>
      <trkpt lat="45.58562" lon="6.63601">
        <ele>2036.8000488281</ele>
        <time>2015-11-27T13:58:00.000Z</time>
      </trkpt>
      <trkpt lat="45.58559" lon="6.63595">
        <ele>2037.1999511719</ele>
        <time>2015-11-27T13:58:06.000Z</time>
      </trkpt>
      <trkpt lat="45.58557" lon="6.63593">
        <ele>2037.4000244141</ele>
        <time>2015-11-27T13:58:08.000Z</time>
      </trkpt>
      <trkpt lat="45.58556" lon="6.63591">
        <ele>2037.5999755859</ele>
        <time>2015-11-27T13:58:10.000Z</time>
      </trkpt>
      <trkpt lat="45.58555" lon="6.6359">
        <ele>2037.8000488281</ele>
        <time>2015-11-27T13:58:12.000Z</time>
      </trkpt>
      <trkpt lat="45.58551" lon="6.63588">
        <ele>2038.4000244141</ele>
        <time>2015-11-27T13:58:17.000Z</time>
      </trkpt>
      <trkpt lat="45.5855" lon="6.63587">
        <ele>2038.5999755859</ele>
        <time>2015-11-27T13:58:18.000Z</time>
      </trkpt>
      <trkpt lat="45.58546" lon="6.63585">
        <ele>2039</ele>
        <time>2015-11-27T13:58:23.000Z</time>
      </trkpt>
      <trkpt lat="45.58544" lon="6.63584">
        <ele>2039.5999755859</ele>
        <time>2015-11-27T13:58:27.000Z</time>
      </trkpt>
      <trkpt lat="45.58542" lon="6.63584">
        <ele>2040</ele>
        <time>2015-11-27T13:58:29.000Z</time>
      </trkpt>
      <trkpt lat="45.58538" lon="6.63582">
        <ele>2040.4000244141</ele>
        <time>2015-11-27T13:58:35.000Z</time>
      </trkpt>
      <trkpt lat="45.58537" lon="6.63582">
        <ele>2040.5999755859</ele>
        <time>2015-11-27T13:58:39.000Z</time>
      </trkpt>
      <trkpt lat="45.58536" lon="6.63582">
        <ele>2040.8000488281</ele>
        <time>2015-11-27T13:58:41.000Z</time>
      </trkpt>
      <trkpt lat="45.58531" lon="6.63581">
        <ele>2041.1999511719</ele>
        <time>2015-11-27T13:58:47.000Z</time>
      </trkpt>
      <trkpt lat="45.58528" lon="6.63579">
        <ele>2041.8000488281</ele>
        <time>2015-11-27T13:58:51.000Z</time>
      </trkpt>
      <trkpt lat="45.58528" lon="6.63577">
        <ele>2041.8000488281</ele>
        <time>2015-11-27T13:58:52.000Z</time>
      </trkpt>
      <trkpt lat="45.58527" lon="6.63572">
        <ele>2042.8000488281</ele>
        <time>2015-11-27T13:58:57.000Z</time>
      </trkpt>
      <trkpt lat="45.58527" lon="6.6357">
        <ele>2043.1999511719</ele>
        <time>2015-11-27T13:58:59.000Z</time>
      </trkpt>
      <trkpt lat="45.58527" lon="6.63568">
        <ele>2043.4000244141</ele>
        <time>2015-11-27T13:59:00.000Z</time>
      </trkpt>
      <trkpt lat="45.58525" lon="6.63564">
        <ele>2043.8000488281</ele>
        <time>2015-11-27T13:59:04.000Z</time>
      </trkpt>
      <trkpt lat="45.58521" lon="6.63562">
        <ele>2044.8000488281</ele>
        <time>2015-11-27T13:59:10.000Z</time>
      </trkpt>
      <trkpt lat="45.5852" lon="6.63562">
        <ele>2045</ele>
        <time>2015-11-27T13:59:11.000Z</time>
      </trkpt>
      <trkpt lat="45.58517" lon="6.63561">
        <ele>2046</ele>
        <time>2015-11-27T13:59:17.000Z</time>
      </trkpt>
      <trkpt lat="45.58513" lon="6.63559">
        <ele>2046.5999755859</ele>
        <time>2015-11-27T13:59:24.000Z</time>
      </trkpt>
      <trkpt lat="45.58511" lon="6.63558">
        <ele>2047</ele>
        <time>2015-11-27T13:59:27.000Z</time>
      </trkpt>
      <trkpt lat="45.58508" lon="6.63557">
        <ele>2048</ele>
        <time>2015-11-27T13:59:32.000Z</time>
      </trkpt>
      <trkpt lat="45.58508" lon="6.63557">
        <ele>2048.1999511719</ele>
        <time>2015-11-27T13:59:33.000Z</time>
      </trkpt>
      <trkpt lat="45.58503" lon="6.63555">
        <ele>2049</ele>
        <time>2015-11-27T13:59:39.000Z</time>
      </trkpt>
      <trkpt lat="45.58503" lon="6.63554">
        <ele>2049.1999511719</ele>
        <time>2015-11-27T13:59:40.000Z</time>
      </trkpt>
      <trkpt lat="45.58499" lon="6.63552">
        <ele>2049.6000976562</ele>
        <time>2015-11-27T13:59:45.000Z</time>
      </trkpt>
      <trkpt lat="45.58496" lon="6.6355">
        <ele>2050.1999511719</ele>
        <time>2015-11-27T13:59:49.000Z</time>
      </trkpt>
      <trkpt lat="45.58496" lon="6.63549">
        <ele>2050.6000976562</ele>
        <time>2015-11-27T13:59:51.000Z</time>
      </trkpt>
      <trkpt lat="45.58493" lon="6.63544">
        <ele>2051</ele>
        <time>2015-11-27T13:59:56.000Z</time>
      </trkpt>
      <trkpt lat="45.5849" lon="6.63541">
        <ele>2051.1999511719</ele>
        <time>2015-11-27T14:00:01.000Z</time>
      </trkpt>
      <trkpt lat="45.5849" lon="6.63541">
        <ele>2051.3999023438</ele>
        <time>2015-11-27T14:00:02.000Z</time>
      </trkpt>
      <trkpt lat="45.58488" lon="6.63539">
        <ele>2052</ele>
        <time>2015-11-27T14:00:05.000Z</time>
      </trkpt>
      <trkpt lat="45.58487" lon="6.63537">
        <ele>2052.3999023438</ele>
        <time>2015-11-27T14:00:08.000Z</time>
      </trkpt>
      <trkpt lat="45.58486" lon="6.63537">
        <ele>2052.6000976562</ele>
        <time>2015-11-27T14:00:09.000Z</time>
      </trkpt>
      <trkpt lat="45.58483" lon="6.63533">
        <ele>2053.1999511719</ele>
        <time>2015-11-27T14:00:14.000Z</time>
      </trkpt>
      <trkpt lat="45.58481" lon="6.63532">
        <ele>2053.6000976562</ele>
        <time>2015-11-27T14:00:17.000Z</time>
      </trkpt>
      <trkpt lat="45.58478" lon="6.6353">
        <ele>2054.1999511719</ele>
        <time>2015-11-27T14:00:20.000Z</time>
      </trkpt>
      <trkpt lat="45.58475" lon="6.63528">
        <ele>2054.6000976562</ele>
        <time>2015-11-27T14:00:24.000Z</time>
      </trkpt>
      <trkpt lat="45.58473" lon="6.63527">
        <ele>2055</ele>
        <time>2015-11-27T14:00:26.000Z</time>
      </trkpt>
      <trkpt lat="45.5847" lon="6.63527">
        <ele>2055.3999023438</ele>
        <time>2015-11-27T14:00:31.000Z</time>
      </trkpt>
      <trkpt lat="45.58468" lon="6.63527">
        <ele>2055.6000976562</ele>
        <time>2015-11-27T14:00:34.000Z</time>
      </trkpt>
      <trkpt lat="45.58465" lon="6.63529">
        <ele>2055.8000488281</ele>
        <time>2015-11-27T14:00:37.000Z</time>
      </trkpt>
      <trkpt lat="45.58464" lon="6.6353">
        <ele>2055.8000488281</ele>
        <time>2015-11-27T14:00:38.000Z</time>
      </trkpt>
      <trkpt lat="45.58462" lon="6.63532">
        <ele>2056</ele>
        <time>2015-11-27T14:00:42.000Z</time>
      </trkpt>
      <trkpt lat="45.58462" lon="6.63532">
        <ele>2056.3999023438</ele>
        <time>2015-11-27T14:00:49.000Z</time>
      </trkpt>
      <trkpt lat="45.58461" lon="6.63532">
        <ele>2056.1999511719</ele>
        <time>2015-11-27T14:00:58.000Z</time>
      </trkpt>
      <trkpt lat="45.58461" lon="6.63532">
        <ele>2056</ele>
        <time>2015-11-27T14:01:02.000Z</time>
      </trkpt>
      <trkpt lat="45.58461" lon="6.63532">
        <ele>2056.6000976562</ele>
        <time>2015-11-27T14:01:09.000Z</time>
      </trkpt>
      <trkpt lat="45.58461" lon="6.63532">
        <ele>2056.8000488281</ele>
        <time>2015-11-27T14:01:10.000Z</time>
      </trkpt>
      <trkpt lat="45.58461" lon="6.63532">
        <ele>2056.6000976562</ele>
        <time>2015-11-27T14:01:22.000Z</time>
      </trkpt>
      <trkpt lat="45.58461" lon="6.63532">
        <ele>2056.6000976562</ele>
        <time>2015-11-27T14:01:32.000Z</time>
      </trkpt>
      <trkpt lat="45.58461" lon="6.63532">
        <ele>2056.3999023438</ele>
        <time>2015-11-27T14:01:41.000Z</time>
      </trkpt>
      <trkpt lat="45.58461" lon="6.63532">
        <ele>2056.3999023438</ele>
        <time>2015-11-27T14:01:50.000Z</time>
      </trkpt>
      <trkpt lat="45.58461" lon="6.63532">
        <ele>2056.3999023438</ele>
        <time>2015-11-27T14:01:51.000Z</time>
      </trkpt>
      <trkpt lat="45.58461" lon="6.63532">
        <ele>2056.3999023438</ele>
        <time>2015-11-27T14:02:01.000Z</time>
      </trkpt>
      <trkpt lat="45.58463" lon="6.6353">
        <ele>2056.1999511719</ele>
        <time>2015-11-27T14:02:07.000Z</time>
      </trkpt>
      <trkpt lat="45.58463" lon="6.6353">
        <ele>2056.6000976562</ele>
        <time>2015-11-27T14:02:14.000Z</time>
      </trkpt>
      <trkpt lat="45.58463" lon="6.6353">
        <ele>2056.6000976562</ele>
        <time>2015-11-27T14:02:23.000Z</time>
      </trkpt>
      <trkpt lat="45.58463" lon="6.6353">
        <ele>2056.3999023438</ele>
        <time>2015-11-27T14:02:32.000Z</time>
      </trkpt>
      <trkpt lat="45.58463" lon="6.6353">
        <ele>2056.3999023438</ele>
        <time>2015-11-27T14:02:47.000Z</time>
      </trkpt>
      <trkpt lat="45.58464" lon="6.63527">
        <ele>2056.3999023438</ele>
        <time>2015-11-27T14:02:57.000Z</time>
      </trkpt>
      <trkpt lat="45.58464" lon="6.63525">
        <ele>2056.3999023438</ele>
        <time>2015-11-27T14:02:58.000Z</time>
      </trkpt>
      <trkpt lat="45.58466" lon="6.63521">
        <ele>2056.1999511719</ele>
        <time>2015-11-27T14:03:02.000Z</time>
      </trkpt>
      <trkpt lat="45.5847" lon="6.63517">
        <ele>2056.1999511719</ele>
        <time>2015-11-27T14:03:07.000Z</time>
      </trkpt>
      <trkpt lat="45.58474" lon="6.63513">
        <ele>2056.3999023438</ele>
        <time>2015-11-27T14:03:13.000Z</time>
      </trkpt>
      <trkpt lat="45.58474" lon="6.63513">
        <ele>2056.8000488281</ele>
        <time>2015-11-27T14:03:23.000Z</time>
      </trkpt>
      <trkpt lat="45.58477" lon="6.63511">
        <ele>2056.8000488281</ele>
        <time>2015-11-27T14:03:32.000Z</time>
      </trkpt>
      <trkpt lat="45.58477" lon="6.6351">
        <ele>2057.6000976562</ele>
        <time>2015-11-27T14:03:40.000Z</time>
      </trkpt>
      <trkpt lat="45.58477" lon="6.6351">
        <ele>2057.6000976562</ele>
        <time>2015-11-27T14:04:08.000Z</time>
      </trkpt>
      <trkpt lat="45.58477" lon="6.6351">
        <ele>2057.6000976562</ele>
        <time>2015-11-27T14:04:27.000Z</time>
      </trkpt>
      <trkpt lat="45.58478" lon="6.6351">
        <ele>2057.8000488281</ele>
        <time>2015-11-27T14:04:46.000Z</time>
      </trkpt>
      <trkpt lat="45.58478" lon="6.6351">
        <ele>2057.8000488281</ele>
        <time>2015-11-27T14:04:47.000Z</time>
      </trkpt>
      <trkpt lat="45.58478" lon="6.6351">
        <ele>2057.8000488281</ele>
        <time>2015-11-27T14:05:05.000Z</time>
      </trkpt>
      <trkpt lat="45.58479" lon="6.6351">
        <ele>2058</ele>
        <time>2015-11-27T14:05:10.000Z</time>
      </trkpt>
      <trkpt lat="45.58479" lon="6.6351">
        <ele>2058.1999511719</ele>
        <time>2015-11-27T14:05:29.000Z</time>
      </trkpt>
      <trkpt lat="45.58479" lon="6.6351">
        <ele>2058.1999511719</ele>
        <time>2015-11-27T14:05:49.000Z</time>
      </trkpt>
      <trkpt lat="45.58479" lon="6.6351">
        <ele>2058.1999511719</ele>
        <time>2015-11-27T14:05:52.000Z</time>
      </trkpt>
      <trkpt lat="45.5848" lon="6.6351">
        <ele>2058.1999511719</ele>
        <time>2015-11-27T14:06:14.000Z</time>
      </trkpt>
      <trkpt lat="45.5848" lon="6.6351">
        <ele>2058.3999023438</ele>
        <time>2015-11-27T14:06:34.000Z</time>
      </trkpt>
      <trkpt lat="45.5848" lon="6.6351">
        <ele>2058.6000976562</ele>
        <time>2015-11-27T14:06:57.000Z</time>
      </trkpt>
      <trkpt lat="45.5848" lon="6.6351">
        <ele>2058.3999023438</ele>
        <time>2015-11-27T14:07:09.000Z</time>
      </trkpt>
      <trkpt lat="45.5848" lon="6.6351">
        <ele>2058.6000976562</ele>
        <time>2015-11-27T14:07:29.000Z</time>
      </trkpt>
      <trkpt lat="45.5848" lon="6.6351">
        <ele>2058.3999023438</ele>
        <time>2015-11-27T14:07:37.000Z</time>
      </trkpt>
      <trkpt lat="45.58477" lon="6.6351">
        <ele>2058</ele>
        <time>2015-11-27T14:07:44.000Z</time>
      </trkpt>
      <trkpt lat="45.58476" lon="6.63508">
        <ele>2058</ele>
        <time>2015-11-27T14:07:55.000Z</time>
      </trkpt>
      <trkpt lat="45.58474" lon="6.63508">
        <ele>2057.8000488281</ele>
        <time>2015-11-27T14:08:00.000Z</time>
      </trkpt>
      <trkpt lat="45.58474" lon="6.63508">
        <ele>2057.3999023438</ele>
        <time>2015-11-27T14:08:09.000Z</time>
      </trkpt>
      <trkpt lat="45.58469" lon="6.63506">
        <ele>2057.3999023438</ele>
        <time>2015-11-27T14:08:18.000Z</time>
      </trkpt>
      <trkpt lat="45.58463" lon="6.63502">
        <ele>2056.8000488281</ele>
        <time>2015-11-27T14:08:25.000Z</time>
      </trkpt>
      <trkpt lat="45.58461" lon="6.63504">
        <ele>2056.6000976562</ele>
        <time>2015-11-27T14:08:28.000Z</time>
      </trkpt>
      <trkpt lat="45.5846" lon="6.63504">
        <ele>2056.3999023438</ele>
        <time>2015-11-27T14:08:31.000Z</time>
      </trkpt>
      <trkpt lat="45.5846" lon="6.63504">
        <ele>2056.3999023438</ele>
        <time>2015-11-27T14:08:42.000Z</time>
      </trkpt>
      <trkpt lat="45.58459" lon="6.63499">
        <ele>2056.3999023438</ele>
        <time>2015-11-27T14:08:51.000Z</time>
      </trkpt>
      <trkpt lat="45.58456" lon="6.63493">
        <ele>2056</ele>
        <time>2015-11-27T14:08:56.000Z</time>
      </trkpt>
      <trkpt lat="45.58454" lon="6.63491">
        <ele>2055.6000976562</ele>
        <time>2015-11-27T14:08:59.000Z</time>
      </trkpt>
      <trkpt lat="45.58453" lon="6.63488">
        <ele>2055.3999023438</ele>
        <time>2015-11-27T14:09:01.000Z</time>
      </trkpt>
      <trkpt lat="45.58446" lon="6.63483">
        <ele>2055.1999511719</ele>
        <time>2015-11-27T14:09:07.000Z</time>
      </trkpt>
      <trkpt lat="45.5844" lon="6.6348">
        <ele>2055</ele>
        <time>2015-11-27T14:09:13.000Z</time>
      </trkpt>
      <trkpt lat="45.58438" lon="6.63477">
        <ele>2055.3999023438</ele>
        <time>2015-11-27T14:09:16.000Z</time>
      </trkpt>
      <trkpt lat="45.58436" lon="6.63475">
        <ele>2055.6000976562</ele>
        <time>2015-11-27T14:09:18.000Z</time>
      </trkpt>
      <trkpt lat="45.58433" lon="6.63471">
        <ele>2055.8000488281</ele>
        <time>2015-11-27T14:09:23.000Z</time>
      </trkpt>
      <trkpt lat="45.58428" lon="6.63465">
        <ele>2056</ele>
        <time>2015-11-27T14:09:28.000Z</time>
      </trkpt>
      <trkpt lat="45.58424" lon="6.63461">
        <ele>2056</ele>
        <time>2015-11-27T14:09:33.000Z</time>
      </trkpt>
      <trkpt lat="45.5842" lon="6.63455">
        <ele>2056.8000488281</ele>
        <time>2015-11-27T14:09:39.000Z</time>
      </trkpt>
      <trkpt lat="45.5842" lon="6.63455">
        <ele>2057</ele>
        <time>2015-11-27T14:09:40.000Z</time>
      </trkpt>
      <trkpt lat="45.58419" lon="6.63448">
        <ele>2057.8000488281</ele>
        <time>2015-11-27T14:09:47.000Z</time>
      </trkpt>
      <trkpt lat="45.58419" lon="6.63442">
        <ele>2058.1999511719</ele>
        <time>2015-11-27T14:09:54.000Z</time>
      </trkpt>
      <trkpt lat="45.5842" lon="6.63434">
        <ele>2058.8000488281</ele>
        <time>2015-11-27T14:10:00.000Z</time>
      </trkpt>
      <trkpt lat="45.58421" lon="6.63428">
        <ele>2059.6000976562</ele>
        <time>2015-11-27T14:10:05.000Z</time>
      </trkpt>
      <trkpt lat="45.58422" lon="6.63426">
        <ele>2059.8000488281</ele>
        <time>2015-11-27T14:10:07.000Z</time>
      </trkpt>
      <trkpt lat="45.58422" lon="6.63423">
        <ele>2060.1999511719</ele>
        <time>2015-11-27T14:10:10.000Z</time>
      </trkpt>
      <trkpt lat="45.58421" lon="6.63418">
        <ele>2060.8000488281</ele>
        <time>2015-11-27T14:10:16.000Z</time>
      </trkpt>
      <trkpt lat="45.58421" lon="6.63416">
        <ele>2060.8000488281</ele>
        <time>2015-11-27T14:10:17.000Z</time>
      </trkpt>
      <trkpt lat="45.58417" lon="6.63411">
        <ele>2061.6000976562</ele>
        <time>2015-11-27T14:10:23.000Z</time>
      </trkpt>
      <trkpt lat="45.58416" lon="6.63407">
        <ele>2061.6000976562</ele>
        <time>2015-11-27T14:10:25.000Z</time>
      </trkpt>
      <trkpt lat="45.58414" lon="6.63402">
        <ele>2061.8000488281</ele>
        <time>2015-11-27T14:10:29.000Z</time>
      </trkpt>
      <trkpt lat="45.5841" lon="6.63394">
        <ele>2062</ele>
        <time>2015-11-27T14:10:35.000Z</time>
      </trkpt>
      <trkpt lat="45.58409" lon="6.63394">
        <ele>2062</ele>
        <time>2015-11-27T14:10:36.000Z</time>
      </trkpt>
      <trkpt lat="45.58406" lon="6.63391">
        <ele>2062.3999023438</ele>
        <time>2015-11-27T14:10:42.000Z</time>
      </trkpt>
      <trkpt lat="45.58404" lon="6.63386">
        <ele>2062.8000488281</ele>
        <time>2015-11-27T14:10:48.000Z</time>
      </trkpt>
      <trkpt lat="45.58403" lon="6.63385">
        <ele>2063</ele>
        <time>2015-11-27T14:10:50.000Z</time>
      </trkpt>
      <trkpt lat="45.58401" lon="6.6338">
        <ele>2063.3999023438</ele>
        <time>2015-11-27T14:10:54.000Z</time>
      </trkpt>
      <trkpt lat="45.58398" lon="6.63373">
        <ele>2064.1999511719</ele>
        <time>2015-11-27T14:11:01.000Z</time>
      </trkpt>
      <trkpt lat="45.58396" lon="6.6337">
        <ele>2065.1999511719</ele>
        <time>2015-11-27T14:11:06.000Z</time>
      </trkpt>
      <trkpt lat="45.58393" lon="6.63366">
        <ele>2066.1999511719</ele>
        <time>2015-11-27T14:11:11.000Z</time>
      </trkpt>
      <trkpt lat="45.58392" lon="6.63365">
        <ele>2066.1999511719</ele>
        <time>2015-11-27T14:11:12.000Z</time>
      </trkpt>
      <trkpt lat="45.58389" lon="6.63361">
        <ele>2066.8000488281</ele>
        <time>2015-11-27T14:11:18.000Z</time>
      </trkpt>
      <trkpt lat="45.58388" lon="6.63356">
        <ele>2067.3999023438</ele>
        <time>2015-11-27T14:11:23.000Z</time>
      </trkpt>
      <trkpt lat="45.58388" lon="6.63355">
        <ele>2067.6000976562</ele>
        <time>2015-11-27T14:11:24.000Z</time>
      </trkpt>
      <trkpt lat="45.58387" lon="6.63348">
        <ele>2068.6000976562</ele>
        <time>2015-11-27T14:11:30.000Z</time>
      </trkpt>
      <trkpt lat="45.58383" lon="6.63343">
        <ele>2069.6000976562</ele>
        <time>2015-11-27T14:11:35.000Z</time>
      </trkpt>
      <trkpt lat="45.5838" lon="6.6334">
        <ele>2070.6000976562</ele>
        <time>2015-11-27T14:11:41.000Z</time>
      </trkpt>
      <trkpt lat="45.58377" lon="6.63338">
        <ele>2071.6000976562</ele>
        <time>2015-11-27T14:11:47.000Z</time>
      </trkpt>
      <trkpt lat="45.58375" lon="6.63335">
        <ele>2072.3999023438</ele>
        <time>2015-11-27T14:11:52.000Z</time>
      </trkpt>
      <trkpt lat="45.58374" lon="6.63334">
        <ele>2072.6000976562</ele>
        <time>2015-11-27T14:11:54.000Z</time>
      </trkpt>
      <trkpt lat="45.58373" lon="6.63333">
        <ele>2073</ele>
        <time>2015-11-27T14:11:56.000Z</time>
      </trkpt>
      <trkpt lat="45.58372" lon="6.63332">
        <ele>2073.8000488281</ele>
        <time>2015-11-27T14:12:00.000Z</time>
      </trkpt>
      <trkpt lat="45.58371" lon="6.63331">
        <ele>2074</ele>
        <time>2015-11-27T14:12:01.000Z</time>
      </trkpt>
      <trkpt lat="45.5837" lon="6.63329">
        <ele>2074.8000488281</ele>
        <time>2015-11-27T14:12:08.000Z</time>
      </trkpt>
      <trkpt lat="45.58368" lon="6.63327">
        <ele>2075</ele>
        <time>2015-11-27T14:12:13.000Z</time>
      </trkpt>
      <trkpt lat="45.58365" lon="6.63322">
        <ele>2076</ele>
        <time>2015-11-27T14:12:19.000Z</time>
      </trkpt>
      <trkpt lat="45.58364" lon="6.63321">
        <ele>2076</ele>
        <time>2015-11-27T14:12:20.000Z</time>
      </trkpt>
      <trkpt lat="45.5836" lon="6.63319">
        <ele>2077</ele>
        <time>2015-11-27T14:12:25.000Z</time>
      </trkpt>
      <trkpt lat="45.58359" lon="6.63319">
        <ele>2077</ele>
        <time>2015-11-27T14:12:26.000Z</time>
      </trkpt>
      <trkpt lat="45.58356" lon="6.63316">
        <ele>2078</ele>
        <time>2015-11-27T14:12:31.000Z</time>
      </trkpt>
      <trkpt lat="45.58355" lon="6.63316">
        <ele>2078.1999511719</ele>
        <time>2015-11-27T14:12:32.000Z</time>
      </trkpt>
      <trkpt lat="45.58352" lon="6.63313">
        <ele>2079</ele>
        <time>2015-11-27T14:12:38.000Z</time>
      </trkpt>
      <trkpt lat="45.58351" lon="6.63312">
        <ele>2079.6000976562</ele>
        <time>2015-11-27T14:12:40.000Z</time>
      </trkpt>
      <trkpt lat="45.58349" lon="6.6331">
        <ele>2080.1999511719</ele>
        <time>2015-11-27T14:12:43.000Z</time>
      </trkpt>
      <trkpt lat="45.58348" lon="6.63309">
        <ele>2080.3999023438</ele>
        <time>2015-11-27T14:12:45.000Z</time>
      </trkpt>
      <trkpt lat="45.58344" lon="6.63306">
        <ele>2081.1999511719</ele>
        <time>2015-11-27T14:12:51.000Z</time>
      </trkpt>
      <trkpt lat="45.58341" lon="6.63303">
        <ele>2082.3999023438</ele>
        <time>2015-11-27T14:12:55.000Z</time>
      </trkpt>
      <trkpt lat="45.58341" lon="6.63303">
        <ele>2082.6000976562</ele>
        <time>2015-11-27T14:12:56.000Z</time>
      </trkpt>
      <trkpt lat="45.58338" lon="6.633">
        <ele>2083.6000976562</ele>
        <time>2015-11-27T14:13:02.000Z</time>
      </trkpt>
      <trkpt lat="45.58337" lon="6.63298">
        <ele>2083.8000488281</ele>
        <time>2015-11-27T14:13:03.000Z</time>
      </trkpt>
      <trkpt lat="45.58335" lon="6.63295">
        <ele>2084.6000976562</ele>
        <time>2015-11-27T14:13:07.000Z</time>
      </trkpt>
      <trkpt lat="45.58334" lon="6.63294">
        <ele>2085</ele>
        <time>2015-11-27T14:13:09.000Z</time>
      </trkpt>
      <trkpt lat="45.58332" lon="6.63292">
        <ele>2085.8000488281</ele>
        <time>2015-11-27T14:13:13.000Z</time>
      </trkpt>
      <trkpt lat="45.58331" lon="6.6329">
        <ele>2086</ele>
        <time>2015-11-27T14:13:15.000Z</time>
      </trkpt>
      <trkpt lat="45.5833" lon="6.63287">
        <ele>2086.8000488281</ele>
        <time>2015-11-27T14:13:19.000Z</time>
      </trkpt>
      <trkpt lat="45.58329" lon="6.63286">
        <ele>2087</ele>
        <time>2015-11-27T14:13:21.000Z</time>
      </trkpt>
      <trkpt lat="45.58327" lon="6.63282">
        <ele>2088</ele>
        <time>2015-11-27T14:13:25.000Z</time>
      </trkpt>
      <trkpt lat="45.58326" lon="6.63282">
        <ele>2088.1999511719</ele>
        <time>2015-11-27T14:13:26.000Z</time>
      </trkpt>
      <trkpt lat="45.58323" lon="6.63279">
        <ele>2089</ele>
        <time>2015-11-27T14:13:31.000Z</time>
      </trkpt>
      <trkpt lat="45.58321" lon="6.63276">
        <ele>2090</ele>
        <time>2015-11-27T14:13:37.000Z</time>
      </trkpt>
      <trkpt lat="45.58321" lon="6.63276">
        <ele>2090.1999511719</ele>
        <time>2015-11-27T14:13:38.000Z</time>
      </trkpt>
      <trkpt lat="45.58319" lon="6.63274">
        <ele>2091.1999511719</ele>
        <time>2015-11-27T14:13:41.000Z</time>
      </trkpt>
      <trkpt lat="45.58318" lon="6.63273">
        <ele>2091.3999023438</ele>
        <time>2015-11-27T14:13:42.000Z</time>
      </trkpt>
      <trkpt lat="45.58316" lon="6.63268">
        <ele>2092.1999511719</ele>
        <time>2015-11-27T14:13:47.000Z</time>
      </trkpt>
      <trkpt lat="45.58313" lon="6.63266">
        <ele>2093.1999511719</ele>
        <time>2015-11-27T14:13:52.000Z</time>
      </trkpt>
      <trkpt lat="45.58308" lon="6.63261">
        <ele>2094.3999023438</ele>
        <time>2015-11-27T14:13:58.000Z</time>
      </trkpt>
      <trkpt lat="45.58306" lon="6.6326">
        <ele>2095</ele>
        <time>2015-11-27T14:14:02.000Z</time>
      </trkpt>
      <trkpt lat="45.58305" lon="6.63259">
        <ele>2095.3999023438</ele>
        <time>2015-11-27T14:14:05.000Z</time>
      </trkpt>
      <trkpt lat="45.58305" lon="6.63259">
        <ele>2095.6000976562</ele>
        <time>2015-11-27T14:14:08.000Z</time>
      </trkpt>
      <trkpt lat="45.58301" lon="6.63255">
        <ele>2096.3999023438</ele>
        <time>2015-11-27T14:14:14.000Z</time>
      </trkpt>
      <trkpt lat="45.58299" lon="6.6325">
        <ele>2097</ele>
        <time>2015-11-27T14:14:19.000Z</time>
      </trkpt>
      <trkpt lat="45.58298" lon="6.63248">
        <ele>2097.3999023438</ele>
        <time>2015-11-27T14:14:21.000Z</time>
      </trkpt>
      <trkpt lat="45.58295" lon="6.63241">
        <ele>2098.6000976562</ele>
        <time>2015-11-27T14:14:27.000Z</time>
      </trkpt>
      <trkpt lat="45.58294" lon="6.63237">
        <ele>2099.3999023438</ele>
        <time>2015-11-27T14:14:32.000Z</time>
      </trkpt>
      <trkpt lat="45.58294" lon="6.63235">
        <ele>2099.8000488281</ele>
        <time>2015-11-27T14:14:34.000Z</time>
      </trkpt>
      <trkpt lat="45.58292" lon="6.63233">
        <ele>2100.3999023438</ele>
        <time>2015-11-27T14:14:38.000Z</time>
      </trkpt>
      <trkpt lat="45.58291" lon="6.6323">
        <ele>2100.8000488281</ele>
        <time>2015-11-27T14:14:40.000Z</time>
      </trkpt>
      <trkpt lat="45.58289" lon="6.63225">
        <ele>2101.6000976562</ele>
        <time>2015-11-27T14:14:45.000Z</time>
      </trkpt>
      <trkpt lat="45.58288" lon="6.63223">
        <ele>2101.8000488281</ele>
        <time>2015-11-27T14:14:46.000Z</time>
      </trkpt>
      <trkpt lat="45.58288" lon="6.63223">
        <ele>2101.8000488281</ele>
        <time>2015-11-27T14:14:47.000Z</time>
      </trkpt>
      <trkpt lat="45.58287" lon="6.63219">
        <ele>2102.3999023438</ele>
        <time>2015-11-27T14:14:50.000Z</time>
      </trkpt>
      <trkpt lat="45.58287" lon="6.63218">
        <ele>2103</ele>
        <time>2015-11-27T14:14:53.000Z</time>
      </trkpt>
      <trkpt lat="45.58285" lon="6.63215">
        <ele>2103.6000976562</ele>
        <time>2015-11-27T14:14:57.000Z</time>
      </trkpt>
      <trkpt lat="45.58284" lon="6.63211">
        <ele>2104</ele>
        <time>2015-11-27T14:15:01.000Z</time>
      </trkpt>
      <trkpt lat="45.58283" lon="6.63209">
        <ele>2104.3999023438</ele>
        <time>2015-11-27T14:15:03.000Z</time>
      </trkpt>
      <trkpt lat="45.58281" lon="6.63204">
        <ele>2105.1999511719</ele>
        <time>2015-11-27T14:15:08.000Z</time>
      </trkpt>
      <trkpt lat="45.58282" lon="6.63204">
        <ele>2105.6000976562</ele>
        <time>2015-11-27T14:15:10.000Z</time>
      </trkpt>
      <trkpt lat="45.5828" lon="6.632">
        <ele>2106.3999023438</ele>
        <time>2015-11-27T14:15:14.000Z</time>
      </trkpt>
      <trkpt lat="45.5828" lon="6.632">
        <ele>2106.6000976562</ele>
        <time>2015-11-27T14:15:15.000Z</time>
      </trkpt>
      <trkpt lat="45.58278" lon="6.63196">
        <ele>2107.3999023438</ele>
        <time>2015-11-27T14:15:20.000Z</time>
      </trkpt>
      <trkpt lat="45.58277" lon="6.63196">
        <ele>2107.6000976562</ele>
        <time>2015-11-27T14:15:21.000Z</time>
      </trkpt>
      <trkpt lat="45.58276" lon="6.63194">
        <ele>2108.3999023438</ele>
        <time>2015-11-27T14:15:26.000Z</time>
      </trkpt>
      <trkpt lat="45.58275" lon="6.63194">
        <ele>2108.6000976562</ele>
        <time>2015-11-27T14:15:27.000Z</time>
      </trkpt>
      <trkpt lat="45.58273" lon="6.63188">
        <ele>2109.6000976562</ele>
        <time>2015-11-27T14:15:32.000Z</time>
      </trkpt>
      <trkpt lat="45.58272" lon="6.63185">
        <ele>2110.3999023438</ele>
        <time>2015-11-27T14:15:37.000Z</time>
      </trkpt>
      <trkpt lat="45.58272" lon="6.63182">
        <ele>2110.8000488281</ele>
        <time>2015-11-27T14:15:39.000Z</time>
      </trkpt>
      <trkpt lat="45.58271" lon="6.6318">
        <ele>2111.3999023438</ele>
        <time>2015-11-27T14:15:42.000Z</time>
      </trkpt>
      <trkpt lat="45.58268" lon="6.63177">
        <ele>2112</ele>
        <time>2015-11-27T14:15:45.000Z</time>
      </trkpt>
      <trkpt lat="45.58267" lon="6.63175">
        <ele>2112.1999511719</ele>
        <time>2015-11-27T14:15:47.000Z</time>
      </trkpt>
      <trkpt lat="45.58265" lon="6.6317">
        <ele>2112.8000488281</ele>
        <time>2015-11-27T14:15:52.000Z</time>
      </trkpt>
      <trkpt lat="45.58264" lon="6.63169">
        <ele>2113</ele>
        <time>2015-11-27T14:15:53.000Z</time>
      </trkpt>
      <trkpt lat="45.58262" lon="6.63165">
        <ele>2113.8000488281</ele>
        <time>2015-11-27T14:15:58.000Z</time>
      </trkpt>
      <trkpt lat="45.58262" lon="6.63166">
        <ele>2114</ele>
        <time>2015-11-27T14:15:59.000Z</time>
      </trkpt>
      <trkpt lat="45.58259" lon="6.63162">
        <ele>2114.6000976562</ele>
        <time>2015-11-27T14:16:04.000Z</time>
      </trkpt>
      <trkpt lat="45.58258" lon="6.63162">
        <ele>2115.1999511719</ele>
        <time>2015-11-27T14:16:07.000Z</time>
      </trkpt>
      <trkpt lat="45.58255" lon="6.63163">
        <ele>2115.6000976562</ele>
        <time>2015-11-27T14:16:10.000Z</time>
      </trkpt>
      <trkpt lat="45.58252" lon="6.63164">
        <ele>2116.1999511719</ele>
        <time>2015-11-27T14:16:15.000Z</time>
      </trkpt>
      <trkpt lat="45.5825" lon="6.63164">
        <ele>2116.6000976562</ele>
        <time>2015-11-27T14:16:18.000Z</time>
      </trkpt>
      <trkpt lat="45.58248" lon="6.63164">
        <ele>2117.1999511719</ele>
        <time>2015-11-27T14:16:23.000Z</time>
      </trkpt>
      <trkpt lat="45.58245" lon="6.63164">
        <ele>2117.6000976562</ele>
        <time>2015-11-27T14:16:26.000Z</time>
      </trkpt>
      <trkpt lat="45.58241" lon="6.63165">
        <ele>2118.3999023438</ele>
        <time>2015-11-27T14:16:31.000Z</time>
      </trkpt>
      <trkpt lat="45.58241" lon="6.63165">
        <ele>2118.6000976562</ele>
        <time>2015-11-27T14:16:32.000Z</time>
      </trkpt>
      <trkpt lat="45.5824" lon="6.63166">
        <ele>2119</ele>
        <time>2015-11-27T14:16:38.000Z</time>
      </trkpt>
      <trkpt lat="45.5824" lon="6.63166">
        <ele>2119.1999511719</ele>
        <time>2015-11-27T14:16:53.000Z</time>
      </trkpt>
      <trkpt lat="45.5824" lon="6.63166">
        <ele>2119.1999511719</ele>
        <time>2015-11-27T14:17:09.000Z</time>
      </trkpt>
      <trkpt lat="45.5824" lon="6.63166">
        <ele>2119.1999511719</ele>
        <time>2015-11-27T14:17:20.000Z</time>
      </trkpt>
      <trkpt lat="45.5824" lon="6.63166">
        <ele>2119.3999023438</ele>
        <time>2015-11-27T14:17:27.000Z</time>
      </trkpt>
      <trkpt lat="45.5824" lon="6.63166">
        <ele>2119.3999023438</ele>
        <time>2015-11-27T14:17:34.000Z</time>
      </trkpt>
      <trkpt lat="45.5824" lon="6.63166">
        <ele>2119.3999023438</ele>
        <time>2015-11-27T14:17:50.000Z</time>
      </trkpt>
      <trkpt lat="45.5824" lon="6.63166">
        <ele>2119.3999023438</ele>
        <time>2015-11-27T14:18:07.000Z</time>
      </trkpt>
      <trkpt lat="45.5824" lon="6.63166">
        <ele>2119.3999023438</ele>
        <time>2015-11-27T14:18:21.000Z</time>
      </trkpt>
      <trkpt lat="45.5824" lon="6.63166">
        <ele>2119.3999023438</ele>
        <time>2015-11-27T14:18:32.000Z</time>
      </trkpt>
      <trkpt lat="45.5824" lon="6.63166">
        <ele>2119.8000488281</ele>
        <time>2015-11-27T14:18:45.000Z</time>
      </trkpt>
      <trkpt lat="45.5824" lon="6.63166">
        <ele>2119.6000976562</ele>
        <time>2015-11-27T14:18:54.000Z</time>
      </trkpt>
      <trkpt lat="45.5824" lon="6.63166">
        <ele>2119.1999511719</ele>
        <time>2015-11-27T14:19:12.000Z</time>
      </trkpt>
      <trkpt lat="45.5824" lon="6.63166">
        <ele>2119.3999023438</ele>
        <time>2015-11-27T14:19:28.000Z</time>
      </trkpt>
      <trkpt lat="45.5824" lon="6.63166">
        <ele>2119.3999023438</ele>
        <time>2015-11-27T14:19:41.000Z</time>
      </trkpt>
      <trkpt lat="45.5824" lon="6.63166">
        <ele>2119.6000976562</ele>
        <time>2015-11-27T14:19:54.000Z</time>
      </trkpt>
      <trkpt lat="45.5824" lon="6.63166">
        <ele>2119.3999023438</ele>
        <time>2015-11-27T14:20:10.000Z</time>
      </trkpt>
      <trkpt lat="45.5824" lon="6.63166">
        <ele>2119.6000976562</ele>
        <time>2015-11-27T14:20:20.000Z</time>
      </trkpt>
      <trkpt lat="45.5824" lon="6.63166">
        <ele>2119.3999023438</ele>
        <time>2015-11-27T14:20:43.000Z</time>
      </trkpt>
      <trkpt lat="45.5824" lon="6.63166">
        <ele>2119.3999023438</ele>
        <time>2015-11-27T14:21:03.000Z</time>
      </trkpt>
      <trkpt lat="45.5824" lon="6.63166">
        <ele>2119.3999023438</ele>
        <time>2015-11-27T14:21:15.000Z</time>
      </trkpt>
      <trkpt lat="45.5824" lon="6.63166">
        <ele>2119.3999023438</ele>
        <time>2015-11-27T14:21:35.000Z</time>
      </trkpt>
      <trkpt lat="45.5824" lon="6.63166">
        <ele>2119.3999023438</ele>
        <time>2015-11-27T14:21:52.000Z</time>
      </trkpt>
      <trkpt lat="45.5824" lon="6.63166">
        <ele>2119.3999023438</ele>
        <time>2015-11-27T14:22:17.000Z</time>
      </trkpt>
      <trkpt lat="45.5824" lon="6.63166">
        <ele>2119.3999023438</ele>
        <time>2015-11-27T14:22:32.000Z</time>
      </trkpt>
      <trkpt lat="45.5824" lon="6.63166">
        <ele>2119.3999023438</ele>
        <time>2015-11-27T14:22:50.000Z</time>
      </trkpt>
      <trkpt lat="45.5824" lon="6.63166">
        <ele>2119.1999511719</ele>
        <time>2015-11-27T14:23:09.000Z</time>
      </trkpt>
      <trkpt lat="45.5824" lon="6.63166">
        <ele>2119.1999511719</ele>
        <time>2015-11-27T14:23:30.000Z</time>
      </trkpt>
      <trkpt lat="45.5824" lon="6.63166">
        <ele>2119</ele>
        <time>2015-11-27T14:23:49.000Z</time>
      </trkpt>
      <trkpt lat="45.5824" lon="6.63166">
        <ele>2119.1999511719</ele>
        <time>2015-11-27T14:24:03.000Z</time>
      </trkpt>
      <trkpt lat="45.5824" lon="6.63166">
        <ele>2119.3999023438</ele>
        <time>2015-11-27T14:24:17.000Z</time>
      </trkpt>
      <trkpt lat="45.5824" lon="6.63166">
        <ele>2119.8000488281</ele>
        <time>2015-11-27T14:24:32.000Z</time>
      </trkpt>
      <trkpt lat="45.5824" lon="6.63166">
        <ele>2119.1999511719</ele>
        <time>2015-11-27T14:24:43.000Z</time>
      </trkpt>
      <trkpt lat="45.58241" lon="6.63165">
        <ele>2119.1999511719</ele>
        <time>2015-11-27T14:24:50.000Z</time>
      </trkpt>
      <trkpt lat="45.58241" lon="6.63161">
        <ele>2119</ele>
        <time>2015-11-27T14:24:58.000Z</time>
      </trkpt>
      <trkpt lat="45.58241" lon="6.63161">
        <ele>2118.6000976562</ele>
        <time>2015-11-27T14:25:12.000Z</time>
      </trkpt>
      <trkpt lat="45.58241" lon="6.63161">
        <ele>2118.3999023438</ele>
        <time>2015-11-27T14:25:23.000Z</time>
      </trkpt>
      <trkpt lat="45.58241" lon="6.63161">
        <ele>2118.6000976562</ele>
        <time>2015-11-27T14:25:31.000Z</time>
      </trkpt>
      <trkpt lat="45.58241" lon="6.63161">
        <ele>2118.3999023438</ele>
        <time>2015-11-27T14:25:46.000Z</time>
      </trkpt>
      <trkpt lat="45.58241" lon="6.63161">
        <ele>2118.3999023438</ele>
        <time>2015-11-27T14:26:01.000Z</time>
      </trkpt>
      <trkpt lat="45.58241" lon="6.63161">
        <ele>2118.3999023438</ele>
        <time>2015-11-27T14:26:18.000Z</time>
      </trkpt>
      <trkpt lat="45.5824" lon="6.63161">
        <ele>2118.6000976562</ele>
        <time>2015-11-27T14:26:27.000Z</time>
      </trkpt>
      <trkpt lat="45.5824" lon="6.63161">
        <ele>2118.6000976562</ele>
        <time>2015-11-27T14:26:45.000Z</time>
      </trkpt>
      <trkpt lat="45.58241" lon="6.63163">
        <ele>2118.8000488281</ele>
        <time>2015-11-27T14:26:52.000Z</time>
      </trkpt>
      <trkpt lat="45.58241" lon="6.63163">
        <ele>2119</ele>
        <time>2015-11-27T14:27:09.000Z</time>
      </trkpt>
      <trkpt lat="45.58241" lon="6.63163">
        <ele>2119.1999511719</ele>
        <time>2015-11-27T14:27:18.000Z</time>
      </trkpt>
      <trkpt lat="45.58241" lon="6.63163">
        <ele>2119.1999511719</ele>
        <time>2015-11-27T14:27:29.000Z</time>
      </trkpt>
      <trkpt lat="45.58241" lon="6.63163">
        <ele>2119.1999511719</ele>
        <time>2015-11-27T14:27:42.000Z</time>
      </trkpt>
      <trkpt lat="45.58241" lon="6.63164">
        <ele>2119</ele>
        <time>2015-11-27T14:27:59.000Z</time>
      </trkpt>
      <trkpt lat="45.58241" lon="6.63164">
        <ele>2119.1999511719</ele>
        <time>2015-11-27T14:28:14.000Z</time>
      </trkpt>
      <trkpt lat="45.58241" lon="6.63164">
        <ele>2119.1999511719</ele>
        <time>2015-11-27T14:28:32.000Z</time>
      </trkpt>
      <trkpt lat="45.58241" lon="6.63163">
        <ele>2119.1999511719</ele>
        <time>2015-11-27T14:28:42.000Z</time>
      </trkpt>
      <trkpt lat="45.58241" lon="6.63163">
        <ele>2119.1999511719</ele>
        <time>2015-11-27T14:28:54.000Z</time>
      </trkpt>
      <trkpt lat="45.58241" lon="6.63164">
        <ele>2119.1999511719</ele>
        <time>2015-11-27T14:29:18.000Z</time>
      </trkpt>
      <trkpt lat="45.58241" lon="6.63164">
        <ele>2119.1999511719</ele>
        <time>2015-11-27T14:29:38.000Z</time>
      </trkpt>
      <trkpt lat="45.58241" lon="6.63164">
        <ele>2119.1999511719</ele>
        <time>2015-11-27T14:29:54.000Z</time>
      </trkpt>
      <trkpt lat="45.58241" lon="6.63164">
        <ele>2119.1999511719</ele>
        <time>2015-11-27T14:30:10.000Z</time>
      </trkpt>
      <trkpt lat="45.58241" lon="6.63164">
        <ele>2119.1999511719</ele>
        <time>2015-11-27T14:30:24.000Z</time>
      </trkpt>
      <trkpt lat="45.58241" lon="6.63164">
        <ele>2119.1999511719</ele>
        <time>2015-11-27T14:30:43.000Z</time>
      </trkpt>
      <trkpt lat="45.58241" lon="6.63164">
        <ele>2119.1999511719</ele>
        <time>2015-11-27T14:30:53.000Z</time>
      </trkpt>
      <trkpt lat="45.58241" lon="6.63164">
        <ele>2119.1999511719</ele>
        <time>2015-11-27T14:31:07.000Z</time>
      </trkpt>
      <trkpt lat="45.58241" lon="6.63164">
        <ele>2119.1999511719</ele>
        <time>2015-11-27T14:31:20.000Z</time>
      </trkpt>
      <trkpt lat="45.58241" lon="6.63164">
        <ele>2119.1999511719</ele>
        <time>2015-11-27T14:31:37.000Z</time>
      </trkpt>
      <trkpt lat="45.58241" lon="6.63164">
        <ele>2119.1999511719</ele>
        <time>2015-11-27T14:31:51.000Z</time>
      </trkpt>
      <trkpt lat="45.58241" lon="6.63164">
        <ele>2119.1999511719</ele>
        <time>2015-11-27T14:32:13.000Z</time>
      </trkpt>
      <trkpt lat="45.58241" lon="6.63164">
        <ele>2119.3999023438</ele>
        <time>2015-11-27T14:32:24.000Z</time>
      </trkpt>
      <trkpt lat="45.58241" lon="6.63164">
        <ele>2119.3999023438</ele>
        <time>2015-11-27T14:32:43.000Z</time>
      </trkpt>
      <trkpt lat="45.58241" lon="6.63164">
        <ele>2119.3999023438</ele>
        <time>2015-11-27T14:32:51.000Z</time>
      </trkpt>
      <trkpt lat="45.58241" lon="6.63164">
        <ele>2119.3999023438</ele>
        <time>2015-11-27T14:32:58.000Z</time>
      </trkpt>
      <trkpt lat="45.58241" lon="6.63164">
        <ele>2119.3999023438</ele>
        <time>2015-11-27T14:33:10.000Z</time>
      </trkpt>
      <trkpt lat="45.58241" lon="6.63164">
        <ele>2119.3999023438</ele>
        <time>2015-11-27T14:33:30.000Z</time>
      </trkpt>
      <trkpt lat="45.58241" lon="6.63164">
        <ele>2119.3999023438</ele>
        <time>2015-11-27T14:33:51.000Z</time>
      </trkpt>
      <trkpt lat="45.58241" lon="6.63164">
        <ele>2119.3999023438</ele>
        <time>2015-11-27T14:34:03.000Z</time>
      </trkpt>
      <trkpt lat="45.58241" lon="6.63164">
        <ele>2119.6000976562</ele>
        <time>2015-11-27T14:34:20.000Z</time>
      </trkpt>
      <trkpt lat="45.58241" lon="6.63164">
        <ele>2119.6000976562</ele>
        <time>2015-11-27T14:34:36.000Z</time>
      </trkpt>
      <trkpt lat="45.58241" lon="6.63164">
        <ele>2119.6000976562</ele>
        <time>2015-11-27T14:34:48.000Z</time>
      </trkpt>
      <trkpt lat="45.58241" lon="6.63164">
        <ele>2119.6000976562</ele>
        <time>2015-11-27T14:35:06.000Z</time>
      </trkpt>
      <trkpt lat="45.58241" lon="6.63164">
        <ele>2119.6000976562</ele>
        <time>2015-11-27T14:35:25.000Z</time>
      </trkpt>
      <trkpt lat="45.58241" lon="6.63164">
        <ele>2119.6000976562</ele>
        <time>2015-11-27T14:35:41.000Z</time>
      </trkpt>
      <trkpt lat="45.58241" lon="6.63164">
        <ele>2119.8000488281</ele>
        <time>2015-11-27T14:35:59.000Z</time>
      </trkpt>
      <trkpt lat="45.58242" lon="6.63165">
        <ele>2119.6000976562</ele>
        <time>2015-11-27T14:36:11.000Z</time>
      </trkpt>
      <trkpt lat="45.58245" lon="6.63166">
        <ele>2119.3999023438</ele>
        <time>2015-11-27T14:36:15.000Z</time>
      </trkpt>
      <trkpt lat="45.58252" lon="6.63167">
        <ele>2119.1999511719</ele>
        <time>2015-11-27T14:36:17.000Z</time>
      </trkpt>
      <trkpt lat="45.58256" lon="6.63168">
        <ele>2119.1999511719</ele>
        <time>2015-11-27T14:36:18.000Z</time>
      </trkpt>
      <trkpt lat="45.5827" lon="6.63174">
        <ele>2118.6000976562</ele>
        <time>2015-11-27T14:36:21.000Z</time>
      </trkpt>
      <trkpt lat="45.58273" lon="6.63177">
        <ele>2118.1999511719</ele>
        <time>2015-11-27T14:36:22.000Z</time>
      </trkpt>
      <trkpt lat="45.58278" lon="6.63186">
        <ele>2116.8000488281</ele>
        <time>2015-11-27T14:36:24.000Z</time>
      </trkpt>
      <trkpt lat="45.58279" lon="6.63193">
        <ele>2116</ele>
        <time>2015-11-27T14:36:25.000Z</time>
      </trkpt>
      <trkpt lat="45.58282" lon="6.63201">
        <ele>2115.3999023438</ele>
        <time>2015-11-27T14:36:26.000Z</time>
      </trkpt>
      <trkpt lat="45.58287" lon="6.63218">
        <ele>2113.8000488281</ele>
        <time>2015-11-27T14:36:28.000Z</time>
      </trkpt>
      <trkpt lat="45.5829" lon="6.63227">
        <ele>2112.8000488281</ele>
        <time>2015-11-27T14:36:29.000Z</time>
      </trkpt>
      <trkpt lat="45.58291" lon="6.63235">
        <ele>2110.3999023438</ele>
        <time>2015-11-27T14:36:30.000Z</time>
      </trkpt>
      <trkpt lat="45.5829" lon="6.63243">
        <ele>2109</ele>
        <time>2015-11-27T14:36:31.000Z</time>
      </trkpt>
      <trkpt lat="45.5829" lon="6.63251">
        <ele>2107.3999023438</ele>
        <time>2015-11-27T14:36:32.000Z</time>
      </trkpt>
      <trkpt lat="45.58291" lon="6.63256">
        <ele>2105.8000488281</ele>
        <time>2015-11-27T14:36:33.000Z</time>
      </trkpt>
      <trkpt lat="45.58292" lon="6.63261">
        <ele>2104.1999511719</ele>
        <time>2015-11-27T14:36:34.000Z</time>
      </trkpt>
      <trkpt lat="45.58292" lon="6.63267">
        <ele>2103</ele>
        <time>2015-11-27T14:36:35.000Z</time>
      </trkpt>
      <trkpt lat="45.58292" lon="6.6327">
        <ele>2101.6000976562</ele>
        <time>2015-11-27T14:36:36.000Z</time>
      </trkpt>
      <trkpt lat="45.58292" lon="6.63271">
        <ele>2100.1999511719</ele>
        <time>2015-11-27T14:36:37.000Z</time>
      </trkpt>
      <trkpt lat="45.58292" lon="6.63272">
        <ele>2099</ele>
        <time>2015-11-27T14:36:38.000Z</time>
      </trkpt>
      <trkpt lat="45.58293" lon="6.63274">
        <ele>2098</ele>
        <time>2015-11-27T14:36:39.000Z</time>
      </trkpt>
      <trkpt lat="45.58294" lon="6.63276">
        <ele>2097.1999511719</ele>
        <time>2015-11-27T14:36:40.000Z</time>
      </trkpt>
      <trkpt lat="45.58294" lon="6.6328">
        <ele>2095.8000488281</ele>
        <time>2015-11-27T14:36:42.000Z</time>
      </trkpt>
      <trkpt lat="45.58294" lon="6.63288">
        <ele>2094.6000976562</ele>
        <time>2015-11-27T14:36:44.000Z</time>
      </trkpt>
      <trkpt lat="45.58294" lon="6.63301">
        <ele>2093.6000976562</ele>
        <time>2015-11-27T14:36:46.000Z</time>
      </trkpt>
      <trkpt lat="45.58295" lon="6.63307">
        <ele>2093</ele>
        <time>2015-11-27T14:36:47.000Z</time>
      </trkpt>
      <trkpt lat="45.58297" lon="6.63311">
        <ele>2092.3999023438</ele>
        <time>2015-11-27T14:36:48.000Z</time>
      </trkpt>
      <trkpt lat="45.58298" lon="6.63313">
        <ele>2090.1999511719</ele>
        <time>2015-11-27T14:36:50.000Z</time>
      </trkpt>
      <trkpt lat="45.58298" lon="6.63314">
        <ele>2088.8000488281</ele>
        <time>2015-11-27T14:36:51.000Z</time>
      </trkpt>
      <trkpt lat="45.58299" lon="6.63315">
        <ele>2087.6000976562</ele>
        <time>2015-11-27T14:36:52.000Z</time>
      </trkpt>
      <trkpt lat="45.58298" lon="6.63318">
        <ele>2086.6000976562</ele>
        <time>2015-11-27T14:36:53.000Z</time>
      </trkpt>
      <trkpt lat="45.58297" lon="6.63323">
        <ele>2085.3999023438</ele>
        <time>2015-11-27T14:36:54.000Z</time>
      </trkpt>
      <trkpt lat="45.58301" lon="6.63331">
        <ele>2084.1999511719</ele>
        <time>2015-11-27T14:36:56.000Z</time>
      </trkpt>
      <trkpt lat="45.58305" lon="6.63335">
        <ele>2083.6000976562</ele>
        <time>2015-11-27T14:36:57.000Z</time>
      </trkpt>
      <trkpt lat="45.58309" lon="6.63337">
        <ele>2082.8000488281</ele>
        <time>2015-11-27T14:36:58.000Z</time>
      </trkpt>
      <trkpt lat="45.58312" lon="6.63339">
        <ele>2081.8000488281</ele>
        <time>2015-11-27T14:36:59.000Z</time>
      </trkpt>
      <trkpt lat="45.58314" lon="6.6334">
        <ele>2080.6000976562</ele>
        <time>2015-11-27T14:37:00.000Z</time>
      </trkpt>
      <trkpt lat="45.58315" lon="6.63341">
        <ele>2079.6000976562</ele>
        <time>2015-11-27T14:37:01.000Z</time>
      </trkpt>
      <trkpt lat="45.58317" lon="6.63342">
        <ele>2077.1999511719</ele>
        <time>2015-11-27T14:37:03.000Z</time>
      </trkpt>
      <trkpt lat="45.58318" lon="6.63341">
        <ele>2075.6000976562</ele>
        <time>2015-11-27T14:37:05.000Z</time>
      </trkpt>
      <trkpt lat="45.58318" lon="6.6334">
        <ele>2074</ele>
        <time>2015-11-27T14:37:07.000Z</time>
      </trkpt>
      <trkpt lat="45.58318" lon="6.63339">
        <ele>2075.3999023438</ele>
        <time>2015-11-27T14:37:09.000Z</time>
      </trkpt>
      <trkpt lat="45.58318" lon="6.63338">
        <ele>2076.6000976562</ele>
        <time>2015-11-27T14:37:11.000Z</time>
      </trkpt>
      <trkpt lat="45.58318" lon="6.63337">
        <ele>2075.6000976562</ele>
        <time>2015-11-27T14:37:17.000Z</time>
      </trkpt>
      <trkpt lat="45.58318" lon="6.63336">
        <ele>2075.3999023438</ele>
        <time>2015-11-27T14:37:18.000Z</time>
      </trkpt>
      <trkpt lat="45.58318" lon="6.63336">
        <ele>2075.3999023438</ele>
        <time>2015-11-27T14:37:28.000Z</time>
      </trkpt>
      <trkpt lat="45.58318" lon="6.63336">
        <ele>2075.1999511719</ele>
        <time>2015-11-27T14:37:42.000Z</time>
      </trkpt>
      <trkpt lat="45.58318" lon="6.63336">
        <ele>2075.6000976562</ele>
        <time>2015-11-27T14:37:54.000Z</time>
      </trkpt>
      <trkpt lat="45.58318" lon="6.63336">
        <ele>2075.3999023438</ele>
        <time>2015-11-27T14:38:06.000Z</time>
      </trkpt>
      <trkpt lat="45.58318" lon="6.63336">
        <ele>2076</ele>
        <time>2015-11-27T14:38:19.000Z</time>
      </trkpt>
      <trkpt lat="45.58319" lon="6.63337">
        <ele>2075.8000488281</ele>
        <time>2015-11-27T14:38:26.000Z</time>
      </trkpt>
      <trkpt lat="45.58321" lon="6.63339">
        <ele>2075.8000488281</ele>
        <time>2015-11-27T14:38:27.000Z</time>
      </trkpt>
      <trkpt lat="45.58324" lon="6.63344">
        <ele>2075.8000488281</ele>
        <time>2015-11-27T14:38:29.000Z</time>
      </trkpt>
      <trkpt lat="45.5832" lon="6.63351">
        <ele>2075</ele>
        <time>2015-11-27T14:38:31.000Z</time>
      </trkpt>
      <trkpt lat="45.58317" lon="6.63353">
        <ele>2074.3999023438</ele>
        <time>2015-11-27T14:38:32.000Z</time>
      </trkpt>
      <trkpt lat="45.58314" lon="6.63355">
        <ele>2073</ele>
        <time>2015-11-27T14:38:34.000Z</time>
      </trkpt>
      <trkpt lat="45.58313" lon="6.63356">
        <ele>2072.1999511719</ele>
        <time>2015-11-27T14:38:35.000Z</time>
      </trkpt>
      <trkpt lat="45.58313" lon="6.63355">
        <ele>2071.6000976562</ele>
        <time>2015-11-27T14:38:36.000Z</time>
      </trkpt>
      <trkpt lat="45.58313" lon="6.63355">
        <ele>2070.6000976562</ele>
        <time>2015-11-27T14:38:38.000Z</time>
      </trkpt>
      <trkpt lat="45.58313" lon="6.63355">
        <ele>2070.1999511719</ele>
        <time>2015-11-27T14:38:42.000Z</time>
      </trkpt>
      <trkpt lat="45.58309" lon="6.6336">
        <ele>2069.8000488281</ele>
        <time>2015-11-27T14:38:49.000Z</time>
      </trkpt>
      <trkpt lat="45.58306" lon="6.63373">
        <ele>2069.3999023438</ele>
        <time>2015-11-27T14:38:52.000Z</time>
      </trkpt>
      <trkpt lat="45.58306" lon="6.63375">
        <ele>2068.8000488281</ele>
        <time>2015-11-27T14:38:53.000Z</time>
      </trkpt>
      <trkpt lat="45.58306" lon="6.63375">
        <ele>2067.6000976562</ele>
        <time>2015-11-27T14:38:54.000Z</time>
      </trkpt>
      <trkpt lat="45.58306" lon="6.63376">
        <ele>2065.1999511719</ele>
        <time>2015-11-27T14:38:55.000Z</time>
      </trkpt>
      <trkpt lat="45.58307" lon="6.63377">
        <ele>2064.3999023438</ele>
        <time>2015-11-27T14:38:56.000Z</time>
      </trkpt>
      <trkpt lat="45.58307" lon="6.6338">
        <ele>2064</ele>
        <time>2015-11-27T14:38:57.000Z</time>
      </trkpt>
      <trkpt lat="45.583" lon="6.63389">
        <ele>2063</ele>
        <time>2015-11-27T14:39:00.000Z</time>
      </trkpt>
      <trkpt lat="45.58298" lon="6.63394">
        <ele>2062.3999023438</ele>
        <time>2015-11-27T14:39:01.000Z</time>
      </trkpt>
      <trkpt lat="45.58294" lon="6.63404">
        <ele>2060.8000488281</ele>
        <time>2015-11-27T14:39:03.000Z</time>
      </trkpt>
      <trkpt lat="45.58293" lon="6.63418">
        <ele>2058.8000488281</ele>
        <time>2015-11-27T14:39:05.000Z</time>
      </trkpt>
      <trkpt lat="45.58293" lon="6.63424">
        <ele>2057.6000976562</ele>
        <time>2015-11-27T14:39:06.000Z</time>
      </trkpt>
      <trkpt lat="45.58296" lon="6.63429">
        <ele>2056.6000976562</ele>
        <time>2015-11-27T14:39:07.000Z</time>
      </trkpt>
      <trkpt lat="45.58298" lon="6.63433">
        <ele>2055.1999511719</ele>
        <time>2015-11-27T14:39:08.000Z</time>
      </trkpt>
      <trkpt lat="45.58299" lon="6.63434">
        <ele>2054</ele>
        <time>2015-11-27T14:39:09.000Z</time>
      </trkpt>
      <trkpt lat="45.58301" lon="6.63435">
        <ele>2052.8000488281</ele>
        <time>2015-11-27T14:39:10.000Z</time>
      </trkpt>
      <trkpt lat="45.58301" lon="6.63435">
        <ele>2052</ele>
        <time>2015-11-27T14:39:11.000Z</time>
      </trkpt>
      <trkpt lat="45.58302" lon="6.63434">
        <ele>2051.1999511719</ele>
        <time>2015-11-27T14:39:12.000Z</time>
      </trkpt>
      <trkpt lat="45.58302" lon="6.63432">
        <ele>2050.1999511719</ele>
        <time>2015-11-27T14:39:14.000Z</time>
      </trkpt>
      <trkpt lat="45.58303" lon="6.63432">
        <ele>2049.1999511719</ele>
        <time>2015-11-27T14:39:18.000Z</time>
      </trkpt>
      <trkpt lat="45.58303" lon="6.63432">
        <ele>2049.1999511719</ele>
        <time>2015-11-27T14:39:19.000Z</time>
      </trkpt>
      <trkpt lat="45.58303" lon="6.63433">
        <ele>2049</ele>
        <time>2015-11-27T14:39:26.000Z</time>
      </trkpt>
      <trkpt lat="45.58304" lon="6.63435">
        <ele>2048.8000488281</ele>
        <time>2015-11-27T14:39:29.000Z</time>
      </trkpt>
      <trkpt lat="45.58305" lon="6.63437">
        <ele>2048.6000976562</ele>
        <time>2015-11-27T14:39:31.000Z</time>
      </trkpt>
      <trkpt lat="45.58305" lon="6.63439">
        <ele>2048.6000976562</ele>
        <time>2015-11-27T14:39:32.000Z</time>
      </trkpt>
      <trkpt lat="45.58301" lon="6.63444">
        <ele>2047.8000488281</ele>
        <time>2015-11-27T14:39:34.000Z</time>
      </trkpt>
      <trkpt lat="45.58294" lon="6.63446">
        <ele>2046.5999755859</ele>
        <time>2015-11-27T14:39:36.000Z</time>
      </trkpt>
      <trkpt lat="45.5829" lon="6.63453">
        <ele>2044.8000488281</ele>
        <time>2015-11-27T14:39:38.000Z</time>
      </trkpt>
      <trkpt lat="45.58284" lon="6.63461">
        <ele>2043</ele>
        <time>2015-11-27T14:39:40.000Z</time>
      </trkpt>
      <trkpt lat="45.5828" lon="6.63463">
        <ele>2042</ele>
        <time>2015-11-27T14:39:41.000Z</time>
      </trkpt>
      <trkpt lat="45.58276" lon="6.63466">
        <ele>2040.5999755859</ele>
        <time>2015-11-27T14:39:42.000Z</time>
      </trkpt>
      <trkpt lat="45.58274" lon="6.6347">
        <ele>2037.1999511719</ele>
        <time>2015-11-27T14:39:43.000Z</time>
      </trkpt>
      <trkpt lat="45.58273" lon="6.63474">
        <ele>2035.8000488281</ele>
        <time>2015-11-27T14:39:44.000Z</time>
      </trkpt>
      <trkpt lat="45.58276" lon="6.63476">
        <ele>2034.4000244141</ele>
        <time>2015-11-27T14:39:45.000Z</time>
      </trkpt>
      <trkpt lat="45.58278" lon="6.63479">
        <ele>2033.1999511719</ele>
        <time>2015-11-27T14:39:46.000Z</time>
      </trkpt>
      <trkpt lat="45.5828" lon="6.63481">
        <ele>2032</ele>
        <time>2015-11-27T14:39:47.000Z</time>
      </trkpt>
      <trkpt lat="45.58285" lon="6.6349">
        <ele>2030.4000244141</ele>
        <time>2015-11-27T14:39:49.000Z</time>
      </trkpt>
      <trkpt lat="45.58287" lon="6.63495">
        <ele>2029.5999755859</ele>
        <time>2015-11-27T14:39:50.000Z</time>
      </trkpt>
      <trkpt lat="45.5829" lon="6.635">
        <ele>2029</ele>
        <time>2015-11-27T14:39:51.000Z</time>
      </trkpt>
      <trkpt lat="45.58294" lon="6.63512">
        <ele>2027.5999755859</ele>
        <time>2015-11-27T14:39:53.000Z</time>
      </trkpt>
      <trkpt lat="45.58295" lon="6.6352">
        <ele>2026.5999755859</ele>
        <time>2015-11-27T14:39:54.000Z</time>
      </trkpt>
      <trkpt lat="45.58297" lon="6.63528">
        <ele>2025.5999755859</ele>
        <time>2015-11-27T14:39:55.000Z</time>
      </trkpt>
      <trkpt lat="45.58301" lon="6.63543">
        <ele>2023.8000488281</ele>
        <time>2015-11-27T14:39:57.000Z</time>
      </trkpt>
      <trkpt lat="45.58306" lon="6.6356">
        <ele>2022.1999511719</ele>
        <time>2015-11-27T14:39:59.000Z</time>
      </trkpt>
      <trkpt lat="45.5831" lon="6.63567">
        <ele>2021.4000244141</ele>
        <time>2015-11-27T14:40:00.000Z</time>
      </trkpt>
      <trkpt lat="45.58315" lon="6.63574">
        <ele>2020.8000488281</ele>
        <time>2015-11-27T14:40:01.000Z</time>
      </trkpt>
      <trkpt lat="45.58318" lon="6.63582">
        <ele>2020</ele>
        <time>2015-11-27T14:40:02.000Z</time>
      </trkpt>
      <trkpt lat="45.58321" lon="6.63589">
        <ele>2019.1999511719</ele>
        <time>2015-11-27T14:40:03.000Z</time>
      </trkpt>
      <trkpt lat="45.58323" lon="6.63594">
        <ele>2018.1999511719</ele>
        <time>2015-11-27T14:40:04.000Z</time>
      </trkpt>
      <trkpt lat="45.58325" lon="6.636">
        <ele>2017.4000244141</ele>
        <time>2015-11-27T14:40:05.000Z</time>
      </trkpt>
      <trkpt lat="45.58327" lon="6.63604">
        <ele>2015</ele>
        <time>2015-11-27T14:40:07.000Z</time>
      </trkpt>
      <trkpt lat="45.58327" lon="6.63605">
        <ele>2014.1999511719</ele>
        <time>2015-11-27T14:40:08.000Z</time>
      </trkpt>
      <trkpt lat="45.58327" lon="6.63605">
        <ele>2013.4000244141</ele>
        <time>2015-11-27T14:40:09.000Z</time>
      </trkpt>
      <trkpt lat="45.58327" lon="6.63605">
        <ele>2012.4000244141</ele>
        <time>2015-11-27T14:40:12.000Z</time>
      </trkpt>
      <trkpt lat="45.58328" lon="6.63606">
        <ele>2012.1999511719</ele>
        <time>2015-11-27T14:40:14.000Z</time>
      </trkpt>
      <trkpt lat="45.58327" lon="6.63609">
        <ele>2012</ele>
        <time>2015-11-27T14:40:15.000Z</time>
      </trkpt>
      <trkpt lat="45.58324" lon="6.63617">
        <ele>2011.5999755859</ele>
        <time>2015-11-27T14:40:18.000Z</time>
      </trkpt>
      <trkpt lat="45.58325" lon="6.63619">
        <ele>2011.1999511719</ele>
        <time>2015-11-27T14:40:19.000Z</time>
      </trkpt>
      <trkpt lat="45.58328" lon="6.63624">
        <ele>2010.1999511719</ele>
        <time>2015-11-27T14:40:21.000Z</time>
      </trkpt>
      <trkpt lat="45.58331" lon="6.63627">
        <ele>2009.5999755859</ele>
        <time>2015-11-27T14:40:22.000Z</time>
      </trkpt>
      <trkpt lat="45.58333" lon="6.63629">
        <ele>2009</ele>
        <time>2015-11-27T14:40:23.000Z</time>
      </trkpt>
      <trkpt lat="45.58336" lon="6.63634">
        <ele>2007.8000488281</ele>
        <time>2015-11-27T14:40:25.000Z</time>
      </trkpt>
      <trkpt lat="45.58335" lon="6.63637">
        <ele>2007.1999511719</ele>
        <time>2015-11-27T14:40:26.000Z</time>
      </trkpt>
      <trkpt lat="45.58332" lon="6.63639">
        <ele>2006.8000488281</ele>
        <time>2015-11-27T14:40:27.000Z</time>
      </trkpt>
      <trkpt lat="45.58328" lon="6.63643">
        <ele>2005.5999755859</ele>
        <time>2015-11-27T14:40:29.000Z</time>
      </trkpt>
      <trkpt lat="45.58328" lon="6.63644">
        <ele>2004.8000488281</ele>
        <time>2015-11-27T14:40:30.000Z</time>
      </trkpt>
      <trkpt lat="45.5833" lon="6.63645">
        <ele>2003.4000244141</ele>
        <time>2015-11-27T14:40:31.000Z</time>
      </trkpt>
      <trkpt lat="45.58332" lon="6.63646">
        <ele>2001.8000488281</ele>
        <time>2015-11-27T14:40:33.000Z</time>
      </trkpt>
      <trkpt lat="45.58337" lon="6.63648">
        <ele>2000.8000488281</ele>
        <time>2015-11-27T14:40:36.000Z</time>
      </trkpt>
      <trkpt lat="45.58343" lon="6.63654">
        <ele>2000.4000244141</ele>
        <time>2015-11-27T14:40:39.000Z</time>
      </trkpt>
      <trkpt lat="45.58347" lon="6.63662">
        <ele>1999.5999755859</ele>
        <time>2015-11-27T14:40:43.000Z</time>
      </trkpt>
      <trkpt lat="45.58349" lon="6.63666">
        <ele>1999.1999511719</ele>
        <time>2015-11-27T14:40:45.000Z</time>
      </trkpt>
      <trkpt lat="45.58354" lon="6.63678">
        <ele>1998.5999755859</ele>
        <time>2015-11-27T14:40:50.000Z</time>
      </trkpt>
      <trkpt lat="45.58356" lon="6.63684">
        <ele>1998.1999511719</ele>
        <time>2015-11-27T14:40:52.000Z</time>
      </trkpt>
      <trkpt lat="45.58361" lon="6.63698">
        <ele>1997.4000244141</ele>
        <time>2015-11-27T14:40:55.000Z</time>
      </trkpt>
      <trkpt lat="45.58361" lon="6.63702">
        <ele>1997.1999511719</ele>
        <time>2015-11-27T14:40:56.000Z</time>
      </trkpt>
      <trkpt lat="45.58359" lon="6.63706">
        <ele>1996.4000244141</ele>
        <time>2015-11-27T14:40:58.000Z</time>
      </trkpt>
      <trkpt lat="45.58356" lon="6.63705">
        <ele>1995.5999755859</ele>
        <time>2015-11-27T14:40:59.000Z</time>
      </trkpt>
      <trkpt lat="45.58351" lon="6.63703">
        <ele>1994.8000488281</ele>
        <time>2015-11-27T14:41:00.000Z</time>
      </trkpt>
      <trkpt lat="45.58346" lon="6.63703">
        <ele>1994</ele>
        <time>2015-11-27T14:41:01.000Z</time>
      </trkpt>
      <trkpt lat="45.58342" lon="6.63705">
        <ele>1993.1999511719</ele>
        <time>2015-11-27T14:41:02.000Z</time>
      </trkpt>
      <trkpt lat="45.58333" lon="6.63712">
        <ele>1991.5999755859</ele>
        <time>2015-11-27T14:41:04.000Z</time>
      </trkpt>
      <trkpt lat="45.5833" lon="6.63717">
        <ele>1990.8000488281</ele>
        <time>2015-11-27T14:41:05.000Z</time>
      </trkpt>
      <trkpt lat="45.58327" lon="6.6372">
        <ele>1989.8000488281</ele>
        <time>2015-11-27T14:41:06.000Z</time>
      </trkpt>
      <trkpt lat="45.58323" lon="6.63725">
        <ele>1988.5999755859</ele>
        <time>2015-11-27T14:41:07.000Z</time>
      </trkpt>
      <trkpt lat="45.58319" lon="6.63732">
        <ele>1987.1999511719</ele>
        <time>2015-11-27T14:41:08.000Z</time>
      </trkpt>
      <trkpt lat="45.58319" lon="6.6374">
        <ele>1986</ele>
        <time>2015-11-27T14:41:09.000Z</time>
      </trkpt>
      <trkpt lat="45.58319" lon="6.63748">
        <ele>1985</ele>
        <time>2015-11-27T14:41:10.000Z</time>
      </trkpt>
      <trkpt lat="45.5832" lon="6.63757">
        <ele>1983.5999755859</ele>
        <time>2015-11-27T14:41:11.000Z</time>
      </trkpt>
      <trkpt lat="45.58322" lon="6.63763">
        <ele>1981.8000488281</ele>
        <time>2015-11-27T14:41:12.000Z</time>
      </trkpt>
      <trkpt lat="45.58323" lon="6.63768">
        <ele>1980</ele>
        <time>2015-11-27T14:41:13.000Z</time>
      </trkpt>
      <trkpt lat="45.58325" lon="6.63771">
        <ele>1978.4000244141</ele>
        <time>2015-11-27T14:41:14.000Z</time>
      </trkpt>
      <trkpt lat="45.58326" lon="6.63774">
        <ele>1977</ele>
        <time>2015-11-27T14:41:15.000Z</time>
      </trkpt>
      <trkpt lat="45.58326" lon="6.63775">
        <ele>1976</ele>
        <time>2015-11-27T14:41:16.000Z</time>
      </trkpt>
      <trkpt lat="45.58327" lon="6.63777">
        <ele>1974.1999511719</ele>
        <time>2015-11-27T14:41:18.000Z</time>
      </trkpt>
      <trkpt lat="45.58327" lon="6.63778">
        <ele>1973.1999511719</ele>
        <time>2015-11-27T14:41:19.000Z</time>
      </trkpt>
      <trkpt lat="45.58328" lon="6.63779">
        <ele>1973</ele>
        <time>2015-11-27T14:41:20.000Z</time>
      </trkpt>
      <trkpt lat="45.58331" lon="6.63782">
        <ele>1972.5999755859</ele>
        <time>2015-11-27T14:41:25.000Z</time>
      </trkpt>
      <trkpt lat="45.58335" lon="6.63785">
        <ele>1972.8000488281</ele>
        <time>2015-11-27T14:41:30.000Z</time>
      </trkpt>
      <trkpt lat="45.58336" lon="6.63786">
        <ele>1972.8000488281</ele>
        <time>2015-11-27T14:41:31.000Z</time>
      </trkpt>
      <trkpt lat="45.58342" lon="6.63799">
        <ele>1972.8000488281</ele>
        <time>2015-11-27T14:41:36.000Z</time>
      </trkpt>
      <trkpt lat="45.58342" lon="6.63809">
        <ele>1972.5999755859</ele>
        <time>2015-11-27T14:41:38.000Z</time>
      </trkpt>
      <trkpt lat="45.5834" lon="6.63814">
        <ele>1972.1999511719</ele>
        <time>2015-11-27T14:41:39.000Z</time>
      </trkpt>
      <trkpt lat="45.58334" lon="6.6383">
        <ele>1971</ele>
        <time>2015-11-27T14:41:41.000Z</time>
      </trkpt>
      <trkpt lat="45.58332" lon="6.63838">
        <ele>1970.1999511719</ele>
        <time>2015-11-27T14:41:42.000Z</time>
      </trkpt>
      <trkpt lat="45.5833" lon="6.63846">
        <ele>1967.8000488281</ele>
        <time>2015-11-27T14:41:43.000Z</time>
      </trkpt>
      <trkpt lat="45.5833" lon="6.63853">
        <ele>1966.4000244141</ele>
        <time>2015-11-27T14:41:44.000Z</time>
      </trkpt>
      <trkpt lat="45.58331" lon="6.63859">
        <ele>1964.5999755859</ele>
        <time>2015-11-27T14:41:45.000Z</time>
      </trkpt>
      <trkpt lat="45.5833" lon="6.63864">
        <ele>1963</ele>
        <time>2015-11-27T14:41:46.000Z</time>
      </trkpt>
      <trkpt lat="45.5833" lon="6.63869">
        <ele>1961.4000244141</ele>
        <time>2015-11-27T14:41:47.000Z</time>
      </trkpt>
      <trkpt lat="45.58327" lon="6.63873">
        <ele>1960</ele>
        <time>2015-11-27T14:41:48.000Z</time>
      </trkpt>
      <trkpt lat="45.58324" lon="6.63879">
        <ele>1958.5999755859</ele>
        <time>2015-11-27T14:41:49.000Z</time>
      </trkpt>
      <trkpt lat="45.58321" lon="6.63886">
        <ele>1957.4000244141</ele>
        <time>2015-11-27T14:41:50.000Z</time>
      </trkpt>
      <trkpt lat="45.58319" lon="6.63893">
        <ele>1956.1999511719</ele>
        <time>2015-11-27T14:41:51.000Z</time>
      </trkpt>
      <trkpt lat="45.58316" lon="6.639">
        <ele>1955</ele>
        <time>2015-11-27T14:41:52.000Z</time>
      </trkpt>
      <trkpt lat="45.58313" lon="6.63908">
        <ele>1953.4000244141</ele>
        <time>2015-11-27T14:41:53.000Z</time>
      </trkpt>
      <trkpt lat="45.58308" lon="6.63915">
        <ele>1951.5999755859</ele>
        <time>2015-11-27T14:41:54.000Z</time>
      </trkpt>
      <trkpt lat="45.58304" lon="6.63922">
        <ele>1949.8000488281</ele>
        <time>2015-11-27T14:41:55.000Z</time>
      </trkpt>
      <trkpt lat="45.58299" lon="6.6393">
        <ele>1947.8000488281</ele>
        <time>2015-11-27T14:41:56.000Z</time>
      </trkpt>
      <trkpt lat="45.58295" lon="6.6394">
        <ele>1945.8000488281</ele>
        <time>2015-11-27T14:41:57.000Z</time>
      </trkpt>
      <trkpt lat="45.58291" lon="6.6395">
        <ele>1943.8000488281</ele>
        <time>2015-11-27T14:41:58.000Z</time>
      </trkpt>
      <trkpt lat="45.58288" lon="6.63962">
        <ele>1941.5999755859</ele>
        <time>2015-11-27T14:41:59.000Z</time>
      </trkpt>
      <trkpt lat="45.58285" lon="6.63973">
        <ele>1939</ele>
        <time>2015-11-27T14:42:00.000Z</time>
      </trkpt>
      <trkpt lat="45.58283" lon="6.63984">
        <ele>1936.1999511719</ele>
        <time>2015-11-27T14:42:01.000Z</time>
      </trkpt>
      <trkpt lat="45.58282" lon="6.63995">
        <ele>1933.1999511719</ele>
        <time>2015-11-27T14:42:02.000Z</time>
      </trkpt>
      <trkpt lat="45.5828" lon="6.64006">
        <ele>1930.4000244141</ele>
        <time>2015-11-27T14:42:03.000Z</time>
      </trkpt>
      <trkpt lat="45.5828" lon="6.64015">
        <ele>1928</ele>
        <time>2015-11-27T14:42:04.000Z</time>
      </trkpt>
      <trkpt lat="45.58282" lon="6.64022">
        <ele>1925.5999755859</ele>
        <time>2015-11-27T14:42:05.000Z</time>
      </trkpt>
      <trkpt lat="45.58283" lon="6.6403">
        <ele>1923.4000244141</ele>
        <time>2015-11-27T14:42:06.000Z</time>
      </trkpt>
      <trkpt lat="45.58284" lon="6.64037">
        <ele>1918.8000488281</ele>
        <time>2015-11-27T14:42:07.000Z</time>
      </trkpt>
      <trkpt lat="45.58284" lon="6.64044">
        <ele>1916.4000244141</ele>
        <time>2015-11-27T14:42:08.000Z</time>
      </trkpt>
      <trkpt lat="45.58285" lon="6.64049">
        <ele>1914.4000244141</ele>
        <time>2015-11-27T14:42:09.000Z</time>
      </trkpt>
      <trkpt lat="45.58286" lon="6.64051">
        <ele>1912.5999755859</ele>
        <time>2015-11-27T14:42:10.000Z</time>
      </trkpt>
      <trkpt lat="45.58286" lon="6.64051">
        <ele>1911</ele>
        <time>2015-11-27T14:42:11.000Z</time>
      </trkpt>
      <trkpt lat="45.58286" lon="6.64051">
        <ele>1909.5999755859</ele>
        <time>2015-11-27T14:42:12.000Z</time>
      </trkpt>
      <trkpt lat="45.58287" lon="6.64051">
        <ele>1908.4000244141</ele>
        <time>2015-11-27T14:42:13.000Z</time>
      </trkpt>
      <trkpt lat="45.58287" lon="6.64051">
        <ele>1907.1999511719</ele>
        <time>2015-11-27T14:42:14.000Z</time>
      </trkpt>
      <trkpt lat="45.58288" lon="6.64049">
        <ele>1906.1999511719</ele>
        <time>2015-11-27T14:42:16.000Z</time>
      </trkpt>
      <trkpt lat="45.58289" lon="6.64046">
        <ele>1905.8000488281</ele>
        <time>2015-11-27T14:42:21.000Z</time>
      </trkpt>
      <trkpt lat="45.58289" lon="6.64046">
        <ele>1906</ele>
        <time>2015-11-27T14:42:31.000Z</time>
      </trkpt>
      <trkpt lat="45.58289" lon="6.64046">
        <ele>1905.8000488281</ele>
        <time>2015-11-27T14:42:45.000Z</time>
      </trkpt>
      <trkpt lat="45.58289" lon="6.64046">
        <ele>1906</ele>
        <time>2015-11-27T14:43:00.000Z</time>
      </trkpt>
      <trkpt lat="45.58289" lon="6.64046">
        <ele>1906</ele>
        <time>2015-11-27T14:43:14.000Z</time>
      </trkpt>
      <trkpt lat="45.58289" lon="6.64046">
        <ele>1905.8000488281</ele>
        <time>2015-11-27T14:43:27.000Z</time>
      </trkpt>
      <trkpt lat="45.58293" lon="6.64049">
        <ele>1905.8000488281</ele>
        <time>2015-11-27T14:43:31.000Z</time>
      </trkpt>
      <trkpt lat="45.58294" lon="6.64053">
        <ele>1905.8000488281</ele>
        <time>2015-11-27T14:43:32.000Z</time>
      </trkpt>
      <trkpt lat="45.58294" lon="6.64071">
        <ele>1905.4000244141</ele>
        <time>2015-11-27T14:43:35.000Z</time>
      </trkpt>
      <trkpt lat="45.58295" lon="6.64079">
        <ele>1904.8000488281</ele>
        <time>2015-11-27T14:43:36.000Z</time>
      </trkpt>
      <trkpt lat="45.58299" lon="6.64094">
        <ele>1902.5999755859</ele>
        <time>2015-11-27T14:43:38.000Z</time>
      </trkpt>
      <trkpt lat="45.58302" lon="6.64103">
        <ele>1901.1999511719</ele>
        <time>2015-11-27T14:43:39.000Z</time>
      </trkpt>
      <trkpt lat="45.58305" lon="6.6411">
        <ele>1899.8000488281</ele>
        <time>2015-11-27T14:43:40.000Z</time>
      </trkpt>
      <trkpt lat="45.58308" lon="6.64118">
        <ele>1898.1999511719</ele>
        <time>2015-11-27T14:43:41.000Z</time>
      </trkpt>
      <trkpt lat="45.58311" lon="6.64125">
        <ele>1896.5999755859</ele>
        <time>2015-11-27T14:43:42.000Z</time>
      </trkpt>
      <trkpt lat="45.58314" lon="6.6413">
        <ele>1893.1999511719</ele>
        <time>2015-11-27T14:43:43.000Z</time>
      </trkpt>
      <trkpt lat="45.58316" lon="6.64135">
        <ele>1891</ele>
        <time>2015-11-27T14:43:44.000Z</time>
      </trkpt>
      <trkpt lat="45.58317" lon="6.6414">
        <ele>1889</ele>
        <time>2015-11-27T14:43:45.000Z</time>
      </trkpt>
      <trkpt lat="45.58317" lon="6.64145">
        <ele>1887.1999511719</ele>
        <time>2015-11-27T14:43:46.000Z</time>
      </trkpt>
      <trkpt lat="45.58317" lon="6.64151">
        <ele>1885.5999755859</ele>
        <time>2015-11-27T14:43:47.000Z</time>
      </trkpt>
      <trkpt lat="45.58318" lon="6.64156">
        <ele>1884.1999511719</ele>
        <time>2015-11-27T14:43:48.000Z</time>
      </trkpt>
      <trkpt lat="45.58319" lon="6.64162">
        <ele>1882.5999755859</ele>
        <time>2015-11-27T14:43:49.000Z</time>
      </trkpt>
      <trkpt lat="45.58319" lon="6.64167">
        <ele>1881</ele>
        <time>2015-11-27T14:43:50.000Z</time>
      </trkpt>
      <trkpt lat="45.5832" lon="6.64171">
        <ele>1879.4000244141</ele>
        <time>2015-11-27T14:43:51.000Z</time>
      </trkpt>
      <trkpt lat="45.5832" lon="6.64176">
        <ele>1877.5999755859</ele>
        <time>2015-11-27T14:43:52.000Z</time>
      </trkpt>
      <trkpt lat="45.58321" lon="6.64179">
        <ele>1876</ele>
        <time>2015-11-27T14:43:53.000Z</time>
      </trkpt>
      <trkpt lat="45.58322" lon="6.64181">
        <ele>1874.1999511719</ele>
        <time>2015-11-27T14:43:54.000Z</time>
      </trkpt>
      <trkpt lat="45.58323" lon="6.64185">
        <ele>1872.5999755859</ele>
        <time>2015-11-27T14:43:55.000Z</time>
      </trkpt>
      <trkpt lat="45.58324" lon="6.6419">
        <ele>1871</ele>
        <time>2015-11-27T14:43:56.000Z</time>
      </trkpt>
      <trkpt lat="45.58326" lon="6.64195">
        <ele>1869.5999755859</ele>
        <time>2015-11-27T14:43:57.000Z</time>
      </trkpt>
      <trkpt lat="45.58328" lon="6.64201">
        <ele>1868.4000244141</ele>
        <time>2015-11-27T14:43:58.000Z</time>
      </trkpt>
      <trkpt lat="45.5833" lon="6.64206">
        <ele>1867</ele>
        <time>2015-11-27T14:43:59.000Z</time>
      </trkpt>
      <trkpt lat="45.58332" lon="6.64212">
        <ele>1865.5999755859</ele>
        <time>2015-11-27T14:44:00.000Z</time>
      </trkpt>
      <trkpt lat="45.58335" lon="6.64219">
        <ele>1863.5999755859</ele>
        <time>2015-11-27T14:44:01.000Z</time>
      </trkpt>
      <trkpt lat="45.58337" lon="6.64226">
        <ele>1861.4000244141</ele>
        <time>2015-11-27T14:44:02.000Z</time>
      </trkpt>
      <trkpt lat="45.5834" lon="6.64233">
        <ele>1858.8000488281</ele>
        <time>2015-11-27T14:44:03.000Z</time>
      </trkpt>
      <trkpt lat="45.58343" lon="6.6424">
        <ele>1856.4000244141</ele>
        <time>2015-11-27T14:44:04.000Z</time>
      </trkpt>
      <trkpt lat="45.58345" lon="6.64243">
        <ele>1853.8000488281</ele>
        <time>2015-11-27T14:44:05.000Z</time>
      </trkpt>
      <trkpt lat="45.58346" lon="6.64244">
        <ele>1851.5999755859</ele>
        <time>2015-11-27T14:44:06.000Z</time>
      </trkpt>
      <trkpt lat="45.58346" lon="6.64243">
        <ele>1847.8000488281</ele>
        <time>2015-11-27T14:44:07.000Z</time>
      </trkpt>
      <trkpt lat="45.58345" lon="6.64243">
        <ele>1846.1999511719</ele>
        <time>2015-11-27T14:44:08.000Z</time>
      </trkpt>
      <trkpt lat="45.58345" lon="6.64244">
        <ele>1845</ele>
        <time>2015-11-27T14:44:09.000Z</time>
      </trkpt>
      <trkpt lat="45.58347" lon="6.64247">
        <ele>1844</ele>
        <time>2015-11-27T14:44:10.000Z</time>
      </trkpt>
      <trkpt lat="45.58349" lon="6.64249">
        <ele>1843.1999511719</ele>
        <time>2015-11-27T14:44:11.000Z</time>
      </trkpt>
      <trkpt lat="45.58353" lon="6.64252">
        <ele>1842</ele>
        <time>2015-11-27T14:44:13.000Z</time>
      </trkpt>
      <trkpt lat="45.58358" lon="6.64252">
        <ele>1841</ele>
        <time>2015-11-27T14:44:15.000Z</time>
      </trkpt>
      <trkpt lat="45.5836" lon="6.64253">
        <ele>1839.8000488281</ele>
        <time>2015-11-27T14:44:17.000Z</time>
      </trkpt>
      <trkpt lat="45.58366" lon="6.64256">
        <ele>1838.8000488281</ele>
        <time>2015-11-27T14:44:20.000Z</time>
      </trkpt>
      <trkpt lat="45.58371" lon="6.64259">
        <ele>1838.4000244141</ele>
        <time>2015-11-27T14:44:22.000Z</time>
      </trkpt>
      <trkpt lat="45.58379" lon="6.64265">
        <ele>1837.8000488281</ele>
        <time>2015-11-27T14:44:25.000Z</time>
      </trkpt>
      <trkpt lat="45.5839" lon="6.64274">
        <ele>1836.5999755859</ele>
        <time>2015-11-27T14:44:29.000Z</time>
      </trkpt>
      <trkpt lat="45.58396" lon="6.64278">
        <ele>1835.5999755859</ele>
        <time>2015-11-27T14:44:31.000Z</time>
      </trkpt>
      <trkpt lat="45.584" lon="6.64281">
        <ele>1835.4000244141</ele>
        <time>2015-11-27T14:44:32.000Z</time>
      </trkpt>
      <trkpt lat="45.58406" lon="6.64287">
        <ele>1834.5999755859</ele>
        <time>2015-11-27T14:44:34.000Z</time>
      </trkpt>
      <trkpt lat="45.58409" lon="6.64292">
        <ele>1834</ele>
        <time>2015-11-27T14:44:35.000Z</time>
      </trkpt>
      <trkpt lat="45.58413" lon="6.64296">
        <ele>1833.1999511719</ele>
        <time>2015-11-27T14:44:36.000Z</time>
      </trkpt>
      <trkpt lat="45.58417" lon="6.64301">
        <ele>1832.4000244141</ele>
        <time>2015-11-27T14:44:37.000Z</time>
      </trkpt>
      <trkpt lat="45.58419" lon="6.64307">
        <ele>1831.4000244141</ele>
        <time>2015-11-27T14:44:38.000Z</time>
      </trkpt>
      <trkpt lat="45.5842" lon="6.64313">
        <ele>1830.1999511719</ele>
        <time>2015-11-27T14:44:39.000Z</time>
      </trkpt>
      <trkpt lat="45.58422" lon="6.6432">
        <ele>1828.8000488281</ele>
        <time>2015-11-27T14:44:40.000Z</time>
      </trkpt>
      <trkpt lat="45.58423" lon="6.64328">
        <ele>1827.1999511719</ele>
        <time>2015-11-27T14:44:41.000Z</time>
      </trkpt>
      <trkpt lat="45.58423" lon="6.64337">
        <ele>1825.4000244141</ele>
        <time>2015-11-27T14:44:42.000Z</time>
      </trkpt>
      <trkpt lat="45.58425" lon="6.64347">
        <ele>1823.4000244141</ele>
        <time>2015-11-27T14:44:43.000Z</time>
      </trkpt>
      <trkpt lat="45.58427" lon="6.64358">
        <ele>1821.1999511719</ele>
        <time>2015-11-27T14:44:44.000Z</time>
      </trkpt>
      <trkpt lat="45.5843" lon="6.64369">
        <ele>1818.8000488281</ele>
        <time>2015-11-27T14:44:45.000Z</time>
      </trkpt>
      <trkpt lat="45.58433" lon="6.64378">
        <ele>1816</ele>
        <time>2015-11-27T14:44:46.000Z</time>
      </trkpt>
      <trkpt lat="45.58435" lon="6.64384">
        <ele>1812.5999755859</ele>
        <time>2015-11-27T14:44:47.000Z</time>
      </trkpt>
      <trkpt lat="45.58438" lon="6.64388">
        <ele>1809.4000244141</ele>
        <time>2015-11-27T14:44:48.000Z</time>
      </trkpt>
      <trkpt lat="45.58436" lon="6.64389">
        <ele>1806.1999511719</ele>
        <time>2015-11-27T14:44:49.000Z</time>
      </trkpt>
      <trkpt lat="45.58432" lon="6.6439">
        <ele>1803.1999511719</ele>
        <time>2015-11-27T14:44:50.000Z</time>
      </trkpt>
      <trkpt lat="45.58429" lon="6.64391">
        <ele>1800.8000488281</ele>
        <time>2015-11-27T14:44:51.000Z</time>
      </trkpt>
      <trkpt lat="45.58426" lon="6.64391">
        <ele>1798.5999755859</ele>
        <time>2015-11-27T14:44:52.000Z</time>
      </trkpt>
      <trkpt lat="45.58422" lon="6.64391">
        <ele>1797.1999511719</ele>
        <time>2015-11-27T14:44:53.000Z</time>
      </trkpt>
      <trkpt lat="45.58421" lon="6.6439">
        <ele>1796.1999511719</ele>
        <time>2015-11-27T14:44:54.000Z</time>
      </trkpt>
      <trkpt lat="45.58417" lon="6.6439">
        <ele>1795.1999511719</ele>
        <time>2015-11-27T14:44:55.000Z</time>
      </trkpt>
      <trkpt lat="45.58415" lon="6.64392">
        <ele>1795</ele>
        <time>2015-11-27T14:44:56.000Z</time>
      </trkpt>
      <trkpt lat="45.58414" lon="6.64399">
        <ele>1794</ele>
        <time>2015-11-27T14:44:58.000Z</time>
      </trkpt>
      <trkpt lat="45.58411" lon="6.64404">
        <ele>1793.1999511719</ele>
        <time>2015-11-27T14:44:59.000Z</time>
      </trkpt>
      <trkpt lat="45.5841" lon="6.64409">
        <ele>1791.5999755859</ele>
        <time>2015-11-27T14:45:00.000Z</time>
      </trkpt>
      <trkpt lat="45.58409" lon="6.64414">
        <ele>1790</ele>
        <time>2015-11-27T14:45:01.000Z</time>
      </trkpt>
      <trkpt lat="45.58408" lon="6.64418">
        <ele>1788.1999511719</ele>
        <time>2015-11-27T14:45:02.000Z</time>
      </trkpt>
      <trkpt lat="45.58404" lon="6.64419">
        <ele>1786.5999755859</ele>
        <time>2015-11-27T14:45:03.000Z</time>
      </trkpt>
      <trkpt lat="45.58402" lon="6.64421">
        <ele>1784.5999755859</ele>
        <time>2015-11-27T14:45:04.000Z</time>
      </trkpt>
      <trkpt lat="45.584" lon="6.6442">
        <ele>1783</ele>
        <time>2015-11-27T14:45:05.000Z</time>
      </trkpt>
      <trkpt lat="45.584" lon="6.64421">
        <ele>1781.5999755859</ele>
        <time>2015-11-27T14:45:06.000Z</time>
      </trkpt>
      <trkpt lat="45.584" lon="6.64424">
        <ele>1780.4000244141</ele>
        <time>2015-11-27T14:45:08.000Z</time>
      </trkpt>
      <trkpt lat="45.58397" lon="6.64426">
        <ele>1779.5999755859</ele>
        <time>2015-11-27T14:45:10.000Z</time>
      </trkpt>
      <trkpt lat="45.58394" lon="6.64426">
        <ele>1778.8000488281</ele>
        <time>2015-11-27T14:45:11.000Z</time>
      </trkpt>
      <trkpt lat="45.58391" lon="6.64425">
        <ele>1778</ele>
        <time>2015-11-27T14:45:12.000Z</time>
      </trkpt>
      <trkpt lat="45.58391" lon="6.64426">
        <ele>1777</ele>
        <time>2015-11-27T14:45:13.000Z</time>
      </trkpt>
      <trkpt lat="45.58385" lon="6.64432">
        <ele>1775.5999755859</ele>
        <time>2015-11-27T14:45:15.000Z</time>
      </trkpt>
      <trkpt lat="45.58379" lon="6.64435">
        <ele>1775</ele>
        <time>2015-11-27T14:45:16.000Z</time>
      </trkpt>
      <trkpt lat="45.58373" lon="6.64437">
        <ele>1774.4000244141</ele>
        <time>2015-11-27T14:45:17.000Z</time>
      </trkpt>
      <trkpt lat="45.58362" lon="6.64445">
        <ele>1771.1999511719</ele>
        <time>2015-11-27T14:45:19.000Z</time>
      </trkpt>
      <trkpt lat="45.58358" lon="6.64452">
        <ele>1769.8000488281</ele>
        <time>2015-11-27T14:45:20.000Z</time>
      </trkpt>
      <trkpt lat="45.58353" lon="6.64457">
        <ele>1768.5999755859</ele>
        <time>2015-11-27T14:45:21.000Z</time>
      </trkpt>
      <trkpt lat="45.58347" lon="6.64462">
        <ele>1767.1999511719</ele>
        <time>2015-11-27T14:45:22.000Z</time>
      </trkpt>
      <trkpt lat="45.58342" lon="6.64467">
        <ele>1765.8000488281</ele>
        <time>2015-11-27T14:45:23.000Z</time>
      </trkpt>
      <trkpt lat="45.58337" lon="6.64472">
        <ele>1764.4000244141</ele>
        <time>2015-11-27T14:45:24.000Z</time>
      </trkpt>
      <trkpt lat="45.58333" lon="6.64478">
        <ele>1762.8000488281</ele>
        <time>2015-11-27T14:45:25.000Z</time>
      </trkpt>
      <trkpt lat="45.5833" lon="6.64484">
        <ele>1761.5999755859</ele>
        <time>2015-11-27T14:45:26.000Z</time>
      </trkpt>
      <trkpt lat="45.58327" lon="6.64491">
        <ele>1760.1999511719</ele>
        <time>2015-11-27T14:45:27.000Z</time>
      </trkpt>
      <trkpt lat="45.58323" lon="6.64495">
        <ele>1758.5999755859</ele>
        <time>2015-11-27T14:45:28.000Z</time>
      </trkpt>
      <trkpt lat="45.58319" lon="6.64499">
        <ele>1756.8000488281</ele>
        <time>2015-11-27T14:45:29.000Z</time>
      </trkpt>
      <trkpt lat="45.58315" lon="6.64504">
        <ele>1754.8000488281</ele>
        <time>2015-11-27T14:45:30.000Z</time>
      </trkpt>
      <trkpt lat="45.58311" lon="6.6451">
        <ele>1752.5999755859</ele>
        <time>2015-11-27T14:45:31.000Z</time>
      </trkpt>
      <trkpt lat="45.58309" lon="6.64516">
        <ele>1750.8000488281</ele>
        <time>2015-11-27T14:45:32.000Z</time>
      </trkpt>
      <trkpt lat="45.58309" lon="6.64522">
        <ele>1749</ele>
        <time>2015-11-27T14:45:33.000Z</time>
      </trkpt>
      <trkpt lat="45.58311" lon="6.64529">
        <ele>1747</ele>
        <time>2015-11-27T14:45:34.000Z</time>
      </trkpt>
      <trkpt lat="45.58312" lon="6.64532">
        <ele>1744.5999755859</ele>
        <time>2015-11-27T14:45:35.000Z</time>
      </trkpt>
      <trkpt lat="45.58313" lon="6.64533">
        <ele>1742.1999511719</ele>
        <time>2015-11-27T14:45:36.000Z</time>
      </trkpt>
      <trkpt lat="45.58314" lon="6.64534">
        <ele>1739.8000488281</ele>
        <time>2015-11-27T14:45:37.000Z</time>
      </trkpt>
      <trkpt lat="45.58314" lon="6.64535">
        <ele>1737.5999755859</ele>
        <time>2015-11-27T14:45:38.000Z</time>
      </trkpt>
      <trkpt lat="45.58314" lon="6.64537">
        <ele>1736.1999511719</ele>
        <time>2015-11-27T14:45:39.000Z</time>
      </trkpt>
      <trkpt lat="45.58314" lon="6.64539">
        <ele>1735</ele>
        <time>2015-11-27T14:45:40.000Z</time>
      </trkpt>
      <trkpt lat="45.58313" lon="6.64541">
        <ele>1733.8000488281</ele>
        <time>2015-11-27T14:45:42.000Z</time>
      </trkpt>
      <trkpt lat="45.58312" lon="6.64538">
        <ele>1731.8000488281</ele>
        <time>2015-11-27T14:45:43.000Z</time>
      </trkpt>
      <trkpt lat="45.58312" lon="6.64537">
        <ele>1730.4000244141</ele>
        <time>2015-11-27T14:45:44.000Z</time>
      </trkpt>
      <trkpt lat="45.58312" lon="6.64536">
        <ele>1728.8000488281</ele>
        <time>2015-11-27T14:45:45.000Z</time>
      </trkpt>
      <trkpt lat="45.58312" lon="6.64536">
        <ele>1727.1999511719</ele>
        <time>2015-11-27T14:45:47.000Z</time>
      </trkpt>
      <trkpt lat="45.58306" lon="6.64535">
        <ele>1726.4000244141</ele>
        <time>2015-11-27T14:45:51.000Z</time>
      </trkpt>
      <trkpt lat="45.58303" lon="6.64536">
        <ele>1726.1999511719</ele>
        <time>2015-11-27T14:45:52.000Z</time>
      </trkpt>
      <trkpt lat="45.58291" lon="6.64539">
        <ele>1724.4000244141</ele>
        <time>2015-11-27T14:45:55.000Z</time>
      </trkpt>
      <trkpt lat="45.58287" lon="6.64544">
        <ele>1723.1999511719</ele>
        <time>2015-11-27T14:45:56.000Z</time>
      </trkpt>
      <trkpt lat="45.58282" lon="6.64549">
        <ele>1722.1999511719</ele>
        <time>2015-11-27T14:45:57.000Z</time>
      </trkpt>
      <trkpt lat="45.58276" lon="6.64553">
        <ele>1721.1999511719</ele>
        <time>2015-11-27T14:45:58.000Z</time>
      </trkpt>
      <trkpt lat="45.58271" lon="6.64556">
        <ele>1719.8000488281</ele>
        <time>2015-11-27T14:45:59.000Z</time>
      </trkpt>
      <trkpt lat="45.58268" lon="6.64561">
        <ele>1718.4000244141</ele>
        <time>2015-11-27T14:46:00.000Z</time>
      </trkpt>
      <trkpt lat="45.58264" lon="6.64566">
        <ele>1716.5999755859</ele>
        <time>2015-11-27T14:46:01.000Z</time>
      </trkpt>
      <trkpt lat="45.5826" lon="6.6457">
        <ele>1714.8000488281</ele>
        <time>2015-11-27T14:46:02.000Z</time>
      </trkpt>
      <trkpt lat="45.58254" lon="6.64573">
        <ele>1713.1999511719</ele>
        <time>2015-11-27T14:46:03.000Z</time>
      </trkpt>
      <trkpt lat="45.58248" lon="6.64578">
        <ele>1711.5999755859</ele>
        <time>2015-11-27T14:46:04.000Z</time>
      </trkpt>
      <trkpt lat="45.58242" lon="6.64582">
        <ele>1710</ele>
        <time>2015-11-27T14:46:05.000Z</time>
      </trkpt>
      <trkpt lat="45.58236" lon="6.64586">
        <ele>1708.4000244141</ele>
        <time>2015-11-27T14:46:06.000Z</time>
      </trkpt>
      <trkpt lat="45.58231" lon="6.6459">
        <ele>1705.4000244141</ele>
        <time>2015-11-27T14:46:07.000Z</time>
      </trkpt>
      <trkpt lat="45.58226" lon="6.64593">
        <ele>1703.5999755859</ele>
        <time>2015-11-27T14:46:08.000Z</time>
      </trkpt>
      <trkpt lat="45.5822" lon="6.64595">
        <ele>1702</ele>
        <time>2015-11-27T14:46:09.000Z</time>
      </trkpt>
      <trkpt lat="45.58217" lon="6.64595">
        <ele>1700.5999755859</ele>
        <time>2015-11-27T14:46:10.000Z</time>
      </trkpt>
      <trkpt lat="45.58215" lon="6.64595">
        <ele>1699.4000244141</ele>
        <time>2015-11-27T14:46:11.000Z</time>
      </trkpt>
      <trkpt lat="45.58214" lon="6.64596">
        <ele>1698.4000244141</ele>
        <time>2015-11-27T14:46:12.000Z</time>
      </trkpt>
      <trkpt lat="45.58215" lon="6.64597">
        <ele>1696.8000488281</ele>
        <time>2015-11-27T14:46:14.000Z</time>
      </trkpt>
      <trkpt lat="45.58216" lon="6.64599">
        <ele>1696.4000244141</ele>
        <time>2015-11-27T14:46:15.000Z</time>
      </trkpt>
      <trkpt lat="45.58221" lon="6.64608">
        <ele>1695.5999755859</ele>
        <time>2015-11-27T14:46:18.000Z</time>
      </trkpt>
      <trkpt lat="45.58226" lon="6.64616">
        <ele>1694.5999755859</ele>
        <time>2015-11-27T14:46:21.000Z</time>
      </trkpt>
      <trkpt lat="45.58228" lon="6.64619">
        <ele>1694</ele>
        <time>2015-11-27T14:46:22.000Z</time>
      </trkpt>
      <trkpt lat="45.58229" lon="6.64623">
        <ele>1693.4000244141</ele>
        <time>2015-11-27T14:46:23.000Z</time>
      </trkpt>
      <trkpt lat="45.58235" lon="6.64634">
        <ele>1691.8000488281</ele>
        <time>2015-11-27T14:46:26.000Z</time>
      </trkpt>
      <trkpt lat="45.58236" lon="6.64636">
        <ele>1690.5999755859</ele>
        <time>2015-11-27T14:46:28.000Z</time>
      </trkpt>
      <trkpt lat="45.58237" lon="6.64639">
        <ele>1689.4000244141</ele>
        <time>2015-11-27T14:46:30.000Z</time>
      </trkpt>
      <trkpt lat="45.58236" lon="6.64639">
        <ele>1688.5999755859</ele>
        <time>2015-11-27T14:46:31.000Z</time>
      </trkpt>
      <trkpt lat="45.58236" lon="6.64638">
        <ele>1688.1999511719</ele>
        <time>2015-11-27T14:46:32.000Z</time>
      </trkpt>
      <trkpt lat="45.58235" lon="6.64636">
        <ele>1687.1999511719</ele>
        <time>2015-11-27T14:46:34.000Z</time>
      </trkpt>
      <trkpt lat="45.58235" lon="6.64636">
        <ele>1686.4000244141</ele>
        <time>2015-11-27T14:46:36.000Z</time>
      </trkpt>
      <trkpt lat="45.58235" lon="6.64636">
        <ele>1686</ele>
        <time>2015-11-27T14:46:38.000Z</time>
      </trkpt>
      <trkpt lat="45.58234" lon="6.64633">
        <ele>1685.5999755859</ele>
        <time>2015-11-27T14:46:42.000Z</time>
      </trkpt>
      <trkpt lat="45.58233" lon="6.64632">
        <ele>1684.8000488281</ele>
        <time>2015-11-27T14:46:45.000Z</time>
      </trkpt>
      <trkpt lat="45.58229" lon="6.64634">
        <ele>1684.1999511719</ele>
        <time>2015-11-27T14:46:48.000Z</time>
      </trkpt>
      <trkpt lat="45.58224" lon="6.64635">
        <ele>1683.8000488281</ele>
        <time>2015-11-27T14:46:50.000Z</time>
      </trkpt>
      <trkpt lat="45.58216" lon="6.64633">
        <ele>1682.8000488281</ele>
        <time>2015-11-27T14:46:53.000Z</time>
      </trkpt>
      <trkpt lat="45.58212" lon="6.64632">
        <ele>1681</ele>
        <time>2015-11-27T14:46:55.000Z</time>
      </trkpt>
      <trkpt lat="45.58207" lon="6.6463">
        <ele>1680</ele>
        <time>2015-11-27T14:46:57.000Z</time>
      </trkpt>
      <trkpt lat="45.58201" lon="6.64625">
        <ele>1679</ele>
        <time>2015-11-27T14:47:00.000Z</time>
      </trkpt>
      <trkpt lat="45.58196" lon="6.64622">
        <ele>1677.5999755859</ele>
        <time>2015-11-27T14:47:03.000Z</time>
      </trkpt>
      <trkpt lat="45.58193" lon="6.64624">
        <ele>1676.5999755859</ele>
        <time>2015-11-27T14:47:06.000Z</time>
      </trkpt>
      <trkpt lat="45.58194" lon="6.64627">
        <ele>1676.1999511719</ele>
        <time>2015-11-27T14:47:07.000Z</time>
      </trkpt>
      <trkpt lat="45.58194" lon="6.64635">
        <ele>1675</ele>
        <time>2015-11-27T14:47:10.000Z</time>
      </trkpt>
      <trkpt lat="45.58194" lon="6.64637">
        <ele>1674.1999511719</ele>
        <time>2015-11-27T14:47:11.000Z</time>
      </trkpt>
      <trkpt lat="45.58193" lon="6.6464">
        <ele>1673.4000244141</ele>
        <time>2015-11-27T14:47:12.000Z</time>
      </trkpt>
      <trkpt lat="45.5819" lon="6.64641">
        <ele>1672.1999511719</ele>
        <time>2015-11-27T14:47:14.000Z</time>
      </trkpt>
      <trkpt lat="45.58187" lon="6.64641">
        <ele>1671</ele>
        <time>2015-11-27T14:47:16.000Z</time>
      </trkpt>
      <trkpt lat="45.58185" lon="6.6464">
        <ele>1670.5999755859</ele>
        <time>2015-11-27T14:47:17.000Z</time>
      </trkpt>
      <trkpt lat="45.58183" lon="6.64639">
        <ele>1670</ele>
        <time>2015-11-27T14:47:18.000Z</time>
      </trkpt>
      <trkpt lat="45.58182" lon="6.6464">
        <ele>1668.8000488281</ele>
        <time>2015-11-27T14:47:19.000Z</time>
      </trkpt>
      <trkpt lat="45.58179" lon="6.64646">
        <ele>1667.5999755859</ele>
        <time>2015-11-27T14:47:21.000Z</time>
      </trkpt>
      <trkpt lat="45.58178" lon="6.64649">
        <ele>1666</ele>
        <time>2015-11-27T14:47:23.000Z</time>
      </trkpt>
      <trkpt lat="45.58177" lon="6.64649">
        <ele>1664.8000488281</ele>
        <time>2015-11-27T14:47:24.000Z</time>
      </trkpt>
      <trkpt lat="45.58176" lon="6.6465">
        <ele>1663.5999755859</ele>
        <time>2015-11-27T14:47:25.000Z</time>
      </trkpt>
      <trkpt lat="45.58175" lon="6.64655">
        <ele>1662</ele>
        <time>2015-11-27T14:47:27.000Z</time>
      </trkpt>
      <trkpt lat="45.58175" lon="6.64657">
        <ele>1661.5999755859</ele>
        <time>2015-11-27T14:47:28.000Z</time>
      </trkpt>
      <trkpt lat="45.58175" lon="6.64663">
        <ele>1660.5999755859</ele>
        <time>2015-11-27T14:47:30.000Z</time>
      </trkpt>
      <trkpt lat="45.58172" lon="6.64662">
        <ele>1658.8000488281</ele>
        <time>2015-11-27T14:47:32.000Z</time>
      </trkpt>
      <trkpt lat="45.58171" lon="6.64661">
        <ele>1657.8000488281</ele>
        <time>2015-11-27T14:47:33.000Z</time>
      </trkpt>
      <trkpt lat="45.58167" lon="6.64659">
        <ele>1655.8000488281</ele>
        <time>2015-11-27T14:47:35.000Z</time>
      </trkpt>
      <trkpt lat="45.58161" lon="6.64658">
        <ele>1654</ele>
        <time>2015-11-27T14:47:37.000Z</time>
      </trkpt>
      <trkpt lat="45.58153" lon="6.64657">
        <ele>1653.1999511719</ele>
        <time>2015-11-27T14:47:39.000Z</time>
      </trkpt>
      <trkpt lat="45.58149" lon="6.64656">
        <ele>1652.5999755859</ele>
        <time>2015-11-27T14:47:40.000Z</time>
      </trkpt>
      <trkpt lat="45.58141" lon="6.64655">
        <ele>1651.1999511719</ele>
        <time>2015-11-27T14:47:42.000Z</time>
      </trkpt>
      <trkpt lat="45.58137" lon="6.64655">
        <ele>1649.1999511719</ele>
        <time>2015-11-27T14:47:43.000Z</time>
      </trkpt>
      <trkpt lat="45.58128" lon="6.64655">
        <ele>1647.8000488281</ele>
        <time>2015-11-27T14:47:45.000Z</time>
      </trkpt>
      <trkpt lat="45.5812" lon="6.64655">
        <ele>1646.1999511719</ele>
        <time>2015-11-27T14:47:47.000Z</time>
      </trkpt>
      <trkpt lat="45.58116" lon="6.64657">
        <ele>1645.5999755859</ele>
        <time>2015-11-27T14:47:48.000Z</time>
      </trkpt>
      <trkpt lat="45.58111" lon="6.6466">
        <ele>1645</ele>
        <time>2015-11-27T14:47:49.000Z</time>
      </trkpt>
      <trkpt lat="45.58111" lon="6.6467">
        <ele>1644.5999755859</ele>
        <time>2015-11-27T14:47:51.000Z</time>
      </trkpt>
      <trkpt lat="45.58112" lon="6.64674">
        <ele>1644.1999511719</ele>
        <time>2015-11-27T14:47:52.000Z</time>
      </trkpt>
      <trkpt lat="45.58112" lon="6.64675">
        <ele>1643.4000244141</ele>
        <time>2015-11-27T14:47:53.000Z</time>
      </trkpt>
      <trkpt lat="45.58111" lon="6.64677">
        <ele>1642.1999511719</ele>
        <time>2015-11-27T14:47:54.000Z</time>
      </trkpt>
      <trkpt lat="45.58112" lon="6.64682">
        <ele>1641.1999511719</ele>
        <time>2015-11-27T14:47:55.000Z</time>
      </trkpt>
      <trkpt lat="45.58111" lon="6.64687">
        <ele>1640</ele>
        <time>2015-11-27T14:47:56.000Z</time>
      </trkpt>
      <trkpt lat="45.58111" lon="6.64691">
        <ele>1639</ele>
        <time>2015-11-27T14:47:57.000Z</time>
      </trkpt>
      <trkpt lat="45.58112" lon="6.64693">
        <ele>1637.8000488281</ele>
        <time>2015-11-27T14:47:58.000Z</time>
      </trkpt>
      <trkpt lat="45.58112" lon="6.64694">
        <ele>1636.1999511719</ele>
        <time>2015-11-27T14:47:59.000Z</time>
      </trkpt>
      <trkpt lat="45.58113" lon="6.64694">
        <ele>1634.4000244141</ele>
        <time>2015-11-27T14:48:00.000Z</time>
      </trkpt>
      <trkpt lat="45.58113" lon="6.64695">
        <ele>1633</ele>
        <time>2015-11-27T14:48:01.000Z</time>
      </trkpt>
      <trkpt lat="45.58111" lon="6.64697">
        <ele>1631.5999755859</ele>
        <time>2015-11-27T14:48:03.000Z</time>
      </trkpt>
      <trkpt lat="45.58109" lon="6.64696">
        <ele>1631.1999511719</ele>
        <time>2015-11-27T14:48:04.000Z</time>
      </trkpt>
      <trkpt lat="45.58107" lon="6.64697">
        <ele>1630.8000488281</ele>
        <time>2015-11-27T14:48:06.000Z</time>
      </trkpt>
      <trkpt lat="45.58107" lon="6.64702">
        <ele>1629.5999755859</ele>
        <time>2015-11-27T14:48:08.000Z</time>
      </trkpt>
      <trkpt lat="45.58109" lon="6.64707">
        <ele>1628.1999511719</ele>
        <time>2015-11-27T14:48:10.000Z</time>
      </trkpt>
      <trkpt lat="45.58109" lon="6.64713">
        <ele>1626.5999755859</ele>
        <time>2015-11-27T14:48:12.000Z</time>
      </trkpt>
      <trkpt lat="45.58106" lon="6.64713">
        <ele>1626</ele>
        <time>2015-11-27T14:48:13.000Z</time>
      </trkpt>
      <trkpt lat="45.58104" lon="6.64712">
        <ele>1625.1999511719</ele>
        <time>2015-11-27T14:48:14.000Z</time>
      </trkpt>
      <trkpt lat="45.581" lon="6.6471">
        <ele>1623.8000488281</ele>
        <time>2015-11-27T14:48:16.000Z</time>
      </trkpt>
      <trkpt lat="45.58096" lon="6.64708">
        <ele>1622.5999755859</ele>
        <time>2015-11-27T14:48:18.000Z</time>
      </trkpt>
      <trkpt lat="45.58094" lon="6.64709">
        <ele>1621.5999755859</ele>
        <time>2015-11-27T14:48:20.000Z</time>
      </trkpt>
      <trkpt lat="45.58095" lon="6.64712">
        <ele>1621.4000244141</ele>
        <time>2015-11-27T14:48:21.000Z</time>
      </trkpt>
      <trkpt lat="45.58095" lon="6.64719">
        <ele>1620.5999755859</ele>
        <time>2015-11-27T14:48:24.000Z</time>
      </trkpt>
      <trkpt lat="45.58095" lon="6.64722">
        <ele>1619.4000244141</ele>
        <time>2015-11-27T14:48:26.000Z</time>
      </trkpt>
      <trkpt lat="45.5809" lon="6.64727">
        <ele>1618.1999511719</ele>
        <time>2015-11-27T14:48:28.000Z</time>
      </trkpt>
      <trkpt lat="45.58088" lon="6.64726">
        <ele>1618</ele>
        <time>2015-11-27T14:48:29.000Z</time>
      </trkpt>
      <trkpt lat="45.58086" lon="6.64723">
        <ele>1616.8000488281</ele>
        <time>2015-11-27T14:48:31.000Z</time>
      </trkpt>
      <trkpt lat="45.58085" lon="6.64721">
        <ele>1615.5999755859</ele>
        <time>2015-11-27T14:48:32.000Z</time>
      </trkpt>
      <trkpt lat="45.58082" lon="6.6472">
        <ele>1615</ele>
        <time>2015-11-27T14:48:33.000Z</time>
      </trkpt>
      <trkpt lat="45.58081" lon="6.64724">
        <ele>1614.1999511719</ele>
        <time>2015-11-27T14:48:35.000Z</time>
      </trkpt>
      <trkpt lat="45.58081" lon="6.64727">
        <ele>1614</ele>
        <time>2015-11-27T14:48:36.000Z</time>
      </trkpt>
      <trkpt lat="45.58082" lon="6.64731">
        <ele>1612.8000488281</ele>
        <time>2015-11-27T14:48:38.000Z</time>
      </trkpt>
      <trkpt lat="45.58083" lon="6.64732">
        <ele>1611.5999755859</ele>
        <time>2015-11-27T14:48:39.000Z</time>
      </trkpt>
      <trkpt lat="45.58081" lon="6.64738">
        <ele>1610</ele>
        <time>2015-11-27T14:48:41.000Z</time>
      </trkpt>
      <trkpt lat="45.58078" lon="6.64742">
        <ele>1609.5999755859</ele>
        <time>2015-11-27T14:48:42.000Z</time>
      </trkpt>
      <trkpt lat="45.58075" lon="6.64747">
        <ele>1608.5999755859</ele>
        <time>2015-11-27T14:48:44.000Z</time>
      </trkpt>
      <trkpt lat="45.58074" lon="6.64748">
        <ele>1606.8000488281</ele>
        <time>2015-11-27T14:48:46.000Z</time>
      </trkpt>
      <trkpt lat="45.58074" lon="6.64748">
        <ele>1605.4000244141</ele>
        <time>2015-11-27T14:48:47.000Z</time>
      </trkpt>
      <trkpt lat="45.58074" lon="6.64748">
        <ele>1604.4000244141</ele>
        <time>2015-11-27T14:48:48.000Z</time>
      </trkpt>
      <trkpt lat="45.58074" lon="6.64748">
        <ele>1603.4000244141</ele>
        <time>2015-11-27T14:48:51.000Z</time>
      </trkpt>
      <trkpt lat="45.58074" lon="6.64748">
        <ele>1603.4000244141</ele>
        <time>2015-11-27T14:49:01.000Z</time>
      </trkpt>
      <trkpt lat="45.5807" lon="6.64751">
        <ele>1602.8000488281</ele>
        <time>2015-11-27T14:49:05.000Z</time>
      </trkpt>
      <trkpt lat="45.58069" lon="6.64748">
        <ele>1602.4000244141</ele>
        <time>2015-11-27T14:49:07.000Z</time>
      </trkpt>
      <trkpt lat="45.58068" lon="6.64747">
        <ele>1602.1999511719</ele>
        <time>2015-11-27T14:49:08.000Z</time>
      </trkpt>
      <trkpt lat="45.58061" lon="6.64744">
        <ele>1601.5999755859</ele>
        <time>2015-11-27T14:49:11.000Z</time>
      </trkpt>
      <trkpt lat="45.58053" lon="6.64736">
        <ele>1601.1999511719</ele>
        <time>2015-11-27T14:49:14.000Z</time>
      </trkpt>
      <trkpt lat="45.58049" lon="6.64727">
        <ele>1600.4000244141</ele>
        <time>2015-11-27T14:49:16.000Z</time>
      </trkpt>
      <trkpt lat="45.58046" lon="6.64723">
        <ele>1600</ele>
        <time>2015-11-27T14:49:17.000Z</time>
      </trkpt>
      <trkpt lat="45.58042" lon="6.64719">
        <ele>1599.5999755859</ele>
        <time>2015-11-27T14:49:18.000Z</time>
      </trkpt>
      <trkpt lat="45.58038" lon="6.6472">
        <ele>1598.5999755859</ele>
        <time>2015-11-27T14:49:20.000Z</time>
      </trkpt>
      <trkpt lat="45.58035" lon="6.64713">
        <ele>1597</ele>
        <time>2015-11-27T14:49:23.000Z</time>
      </trkpt>
      <trkpt lat="45.5803" lon="6.6471">
        <ele>1595.4000244141</ele>
        <time>2015-11-27T14:49:25.000Z</time>
      </trkpt>
      <trkpt lat="45.58029" lon="6.6472">
        <ele>1594.8000488281</ele>
        <time>2015-11-27T14:49:26.000Z</time>
      </trkpt>
      <trkpt lat="45.58027" lon="6.64725">
        <ele>1594</ele>
        <time>2015-11-27T14:49:27.000Z</time>
      </trkpt>
      <trkpt lat="45.58024" lon="6.64731">
        <ele>1592.8000488281</ele>
        <time>2015-11-27T14:49:29.000Z</time>
      </trkpt>
      <trkpt lat="45.58023" lon="6.64726">
        <ele>1592.1999511719</ele>
        <time>2015-11-27T14:49:30.000Z</time>
      </trkpt>
      <trkpt lat="45.58021" lon="6.64722">
        <ele>1591.5999755859</ele>
        <time>2015-11-27T14:49:31.000Z</time>
      </trkpt>
      <trkpt lat="45.58019" lon="6.64711">
        <ele>1590.5999755859</ele>
        <time>2015-11-27T14:49:33.000Z</time>
      </trkpt>
      <trkpt lat="45.58018" lon="6.64707">
        <ele>1590.4000244141</ele>
        <time>2015-11-27T14:49:34.000Z</time>
      </trkpt>
      <trkpt lat="45.58017" lon="6.64709">
        <ele>1590</ele>
        <time>2015-11-27T14:49:35.000Z</time>
      </trkpt>
      <trkpt lat="45.58019" lon="6.64722">
        <ele>1589.4000244141</ele>
        <time>2015-11-27T14:49:37.000Z</time>
      </trkpt>
      <trkpt lat="45.58021" lon="6.64735">
        <ele>1589.1999511719</ele>
        <time>2015-11-27T14:49:38.000Z</time>
      </trkpt>
      <trkpt lat="45.58021" lon="6.64739">
        <ele>1588.8000488281</ele>
        <time>2015-11-27T14:49:39.000Z</time>
      </trkpt>
      <trkpt lat="45.58022" lon="6.64744">
        <ele>1587.4000244141</ele>
        <time>2015-11-27T14:49:41.000Z</time>
      </trkpt>
      <trkpt lat="45.58022" lon="6.64744">
        <ele>1587</ele>
        <time>2015-11-27T14:49:42.000Z</time>
      </trkpt>
      <trkpt lat="45.58022" lon="6.64744">
        <ele>1586.4000244141</ele>
        <time>2015-11-27T14:49:44.000Z</time>
      </trkpt>
      <trkpt lat="45.58021" lon="6.64761">
        <ele>1586</ele>
        <time>2015-11-27T14:49:47.000Z</time>
      </trkpt>
      <trkpt lat="45.58023" lon="6.64775">
        <ele>1585.1999511719</ele>
        <time>2015-11-27T14:49:49.000Z</time>
      </trkpt>
      <trkpt lat="45.58022" lon="6.64777">
        <ele>1583.1999511719</ele>
        <time>2015-11-27T14:49:51.000Z</time>
      </trkpt>
      <trkpt lat="45.58018" lon="6.64775">
        <ele>1581.5999755859</ele>
        <time>2015-11-27T14:49:53.000Z</time>
      </trkpt>
      <trkpt lat="45.58015" lon="6.64772">
        <ele>1581.1999511719</ele>
        <time>2015-11-27T14:49:54.000Z</time>
      </trkpt>
      <trkpt lat="45.58009" lon="6.64764">
        <ele>1580</ele>
        <time>2015-11-27T14:49:56.000Z</time>
      </trkpt>
      <trkpt lat="45.58006" lon="6.64759">
        <ele>1578.5999755859</ele>
        <time>2015-11-27T14:49:58.000Z</time>
      </trkpt>
      <trkpt lat="45.58005" lon="6.6477">
        <ele>1577.4000244141</ele>
        <time>2015-11-27T14:50:00.000Z</time>
      </trkpt>
      <trkpt lat="45.58005" lon="6.64773">
        <ele>1577</ele>
        <time>2015-11-27T14:50:01.000Z</time>
      </trkpt>
      <trkpt lat="45.58006" lon="6.64776">
        <ele>1576.1999511719</ele>
        <time>2015-11-27T14:50:02.000Z</time>
      </trkpt>
      <trkpt lat="45.58008" lon="6.6478">
        <ele>1574.8000488281</ele>
        <time>2015-11-27T14:50:04.000Z</time>
      </trkpt>
      <trkpt lat="45.58007" lon="6.64784">
        <ele>1573.4000244141</ele>
        <time>2015-11-27T14:50:06.000Z</time>
      </trkpt>
      <trkpt lat="45.58004" lon="6.64787">
        <ele>1573</ele>
        <time>2015-11-27T14:50:07.000Z</time>
      </trkpt>
      <trkpt lat="45.58002" lon="6.64785">
        <ele>1572</ele>
        <time>2015-11-27T14:50:08.000Z</time>
      </trkpt>
      <trkpt lat="45.58" lon="6.64783">
        <ele>1571.4000244141</ele>
        <time>2015-11-27T14:50:09.000Z</time>
      </trkpt>
      <trkpt lat="45.57997" lon="6.64782">
        <ele>1570.5999755859</ele>
        <time>2015-11-27T14:50:10.000Z</time>
      </trkpt>
      <trkpt lat="45.57993" lon="6.6478">
        <ele>1569.4000244141</ele>
        <time>2015-11-27T14:50:12.000Z</time>
      </trkpt>
      <trkpt lat="45.57994" lon="6.6478">
        <ele>1568.4000244141</ele>
        <time>2015-11-27T14:50:14.000Z</time>
      </trkpt>
      <trkpt lat="45.57994" lon="6.64782">
        <ele>1568</ele>
        <time>2015-11-27T14:50:15.000Z</time>
      </trkpt>
      <trkpt lat="45.57999" lon="6.64789">
        <ele>1567.8000488281</ele>
        <time>2015-11-27T14:50:17.000Z</time>
      </trkpt>
      <trkpt lat="45.58002" lon="6.64793">
        <ele>1567.1999511719</ele>
        <time>2015-11-27T14:50:19.000Z</time>
      </trkpt>
      <trkpt lat="45.58002" lon="6.64795">
        <ele>1566.8000488281</ele>
        <time>2015-11-27T14:50:20.000Z</time>
      </trkpt>
      <trkpt lat="45.58001" lon="6.64797">
        <ele>1566.1999511719</ele>
        <time>2015-11-27T14:50:21.000Z</time>
      </trkpt>
      <trkpt lat="45.57996" lon="6.64798">
        <ele>1565.4000244141</ele>
        <time>2015-11-27T14:50:23.000Z</time>
      </trkpt>
      <trkpt lat="45.57994" lon="6.64795">
        <ele>1565</ele>
        <time>2015-11-27T14:50:24.000Z</time>
      </trkpt>
      <trkpt lat="45.57992" lon="6.64793">
        <ele>1564.5999755859</ele>
        <time>2015-11-27T14:50:25.000Z</time>
      </trkpt>
      <trkpt lat="45.5799" lon="6.64791">
        <ele>1564</ele>
        <time>2015-11-27T14:50:26.000Z</time>
      </trkpt>
      <trkpt lat="45.57989" lon="6.64791">
        <ele>1562.5999755859</ele>
        <time>2015-11-27T14:50:28.000Z</time>
      </trkpt>
      <trkpt lat="45.57989" lon="6.64787">
        <ele>1562</ele>
        <time>2015-11-27T14:50:29.000Z</time>
      </trkpt>
      <trkpt lat="45.5799" lon="6.6479">
        <ele>1561.5999755859</ele>
        <time>2015-11-27T14:50:30.000Z</time>
      </trkpt>
      <trkpt lat="45.57992" lon="6.64793">
        <ele>1561.1999511719</ele>
        <time>2015-11-27T14:50:31.000Z</time>
      </trkpt>
      <trkpt lat="45.57993" lon="6.64803">
        <ele>1560.5999755859</ele>
        <time>2015-11-27T14:50:33.000Z</time>
      </trkpt>
      <trkpt lat="45.57992" lon="6.64809">
        <ele>1559</ele>
        <time>2015-11-27T14:50:35.000Z</time>
      </trkpt>
      <trkpt lat="45.57988" lon="6.64803">
        <ele>1556.8000488281</ele>
        <time>2015-11-27T14:50:37.000Z</time>
      </trkpt>
      <trkpt lat="45.57987" lon="6.648">
        <ele>1555.8000488281</ele>
        <time>2015-11-27T14:50:38.000Z</time>
      </trkpt>
      <trkpt lat="45.57986" lon="6.64797">
        <ele>1554</ele>
        <time>2015-11-27T14:50:40.000Z</time>
      </trkpt>
      <trkpt lat="45.57982" lon="6.64789">
        <ele>1552.8000488281</ele>
        <time>2015-11-27T14:50:43.000Z</time>
      </trkpt>
      <trkpt lat="45.57983" lon="6.64804">
        <ele>1552</ele>
        <time>2015-11-27T14:50:46.000Z</time>
      </trkpt>
      <trkpt lat="45.57982" lon="6.6481">
        <ele>1551.5999755859</ele>
        <time>2015-11-27T14:50:47.000Z</time>
      </trkpt>
      <trkpt lat="45.57975" lon="6.64813">
        <ele>1549.8000488281</ele>
        <time>2015-11-27T14:50:49.000Z</time>
      </trkpt>
      <trkpt lat="45.5797" lon="6.64814">
        <ele>1548.5999755859</ele>
        <time>2015-11-27T14:50:50.000Z</time>
      </trkpt>
      <trkpt lat="45.57966" lon="6.6482">
        <ele>1547.5999755859</ele>
        <time>2015-11-27T14:50:51.000Z</time>
      </trkpt>
      <trkpt lat="45.57962" lon="6.64825">
        <ele>1546.4000244141</ele>
        <time>2015-11-27T14:50:52.000Z</time>
      </trkpt>
      <trkpt lat="45.57957" lon="6.6483">
        <ele>1545.4000244141</ele>
        <time>2015-11-27T14:50:53.000Z</time>
      </trkpt>
      <trkpt lat="45.57952" lon="6.64833">
        <ele>1544</ele>
        <time>2015-11-27T14:50:54.000Z</time>
      </trkpt>
      <trkpt lat="45.57947" lon="6.6483">
        <ele>1542.4000244141</ele>
        <time>2015-11-27T14:50:55.000Z</time>
      </trkpt>
      <trkpt lat="45.57943" lon="6.64828">
        <ele>1539.1999511719</ele>
        <time>2015-11-27T14:50:56.000Z</time>
      </trkpt>
      <trkpt lat="45.57938" lon="6.64831">
        <ele>1537.5999755859</ele>
        <time>2015-11-27T14:50:57.000Z</time>
      </trkpt>
      <trkpt lat="45.57936" lon="6.64835">
        <ele>1536.1999511719</ele>
        <time>2015-11-27T14:50:58.000Z</time>
      </trkpt>
      <trkpt lat="45.57933" lon="6.64837">
        <ele>1535.1999511719</ele>
        <time>2015-11-27T14:50:59.000Z</time>
      </trkpt>
      <trkpt lat="45.5793" lon="6.64841">
        <ele>1534</ele>
        <time>2015-11-27T14:51:00.000Z</time>
      </trkpt>
      <trkpt lat="45.57927" lon="6.64846">
        <ele>1532.8000488281</ele>
        <time>2015-11-27T14:51:01.000Z</time>
      </trkpt>
      <trkpt lat="45.57924" lon="6.64851">
        <ele>1531.5999755859</ele>
        <time>2015-11-27T14:51:02.000Z</time>
      </trkpt>
      <trkpt lat="45.57923" lon="6.64855">
        <ele>1530.5999755859</ele>
        <time>2015-11-27T14:51:03.000Z</time>
      </trkpt>
      <trkpt lat="45.57923" lon="6.64859">
        <ele>1529.4000244141</ele>
        <time>2015-11-27T14:51:04.000Z</time>
      </trkpt>
      <trkpt lat="45.57921" lon="6.64862">
        <ele>1528</ele>
        <time>2015-11-27T14:51:05.000Z</time>
      </trkpt>
      <trkpt lat="45.57918" lon="6.64865">
        <ele>1526.5999755859</ele>
        <time>2015-11-27T14:51:06.000Z</time>
      </trkpt>
      <trkpt lat="45.57914" lon="6.64868">
        <ele>1525.1999511719</ele>
        <time>2015-11-27T14:51:07.000Z</time>
      </trkpt>
      <trkpt lat="45.57911" lon="6.64871">
        <ele>1524</ele>
        <time>2015-11-27T14:51:08.000Z</time>
      </trkpt>
      <trkpt lat="45.5791" lon="6.64874">
        <ele>1522.8000488281</ele>
        <time>2015-11-27T14:51:09.000Z</time>
      </trkpt>
      <trkpt lat="45.57912" lon="6.64878">
        <ele>1521.8000488281</ele>
        <time>2015-11-27T14:51:10.000Z</time>
      </trkpt>
      <trkpt lat="45.57915" lon="6.64883">
        <ele>1520.5999755859</ele>
        <time>2015-11-27T14:51:11.000Z</time>
      </trkpt>
      <trkpt lat="45.57917" lon="6.64887">
        <ele>1519.4000244141</ele>
        <time>2015-11-27T14:51:12.000Z</time>
      </trkpt>
      <trkpt lat="45.5792" lon="6.64892">
        <ele>1518.5999755859</ele>
        <time>2015-11-27T14:51:13.000Z</time>
      </trkpt>
      <trkpt lat="45.5792" lon="6.64897">
        <ele>1517.8000488281</ele>
        <time>2015-11-27T14:51:14.000Z</time>
      </trkpt>
      <trkpt lat="45.57918" lon="6.64906">
        <ele>1516</ele>
        <time>2015-11-27T14:51:16.000Z</time>
      </trkpt>
      <trkpt lat="45.57917" lon="6.64909">
        <ele>1515</ele>
        <time>2015-11-27T14:51:17.000Z</time>
      </trkpt>
      <trkpt lat="45.57915" lon="6.64914">
        <ele>1514</ele>
        <time>2015-11-27T14:51:18.000Z</time>
      </trkpt>
      <trkpt lat="45.57914" lon="6.64918">
        <ele>1513</ele>
        <time>2015-11-27T14:51:19.000Z</time>
      </trkpt>
      <trkpt lat="45.57917" lon="6.64919">
        <ele>1511.1999511719</ele>
        <time>2015-11-27T14:51:20.000Z</time>
      </trkpt>
      <trkpt lat="45.5792" lon="6.6492">
        <ele>1510</ele>
        <time>2015-11-27T14:51:21.000Z</time>
      </trkpt>
      <trkpt lat="45.57922" lon="6.64921">
        <ele>1509</ele>
        <time>2015-11-27T14:51:22.000Z</time>
      </trkpt>
      <trkpt lat="45.57923" lon="6.64927">
        <ele>1507.5999755859</ele>
        <time>2015-11-27T14:51:24.000Z</time>
      </trkpt>
      <trkpt lat="45.57921" lon="6.64931">
        <ele>1506.1999511719</ele>
        <time>2015-11-27T14:51:26.000Z</time>
      </trkpt>
      <trkpt lat="45.5792" lon="6.64937">
        <ele>1505</ele>
        <time>2015-11-27T14:51:28.000Z</time>
      </trkpt>
      <trkpt lat="45.57922" lon="6.64944">
        <ele>1503.4000244141</ele>
        <time>2015-11-27T14:51:30.000Z</time>
      </trkpt>
      <trkpt lat="45.57921" lon="6.64948">
        <ele>1502.1999511719</ele>
        <time>2015-11-27T14:51:31.000Z</time>
      </trkpt>
      <trkpt lat="45.57921" lon="6.64951">
        <ele>1501</ele>
        <time>2015-11-27T14:51:32.000Z</time>
      </trkpt>
      <trkpt lat="45.5792" lon="6.64953">
        <ele>1499.8000488281</ele>
        <time>2015-11-27T14:51:33.000Z</time>
      </trkpt>
      <trkpt lat="45.57919" lon="6.64956">
        <ele>1498.5999755859</ele>
        <time>2015-11-27T14:51:34.000Z</time>
      </trkpt>
      <trkpt lat="45.57917" lon="6.6496">
        <ele>1497.4000244141</ele>
        <time>2015-11-27T14:51:35.000Z</time>
      </trkpt>
      <trkpt lat="45.57913" lon="6.64965">
        <ele>1496.1999511719</ele>
        <time>2015-11-27T14:51:36.000Z</time>
      </trkpt>
      <trkpt lat="45.57909" lon="6.64972">
        <ele>1495</ele>
        <time>2015-11-27T14:51:37.000Z</time>
      </trkpt>
      <trkpt lat="45.57906" lon="6.6498">
        <ele>1493.8000488281</ele>
        <time>2015-11-27T14:51:38.000Z</time>
      </trkpt>
      <trkpt lat="45.57901" lon="6.64988">
        <ele>1492.5999755859</ele>
        <time>2015-11-27T14:51:39.000Z</time>
      </trkpt>
      <trkpt lat="45.57898" lon="6.64997">
        <ele>1491.4000244141</ele>
        <time>2015-11-27T14:51:40.000Z</time>
      </trkpt>
      <trkpt lat="45.57895" lon="6.65005">
        <ele>1490</ele>
        <time>2015-11-27T14:51:41.000Z</time>
      </trkpt>
      <trkpt lat="45.57891" lon="6.65012">
        <ele>1488.4000244141</ele>
        <time>2015-11-27T14:51:42.000Z</time>
      </trkpt>
      <trkpt lat="45.57887" lon="6.65019">
        <ele>1486.5999755859</ele>
        <time>2015-11-27T14:51:43.000Z</time>
      </trkpt>
      <trkpt lat="45.57881" lon="6.65022">
        <ele>1483.4000244141</ele>
        <time>2015-11-27T14:51:45.000Z</time>
      </trkpt>
      <trkpt lat="45.57876" lon="6.65026">
        <ele>1482</ele>
        <time>2015-11-27T14:51:46.000Z</time>
      </trkpt>
      <trkpt lat="45.5787" lon="6.65029">
        <ele>1480.5999755859</ele>
        <time>2015-11-27T14:51:47.000Z</time>
      </trkpt>
      <trkpt lat="45.57864" lon="6.65033">
        <ele>1479.1999511719</ele>
        <time>2015-11-27T14:51:48.000Z</time>
      </trkpt>
      <trkpt lat="45.57859" lon="6.65038">
        <ele>1478</ele>
        <time>2015-11-27T14:51:49.000Z</time>
      </trkpt>
      <trkpt lat="45.57855" lon="6.65045">
        <ele>1476.8000488281</ele>
        <time>2015-11-27T14:51:50.000Z</time>
      </trkpt>
      <trkpt lat="45.57852" lon="6.65052">
        <ele>1475.4000244141</ele>
        <time>2015-11-27T14:51:51.000Z</time>
      </trkpt>
      <trkpt lat="45.5785" lon="6.65058">
        <ele>1474</ele>
        <time>2015-11-27T14:51:52.000Z</time>
      </trkpt>
      <trkpt lat="45.57849" lon="6.65064">
        <ele>1472.4000244141</ele>
        <time>2015-11-27T14:51:53.000Z</time>
      </trkpt>
      <trkpt lat="45.57847" lon="6.6507">
        <ele>1470.8000488281</ele>
        <time>2015-11-27T14:51:54.000Z</time>
      </trkpt>
      <trkpt lat="45.57847" lon="6.65077">
        <ele>1469.4000244141</ele>
        <time>2015-11-27T14:51:55.000Z</time>
      </trkpt>
      <trkpt lat="45.57849" lon="6.65081">
        <ele>1468.1999511719</ele>
        <time>2015-11-27T14:51:56.000Z</time>
      </trkpt>
      <trkpt lat="45.57851" lon="6.65084">
        <ele>1467</ele>
        <time>2015-11-27T14:51:57.000Z</time>
      </trkpt>
      <trkpt lat="45.57852" lon="6.65084">
        <ele>1465.8000488281</ele>
        <time>2015-11-27T14:51:58.000Z</time>
      </trkpt>
      <trkpt lat="45.57855" lon="6.65084">
        <ele>1464.8000488281</ele>
        <time>2015-11-27T14:51:59.000Z</time>
      </trkpt>
      <trkpt lat="45.57855" lon="6.65084">
        <ele>1463.1999511719</ele>
        <time>2015-11-27T14:52:01.000Z</time>
      </trkpt>
      <trkpt lat="45.57862" lon="6.65091">
        <ele>1462.4000244141</ele>
        <time>2015-11-27T14:52:06.000Z</time>
      </trkpt>
      <trkpt lat="45.57861" lon="6.65095">
        <ele>1462.4000244141</ele>
        <time>2015-11-27T14:52:07.000Z</time>
      </trkpt>
      <trkpt lat="45.57858" lon="6.65098">
        <ele>1462.1999511719</ele>
        <time>2015-11-27T14:52:08.000Z</time>
      </trkpt>
      <trkpt lat="45.57855" lon="6.65099">
        <ele>1461.4000244141</ele>
        <time>2015-11-27T14:52:09.000Z</time>
      </trkpt>
      <trkpt lat="45.5785" lon="6.65102">
        <ele>1459.5999755859</ele>
        <time>2015-11-27T14:52:11.000Z</time>
      </trkpt>
      <trkpt lat="45.57848" lon="6.65111">
        <ele>1457.8000488281</ele>
        <time>2015-11-27T14:52:13.000Z</time>
      </trkpt>
      <trkpt lat="45.57841" lon="6.65114">
        <ele>1455.8000488281</ele>
        <time>2015-11-27T14:52:15.000Z</time>
      </trkpt>
      <trkpt lat="45.57839" lon="6.65116">
        <ele>1454.5999755859</ele>
        <time>2015-11-27T14:52:16.000Z</time>
      </trkpt>
      <trkpt lat="45.57836" lon="6.65119">
        <ele>1453.4000244141</ele>
        <time>2015-11-27T14:52:17.000Z</time>
      </trkpt>
      <trkpt lat="45.57834" lon="6.65122">
        <ele>1452.4000244141</ele>
        <time>2015-11-27T14:52:18.000Z</time>
      </trkpt>
      <trkpt lat="45.57831" lon="6.65125">
        <ele>1451.4000244141</ele>
        <time>2015-11-27T14:52:19.000Z</time>
      </trkpt>
      <trkpt lat="45.57829" lon="6.65127">
        <ele>1450.1999511719</ele>
        <time>2015-11-27T14:52:20.000Z</time>
      </trkpt>
      <trkpt lat="45.57827" lon="6.65129">
        <ele>1449</ele>
        <time>2015-11-27T14:52:21.000Z</time>
      </trkpt>
      <trkpt lat="45.57826" lon="6.65133">
        <ele>1447.5999755859</ele>
        <time>2015-11-27T14:52:22.000Z</time>
      </trkpt>
      <trkpt lat="45.57824" lon="6.65137">
        <ele>1446.4000244141</ele>
        <time>2015-11-27T14:52:23.000Z</time>
      </trkpt>
      <trkpt lat="45.57823" lon="6.65142">
        <ele>1445.4000244141</ele>
        <time>2015-11-27T14:52:24.000Z</time>
      </trkpt>
      <trkpt lat="45.57821" lon="6.6515">
        <ele>1443.1999511719</ele>
        <time>2015-11-27T14:52:26.000Z</time>
      </trkpt>
      <trkpt lat="45.5782" lon="6.65152">
        <ele>1441.8000488281</ele>
        <time>2015-11-27T14:52:27.000Z</time>
      </trkpt>
      <trkpt lat="45.57817" lon="6.65156">
        <ele>1440.4000244141</ele>
        <time>2015-11-27T14:52:28.000Z</time>
      </trkpt>
      <trkpt lat="45.57814" lon="6.6516">
        <ele>1438.8000488281</ele>
        <time>2015-11-27T14:52:29.000Z</time>
      </trkpt>
      <trkpt lat="45.57813" lon="6.65165">
        <ele>1437.5999755859</ele>
        <time>2015-11-27T14:52:30.000Z</time>
      </trkpt>
      <trkpt lat="45.57811" lon="6.65169">
        <ele>1436.1999511719</ele>
        <time>2015-11-27T14:52:31.000Z</time>
      </trkpt>
      <trkpt lat="45.5781" lon="6.65175">
        <ele>1434.8000488281</ele>
        <time>2015-11-27T14:52:32.000Z</time>
      </trkpt>
      <trkpt lat="45.57809" lon="6.65181">
        <ele>1431.8000488281</ele>
        <time>2015-11-27T14:52:33.000Z</time>
      </trkpt>
      <trkpt lat="45.57807" lon="6.65185">
        <ele>1430.4000244141</ele>
        <time>2015-11-27T14:52:34.000Z</time>
      </trkpt>
      <trkpt lat="45.57805" lon="6.6519">
        <ele>1429.1999511719</ele>
        <time>2015-11-27T14:52:35.000Z</time>
      </trkpt>
      <trkpt lat="45.578" lon="6.65194">
        <ele>1428</ele>
        <time>2015-11-27T14:52:36.000Z</time>
      </trkpt>
      <trkpt lat="45.57795" lon="6.65198">
        <ele>1426.5999755859</ele>
        <time>2015-11-27T14:52:37.000Z</time>
      </trkpt>
      <trkpt lat="45.5779" lon="6.65201">
        <ele>1425.1999511719</ele>
        <time>2015-11-27T14:52:38.000Z</time>
      </trkpt>
      <trkpt lat="45.57792" lon="6.65208">
        <ele>1424</ele>
        <time>2015-11-27T14:52:39.000Z</time>
      </trkpt>
      <trkpt lat="45.57791" lon="6.65214">
        <ele>1422.5999755859</ele>
        <time>2015-11-27T14:52:40.000Z</time>
      </trkpt>
      <trkpt lat="45.57792" lon="6.6522">
        <ele>1421.4000244141</ele>
        <time>2015-11-27T14:52:41.000Z</time>
      </trkpt>
      <trkpt lat="45.57792" lon="6.65226">
        <ele>1420.1999511719</ele>
        <time>2015-11-27T14:52:42.000Z</time>
      </trkpt>
      <trkpt lat="45.57793" lon="6.65233">
        <ele>1419.1999511719</ele>
        <time>2015-11-27T14:52:43.000Z</time>
      </trkpt>
      <trkpt lat="45.57791" lon="6.65239">
        <ele>1418.1999511719</ele>
        <time>2015-11-27T14:52:44.000Z</time>
      </trkpt>
      <trkpt lat="45.57794" lon="6.65244">
        <ele>1417.1999511719</ele>
        <time>2015-11-27T14:52:45.000Z</time>
      </trkpt>
      <trkpt lat="45.57796" lon="6.65248">
        <ele>1416</ele>
        <time>2015-11-27T14:52:46.000Z</time>
      </trkpt>
      <trkpt lat="45.57797" lon="6.65252">
        <ele>1414.5999755859</ele>
        <time>2015-11-27T14:52:47.000Z</time>
      </trkpt>
      <trkpt lat="45.57797" lon="6.65255">
        <ele>1413.1999511719</ele>
        <time>2015-11-27T14:52:48.000Z</time>
      </trkpt>
      <trkpt lat="45.57797" lon="6.65258">
        <ele>1411.8000488281</ele>
        <time>2015-11-27T14:52:49.000Z</time>
      </trkpt>
      <trkpt lat="45.57797" lon="6.65259">
        <ele>1410.5999755859</ele>
        <time>2015-11-27T14:52:50.000Z</time>
      </trkpt>
      <trkpt lat="45.57798" lon="6.6526">
        <ele>1409.8000488281</ele>
        <time>2015-11-27T14:52:51.000Z</time>
      </trkpt>
      <trkpt lat="45.57799" lon="6.6526">
        <ele>1409.1999511719</ele>
        <time>2015-11-27T14:52:52.000Z</time>
      </trkpt>
      <trkpt lat="45.57799" lon="6.6526">
        <ele>1408.1999511719</ele>
        <time>2015-11-27T14:52:55.000Z</time>
      </trkpt>
      <trkpt lat="45.57799" lon="6.6526">
        <ele>1407.5999755859</ele>
        <time>2015-11-27T14:52:58.000Z</time>
      </trkpt>
      <trkpt lat="45.57793" lon="6.6526">
        <ele>1407.1999511719</ele>
        <time>2015-11-27T14:53:02.000Z</time>
      </trkpt>
      <trkpt lat="45.57793" lon="6.6526">
        <ele>1407</ele>
        <time>2015-11-27T14:53:03.000Z</time>
      </trkpt>
      <trkpt lat="45.57793" lon="6.6526">
        <ele>1406.5999755859</ele>
        <time>2015-11-27T14:53:05.000Z</time>
      </trkpt>
      <trkpt lat="45.57795" lon="6.65261">
        <ele>1405.8000488281</ele>
        <time>2015-11-27T14:53:08.000Z</time>
      </trkpt>
      <trkpt lat="45.57798" lon="6.65262">
        <ele>1405.5999755859</ele>
        <time>2015-11-27T14:53:10.000Z</time>
      </trkpt>
      <trkpt lat="45.57807" lon="6.65271">
        <ele>1404.8000488281</ele>
        <time>2015-11-27T14:53:14.000Z</time>
      </trkpt>
      <trkpt lat="45.57809" lon="6.65275">
        <ele>1404.5999755859</ele>
        <time>2015-11-27T14:53:15.000Z</time>
      </trkpt>
      <trkpt lat="45.57812" lon="6.65279">
        <ele>1403.5999755859</ele>
        <time>2015-11-27T14:53:18.000Z</time>
      </trkpt>
      <trkpt lat="45.57812" lon="6.65279">
        <ele>1402.5999755859</ele>
        <time>2015-11-27T14:53:21.000Z</time>
      </trkpt>
      <trkpt lat="45.57812" lon="6.65279">
        <ele>1402.4000244141</ele>
        <time>2015-11-27T14:53:23.000Z</time>
      </trkpt>
      <trkpt lat="45.57812" lon="6.65279">
        <ele>1402.1999511719</ele>
        <time>2015-11-27T14:53:33.000Z</time>
      </trkpt>
      <trkpt lat="45.57812" lon="6.65279">
        <ele>1402.1999511719</ele>
        <time>2015-11-27T14:53:48.000Z</time>
      </trkpt>
      <trkpt lat="45.57812" lon="6.65278">
        <ele>1402</ele>
        <time>2015-11-27T14:54:03.000Z</time>
      </trkpt>
      <trkpt lat="45.57812" lon="6.65278">
        <ele>1402</ele>
        <time>2015-11-27T14:54:16.000Z</time>
      </trkpt>
      <trkpt lat="45.57812" lon="6.65278">
        <ele>1402.1999511719</ele>
        <time>2015-11-27T14:54:32.000Z</time>
      </trkpt>
      <trkpt lat="45.57812" lon="6.65278">
        <ele>1402</ele>
        <time>2015-11-27T14:54:47.000Z</time>
      </trkpt>
      <trkpt lat="45.57815" lon="6.65281">
        <ele>1402</ele>
        <time>2015-11-27T14:54:53.000Z</time>
      </trkpt>
      <trkpt lat="45.57818" lon="6.65282">
        <ele>1402.1999511719</ele>
        <time>2015-11-27T14:55:00.000Z</time>
      </trkpt>
      <trkpt lat="45.57823" lon="6.65283">
        <ele>1402.4000244141</ele>
        <time>2015-11-27T14:55:08.000Z</time>
      </trkpt>
      <trkpt lat="45.57828" lon="6.65285">
        <ele>1402.4000244141</ele>
        <time>2015-11-27T14:55:13.000Z</time>
      </trkpt>
      <trkpt lat="45.57836" lon="6.65287">
        <ele>1402.8000488281</ele>
        <time>2015-11-27T14:55:19.000Z</time>
      </trkpt>
      <trkpt lat="45.57837" lon="6.65288">
        <ele>1403.1999511719</ele>
        <time>2015-11-27T14:55:25.000Z</time>
      </trkpt>
      <trkpt lat="45.57844" lon="6.6529">
        <ele>1403</ele>
        <time>2015-11-27T14:55:30.000Z</time>
      </trkpt>
      <trkpt lat="45.57854" lon="6.65285">
        <ele>1403.5999755859</ele>
        <time>2015-11-27T14:55:37.000Z</time>
      </trkpt>
      <trkpt lat="45.57863" lon="6.6529">
        <ele>1404</ele>
        <time>2015-11-27T14:55:44.000Z</time>
      </trkpt>
      <trkpt lat="45.57872" lon="6.65289">
        <ele>1404.5999755859</ele>
        <time>2015-11-27T14:55:50.000Z</time>
      </trkpt>
      <trkpt lat="45.57874" lon="6.65288">
        <ele>1404.8000488281</ele>
        <time>2015-11-27T14:55:52.000Z</time>
      </trkpt>
      <trkpt lat="45.57881" lon="6.65291">
        <ele>1405.4000244141</ele>
        <time>2015-11-27T14:55:58.000Z</time>
      </trkpt>
      <trkpt lat="45.57885" lon="6.6529">
        <ele>1405.8000488281</ele>
        <time>2015-11-27T14:56:01.000Z</time>
      </trkpt>
      <trkpt lat="45.57891" lon="6.6529">
        <ele>1406.1999511719</ele>
        <time>2015-11-27T14:56:06.000Z</time>
      </trkpt>
      <trkpt lat="45.57898" lon="6.65289">
        <ele>1406.8000488281</ele>
        <time>2015-11-27T14:56:12.000Z</time>
      </trkpt>
      <trkpt lat="45.57908" lon="6.65288">
        <ele>1407.5999755859</ele>
        <time>2015-11-27T14:56:19.000Z</time>
      </trkpt>
      <trkpt lat="45.57911" lon="6.65288">
        <ele>1407.8000488281</ele>
        <time>2015-11-27T14:56:21.000Z</time>
      </trkpt>
      <trkpt lat="45.57918" lon="6.65287">
        <ele>1408.4000244141</ele>
        <time>2015-11-27T14:56:27.000Z</time>
      </trkpt>
      <trkpt lat="45.57922" lon="6.65289">
        <ele>1409</ele>
        <time>2015-11-27T14:56:30.000Z</time>
      </trkpt>
      <trkpt lat="45.57928" lon="6.65289">
        <ele>1409.8000488281</ele>
        <time>2015-11-27T14:56:35.000Z</time>
      </trkpt>
      <trkpt lat="45.5793" lon="6.65289">
        <ele>1410</ele>
        <time>2015-11-27T14:56:37.000Z</time>
      </trkpt>
      <trkpt lat="45.5794" lon="6.65285">
        <ele>1410.8000488281</ele>
        <time>2015-11-27T14:56:43.000Z</time>
      </trkpt>
      <trkpt lat="45.57942" lon="6.65286">
        <ele>1411</ele>
        <time>2015-11-27T14:56:45.000Z</time>
      </trkpt>
      <trkpt lat="45.57955" lon="6.65281">
        <ele>1412</ele>
        <time>2015-11-27T14:56:51.000Z</time>
      </trkpt>
      <trkpt lat="45.57957" lon="6.6528">
        <ele>1412</ele>
        <time>2015-11-27T14:56:52.000Z</time>
      </trkpt>
      <trkpt lat="45.57967" lon="6.65275">
        <ele>1412.8000488281</ele>
        <time>2015-11-27T14:56:58.000Z</time>
      </trkpt>
      <trkpt lat="45.57971" lon="6.65275">
        <ele>1413.1999511719</ele>
        <time>2015-11-27T14:57:00.000Z</time>
      </trkpt>
      <trkpt lat="45.57978" lon="6.65272">
        <ele>1414</ele>
        <time>2015-11-27T14:57:05.000Z</time>
      </trkpt>
      <trkpt lat="45.57981" lon="6.65271">
        <ele>1414.1999511719</ele>
        <time>2015-11-27T14:57:07.000Z</time>
      </trkpt>
      <trkpt lat="45.57989" lon="6.65267">
        <ele>1415</ele>
        <time>2015-11-27T14:57:12.000Z</time>
      </trkpt>
      <trkpt lat="45.57992" lon="6.65266">
        <ele>1415.1999511719</ele>
        <time>2015-11-27T14:57:14.000Z</time>
      </trkpt>
      <trkpt lat="45.58" lon="6.65262">
        <ele>1416</ele>
        <time>2015-11-27T14:57:19.000Z</time>
      </trkpt>
      <trkpt lat="45.58002" lon="6.65262">
        <ele>1416.4000244141</ele>
        <time>2015-11-27T14:57:21.000Z</time>
      </trkpt>
      <trkpt lat="45.58008" lon="6.6526">
        <ele>1416.5999755859</ele>
        <time>2015-11-27T14:57:25.000Z</time>
      </trkpt>
      <trkpt lat="45.58015" lon="6.65256">
        <ele>1417.4000244141</ele>
        <time>2015-11-27T14:57:31.000Z</time>
      </trkpt>
      <trkpt lat="45.58016" lon="6.65256">
        <ele>1417.4000244141</ele>
        <time>2015-11-27T14:57:32.000Z</time>
      </trkpt>
      <trkpt lat="45.58026" lon="6.65254">
        <ele>1418.4000244141</ele>
        <time>2015-11-27T14:57:40.000Z</time>
      </trkpt>
      <trkpt lat="45.58034" lon="6.65253">
        <ele>1419.1999511719</ele>
        <time>2015-11-27T14:57:47.000Z</time>
      </trkpt>
      <trkpt lat="45.58036" lon="6.65252">
        <ele>1419.5999755859</ele>
        <time>2015-11-27T14:57:49.000Z</time>
      </trkpt>
      <trkpt lat="45.58037" lon="6.65249">
        <ele>1419.8000488281</ele>
        <time>2015-11-27T14:57:56.000Z</time>
      </trkpt>
      <trkpt lat="45.58038" lon="6.65251">
        <ele>1419.8000488281</ele>
        <time>2015-11-27T14:58:09.000Z</time>
      </trkpt>
      <trkpt lat="45.5804" lon="6.65245">
        <ele>1419.8000488281</ele>
        <time>2015-11-27T14:58:22.000Z</time>
      </trkpt>
      <trkpt lat="45.5804" lon="6.65245">
        <ele>1419.8000488281</ele>
        <time>2015-11-27T14:58:33.000Z</time>
      </trkpt>
      <trkpt lat="45.5804" lon="6.65245">
        <ele>1419.8000488281</ele>
        <time>2015-11-27T14:58:39.000Z</time>
      </trkpt>
      <trkpt lat="45.5804" lon="6.65245">
        <ele>1419.8000488281</ele>
        <time>2015-11-27T14:58:46.000Z</time>
      </trkpt>
    </trkseg>
  </trk>
</gpx>